<?xml version="1.0" encoding="UTF-8" standalone="no" ?>
<gpx xmlns="http://www.topografix.com/GPX/1/1" xmlns:xsi="http://www.w3.org/2001/XMLSchema-instance" xsi:schemaLocation="http://www.topografix.com/GPX/1/1 http://www.topografix.com/GPX/1/1/gpx.xsd" version="1.1" creator="VisuGPX - https://www.visugpx.com">
  <metadata>
    <name>Jura Rando - Les Rousses - Le Manon</name>
    <desc><![CDATA[Jura Rando - Les Rousses - Le Manon]]></desc>
  </metadata>
  <trk>
    <name><![CDATA[Jura Rando - Les Rousses - Le Manon]]></name>
    <trkseg>
      <trkpt lat="46.48451" lon="6.05967">
        <ele>1108.8000488281</ele>
        <time>2018-05-10T07:43:20.000Z</time>
      </trkpt>
      <trkpt lat="46.48446" lon="6.05975">
        <ele>1109</ele>
        <time>2018-05-10T07:43:24.000Z</time>
      </trkpt>
      <trkpt lat="46.48444" lon="6.05979">
        <ele>1109.1999511719</ele>
        <time>2018-05-10T07:43:26.000Z</time>
      </trkpt>
      <trkpt lat="46.48443" lon="6.05986">
        <ele>1109.4000244141</ele>
        <time>2018-05-10T07:43:30.000Z</time>
      </trkpt>
      <trkpt lat="46.48438" lon="6.05988">
        <ele>1109.5999755859</ele>
        <time>2018-05-10T07:43:35.000Z</time>
      </trkpt>
      <trkpt lat="46.48435" lon="6.05989">
        <ele>1109.5999755859</ele>
        <time>2018-05-10T07:43:38.000Z</time>
      </trkpt>
      <trkpt lat="46.48428" lon="6.05994">
        <ele>1109.8000488281</ele>
        <time>2018-05-10T07:43:44.000Z</time>
      </trkpt>
      <trkpt lat="46.4842" lon="6.06004">
        <ele>1110.4000244141</ele>
        <time>2018-05-10T07:43:52.000Z</time>
      </trkpt>
      <trkpt lat="46.48416" lon="6.0601">
        <ele>1110.8000488281</ele>
        <time>2018-05-10T07:44:00.000Z</time>
      </trkpt>
      <trkpt lat="46.48413" lon="6.06011">
        <ele>1111</ele>
        <time>2018-05-10T07:44:03.000Z</time>
      </trkpt>
      <trkpt lat="46.48408" lon="6.06006">
        <ele>1110.8000488281</ele>
        <time>2018-05-10T07:44:07.000Z</time>
      </trkpt>
      <trkpt lat="46.48402" lon="6.06006">
        <ele>1110.8000488281</ele>
        <time>2018-05-10T07:44:11.000Z</time>
      </trkpt>
      <trkpt lat="46.48393" lon="6.06014">
        <ele>1111.8000488281</ele>
        <time>2018-05-10T07:44:19.000Z</time>
      </trkpt>
      <trkpt lat="46.48381" lon="6.06024">
        <ele>1113.4000244141</ele>
        <time>2018-05-10T07:44:29.000Z</time>
      </trkpt>
      <trkpt lat="46.4837" lon="6.06025">
        <ele>1114.4000244141</ele>
        <time>2018-05-10T07:44:38.000Z</time>
      </trkpt>
      <trkpt lat="46.48364" lon="6.06025">
        <ele>1114.8000488281</ele>
        <time>2018-05-10T07:44:45.000Z</time>
      </trkpt>
      <trkpt lat="46.4836" lon="6.06028">
        <ele>1114.8000488281</ele>
        <time>2018-05-10T07:45:09.000Z</time>
      </trkpt>
      <trkpt lat="46.4836" lon="6.06027">
        <ele>1114.8000488281</ele>
        <time>2018-05-10T07:45:14.000Z</time>
      </trkpt>
      <trkpt lat="46.4836" lon="6.06027">
        <ele>1114.8000488281</ele>
        <time>2018-05-10T07:45:15.000Z</time>
      </trkpt>
      <trkpt lat="46.48354" lon="6.06028">
        <ele>1114.8000488281</ele>
        <time>2018-05-10T07:45:25.000Z</time>
      </trkpt>
      <trkpt lat="46.48355" lon="6.06029">
        <ele>1114.8000488281</ele>
        <time>2018-05-10T07:45:27.000Z</time>
      </trkpt>
      <trkpt lat="46.48357" lon="6.06031">
        <ele>1114.5999755859</ele>
        <time>2018-05-10T07:45:33.000Z</time>
      </trkpt>
      <trkpt lat="46.48355" lon="6.06031">
        <ele>1114.5999755859</ele>
        <time>2018-05-10T07:45:50.000Z</time>
      </trkpt>
      <trkpt lat="46.48352" lon="6.06029">
        <ele>1114.8000488281</ele>
        <time>2018-05-10T07:46:23.000Z</time>
      </trkpt>
      <trkpt lat="46.48349" lon="6.06033">
        <ele>1114.5999755859</ele>
        <time>2018-05-10T07:46:34.000Z</time>
      </trkpt>
      <trkpt lat="46.48348" lon="6.06036">
        <ele>1114.5999755859</ele>
        <time>2018-05-10T07:46:36.000Z</time>
      </trkpt>
      <trkpt lat="46.48344" lon="6.06044">
        <ele>1114.4000244141</ele>
        <time>2018-05-10T07:46:42.000Z</time>
      </trkpt>
      <trkpt lat="46.48337" lon="6.06053">
        <ele>1114.1999511719</ele>
        <time>2018-05-10T07:46:50.000Z</time>
      </trkpt>
      <trkpt lat="46.48333" lon="6.06056">
        <ele>1114</ele>
        <time>2018-05-10T07:46:55.000Z</time>
      </trkpt>
      <trkpt lat="46.48331" lon="6.06058">
        <ele>1114</ele>
        <time>2018-05-10T07:46:58.000Z</time>
      </trkpt>
      <trkpt lat="46.48324" lon="6.06066">
        <ele>1114.5999755859</ele>
        <time>2018-05-10T07:47:07.000Z</time>
      </trkpt>
      <trkpt lat="46.48318" lon="6.06076">
        <ele>1114.8000488281</ele>
        <time>2018-05-10T07:47:15.000Z</time>
      </trkpt>
      <trkpt lat="46.48319" lon="6.06075">
        <ele>1115</ele>
        <time>2018-05-10T07:47:19.000Z</time>
      </trkpt>
      <trkpt lat="46.48324" lon="6.06069">
        <ele>1115</ele>
        <time>2018-05-10T07:47:23.000Z</time>
      </trkpt>
      <trkpt lat="46.48326" lon="6.06069">
        <ele>1115</ele>
        <time>2018-05-10T07:47:26.000Z</time>
      </trkpt>
      <trkpt lat="46.48326" lon="6.06077">
        <ele>1115.4000244141</ele>
        <time>2018-05-10T07:47:31.000Z</time>
      </trkpt>
      <trkpt lat="46.48318" lon="6.06084">
        <ele>1115.4000244141</ele>
        <time>2018-05-10T07:47:38.000Z</time>
      </trkpt>
      <trkpt lat="46.48314" lon="6.06088">
        <ele>1115.5999755859</ele>
        <time>2018-05-10T07:47:44.000Z</time>
      </trkpt>
      <trkpt lat="46.48305" lon="6.06098">
        <ele>1117.1999511719</ele>
        <time>2018-05-10T07:47:52.000Z</time>
      </trkpt>
      <trkpt lat="46.48297" lon="6.06106">
        <ele>1118.4000244141</ele>
        <time>2018-05-10T07:48:00.000Z</time>
      </trkpt>
      <trkpt lat="46.48296" lon="6.06105">
        <ele>1118.4000244141</ele>
        <time>2018-05-10T07:48:04.000Z</time>
      </trkpt>
      <trkpt lat="46.48293" lon="6.06107">
        <ele>1118.8000488281</ele>
        <time>2018-05-10T07:48:08.000Z</time>
      </trkpt>
      <trkpt lat="46.48294" lon="6.06108">
        <ele>1118.8000488281</ele>
        <time>2018-05-10T07:48:13.000Z</time>
      </trkpt>
      <trkpt lat="46.48288" lon="6.06117">
        <ele>1119.5999755859</ele>
        <time>2018-05-10T07:48:20.000Z</time>
      </trkpt>
      <trkpt lat="46.48287" lon="6.06117">
        <ele>1119.4000244141</ele>
        <time>2018-05-10T07:48:21.000Z</time>
      </trkpt>
      <trkpt lat="46.48284" lon="6.0612">
        <ele>1119.1999511719</ele>
        <time>2018-05-10T07:48:27.000Z</time>
      </trkpt>
      <trkpt lat="46.48275" lon="6.0613">
        <ele>1118</ele>
        <time>2018-05-10T07:48:36.000Z</time>
      </trkpt>
      <trkpt lat="46.48267" lon="6.06134">
        <ele>1117.5999755859</ele>
        <time>2018-05-10T07:48:42.000Z</time>
      </trkpt>
      <trkpt lat="46.48261" lon="6.06139">
        <ele>1117</ele>
        <time>2018-05-10T07:48:49.000Z</time>
      </trkpt>
      <trkpt lat="46.48257" lon="6.06142">
        <ele>1116.5999755859</ele>
        <time>2018-05-10T07:48:54.000Z</time>
      </trkpt>
      <trkpt lat="46.4825" lon="6.0615">
        <ele>1116.5999755859</ele>
        <time>2018-05-10T07:49:02.000Z</time>
      </trkpt>
      <trkpt lat="46.48252" lon="6.0615">
        <ele>1116.8000488281</ele>
        <time>2018-05-10T07:49:05.000Z</time>
      </trkpt>
      <trkpt lat="46.48247" lon="6.06154">
        <ele>1116.8000488281</ele>
        <time>2018-05-10T07:49:10.000Z</time>
      </trkpt>
      <trkpt lat="46.48236" lon="6.06163">
        <ele>1115.5999755859</ele>
        <time>2018-05-10T07:49:20.000Z</time>
      </trkpt>
      <trkpt lat="46.48225" lon="6.0617">
        <ele>1115.4000244141</ele>
        <time>2018-05-10T07:49:29.000Z</time>
      </trkpt>
      <trkpt lat="46.48211" lon="6.06182">
        <ele>1115.5999755859</ele>
        <time>2018-05-10T07:49:41.000Z</time>
      </trkpt>
      <trkpt lat="46.48209" lon="6.06183">
        <ele>1115.8000488281</ele>
        <time>2018-05-10T07:49:43.000Z</time>
      </trkpt>
      <trkpt lat="46.48206" lon="6.06186">
        <ele>1115.8000488281</ele>
        <time>2018-05-10T07:49:47.000Z</time>
      </trkpt>
      <trkpt lat="46.48194" lon="6.06191">
        <ele>1116</ele>
        <time>2018-05-10T07:49:57.000Z</time>
      </trkpt>
      <trkpt lat="46.48182" lon="6.062">
        <ele>1116</ele>
        <time>2018-05-10T07:50:07.000Z</time>
      </trkpt>
      <trkpt lat="46.48173" lon="6.06205">
        <ele>1116.1999511719</ele>
        <time>2018-05-10T07:50:16.000Z</time>
      </trkpt>
      <trkpt lat="46.4817" lon="6.06207">
        <ele>1116.1999511719</ele>
        <time>2018-05-10T07:50:21.000Z</time>
      </trkpt>
      <trkpt lat="46.48168" lon="6.06209">
        <ele>1116.1999511719</ele>
        <time>2018-05-10T07:50:25.000Z</time>
      </trkpt>
      <trkpt lat="46.48166" lon="6.06211">
        <ele>1116.1999511719</ele>
        <time>2018-05-10T07:50:31.000Z</time>
      </trkpt>
      <trkpt lat="46.48164" lon="6.06213">
        <ele>1116.1999511719</ele>
        <time>2018-05-10T07:50:36.000Z</time>
      </trkpt>
      <trkpt lat="46.48163" lon="6.06214">
        <ele>1116.1999511719</ele>
        <time>2018-05-10T07:50:40.000Z</time>
      </trkpt>
      <trkpt lat="46.48162" lon="6.06215">
        <ele>1116.1999511719</ele>
        <time>2018-05-10T07:50:43.000Z</time>
      </trkpt>
      <trkpt lat="46.48157" lon="6.06209">
        <ele>1116.5999755859</ele>
        <time>2018-05-10T07:50:49.000Z</time>
      </trkpt>
      <trkpt lat="46.48151" lon="6.06197">
        <ele>1117.4000244141</ele>
        <time>2018-05-10T07:50:58.000Z</time>
      </trkpt>
      <trkpt lat="46.48148" lon="6.0619">
        <ele>1117.8000488281</ele>
        <time>2018-05-10T07:51:04.000Z</time>
      </trkpt>
      <trkpt lat="46.48143" lon="6.06177">
        <ele>1118.4000244141</ele>
        <time>2018-05-10T07:51:11.000Z</time>
      </trkpt>
      <trkpt lat="46.4814" lon="6.06169">
        <ele>1119</ele>
        <time>2018-05-10T07:51:17.000Z</time>
      </trkpt>
      <trkpt lat="46.48134" lon="6.06156">
        <ele>1119.8000488281</ele>
        <time>2018-05-10T07:51:25.000Z</time>
      </trkpt>
      <trkpt lat="46.48129" lon="6.06142">
        <ele>1120.5999755859</ele>
        <time>2018-05-10T07:51:33.000Z</time>
      </trkpt>
      <trkpt lat="46.48126" lon="6.06135">
        <ele>1121.1999511719</ele>
        <time>2018-05-10T07:51:38.000Z</time>
      </trkpt>
      <trkpt lat="46.48124" lon="6.06125">
        <ele>1122</ele>
        <time>2018-05-10T07:51:44.000Z</time>
      </trkpt>
      <trkpt lat="46.4812" lon="6.0611">
        <ele>1123</ele>
        <time>2018-05-10T07:51:52.000Z</time>
      </trkpt>
      <trkpt lat="46.48118" lon="6.061">
        <ele>1123.5999755859</ele>
        <time>2018-05-10T07:51:59.000Z</time>
      </trkpt>
      <trkpt lat="46.48114" lon="6.06089">
        <ele>1124.1999511719</ele>
        <time>2018-05-10T07:52:05.000Z</time>
      </trkpt>
      <trkpt lat="46.48109" lon="6.06083">
        <ele>1124.8000488281</ele>
        <time>2018-05-10T07:52:10.000Z</time>
      </trkpt>
      <trkpt lat="46.48103" lon="6.06075">
        <ele>1125.4000244141</ele>
        <time>2018-05-10T07:52:15.000Z</time>
      </trkpt>
      <trkpt lat="46.48101" lon="6.06063">
        <ele>1126.1999511719</ele>
        <time>2018-05-10T07:52:21.000Z</time>
      </trkpt>
      <trkpt lat="46.48099" lon="6.0606">
        <ele>1126.4000244141</ele>
        <time>2018-05-10T07:52:23.000Z</time>
      </trkpt>
      <trkpt lat="46.48096" lon="6.06046">
        <ele>1127</ele>
        <time>2018-05-10T07:52:30.000Z</time>
      </trkpt>
      <trkpt lat="46.48092" lon="6.06034">
        <ele>1127.5999755859</ele>
        <time>2018-05-10T07:52:37.000Z</time>
      </trkpt>
      <trkpt lat="46.48087" lon="6.06023">
        <ele>1128.1999511719</ele>
        <time>2018-05-10T07:52:44.000Z</time>
      </trkpt>
      <trkpt lat="46.48084" lon="6.06014">
        <ele>1128.8000488281</ele>
        <time>2018-05-10T07:52:50.000Z</time>
      </trkpt>
      <trkpt lat="46.48078" lon="6.05999">
        <ele>1129.5999755859</ele>
        <time>2018-05-10T07:52:58.000Z</time>
      </trkpt>
      <trkpt lat="46.48074" lon="6.0599">
        <ele>1130.1999511719</ele>
        <time>2018-05-10T07:53:05.000Z</time>
      </trkpt>
      <trkpt lat="46.48068" lon="6.05979">
        <ele>1130.8000488281</ele>
        <time>2018-05-10T07:53:12.000Z</time>
      </trkpt>
      <trkpt lat="46.48063" lon="6.0597">
        <ele>1131.1999511719</ele>
        <time>2018-05-10T07:53:18.000Z</time>
      </trkpt>
      <trkpt lat="46.48054" lon="6.05958">
        <ele>1131.8000488281</ele>
        <time>2018-05-10T07:53:26.000Z</time>
      </trkpt>
      <trkpt lat="46.48047" lon="6.05949">
        <ele>1132.4000244141</ele>
        <time>2018-05-10T07:53:33.000Z</time>
      </trkpt>
      <trkpt lat="46.48044" lon="6.05944">
        <ele>1132.5999755859</ele>
        <time>2018-05-10T07:53:37.000Z</time>
      </trkpt>
      <trkpt lat="46.48039" lon="6.05938">
        <ele>1133</ele>
        <time>2018-05-10T07:53:43.000Z</time>
      </trkpt>
      <trkpt lat="46.48035" lon="6.05935">
        <ele>1133.1999511719</ele>
        <time>2018-05-10T07:53:47.000Z</time>
      </trkpt>
      <trkpt lat="46.48032" lon="6.05935">
        <ele>1133.1999511719</ele>
        <time>2018-05-10T07:53:51.000Z</time>
      </trkpt>
      <trkpt lat="46.48018" lon="6.05921">
        <ele>1134</ele>
        <time>2018-05-10T07:54:04.000Z</time>
      </trkpt>
      <trkpt lat="46.48006" lon="6.05906">
        <ele>1134.8000488281</ele>
        <time>2018-05-10T07:54:15.000Z</time>
      </trkpt>
      <trkpt lat="46.47993" lon="6.05887">
        <ele>1135.5999755859</ele>
        <time>2018-05-10T07:54:27.000Z</time>
      </trkpt>
      <trkpt lat="46.47986" lon="6.05876">
        <ele>1136</ele>
        <time>2018-05-10T07:54:34.000Z</time>
      </trkpt>
      <trkpt lat="46.47977" lon="6.05862">
        <ele>1135.8000488281</ele>
        <time>2018-05-10T07:54:43.000Z</time>
      </trkpt>
      <trkpt lat="46.47971" lon="6.0585">
        <ele>1135.8000488281</ele>
        <time>2018-05-10T07:54:51.000Z</time>
      </trkpt>
      <trkpt lat="46.47971" lon="6.0585">
        <ele>1135.8000488281</ele>
        <time>2018-05-10T07:54:52.000Z</time>
      </trkpt>
      <trkpt lat="46.4797" lon="6.05847">
        <ele>1135.5999755859</ele>
        <time>2018-05-10T07:55:02.000Z</time>
      </trkpt>
      <trkpt lat="46.47973" lon="6.05846">
        <ele>1135.8000488281</ele>
        <time>2018-05-10T07:55:12.000Z</time>
      </trkpt>
      <trkpt lat="46.47971" lon="6.05844">
        <ele>1135.8000488281</ele>
        <time>2018-05-10T07:55:19.000Z</time>
      </trkpt>
      <trkpt lat="46.47968" lon="6.05839">
        <ele>1135.5999755859</ele>
        <time>2018-05-10T07:55:24.000Z</time>
      </trkpt>
      <trkpt lat="46.47961" lon="6.05824">
        <ele>1135.4000244141</ele>
        <time>2018-05-10T07:55:35.000Z</time>
      </trkpt>
      <trkpt lat="46.47956" lon="6.05814">
        <ele>1135.4000244141</ele>
        <time>2018-05-10T07:55:43.000Z</time>
      </trkpt>
      <trkpt lat="46.47956" lon="6.05814">
        <ele>1135.4000244141</ele>
        <time>2018-05-10T07:55:44.000Z</time>
      </trkpt>
      <trkpt lat="46.47952" lon="6.05806">
        <ele>1135.1999511719</ele>
        <time>2018-05-10T07:55:54.000Z</time>
      </trkpt>
      <trkpt lat="46.47946" lon="6.05793">
        <ele>1135</ele>
        <time>2018-05-10T07:56:03.000Z</time>
      </trkpt>
      <trkpt lat="46.47938" lon="6.05784">
        <ele>1134.5999755859</ele>
        <time>2018-05-10T07:56:10.000Z</time>
      </trkpt>
      <trkpt lat="46.4793" lon="6.05777">
        <ele>1134.4000244141</ele>
        <time>2018-05-10T07:56:18.000Z</time>
      </trkpt>
      <trkpt lat="46.47922" lon="6.0577">
        <ele>1134</ele>
        <time>2018-05-10T07:56:25.000Z</time>
      </trkpt>
      <trkpt lat="46.47916" lon="6.05766">
        <ele>1133.8000488281</ele>
        <time>2018-05-10T07:56:31.000Z</time>
      </trkpt>
      <trkpt lat="46.47901" lon="6.05756">
        <ele>1133.4000244141</ele>
        <time>2018-05-10T07:56:42.000Z</time>
      </trkpt>
      <trkpt lat="46.47889" lon="6.05739">
        <ele>1133.1999511719</ele>
        <time>2018-05-10T07:56:54.000Z</time>
      </trkpt>
      <trkpt lat="46.47885" lon="6.05728">
        <ele>1133</ele>
        <time>2018-05-10T07:57:01.000Z</time>
      </trkpt>
      <trkpt lat="46.47884" lon="6.05725">
        <ele>1133</ele>
        <time>2018-05-10T07:57:05.000Z</time>
      </trkpt>
      <trkpt lat="46.47884" lon="6.05726">
        <ele>1133</ele>
        <time>2018-05-10T07:57:12.000Z</time>
      </trkpt>
      <trkpt lat="46.47884" lon="6.05724">
        <ele>1133</ele>
        <time>2018-05-10T07:57:38.000Z</time>
      </trkpt>
      <trkpt lat="46.47884" lon="6.05724">
        <ele>1133</ele>
        <time>2018-05-10T07:57:41.000Z</time>
      </trkpt>
      <trkpt lat="46.47885" lon="6.05726">
        <ele>1133</ele>
        <time>2018-05-10T07:57:46.000Z</time>
      </trkpt>
      <trkpt lat="46.47884" lon="6.05734">
        <ele>1133</ele>
        <time>2018-05-10T07:57:51.000Z</time>
      </trkpt>
      <trkpt lat="46.47883" lon="6.05742">
        <ele>1133.1999511719</ele>
        <time>2018-05-10T07:57:56.000Z</time>
      </trkpt>
      <trkpt lat="46.47881" lon="6.05749">
        <ele>1133.1999511719</ele>
        <time>2018-05-10T07:58:02.000Z</time>
      </trkpt>
      <trkpt lat="46.47881" lon="6.05751">
        <ele>1133.1999511719</ele>
        <time>2018-05-10T07:58:07.000Z</time>
      </trkpt>
      <trkpt lat="46.47881" lon="6.0575">
        <ele>1133.1999511719</ele>
        <time>2018-05-10T07:58:10.000Z</time>
      </trkpt>
      <trkpt lat="46.47887" lon="6.05753">
        <ele>1133.4000244141</ele>
        <time>2018-05-10T07:58:14.000Z</time>
      </trkpt>
      <trkpt lat="46.47877" lon="6.05746">
        <ele>1133.1999511719</ele>
        <time>2018-05-10T07:58:24.000Z</time>
      </trkpt>
      <trkpt lat="46.47889" lon="6.05745">
        <ele>1133.1999511719</ele>
        <time>2018-05-10T07:58:33.000Z</time>
      </trkpt>
      <trkpt lat="46.47898" lon="6.05747">
        <ele>1133.1999511719</ele>
        <time>2018-05-10T07:58:39.000Z</time>
      </trkpt>
      <trkpt lat="46.47901" lon="6.05752">
        <ele>1133.4000244141</ele>
        <time>2018-05-10T07:58:47.000Z</time>
      </trkpt>
      <trkpt lat="46.47906" lon="6.05753">
        <ele>1133.4000244141</ele>
        <time>2018-05-10T07:58:50.000Z</time>
      </trkpt>
      <trkpt lat="46.47912" lon="6.05758">
        <ele>1133.5999755859</ele>
        <time>2018-05-10T07:58:56.000Z</time>
      </trkpt>
      <trkpt lat="46.47917" lon="6.0576">
        <ele>1133.8000488281</ele>
        <time>2018-05-10T07:58:59.000Z</time>
      </trkpt>
      <trkpt lat="46.47931" lon="6.05767">
        <ele>1134.1999511719</ele>
        <time>2018-05-10T07:59:09.000Z</time>
      </trkpt>
      <trkpt lat="46.4794" lon="6.05776">
        <ele>1134.5999755859</ele>
        <time>2018-05-10T07:59:20.000Z</time>
      </trkpt>
      <trkpt lat="46.47947" lon="6.05782">
        <ele>1134.8000488281</ele>
        <time>2018-05-10T07:59:29.000Z</time>
      </trkpt>
      <trkpt lat="46.47949" lon="6.05786">
        <ele>1135</ele>
        <time>2018-05-10T07:59:36.000Z</time>
      </trkpt>
      <trkpt lat="46.47953" lon="6.05792">
        <ele>1135</ele>
        <time>2018-05-10T07:59:41.000Z</time>
      </trkpt>
      <trkpt lat="46.4796" lon="6.05812">
        <ele>1135.4000244141</ele>
        <time>2018-05-10T07:59:54.000Z</time>
      </trkpt>
      <trkpt lat="46.47966" lon="6.0583">
        <ele>1135.5999755859</ele>
        <time>2018-05-10T08:00:05.000Z</time>
      </trkpt>
      <trkpt lat="46.47968" lon="6.05838">
        <ele>1135.5999755859</ele>
        <time>2018-05-10T08:00:10.000Z</time>
      </trkpt>
      <trkpt lat="46.47963" lon="6.05847">
        <ele>1135.5999755859</ele>
        <time>2018-05-10T08:00:17.000Z</time>
      </trkpt>
      <trkpt lat="46.47963" lon="6.05847">
        <ele>1135.5999755859</ele>
        <time>2018-05-10T08:00:19.000Z</time>
      </trkpt>
      <trkpt lat="46.4796" lon="6.05848">
        <ele>1135.4000244141</ele>
        <time>2018-05-10T08:00:43.000Z</time>
      </trkpt>
      <trkpt lat="46.47955" lon="6.05847">
        <ele>1135.4000244141</ele>
        <time>2018-05-10T08:00:47.000Z</time>
      </trkpt>
      <trkpt lat="46.47944" lon="6.05844">
        <ele>1135</ele>
        <time>2018-05-10T08:00:54.000Z</time>
      </trkpt>
      <trkpt lat="46.47937" lon="6.05841">
        <ele>1134.8000488281</ele>
        <time>2018-05-10T08:01:00.000Z</time>
      </trkpt>
      <trkpt lat="46.47934" lon="6.05842">
        <ele>1134.8000488281</ele>
        <time>2018-05-10T08:01:03.000Z</time>
      </trkpt>
      <trkpt lat="46.4793" lon="6.05845">
        <ele>1134.8000488281</ele>
        <time>2018-05-10T08:01:08.000Z</time>
      </trkpt>
      <trkpt lat="46.47916" lon="6.05847">
        <ele>1134.4000244141</ele>
        <time>2018-05-10T08:01:18.000Z</time>
      </trkpt>
      <trkpt lat="46.47906" lon="6.05842">
        <ele>1134.1999511719</ele>
        <time>2018-05-10T08:01:26.000Z</time>
      </trkpt>
      <trkpt lat="46.47904" lon="6.05839">
        <ele>1134.1999511719</ele>
        <time>2018-05-10T08:01:29.000Z</time>
      </trkpt>
      <trkpt lat="46.47899" lon="6.05841">
        <ele>1134</ele>
        <time>2018-05-10T08:01:34.000Z</time>
      </trkpt>
      <trkpt lat="46.47893" lon="6.05843">
        <ele>1134.1999511719</ele>
        <time>2018-05-10T08:01:40.000Z</time>
      </trkpt>
      <trkpt lat="46.47886" lon="6.05838">
        <ele>1134.4000244141</ele>
        <time>2018-05-10T08:01:46.000Z</time>
      </trkpt>
      <trkpt lat="46.47882" lon="6.0583">
        <ele>1134.4000244141</ele>
        <time>2018-05-10T08:01:51.000Z</time>
      </trkpt>
      <trkpt lat="46.47879" lon="6.05825">
        <ele>1134.4000244141</ele>
        <time>2018-05-10T08:01:57.000Z</time>
      </trkpt>
      <trkpt lat="46.47873" lon="6.05814">
        <ele>1134.5999755859</ele>
        <time>2018-05-10T08:02:03.000Z</time>
      </trkpt>
      <trkpt lat="46.47868" lon="6.05805">
        <ele>1134.5999755859</ele>
        <time>2018-05-10T08:02:10.000Z</time>
      </trkpt>
      <trkpt lat="46.47864" lon="6.05798">
        <ele>1134.4000244141</ele>
        <time>2018-05-10T08:02:16.000Z</time>
      </trkpt>
      <trkpt lat="46.47858" lon="6.05787">
        <ele>1134.1999511719</ele>
        <time>2018-05-10T08:02:23.000Z</time>
      </trkpt>
      <trkpt lat="46.47852" lon="6.05778">
        <ele>1134</ele>
        <time>2018-05-10T08:02:30.000Z</time>
      </trkpt>
      <trkpt lat="46.47845" lon="6.05769">
        <ele>1133.8000488281</ele>
        <time>2018-05-10T08:02:37.000Z</time>
      </trkpt>
      <trkpt lat="46.47836" lon="6.05759">
        <ele>1133.8000488281</ele>
        <time>2018-05-10T08:02:45.000Z</time>
      </trkpt>
      <trkpt lat="46.47826" lon="6.0575">
        <ele>1133.5999755859</ele>
        <time>2018-05-10T08:02:53.000Z</time>
      </trkpt>
      <trkpt lat="46.47827" lon="6.05749">
        <ele>1133.5999755859</ele>
        <time>2018-05-10T08:02:58.000Z</time>
      </trkpt>
      <trkpt lat="46.47827" lon="6.05749">
        <ele>1133.5999755859</ele>
        <time>2018-05-10T08:03:02.000Z</time>
      </trkpt>
      <trkpt lat="46.47815" lon="6.0575">
        <ele>1133.8000488281</ele>
        <time>2018-05-10T08:03:09.000Z</time>
      </trkpt>
      <trkpt lat="46.47814" lon="6.05749">
        <ele>1133.8000488281</ele>
        <time>2018-05-10T08:03:10.000Z</time>
      </trkpt>
      <trkpt lat="46.47797" lon="6.05746">
        <ele>1133</ele>
        <time>2018-05-10T08:03:19.000Z</time>
      </trkpt>
      <trkpt lat="46.47787" lon="6.05748">
        <ele>1132.8000488281</ele>
        <time>2018-05-10T08:03:27.000Z</time>
      </trkpt>
      <trkpt lat="46.47776" lon="6.05748">
        <ele>1132.4000244141</ele>
        <time>2018-05-10T08:03:36.000Z</time>
      </trkpt>
      <trkpt lat="46.47761" lon="6.05749">
        <ele>1131.8000488281</ele>
        <time>2018-05-10T08:03:47.000Z</time>
      </trkpt>
      <trkpt lat="46.47752" lon="6.05749">
        <ele>1131.1999511719</ele>
        <time>2018-05-10T08:03:55.000Z</time>
      </trkpt>
      <trkpt lat="46.47741" lon="6.05739">
        <ele>1130.5999755859</ele>
        <time>2018-05-10T08:04:04.000Z</time>
      </trkpt>
      <trkpt lat="46.4773" lon="6.0573">
        <ele>1130</ele>
        <time>2018-05-10T08:04:13.000Z</time>
      </trkpt>
      <trkpt lat="46.4772" lon="6.05721">
        <ele>1130</ele>
        <time>2018-05-10T08:04:22.000Z</time>
      </trkpt>
      <trkpt lat="46.47712" lon="6.05712">
        <ele>1130.1999511719</ele>
        <time>2018-05-10T08:04:29.000Z</time>
      </trkpt>
      <trkpt lat="46.47707" lon="6.05703">
        <ele>1130.1999511719</ele>
        <time>2018-05-10T08:04:36.000Z</time>
      </trkpt>
      <trkpt lat="46.47704" lon="6.05698">
        <ele>1130.4000244141</ele>
        <time>2018-05-10T08:04:42.000Z</time>
      </trkpt>
      <trkpt lat="46.47703" lon="6.05696">
        <ele>1130.4000244141</ele>
        <time>2018-05-10T08:04:49.000Z</time>
      </trkpt>
      <trkpt lat="46.477" lon="6.05689">
        <ele>1130.4000244141</ele>
        <time>2018-05-10T08:04:59.000Z</time>
      </trkpt>
      <trkpt lat="46.47696" lon="6.05677">
        <ele>1130.4000244141</ele>
        <time>2018-05-10T08:05:06.000Z</time>
      </trkpt>
      <trkpt lat="46.47694" lon="6.05664">
        <ele>1130.4000244141</ele>
        <time>2018-05-10T08:05:13.000Z</time>
      </trkpt>
      <trkpt lat="46.47694" lon="6.05659">
        <ele>1130.4000244141</ele>
        <time>2018-05-10T08:05:18.000Z</time>
      </trkpt>
      <trkpt lat="46.47691" lon="6.0565">
        <ele>1130.5999755859</ele>
        <time>2018-05-10T08:05:24.000Z</time>
      </trkpt>
      <trkpt lat="46.4769" lon="6.05644">
        <ele>1130.5999755859</ele>
        <time>2018-05-10T08:05:29.000Z</time>
      </trkpt>
      <trkpt lat="46.47689" lon="6.05644">
        <ele>1130.5999755859</ele>
        <time>2018-05-10T08:05:31.000Z</time>
      </trkpt>
      <trkpt lat="46.47688" lon="6.0564">
        <ele>1130.5999755859</ele>
        <time>2018-05-10T08:05:49.000Z</time>
      </trkpt>
      <trkpt lat="46.47686" lon="6.05638">
        <ele>1130.8000488281</ele>
        <time>2018-05-10T08:06:37.000Z</time>
      </trkpt>
      <trkpt lat="46.47685" lon="6.05631">
        <ele>1131</ele>
        <time>2018-05-10T08:06:41.000Z</time>
      </trkpt>
      <trkpt lat="46.47683" lon="6.05619">
        <ele>1131.4000244141</ele>
        <time>2018-05-10T08:06:48.000Z</time>
      </trkpt>
      <trkpt lat="46.47676" lon="6.05606">
        <ele>1132</ele>
        <time>2018-05-10T08:06:57.000Z</time>
      </trkpt>
      <trkpt lat="46.47672" lon="6.05602">
        <ele>1132.1999511719</ele>
        <time>2018-05-10T08:07:01.000Z</time>
      </trkpt>
      <trkpt lat="46.47662" lon="6.05594">
        <ele>1132.5999755859</ele>
        <time>2018-05-10T08:07:11.000Z</time>
      </trkpt>
      <trkpt lat="46.47654" lon="6.05588">
        <ele>1133</ele>
        <time>2018-05-10T08:07:18.000Z</time>
      </trkpt>
      <trkpt lat="46.47644" lon="6.05578">
        <ele>1133.1999511719</ele>
        <time>2018-05-10T08:07:27.000Z</time>
      </trkpt>
      <trkpt lat="46.47632" lon="6.05569">
        <ele>1133</ele>
        <time>2018-05-10T08:07:36.000Z</time>
      </trkpt>
      <trkpt lat="46.47621" lon="6.05561">
        <ele>1133</ele>
        <time>2018-05-10T08:07:45.000Z</time>
      </trkpt>
      <trkpt lat="46.47612" lon="6.05553">
        <ele>1133</ele>
        <time>2018-05-10T08:07:53.000Z</time>
      </trkpt>
      <trkpt lat="46.47605" lon="6.05547">
        <ele>1133.1999511719</ele>
        <time>2018-05-10T08:08:00.000Z</time>
      </trkpt>
      <trkpt lat="46.47595" lon="6.05541">
        <ele>1133.1999511719</ele>
        <time>2018-05-10T08:08:08.000Z</time>
      </trkpt>
      <trkpt lat="46.47584" lon="6.05533">
        <ele>1133.1999511719</ele>
        <time>2018-05-10T08:08:17.000Z</time>
      </trkpt>
      <trkpt lat="46.47574" lon="6.05526">
        <ele>1133.1999511719</ele>
        <time>2018-05-10T08:08:25.000Z</time>
      </trkpt>
      <trkpt lat="46.47562" lon="6.05516">
        <ele>1133.4000244141</ele>
        <time>2018-05-10T08:08:34.000Z</time>
      </trkpt>
      <trkpt lat="46.47553" lon="6.05511">
        <ele>1133</ele>
        <time>2018-05-10T08:08:42.000Z</time>
      </trkpt>
      <trkpt lat="46.47547" lon="6.05507">
        <ele>1133</ele>
        <time>2018-05-10T08:08:47.000Z</time>
      </trkpt>
      <trkpt lat="46.47536" lon="6.05498">
        <ele>1132.8000488281</ele>
        <time>2018-05-10T08:08:55.000Z</time>
      </trkpt>
      <trkpt lat="46.47523" lon="6.05488">
        <ele>1132.8000488281</ele>
        <time>2018-05-10T08:09:05.000Z</time>
      </trkpt>
      <trkpt lat="46.47514" lon="6.05479">
        <ele>1132.5999755859</ele>
        <time>2018-05-10T08:09:13.000Z</time>
      </trkpt>
      <trkpt lat="46.47512" lon="6.05478">
        <ele>1132.5999755859</ele>
        <time>2018-05-10T08:09:17.000Z</time>
      </trkpt>
      <trkpt lat="46.47504" lon="6.0547">
        <ele>1132.1999511719</ele>
        <time>2018-05-10T08:09:25.000Z</time>
      </trkpt>
      <trkpt lat="46.47491" lon="6.05462">
        <ele>1131.4000244141</ele>
        <time>2018-05-10T08:09:34.000Z</time>
      </trkpt>
      <trkpt lat="46.47484" lon="6.0545">
        <ele>1131</ele>
        <time>2018-05-10T08:09:41.000Z</time>
      </trkpt>
      <trkpt lat="46.47482" lon="6.05443">
        <ele>1131</ele>
        <time>2018-05-10T08:09:45.000Z</time>
      </trkpt>
      <trkpt lat="46.4748" lon="6.0544">
        <ele>1131</ele>
        <time>2018-05-10T08:09:50.000Z</time>
      </trkpt>
      <trkpt lat="46.47477" lon="6.05442">
        <ele>1131.1999511719</ele>
        <time>2018-05-10T08:10:07.000Z</time>
      </trkpt>
      <trkpt lat="46.4748" lon="6.05443">
        <ele>1131</ele>
        <time>2018-05-10T08:10:40.000Z</time>
      </trkpt>
      <trkpt lat="46.47478" lon="6.05442">
        <ele>1131.1999511719</ele>
        <time>2018-05-10T08:11:04.000Z</time>
      </trkpt>
      <trkpt lat="46.47478" lon="6.05445">
        <ele>1131.1999511719</ele>
        <time>2018-05-10T08:11:56.000Z</time>
      </trkpt>
      <trkpt lat="46.47478" lon="6.05444">
        <ele>1131.1999511719</ele>
        <time>2018-05-10T08:12:10.000Z</time>
      </trkpt>
      <trkpt lat="46.47476" lon="6.05444">
        <ele>1131.1999511719</ele>
        <time>2018-05-10T08:13:14.000Z</time>
      </trkpt>
      <trkpt lat="46.47475" lon="6.05444">
        <ele>1131.1999511719</ele>
        <time>2018-05-10T08:13:15.000Z</time>
      </trkpt>
      <trkpt lat="46.47471" lon="6.05446">
        <ele>1131.1999511719</ele>
        <time>2018-05-10T08:13:20.000Z</time>
      </trkpt>
      <trkpt lat="46.47461" lon="6.05448">
        <ele>1131.5999755859</ele>
        <time>2018-05-10T08:13:27.000Z</time>
      </trkpt>
      <trkpt lat="46.47455" lon="6.0545">
        <ele>1131.8000488281</ele>
        <time>2018-05-10T08:13:31.000Z</time>
      </trkpt>
      <trkpt lat="46.47445" lon="6.05451">
        <ele>1132.1999511719</ele>
        <time>2018-05-10T08:13:38.000Z</time>
      </trkpt>
      <trkpt lat="46.47434" lon="6.05453">
        <ele>1132.8000488281</ele>
        <time>2018-05-10T08:13:46.000Z</time>
      </trkpt>
      <trkpt lat="46.47423" lon="6.05453">
        <ele>1133.4000244141</ele>
        <time>2018-05-10T08:13:53.000Z</time>
      </trkpt>
      <trkpt lat="46.47414" lon="6.05452">
        <ele>1133.8000488281</ele>
        <time>2018-05-10T08:14:00.000Z</time>
      </trkpt>
      <trkpt lat="46.47404" lon="6.05452">
        <ele>1134.1999511719</ele>
        <time>2018-05-10T08:14:08.000Z</time>
      </trkpt>
      <trkpt lat="46.47396" lon="6.0545">
        <ele>1134.4000244141</ele>
        <time>2018-05-10T08:14:15.000Z</time>
      </trkpt>
      <trkpt lat="46.47389" lon="6.05451">
        <ele>1134.1999511719</ele>
        <time>2018-05-10T08:14:20.000Z</time>
      </trkpt>
      <trkpt lat="46.47379" lon="6.05448">
        <ele>1133.8000488281</ele>
        <time>2018-05-10T08:14:26.000Z</time>
      </trkpt>
      <trkpt lat="46.47379" lon="6.05448">
        <ele>1133.8000488281</ele>
        <time>2018-05-10T08:14:28.000Z</time>
      </trkpt>
      <trkpt lat="46.47376" lon="6.0545">
        <ele>1133.8000488281</ele>
        <time>2018-05-10T08:14:31.000Z</time>
      </trkpt>
      <trkpt lat="46.47368" lon="6.05455">
        <ele>1134.8000488281</ele>
        <time>2018-05-10T08:14:38.000Z</time>
      </trkpt>
      <trkpt lat="46.47365" lon="6.05456">
        <ele>1135</ele>
        <time>2018-05-10T08:14:40.000Z</time>
      </trkpt>
      <trkpt lat="46.47357" lon="6.05458">
        <ele>1135.8000488281</ele>
        <time>2018-05-10T08:14:46.000Z</time>
      </trkpt>
      <trkpt lat="46.47349" lon="6.0546">
        <ele>1136.8000488281</ele>
        <time>2018-05-10T08:14:53.000Z</time>
      </trkpt>
      <trkpt lat="46.47341" lon="6.05462">
        <ele>1137.5999755859</ele>
        <time>2018-05-10T08:15:00.000Z</time>
      </trkpt>
      <trkpt lat="46.47339" lon="6.05463">
        <ele>1137.8000488281</ele>
        <time>2018-05-10T08:15:01.000Z</time>
      </trkpt>
      <trkpt lat="46.47335" lon="6.05465">
        <ele>1138.4000244141</ele>
        <time>2018-05-10T08:15:04.000Z</time>
      </trkpt>
      <trkpt lat="46.4733" lon="6.05467">
        <ele>1138.8000488281</ele>
        <time>2018-05-10T08:15:12.000Z</time>
      </trkpt>
      <trkpt lat="46.47329" lon="6.05466">
        <ele>1138.8000488281</ele>
        <time>2018-05-10T08:15:18.000Z</time>
      </trkpt>
      <trkpt lat="46.47329" lon="6.05466">
        <ele>1138.8000488281</ele>
        <time>2018-05-10T08:15:19.000Z</time>
      </trkpt>
      <trkpt lat="46.47326" lon="6.05462">
        <ele>1138.5999755859</ele>
        <time>2018-05-10T08:15:28.000Z</time>
      </trkpt>
      <trkpt lat="46.47325" lon="6.05461">
        <ele>1138.5999755859</ele>
        <time>2018-05-10T08:15:35.000Z</time>
      </trkpt>
      <trkpt lat="46.47328" lon="6.05464">
        <ele>1138.5999755859</ele>
        <time>2018-05-10T08:15:58.000Z</time>
      </trkpt>
      <trkpt lat="46.47328" lon="6.05462">
        <ele>1138.4000244141</ele>
        <time>2018-05-10T08:16:01.000Z</time>
      </trkpt>
      <trkpt lat="46.47322" lon="6.05465">
        <ele>1139.1999511719</ele>
        <time>2018-05-10T08:16:16.000Z</time>
      </trkpt>
      <trkpt lat="46.4732" lon="6.05462">
        <ele>1139.1999511719</ele>
        <time>2018-05-10T08:16:23.000Z</time>
      </trkpt>
      <trkpt lat="46.47318" lon="6.05452">
        <ele>1138</ele>
        <time>2018-05-10T08:16:33.000Z</time>
      </trkpt>
      <trkpt lat="46.47319" lon="6.05449">
        <ele>1137.5999755859</ele>
        <time>2018-05-10T08:16:35.000Z</time>
      </trkpt>
      <trkpt lat="46.47318" lon="6.05437">
        <ele>1136.1999511719</ele>
        <time>2018-05-10T08:16:43.000Z</time>
      </trkpt>
      <trkpt lat="46.47318" lon="6.05431">
        <ele>1135.4000244141</ele>
        <time>2018-05-10T08:16:47.000Z</time>
      </trkpt>
      <trkpt lat="46.47321" lon="6.05418">
        <ele>1133.5999755859</ele>
        <time>2018-05-10T08:16:55.000Z</time>
      </trkpt>
      <trkpt lat="46.47323" lon="6.05405">
        <ele>1132</ele>
        <time>2018-05-10T08:17:02.000Z</time>
      </trkpt>
      <trkpt lat="46.47323" lon="6.05403">
        <ele>1131.8000488281</ele>
        <time>2018-05-10T08:17:03.000Z</time>
      </trkpt>
      <trkpt lat="46.47324" lon="6.054">
        <ele>1131.4000244141</ele>
        <time>2018-05-10T08:17:05.000Z</time>
      </trkpt>
      <trkpt lat="46.47328" lon="6.05387">
        <ele>1130.1999511719</ele>
        <time>2018-05-10T08:17:13.000Z</time>
      </trkpt>
      <trkpt lat="46.47328" lon="6.05386">
        <ele>1129.8000488281</ele>
        <time>2018-05-10T08:17:14.000Z</time>
      </trkpt>
      <trkpt lat="46.4733" lon="6.0538">
        <ele>1128.5999755859</ele>
        <time>2018-05-10T08:17:17.000Z</time>
      </trkpt>
      <trkpt lat="46.47331" lon="6.05375">
        <ele>1127.4000244141</ele>
        <time>2018-05-10T08:17:20.000Z</time>
      </trkpt>
      <trkpt lat="46.47333" lon="6.05369">
        <ele>1126.1999511719</ele>
        <time>2018-05-10T08:17:25.000Z</time>
      </trkpt>
      <trkpt lat="46.4734" lon="6.05361">
        <ele>1124.8000488281</ele>
        <time>2018-05-10T08:17:33.000Z</time>
      </trkpt>
      <trkpt lat="46.47346" lon="6.05355">
        <ele>1123.5999755859</ele>
        <time>2018-05-10T08:17:40.000Z</time>
      </trkpt>
      <trkpt lat="46.47354" lon="6.0535">
        <ele>1122.5999755859</ele>
        <time>2018-05-10T08:17:48.000Z</time>
      </trkpt>
      <trkpt lat="46.47362" lon="6.05343">
        <ele>1122.1999511719</ele>
        <time>2018-05-10T08:17:56.000Z</time>
      </trkpt>
      <trkpt lat="46.47368" lon="6.05338">
        <ele>1122.1999511719</ele>
        <time>2018-05-10T08:18:03.000Z</time>
      </trkpt>
      <trkpt lat="46.47375" lon="6.05333">
        <ele>1122</ele>
        <time>2018-05-10T08:18:08.000Z</time>
      </trkpt>
      <trkpt lat="46.47381" lon="6.05327">
        <ele>1121.8000488281</ele>
        <time>2018-05-10T08:18:13.000Z</time>
      </trkpt>
      <trkpt lat="46.47388" lon="6.05318">
        <ele>1121.1999511719</ele>
        <time>2018-05-10T08:18:21.000Z</time>
      </trkpt>
      <trkpt lat="46.47394" lon="6.05312">
        <ele>1120.8000488281</ele>
        <time>2018-05-10T08:18:26.000Z</time>
      </trkpt>
      <trkpt lat="46.47401" lon="6.05306">
        <ele>1120.5999755859</ele>
        <time>2018-05-10T08:18:31.000Z</time>
      </trkpt>
      <trkpt lat="46.47409" lon="6.05303">
        <ele>1120.4000244141</ele>
        <time>2018-05-10T08:18:37.000Z</time>
      </trkpt>
      <trkpt lat="46.47414" lon="6.05304">
        <ele>1120.8000488281</ele>
        <time>2018-05-10T08:18:41.000Z</time>
      </trkpt>
      <trkpt lat="46.47425" lon="6.05307">
        <ele>1122.1999511719</ele>
        <time>2018-05-10T08:18:49.000Z</time>
      </trkpt>
      <trkpt lat="46.47431" lon="6.05307">
        <ele>1122.4000244141</ele>
        <time>2018-05-10T08:18:56.000Z</time>
      </trkpt>
      <trkpt lat="46.47433" lon="6.05306">
        <ele>1122.4000244141</ele>
        <time>2018-05-10T08:18:58.000Z</time>
      </trkpt>
      <trkpt lat="46.4744" lon="6.05304">
        <ele>1122.4000244141</ele>
        <time>2018-05-10T08:19:03.000Z</time>
      </trkpt>
      <trkpt lat="46.47444" lon="6.05301">
        <ele>1122</ele>
        <time>2018-05-10T08:19:07.000Z</time>
      </trkpt>
      <trkpt lat="46.47457" lon="6.05294">
        <ele>1121.4000244141</ele>
        <time>2018-05-10T08:19:17.000Z</time>
      </trkpt>
      <trkpt lat="46.47463" lon="6.05289">
        <ele>1120.8000488281</ele>
        <time>2018-05-10T08:19:22.000Z</time>
      </trkpt>
      <trkpt lat="46.47472" lon="6.05281">
        <ele>1120.8000488281</ele>
        <time>2018-05-10T08:19:30.000Z</time>
      </trkpt>
      <trkpt lat="46.47481" lon="6.05283">
        <ele>1122</ele>
        <time>2018-05-10T08:19:36.000Z</time>
      </trkpt>
      <trkpt lat="46.47486" lon="6.05282">
        <ele>1122</ele>
        <time>2018-05-10T08:19:41.000Z</time>
      </trkpt>
      <trkpt lat="46.47493" lon="6.05281">
        <ele>1121.8000488281</ele>
        <time>2018-05-10T08:19:45.000Z</time>
      </trkpt>
      <trkpt lat="46.47497" lon="6.0528">
        <ele>1121.8000488281</ele>
        <time>2018-05-10T08:19:50.000Z</time>
      </trkpt>
      <trkpt lat="46.47498" lon="6.05279">
        <ele>1121.5999755859</ele>
        <time>2018-05-10T08:19:51.000Z</time>
      </trkpt>
      <trkpt lat="46.47511" lon="6.0527">
        <ele>1120.4000244141</ele>
        <time>2018-05-10T08:20:03.000Z</time>
      </trkpt>
      <trkpt lat="46.47517" lon="6.05272">
        <ele>1120.5999755859</ele>
        <time>2018-05-10T08:20:09.000Z</time>
      </trkpt>
      <trkpt lat="46.47515" lon="6.05281">
        <ele>1121.8000488281</ele>
        <time>2018-05-10T08:20:25.000Z</time>
      </trkpt>
      <trkpt lat="46.47513" lon="6.05281">
        <ele>1122</ele>
        <time>2018-05-10T08:20:30.000Z</time>
      </trkpt>
      <trkpt lat="46.47511" lon="6.0528">
        <ele>1121.8000488281</ele>
        <time>2018-05-10T08:20:40.000Z</time>
      </trkpt>
      <trkpt lat="46.47512" lon="6.05281">
        <ele>1122</ele>
        <time>2018-05-10T08:20:46.000Z</time>
      </trkpt>
      <trkpt lat="46.47514" lon="6.05282">
        <ele>1122.1999511719</ele>
        <time>2018-05-10T08:20:52.000Z</time>
      </trkpt>
      <trkpt lat="46.47518" lon="6.0528">
        <ele>1121.8000488281</ele>
        <time>2018-05-10T08:21:12.000Z</time>
      </trkpt>
      <trkpt lat="46.47516" lon="6.05281">
        <ele>1122</ele>
        <time>2018-05-10T08:21:20.000Z</time>
      </trkpt>
      <trkpt lat="46.47514" lon="6.05281">
        <ele>1121.8000488281</ele>
        <time>2018-05-10T08:21:23.000Z</time>
      </trkpt>
      <trkpt lat="46.47511" lon="6.0528">
        <ele>1121.8000488281</ele>
        <time>2018-05-10T08:21:27.000Z</time>
      </trkpt>
      <trkpt lat="46.4751" lon="6.0528">
        <ele>1121.8000488281</ele>
        <time>2018-05-10T08:21:28.000Z</time>
      </trkpt>
      <trkpt lat="46.475" lon="6.0528">
        <ele>1121.8000488281</ele>
        <time>2018-05-10T08:21:37.000Z</time>
      </trkpt>
      <trkpt lat="46.47499" lon="6.0528">
        <ele>1121.8000488281</ele>
        <time>2018-05-10T08:21:38.000Z</time>
      </trkpt>
      <trkpt lat="46.47494" lon="6.05281">
        <ele>1122</ele>
        <time>2018-05-10T08:21:44.000Z</time>
      </trkpt>
      <trkpt lat="46.47488" lon="6.05281">
        <ele>1122</ele>
        <time>2018-05-10T08:21:49.000Z</time>
      </trkpt>
      <trkpt lat="46.47484" lon="6.0528">
        <ele>1121.8000488281</ele>
        <time>2018-05-10T08:21:54.000Z</time>
      </trkpt>
      <trkpt lat="46.4748" lon="6.0528">
        <ele>1121.4000244141</ele>
        <time>2018-05-10T08:21:58.000Z</time>
      </trkpt>
      <trkpt lat="46.47474" lon="6.05276">
        <ele>1120.1999511719</ele>
        <time>2018-05-10T08:22:03.000Z</time>
      </trkpt>
      <trkpt lat="46.47469" lon="6.05278">
        <ele>1120</ele>
        <time>2018-05-10T08:22:07.000Z</time>
      </trkpt>
      <trkpt lat="46.47464" lon="6.05288">
        <ele>1120.8000488281</ele>
        <time>2018-05-10T08:22:14.000Z</time>
      </trkpt>
      <trkpt lat="46.47459" lon="6.05293">
        <ele>1121.4000244141</ele>
        <time>2018-05-10T08:22:21.000Z</time>
      </trkpt>
      <trkpt lat="46.47453" lon="6.05296">
        <ele>1121.8000488281</ele>
        <time>2018-05-10T08:22:27.000Z</time>
      </trkpt>
      <trkpt lat="46.47446" lon="6.053">
        <ele>1122</ele>
        <time>2018-05-10T08:22:34.000Z</time>
      </trkpt>
      <trkpt lat="46.47438" lon="6.05308">
        <ele>1123</ele>
        <time>2018-05-10T08:22:42.000Z</time>
      </trkpt>
      <trkpt lat="46.47431" lon="6.05312">
        <ele>1123</ele>
        <time>2018-05-10T08:22:49.000Z</time>
      </trkpt>
      <trkpt lat="46.47424" lon="6.05308">
        <ele>1122.1999511719</ele>
        <time>2018-05-10T08:22:55.000Z</time>
      </trkpt>
      <trkpt lat="46.47421" lon="6.05306">
        <ele>1121.8000488281</ele>
        <time>2018-05-10T08:22:57.000Z</time>
      </trkpt>
      <trkpt lat="46.47415" lon="6.05308">
        <ele>1121.5999755859</ele>
        <time>2018-05-10T08:23:03.000Z</time>
      </trkpt>
      <trkpt lat="46.47412" lon="6.0531">
        <ele>1121.8000488281</ele>
        <time>2018-05-10T08:23:07.000Z</time>
      </trkpt>
      <trkpt lat="46.47404" lon="6.05317">
        <ele>1122</ele>
        <time>2018-05-10T08:23:14.000Z</time>
      </trkpt>
      <trkpt lat="46.47399" lon="6.05321">
        <ele>1122.5999755859</ele>
        <time>2018-05-10T08:23:18.000Z</time>
      </trkpt>
      <trkpt lat="46.47394" lon="6.05323">
        <ele>1122.4000244141</ele>
        <time>2018-05-10T08:23:23.000Z</time>
      </trkpt>
      <trkpt lat="46.47389" lon="6.05331">
        <ele>1123.1999511719</ele>
        <time>2018-05-10T08:23:30.000Z</time>
      </trkpt>
      <trkpt lat="46.47386" lon="6.05337">
        <ele>1123.5999755859</ele>
        <time>2018-05-10T08:23:35.000Z</time>
      </trkpt>
      <trkpt lat="46.47385" lon="6.05337">
        <ele>1123.5999755859</ele>
        <time>2018-05-10T08:23:36.000Z</time>
      </trkpt>
      <trkpt lat="46.47376" lon="6.05339">
        <ele>1123</ele>
        <time>2018-05-10T08:23:44.000Z</time>
      </trkpt>
      <trkpt lat="46.4737" lon="6.05342">
        <ele>1122.8000488281</ele>
        <time>2018-05-10T08:23:48.000Z</time>
      </trkpt>
      <trkpt lat="46.47361" lon="6.05348">
        <ele>1122.8000488281</ele>
        <time>2018-05-10T08:23:55.000Z</time>
      </trkpt>
      <trkpt lat="46.4736" lon="6.05349">
        <ele>1122.8000488281</ele>
        <time>2018-05-10T08:23:56.000Z</time>
      </trkpt>
      <trkpt lat="46.47357" lon="6.05352">
        <ele>1123.1999511719</ele>
        <time>2018-05-10T08:23:59.000Z</time>
      </trkpt>
      <trkpt lat="46.47356" lon="6.05354">
        <ele>1123.5999755859</ele>
        <time>2018-05-10T08:24:01.000Z</time>
      </trkpt>
      <trkpt lat="46.4735" lon="6.05363">
        <ele>1125.4000244141</ele>
        <time>2018-05-10T08:24:08.000Z</time>
      </trkpt>
      <trkpt lat="46.47344" lon="6.05369">
        <ele>1126.5999755859</ele>
        <time>2018-05-10T08:24:14.000Z</time>
      </trkpt>
      <trkpt lat="46.47343" lon="6.05373">
        <ele>1127.4000244141</ele>
        <time>2018-05-10T08:24:17.000Z</time>
      </trkpt>
      <trkpt lat="46.47338" lon="6.05383">
        <ele>1129.4000244141</ele>
        <time>2018-05-10T08:24:24.000Z</time>
      </trkpt>
      <trkpt lat="46.47335" lon="6.0539">
        <ele>1130.8000488281</ele>
        <time>2018-05-10T08:24:30.000Z</time>
      </trkpt>
      <trkpt lat="46.47334" lon="6.054">
        <ele>1131.5999755859</ele>
        <time>2018-05-10T08:24:37.000Z</time>
      </trkpt>
      <trkpt lat="46.47329" lon="6.05407">
        <ele>1131.8000488281</ele>
        <time>2018-05-10T08:24:43.000Z</time>
      </trkpt>
      <trkpt lat="46.47328" lon="6.0541">
        <ele>1132.1999511719</ele>
        <time>2018-05-10T08:24:45.000Z</time>
      </trkpt>
      <trkpt lat="46.47327" lon="6.05415">
        <ele>1133</ele>
        <time>2018-05-10T08:24:48.000Z</time>
      </trkpt>
      <trkpt lat="46.47324" lon="6.05425">
        <ele>1134.4000244141</ele>
        <time>2018-05-10T08:24:55.000Z</time>
      </trkpt>
      <trkpt lat="46.47324" lon="6.05428">
        <ele>1134.5999755859</ele>
        <time>2018-05-10T08:24:57.000Z</time>
      </trkpt>
      <trkpt lat="46.47324" lon="6.05433">
        <ele>1135.1999511719</ele>
        <time>2018-05-10T08:25:01.000Z</time>
      </trkpt>
      <trkpt lat="46.47324" lon="6.05443">
        <ele>1136.4000244141</ele>
        <time>2018-05-10T08:25:08.000Z</time>
      </trkpt>
      <trkpt lat="46.47324" lon="6.05449">
        <ele>1137.1999511719</ele>
        <time>2018-05-10T08:25:12.000Z</time>
      </trkpt>
      <trkpt lat="46.47327" lon="6.05454">
        <ele>1137.5999755859</ele>
        <time>2018-05-10T08:25:17.000Z</time>
      </trkpt>
      <trkpt lat="46.47328" lon="6.05459">
        <ele>1138.1999511719</ele>
        <time>2018-05-10T08:25:21.000Z</time>
      </trkpt>
      <trkpt lat="46.47327" lon="6.05463">
        <ele>1138.5999755859</ele>
        <time>2018-05-10T08:25:25.000Z</time>
      </trkpt>
      <trkpt lat="46.4733" lon="6.05467">
        <ele>1139</ele>
        <time>2018-05-10T08:25:33.000Z</time>
      </trkpt>
      <trkpt lat="46.47327" lon="6.05468">
        <ele>1139.1999511719</ele>
        <time>2018-05-10T08:25:41.000Z</time>
      </trkpt>
      <trkpt lat="46.47327" lon="6.05469">
        <ele>1139.4000244141</ele>
        <time>2018-05-10T08:25:45.000Z</time>
      </trkpt>
      <trkpt lat="46.47326" lon="6.05469">
        <ele>1139.4000244141</ele>
        <time>2018-05-10T08:25:50.000Z</time>
      </trkpt>
      <trkpt lat="46.4732" lon="6.05473">
        <ele>1140.4000244141</ele>
        <time>2018-05-10T08:25:58.000Z</time>
      </trkpt>
      <trkpt lat="46.47317" lon="6.05475">
        <ele>1140.8000488281</ele>
        <time>2018-05-10T08:26:02.000Z</time>
      </trkpt>
      <trkpt lat="46.47309" lon="6.05466">
        <ele>1138.4000244141</ele>
        <time>2018-05-10T08:26:12.000Z</time>
      </trkpt>
      <trkpt lat="46.47302" lon="6.05464">
        <ele>1137.4000244141</ele>
        <time>2018-05-10T08:26:20.000Z</time>
      </trkpt>
      <trkpt lat="46.47295" lon="6.05464">
        <ele>1136.8000488281</ele>
        <time>2018-05-10T08:26:27.000Z</time>
      </trkpt>
      <trkpt lat="46.47287" lon="6.05466">
        <ele>1136.5999755859</ele>
        <time>2018-05-10T08:26:33.000Z</time>
      </trkpt>
      <trkpt lat="46.4728" lon="6.05468">
        <ele>1136.5999755859</ele>
        <time>2018-05-10T08:26:39.000Z</time>
      </trkpt>
      <trkpt lat="46.47278" lon="6.05469">
        <ele>1136.5999755859</ele>
        <time>2018-05-10T08:26:41.000Z</time>
      </trkpt>
      <trkpt lat="46.47272" lon="6.0547">
        <ele>1136.4000244141</ele>
        <time>2018-05-10T08:26:46.000Z</time>
      </trkpt>
      <trkpt lat="46.47271" lon="6.0547">
        <ele>1136.4000244141</ele>
        <time>2018-05-10T08:26:49.000Z</time>
      </trkpt>
      <trkpt lat="46.47271" lon="6.05472">
        <ele>1136.8000488281</ele>
        <time>2018-05-10T08:27:10.000Z</time>
      </trkpt>
      <trkpt lat="46.47273" lon="6.05473">
        <ele>1137.1999511719</ele>
        <time>2018-05-10T08:27:27.000Z</time>
      </trkpt>
      <trkpt lat="46.4727" lon="6.05473">
        <ele>1137</ele>
        <time>2018-05-10T08:27:39.000Z</time>
      </trkpt>
      <trkpt lat="46.47269" lon="6.05473">
        <ele>1137</ele>
        <time>2018-05-10T08:27:41.000Z</time>
      </trkpt>
      <trkpt lat="46.47267" lon="6.05474">
        <ele>1137</ele>
        <time>2018-05-10T08:27:44.000Z</time>
      </trkpt>
      <trkpt lat="46.47263" lon="6.05474">
        <ele>1136.8000488281</ele>
        <time>2018-05-10T08:27:50.000Z</time>
      </trkpt>
      <trkpt lat="46.47251" lon="6.05475">
        <ele>1136</ele>
        <time>2018-05-10T08:28:22.000Z</time>
      </trkpt>
      <trkpt lat="46.47251" lon="6.05476">
        <ele>1136.1999511719</ele>
        <time>2018-05-10T08:28:28.000Z</time>
      </trkpt>
      <trkpt lat="46.47249" lon="6.05477">
        <ele>1136.1999511719</ele>
        <time>2018-05-10T08:28:34.000Z</time>
      </trkpt>
      <trkpt lat="46.47249" lon="6.05477">
        <ele>1136.1999511719</ele>
        <time>2018-05-10T08:28:37.000Z</time>
      </trkpt>
      <trkpt lat="46.47247" lon="6.05477">
        <ele>1136</ele>
        <time>2018-05-10T08:28:41.000Z</time>
      </trkpt>
      <trkpt lat="46.47244" lon="6.05479">
        <ele>1136</ele>
        <time>2018-05-10T08:28:47.000Z</time>
      </trkpt>
      <trkpt lat="46.47241" lon="6.05481">
        <ele>1135.8000488281</ele>
        <time>2018-05-10T08:28:55.000Z</time>
      </trkpt>
      <trkpt lat="46.47239" lon="6.05481">
        <ele>1135.5999755859</ele>
        <time>2018-05-10T08:28:58.000Z</time>
      </trkpt>
      <trkpt lat="46.47236" lon="6.05481">
        <ele>1135.4000244141</ele>
        <time>2018-05-10T08:29:01.000Z</time>
      </trkpt>
      <trkpt lat="46.47231" lon="6.05482">
        <ele>1134.8000488281</ele>
        <time>2018-05-10T08:29:07.000Z</time>
      </trkpt>
      <trkpt lat="46.47227" lon="6.05485">
        <ele>1134.1999511719</ele>
        <time>2018-05-10T08:29:13.000Z</time>
      </trkpt>
      <trkpt lat="46.47219" lon="6.05488">
        <ele>1133</ele>
        <time>2018-05-10T08:29:20.000Z</time>
      </trkpt>
      <trkpt lat="46.47217" lon="6.0549">
        <ele>1132.5999755859</ele>
        <time>2018-05-10T08:29:23.000Z</time>
      </trkpt>
      <trkpt lat="46.47211" lon="6.05492">
        <ele>1131.5999755859</ele>
        <time>2018-05-10T08:29:28.000Z</time>
      </trkpt>
      <trkpt lat="46.47208" lon="6.05493">
        <ele>1131</ele>
        <time>2018-05-10T08:29:32.000Z</time>
      </trkpt>
      <trkpt lat="46.47205" lon="6.05495">
        <ele>1130.5999755859</ele>
        <time>2018-05-10T08:29:34.000Z</time>
      </trkpt>
      <trkpt lat="46.47196" lon="6.055">
        <ele>1129</ele>
        <time>2018-05-10T08:29:40.000Z</time>
      </trkpt>
      <trkpt lat="46.47192" lon="6.05502">
        <ele>1128.4000244141</ele>
        <time>2018-05-10T08:29:45.000Z</time>
      </trkpt>
      <trkpt lat="46.47183" lon="6.05507">
        <ele>1127</ele>
        <time>2018-05-10T08:29:52.000Z</time>
      </trkpt>
      <trkpt lat="46.47179" lon="6.0551">
        <ele>1126.5999755859</ele>
        <time>2018-05-10T08:29:55.000Z</time>
      </trkpt>
      <trkpt lat="46.47174" lon="6.05513">
        <ele>1126.4000244141</ele>
        <time>2018-05-10T08:30:00.000Z</time>
      </trkpt>
      <trkpt lat="46.47168" lon="6.05516">
        <ele>1126</ele>
        <time>2018-05-10T08:30:05.000Z</time>
      </trkpt>
      <trkpt lat="46.47161" lon="6.05522">
        <ele>1126</ele>
        <time>2018-05-10T08:30:13.000Z</time>
      </trkpt>
      <trkpt lat="46.47157" lon="6.05528">
        <ele>1126</ele>
        <time>2018-05-10T08:30:18.000Z</time>
      </trkpt>
      <trkpt lat="46.47152" lon="6.05531">
        <ele>1125.8000488281</ele>
        <time>2018-05-10T08:30:22.000Z</time>
      </trkpt>
      <trkpt lat="46.47145" lon="6.05537">
        <ele>1126</ele>
        <time>2018-05-10T08:30:28.000Z</time>
      </trkpt>
      <trkpt lat="46.47138" lon="6.05541">
        <ele>1126.4000244141</ele>
        <time>2018-05-10T08:30:35.000Z</time>
      </trkpt>
      <trkpt lat="46.47136" lon="6.05542">
        <ele>1126.4000244141</ele>
        <time>2018-05-10T08:30:37.000Z</time>
      </trkpt>
      <trkpt lat="46.47133" lon="6.05545">
        <ele>1126.5999755859</ele>
        <time>2018-05-10T08:30:41.000Z</time>
      </trkpt>
      <trkpt lat="46.4713" lon="6.05547">
        <ele>1126.5999755859</ele>
        <time>2018-05-10T08:30:45.000Z</time>
      </trkpt>
      <trkpt lat="46.47123" lon="6.05545">
        <ele>1126.1999511719</ele>
        <time>2018-05-10T08:30:54.000Z</time>
      </trkpt>
      <trkpt lat="46.4712" lon="6.05548">
        <ele>1126.4000244141</ele>
        <time>2018-05-10T08:30:59.000Z</time>
      </trkpt>
      <trkpt lat="46.4712" lon="6.05553">
        <ele>1127</ele>
        <time>2018-05-10T08:31:03.000Z</time>
      </trkpt>
      <trkpt lat="46.47118" lon="6.05558">
        <ele>1127.5999755859</ele>
        <time>2018-05-10T08:31:06.000Z</time>
      </trkpt>
      <trkpt lat="46.47111" lon="6.05559">
        <ele>1127.5999755859</ele>
        <time>2018-05-10T08:31:10.000Z</time>
      </trkpt>
      <trkpt lat="46.47105" lon="6.05564">
        <ele>1127.1999511719</ele>
        <time>2018-05-10T08:31:16.000Z</time>
      </trkpt>
      <trkpt lat="46.47099" lon="6.05563">
        <ele>1127</ele>
        <time>2018-05-10T08:31:21.000Z</time>
      </trkpt>
      <trkpt lat="46.47096" lon="6.05562">
        <ele>1127</ele>
        <time>2018-05-10T08:31:24.000Z</time>
      </trkpt>
      <trkpt lat="46.47093" lon="6.05558">
        <ele>1126.8000488281</ele>
        <time>2018-05-10T08:31:28.000Z</time>
      </trkpt>
      <trkpt lat="46.47087" lon="6.0555">
        <ele>1125.4000244141</ele>
        <time>2018-05-10T08:31:34.000Z</time>
      </trkpt>
      <trkpt lat="46.47081" lon="6.05541">
        <ele>1124.1999511719</ele>
        <time>2018-05-10T08:31:40.000Z</time>
      </trkpt>
      <trkpt lat="46.47076" lon="6.05538">
        <ele>1123.5999755859</ele>
        <time>2018-05-10T08:31:46.000Z</time>
      </trkpt>
      <trkpt lat="46.47072" lon="6.05537">
        <ele>1123.1999511719</ele>
        <time>2018-05-10T08:31:50.000Z</time>
      </trkpt>
      <trkpt lat="46.47068" lon="6.05535">
        <ele>1122.8000488281</ele>
        <time>2018-05-10T08:31:53.000Z</time>
      </trkpt>
      <trkpt lat="46.47065" lon="6.05533">
        <ele>1122.5999755859</ele>
        <time>2018-05-10T08:31:57.000Z</time>
      </trkpt>
      <trkpt lat="46.47062" lon="6.05532">
        <ele>1122.5999755859</ele>
        <time>2018-05-10T08:32:01.000Z</time>
      </trkpt>
      <trkpt lat="46.47056" lon="6.0553">
        <ele>1122.8000488281</ele>
        <time>2018-05-10T08:32:08.000Z</time>
      </trkpt>
      <trkpt lat="46.47054" lon="6.0553">
        <ele>1123</ele>
        <time>2018-05-10T08:32:11.000Z</time>
      </trkpt>
      <trkpt lat="46.47046" lon="6.05526">
        <ele>1123</ele>
        <time>2018-05-10T08:32:18.000Z</time>
      </trkpt>
      <trkpt lat="46.47039" lon="6.05522">
        <ele>1123</ele>
        <time>2018-05-10T08:32:24.000Z</time>
      </trkpt>
      <trkpt lat="46.47031" lon="6.05509">
        <ele>1122</ele>
        <time>2018-05-10T08:32:33.000Z</time>
      </trkpt>
      <trkpt lat="46.4703" lon="6.05507">
        <ele>1121.8000488281</ele>
        <time>2018-05-10T08:32:34.000Z</time>
      </trkpt>
      <trkpt lat="46.47027" lon="6.05492">
        <ele>1120</ele>
        <time>2018-05-10T08:32:43.000Z</time>
      </trkpt>
      <trkpt lat="46.47024" lon="6.05485">
        <ele>1119.1999511719</ele>
        <time>2018-05-10T08:32:47.000Z</time>
      </trkpt>
      <trkpt lat="46.47023" lon="6.05481">
        <ele>1118.8000488281</ele>
        <time>2018-05-10T08:32:49.000Z</time>
      </trkpt>
      <trkpt lat="46.4702" lon="6.05472">
        <ele>1117.5999755859</ele>
        <time>2018-05-10T08:32:55.000Z</time>
      </trkpt>
      <trkpt lat="46.47018" lon="6.05465">
        <ele>1116.5999755859</ele>
        <time>2018-05-10T08:33:00.000Z</time>
      </trkpt>
      <trkpt lat="46.47022" lon="6.05466">
        <ele>1116.1999511719</ele>
        <time>2018-05-10T08:33:06.000Z</time>
      </trkpt>
      <trkpt lat="46.47023" lon="6.05466">
        <ele>1116.1999511719</ele>
        <time>2018-05-10T08:33:07.000Z</time>
      </trkpt>
      <trkpt lat="46.47025" lon="6.05464">
        <ele>1115.8000488281</ele>
        <time>2018-05-10T08:33:11.000Z</time>
      </trkpt>
      <trkpt lat="46.47025" lon="6.05462">
        <ele>1115.4000244141</ele>
        <time>2018-05-10T08:33:18.000Z</time>
      </trkpt>
      <trkpt lat="46.47026" lon="6.05461">
        <ele>1115.1999511719</ele>
        <time>2018-05-10T08:33:24.000Z</time>
      </trkpt>
      <trkpt lat="46.47024" lon="6.05458">
        <ele>1114.8000488281</ele>
        <time>2018-05-10T08:33:31.000Z</time>
      </trkpt>
      <trkpt lat="46.47024" lon="6.05458">
        <ele>1114.8000488281</ele>
        <time>2018-05-10T08:33:36.000Z</time>
      </trkpt>
      <trkpt lat="46.47027" lon="6.05459">
        <ele>1114.8000488281</ele>
        <time>2018-05-10T08:34:11.000Z</time>
      </trkpt>
      <trkpt lat="46.47025" lon="6.05457">
        <ele>1114.5999755859</ele>
        <time>2018-05-10T08:34:25.000Z</time>
      </trkpt>
      <trkpt lat="46.47026" lon="6.05459">
        <ele>1114.8000488281</ele>
        <time>2018-05-10T08:35:11.000Z</time>
      </trkpt>
      <trkpt lat="46.47026" lon="6.05461">
        <ele>1115</ele>
        <time>2018-05-10T08:35:14.000Z</time>
      </trkpt>
      <trkpt lat="46.47027" lon="6.05459">
        <ele>1114.8000488281</ele>
        <time>2018-05-10T08:35:20.000Z</time>
      </trkpt>
      <trkpt lat="46.47026" lon="6.05458">
        <ele>1114.5999755859</ele>
        <time>2018-05-10T08:35:24.000Z</time>
      </trkpt>
      <trkpt lat="46.47026" lon="6.05457">
        <ele>1114.5999755859</ele>
        <time>2018-05-10T08:35:40.000Z</time>
      </trkpt>
      <trkpt lat="46.47027" lon="6.0546">
        <ele>1115</ele>
        <time>2018-05-10T08:35:50.000Z</time>
      </trkpt>
      <trkpt lat="46.47027" lon="6.05462">
        <ele>1115.4000244141</ele>
        <time>2018-05-10T08:36:08.000Z</time>
      </trkpt>
      <trkpt lat="46.47028" lon="6.05461">
        <ele>1115.1999511719</ele>
        <time>2018-05-10T08:36:11.000Z</time>
      </trkpt>
      <trkpt lat="46.47027" lon="6.05461">
        <ele>1115.1999511719</ele>
        <time>2018-05-10T08:36:23.000Z</time>
      </trkpt>
      <trkpt lat="46.47025" lon="6.05461">
        <ele>1115.1999511719</ele>
        <time>2018-05-10T08:36:38.000Z</time>
      </trkpt>
      <trkpt lat="46.47028" lon="6.05463">
        <ele>1115.4000244141</ele>
        <time>2018-05-10T08:36:47.000Z</time>
      </trkpt>
      <trkpt lat="46.47027" lon="6.05461">
        <ele>1115.1999511719</ele>
        <time>2018-05-10T08:36:54.000Z</time>
      </trkpt>
      <trkpt lat="46.47026" lon="6.0546">
        <ele>1115</ele>
        <time>2018-05-10T08:36:59.000Z</time>
      </trkpt>
      <trkpt lat="46.47027" lon="6.05461">
        <ele>1115</ele>
        <time>2018-05-10T08:37:26.000Z</time>
      </trkpt>
      <trkpt lat="46.47027" lon="6.05459">
        <ele>1114.8000488281</ele>
        <time>2018-05-10T08:37:29.000Z</time>
      </trkpt>
      <trkpt lat="46.47024" lon="6.05458">
        <ele>1114.8000488281</ele>
        <time>2018-05-10T08:37:43.000Z</time>
      </trkpt>
      <trkpt lat="46.47024" lon="6.05458">
        <ele>1114.8000488281</ele>
        <time>2018-05-10T08:37:46.000Z</time>
      </trkpt>
      <trkpt lat="46.47026" lon="6.05458">
        <ele>1114.8000488281</ele>
        <time>2018-05-10T08:37:53.000Z</time>
      </trkpt>
      <trkpt lat="46.47026" lon="6.05457">
        <ele>1114.4000244141</ele>
        <time>2018-05-10T08:37:57.000Z</time>
      </trkpt>
      <trkpt lat="46.47027" lon="6.05455">
        <ele>1114.1999511719</ele>
        <time>2018-05-10T08:38:07.000Z</time>
      </trkpt>
      <trkpt lat="46.47027" lon="6.05456">
        <ele>1114.1999511719</ele>
        <time>2018-05-10T08:38:11.000Z</time>
      </trkpt>
      <trkpt lat="46.47026" lon="6.05456">
        <ele>1114.4000244141</ele>
        <time>2018-05-10T08:38:15.000Z</time>
      </trkpt>
      <trkpt lat="46.47026" lon="6.05456">
        <ele>1114.1999511719</ele>
        <time>2018-05-10T08:38:18.000Z</time>
      </trkpt>
      <trkpt lat="46.47026" lon="6.05457">
        <ele>1114.4000244141</ele>
        <time>2018-05-10T08:38:22.000Z</time>
      </trkpt>
      <trkpt lat="46.47026" lon="6.05457">
        <ele>1114.4000244141</ele>
        <time>2018-05-10T08:38:27.000Z</time>
      </trkpt>
      <trkpt lat="46.47027" lon="6.05458">
        <ele>1114.4000244141</ele>
        <time>2018-05-10T08:38:33.000Z</time>
      </trkpt>
      <trkpt lat="46.47022" lon="6.05449">
        <ele>1113.4000244141</ele>
        <time>2018-05-10T08:38:48.000Z</time>
      </trkpt>
      <trkpt lat="46.47028" lon="6.05453">
        <ele>1113.5999755859</ele>
        <time>2018-05-10T08:39:03.000Z</time>
      </trkpt>
      <trkpt lat="46.47031" lon="6.05457">
        <ele>1114.1999511719</ele>
        <time>2018-05-10T08:39:18.000Z</time>
      </trkpt>
      <trkpt lat="46.4703" lon="6.05458">
        <ele>1114.4000244141</ele>
        <time>2018-05-10T08:39:21.000Z</time>
      </trkpt>
      <trkpt lat="46.47027" lon="6.05459">
        <ele>1114.8000488281</ele>
        <time>2018-05-10T08:39:30.000Z</time>
      </trkpt>
      <trkpt lat="46.47026" lon="6.05457">
        <ele>1114.4000244141</ele>
        <time>2018-05-10T08:39:34.000Z</time>
      </trkpt>
      <trkpt lat="46.47026" lon="6.05451">
        <ele>1113.4000244141</ele>
        <time>2018-05-10T08:39:43.000Z</time>
      </trkpt>
      <trkpt lat="46.47022" lon="6.05452">
        <ele>1113.8000488281</ele>
        <time>2018-05-10T08:39:55.000Z</time>
      </trkpt>
      <trkpt lat="46.4702" lon="6.05452">
        <ele>1114</ele>
        <time>2018-05-10T08:39:57.000Z</time>
      </trkpt>
      <trkpt lat="46.47018" lon="6.05452">
        <ele>1114.1999511719</ele>
        <time>2018-05-10T08:40:00.000Z</time>
      </trkpt>
      <trkpt lat="46.47012" lon="6.05451">
        <ele>1114.4000244141</ele>
        <time>2018-05-10T08:40:06.000Z</time>
      </trkpt>
      <trkpt lat="46.47012" lon="6.0545">
        <ele>1114.4000244141</ele>
        <time>2018-05-10T08:40:07.000Z</time>
      </trkpt>
      <trkpt lat="46.47005" lon="6.05447">
        <ele>1114.1999511719</ele>
        <time>2018-05-10T08:40:17.000Z</time>
      </trkpt>
      <trkpt lat="46.47005" lon="6.05446">
        <ele>1114</ele>
        <time>2018-05-10T08:40:19.000Z</time>
      </trkpt>
      <trkpt lat="46.47003" lon="6.05444">
        <ele>1113.8000488281</ele>
        <time>2018-05-10T08:40:28.000Z</time>
      </trkpt>
      <trkpt lat="46.47001" lon="6.05443">
        <ele>1113.8000488281</ele>
        <time>2018-05-10T08:40:34.000Z</time>
      </trkpt>
      <trkpt lat="46.46991" lon="6.05443">
        <ele>1114.4000244141</ele>
        <time>2018-05-10T08:40:50.000Z</time>
      </trkpt>
      <trkpt lat="46.46988" lon="6.05435">
        <ele>1113.1999511719</ele>
        <time>2018-05-10T08:40:56.000Z</time>
      </trkpt>
      <trkpt lat="46.46988" lon="6.05434">
        <ele>1113.1999511719</ele>
        <time>2018-05-10T08:40:58.000Z</time>
      </trkpt>
      <trkpt lat="46.46983" lon="6.05431">
        <ele>1113</ele>
        <time>2018-05-10T08:41:06.000Z</time>
      </trkpt>
      <trkpt lat="46.46978" lon="6.05426">
        <ele>1112.1999511719</ele>
        <time>2018-05-10T08:41:14.000Z</time>
      </trkpt>
      <trkpt lat="46.46976" lon="6.05424">
        <ele>1111.5999755859</ele>
        <time>2018-05-10T08:41:17.000Z</time>
      </trkpt>
      <trkpt lat="46.46973" lon="6.0542">
        <ele>1111.1999511719</ele>
        <time>2018-05-10T08:41:21.000Z</time>
      </trkpt>
      <trkpt lat="46.46969" lon="6.05414">
        <ele>1110</ele>
        <time>2018-05-10T08:41:26.000Z</time>
      </trkpt>
      <trkpt lat="46.46966" lon="6.05409">
        <ele>1109.1999511719</ele>
        <time>2018-05-10T08:41:31.000Z</time>
      </trkpt>
      <trkpt lat="46.46962" lon="6.05405">
        <ele>1108.4000244141</ele>
        <time>2018-05-10T08:41:34.000Z</time>
      </trkpt>
      <trkpt lat="46.46959" lon="6.05402">
        <ele>1108</ele>
        <time>2018-05-10T08:41:38.000Z</time>
      </trkpt>
      <trkpt lat="46.46958" lon="6.05401">
        <ele>1107.8000488281</ele>
        <time>2018-05-10T08:41:40.000Z</time>
      </trkpt>
      <trkpt lat="46.46957" lon="6.05398">
        <ele>1107.1999511719</ele>
        <time>2018-05-10T08:41:44.000Z</time>
      </trkpt>
      <trkpt lat="46.46956" lon="6.05397">
        <ele>1107.1999511719</ele>
        <time>2018-05-10T08:41:51.000Z</time>
      </trkpt>
      <trkpt lat="46.46956" lon="6.05397">
        <ele>1107.1999511719</ele>
        <time>2018-05-10T08:41:53.000Z</time>
      </trkpt>
      <trkpt lat="46.46953" lon="6.05397">
        <ele>1107.1999511719</ele>
        <time>2018-05-10T08:42:00.000Z</time>
      </trkpt>
      <trkpt lat="46.46951" lon="6.05396">
        <ele>1107</ele>
        <time>2018-05-10T08:42:03.000Z</time>
      </trkpt>
      <trkpt lat="46.4695" lon="6.05395">
        <ele>1106.8000488281</ele>
        <time>2018-05-10T08:42:06.000Z</time>
      </trkpt>
      <trkpt lat="46.46944" lon="6.05391">
        <ele>1106.1999511719</ele>
        <time>2018-05-10T08:42:13.000Z</time>
      </trkpt>
      <trkpt lat="46.46939" lon="6.05388">
        <ele>1105.8000488281</ele>
        <time>2018-05-10T08:42:20.000Z</time>
      </trkpt>
      <trkpt lat="46.46934" lon="6.05382">
        <ele>1105</ele>
        <time>2018-05-10T08:42:29.000Z</time>
      </trkpt>
      <trkpt lat="46.46933" lon="6.05381">
        <ele>1104.8000488281</ele>
        <time>2018-05-10T08:42:33.000Z</time>
      </trkpt>
      <trkpt lat="46.46929" lon="6.05374">
        <ele>1103.8000488281</ele>
        <time>2018-05-10T08:42:45.000Z</time>
      </trkpt>
      <trkpt lat="46.46928" lon="6.05372">
        <ele>1103.5999755859</ele>
        <time>2018-05-10T08:42:47.000Z</time>
      </trkpt>
      <trkpt lat="46.46924" lon="6.05373">
        <ele>1103.5999755859</ele>
        <time>2018-05-10T08:42:52.000Z</time>
      </trkpt>
      <trkpt lat="46.46913" lon="6.05373">
        <ele>1103.8000488281</ele>
        <time>2018-05-10T08:43:02.000Z</time>
      </trkpt>
      <trkpt lat="46.46909" lon="6.05377">
        <ele>1104.4000244141</ele>
        <time>2018-05-10T08:43:09.000Z</time>
      </trkpt>
      <trkpt lat="46.46905" lon="6.05379">
        <ele>1104.8000488281</ele>
        <time>2018-05-10T08:43:15.000Z</time>
      </trkpt>
      <trkpt lat="46.46902" lon="6.0538">
        <ele>1105</ele>
        <time>2018-05-10T08:43:17.000Z</time>
      </trkpt>
      <trkpt lat="46.46896" lon="6.05381">
        <ele>1105.5999755859</ele>
        <time>2018-05-10T08:43:23.000Z</time>
      </trkpt>
      <trkpt lat="46.46893" lon="6.05379">
        <ele>1105.5999755859</ele>
        <time>2018-05-10T08:43:27.000Z</time>
      </trkpt>
      <trkpt lat="46.46892" lon="6.05377">
        <ele>1105.4000244141</ele>
        <time>2018-05-10T08:43:29.000Z</time>
      </trkpt>
      <trkpt lat="46.4689" lon="6.05376">
        <ele>1105.5999755859</ele>
        <time>2018-05-10T08:43:32.000Z</time>
      </trkpt>
      <trkpt lat="46.46887" lon="6.05375">
        <ele>1105.5999755859</ele>
        <time>2018-05-10T08:43:39.000Z</time>
      </trkpt>
      <trkpt lat="46.46879" lon="6.0537">
        <ele>1106</ele>
        <time>2018-05-10T08:43:46.000Z</time>
      </trkpt>
      <trkpt lat="46.46873" lon="6.05368">
        <ele>1106.1999511719</ele>
        <time>2018-05-10T08:43:51.000Z</time>
      </trkpt>
      <trkpt lat="46.46872" lon="6.05367">
        <ele>1106.1999511719</ele>
        <time>2018-05-10T08:43:52.000Z</time>
      </trkpt>
      <trkpt lat="46.4687" lon="6.05366">
        <ele>1106.1999511719</ele>
        <time>2018-05-10T08:43:54.000Z</time>
      </trkpt>
      <trkpt lat="46.46867" lon="6.05366">
        <ele>1106.4000244141</ele>
        <time>2018-05-10T08:43:57.000Z</time>
      </trkpt>
      <trkpt lat="46.46864" lon="6.05368">
        <ele>1106.5999755859</ele>
        <time>2018-05-10T08:44:01.000Z</time>
      </trkpt>
      <trkpt lat="46.4686" lon="6.05368">
        <ele>1106.8000488281</ele>
        <time>2018-05-10T08:44:05.000Z</time>
      </trkpt>
      <trkpt lat="46.46851" lon="6.05367">
        <ele>1107.1999511719</ele>
        <time>2018-05-10T08:44:13.000Z</time>
      </trkpt>
      <trkpt lat="46.46844" lon="6.05364">
        <ele>1107.1999511719</ele>
        <time>2018-05-10T08:44:21.000Z</time>
      </trkpt>
      <trkpt lat="46.4684" lon="6.05364">
        <ele>1107.4000244141</ele>
        <time>2018-05-10T08:44:25.000Z</time>
      </trkpt>
      <trkpt lat="46.46839" lon="6.05364">
        <ele>1107.4000244141</ele>
        <time>2018-05-10T08:44:28.000Z</time>
      </trkpt>
      <trkpt lat="46.46836" lon="6.05363">
        <ele>1107.5999755859</ele>
        <time>2018-05-10T08:44:32.000Z</time>
      </trkpt>
      <trkpt lat="46.46833" lon="6.05362">
        <ele>1107.5999755859</ele>
        <time>2018-05-10T08:44:36.000Z</time>
      </trkpt>
      <trkpt lat="46.46833" lon="6.05362">
        <ele>1107.5999755859</ele>
        <time>2018-05-10T08:44:37.000Z</time>
      </trkpt>
      <trkpt lat="46.4683" lon="6.05361">
        <ele>1107.8000488281</ele>
        <time>2018-05-10T08:44:42.000Z</time>
      </trkpt>
      <trkpt lat="46.46828" lon="6.05361">
        <ele>1107.8000488281</ele>
        <time>2018-05-10T08:44:45.000Z</time>
      </trkpt>
      <trkpt lat="46.46825" lon="6.0536">
        <ele>1107.8000488281</ele>
        <time>2018-05-10T08:44:48.000Z</time>
      </trkpt>
      <trkpt lat="46.46814" lon="6.05359">
        <ele>1108</ele>
        <time>2018-05-10T08:44:57.000Z</time>
      </trkpt>
      <trkpt lat="46.46812" lon="6.05359">
        <ele>1107.8000488281</ele>
        <time>2018-05-10T08:44:59.000Z</time>
      </trkpt>
      <trkpt lat="46.46806" lon="6.05358">
        <ele>1107.1999511719</ele>
        <time>2018-05-10T08:45:05.000Z</time>
      </trkpt>
      <trkpt lat="46.46806" lon="6.05358">
        <ele>1107.1999511719</ele>
        <time>2018-05-10T08:45:06.000Z</time>
      </trkpt>
      <trkpt lat="46.46804" lon="6.05358">
        <ele>1107</ele>
        <time>2018-05-10T08:45:08.000Z</time>
      </trkpt>
      <trkpt lat="46.46803" lon="6.05358">
        <ele>1107</ele>
        <time>2018-05-10T08:45:10.000Z</time>
      </trkpt>
      <trkpt lat="46.46795" lon="6.05361">
        <ele>1106.5999755859</ele>
        <time>2018-05-10T08:45:18.000Z</time>
      </trkpt>
      <trkpt lat="46.46791" lon="6.05362">
        <ele>1106.1999511719</ele>
        <time>2018-05-10T08:45:22.000Z</time>
      </trkpt>
      <trkpt lat="46.46781" lon="6.05365">
        <ele>1106.5999755859</ele>
        <time>2018-05-10T08:45:30.000Z</time>
      </trkpt>
      <trkpt lat="46.4678" lon="6.05365">
        <ele>1106.4000244141</ele>
        <time>2018-05-10T08:45:31.000Z</time>
      </trkpt>
      <trkpt lat="46.46776" lon="6.05363">
        <ele>1106.1999511719</ele>
        <time>2018-05-10T08:45:35.000Z</time>
      </trkpt>
      <trkpt lat="46.46769" lon="6.05364">
        <ele>1106.4000244141</ele>
        <time>2018-05-10T08:45:42.000Z</time>
      </trkpt>
      <trkpt lat="46.46766" lon="6.05371">
        <ele>1107.8000488281</ele>
        <time>2018-05-10T08:45:49.000Z</time>
      </trkpt>
      <trkpt lat="46.46763" lon="6.05378">
        <ele>1109</ele>
        <time>2018-05-10T08:45:55.000Z</time>
      </trkpt>
      <trkpt lat="46.46756" lon="6.05382">
        <ele>1109.8000488281</ele>
        <time>2018-05-10T08:46:01.000Z</time>
      </trkpt>
      <trkpt lat="46.4675" lon="6.05384">
        <ele>1110.1999511719</ele>
        <time>2018-05-10T08:46:06.000Z</time>
      </trkpt>
      <trkpt lat="46.46745" lon="6.05383">
        <ele>1110.1999511719</ele>
        <time>2018-05-10T08:46:12.000Z</time>
      </trkpt>
      <trkpt lat="46.46744" lon="6.05384">
        <ele>1110.4000244141</ele>
        <time>2018-05-10T08:46:16.000Z</time>
      </trkpt>
      <trkpt lat="46.4674" lon="6.05385">
        <ele>1110.5999755859</ele>
        <time>2018-05-10T08:46:23.000Z</time>
      </trkpt>
      <trkpt lat="46.46739" lon="6.05385">
        <ele>1110.5999755859</ele>
        <time>2018-05-10T08:46:25.000Z</time>
      </trkpt>
      <trkpt lat="46.4673" lon="6.05383">
        <ele>1109.8000488281</ele>
        <time>2018-05-10T08:47:22.000Z</time>
      </trkpt>
      <trkpt lat="46.46727" lon="6.05384">
        <ele>1109</ele>
        <time>2018-05-10T08:47:27.000Z</time>
      </trkpt>
      <trkpt lat="46.46724" lon="6.05384">
        <ele>1108.4000244141</ele>
        <time>2018-05-10T08:47:31.000Z</time>
      </trkpt>
      <trkpt lat="46.46723" lon="6.05383">
        <ele>1108</ele>
        <time>2018-05-10T08:47:34.000Z</time>
      </trkpt>
      <trkpt lat="46.46722" lon="6.05384">
        <ele>1108</ele>
        <time>2018-05-10T08:47:39.000Z</time>
      </trkpt>
      <trkpt lat="46.46716" lon="6.05386">
        <ele>1107.1999511719</ele>
        <time>2018-05-10T08:47:47.000Z</time>
      </trkpt>
      <trkpt lat="46.46712" lon="6.05385">
        <ele>1106.4000244141</ele>
        <time>2018-05-10T08:47:52.000Z</time>
      </trkpt>
      <trkpt lat="46.46705" lon="6.05384">
        <ele>1104.8000488281</ele>
        <time>2018-05-10T08:47:58.000Z</time>
      </trkpt>
      <trkpt lat="46.46704" lon="6.05383">
        <ele>1104.4000244141</ele>
        <time>2018-05-10T08:48:01.000Z</time>
      </trkpt>
      <trkpt lat="46.46703" lon="6.05385">
        <ele>1104.4000244141</ele>
        <time>2018-05-10T08:48:06.000Z</time>
      </trkpt>
      <trkpt lat="46.46699" lon="6.05386">
        <ele>1104</ele>
        <time>2018-05-10T08:48:11.000Z</time>
      </trkpt>
      <trkpt lat="46.46697" lon="6.05386">
        <ele>1103.5999755859</ele>
        <time>2018-05-10T08:48:15.000Z</time>
      </trkpt>
      <trkpt lat="46.46694" lon="6.05387">
        <ele>1103.4000244141</ele>
        <time>2018-05-10T08:48:26.000Z</time>
      </trkpt>
      <trkpt lat="46.46694" lon="6.05388">
        <ele>1103.4000244141</ele>
        <time>2018-05-10T08:48:27.000Z</time>
      </trkpt>
      <trkpt lat="46.46689" lon="6.05391">
        <ele>1103.1999511719</ele>
        <time>2018-05-10T08:48:34.000Z</time>
      </trkpt>
      <trkpt lat="46.46683" lon="6.05391">
        <ele>1102</ele>
        <time>2018-05-10T08:48:42.000Z</time>
      </trkpt>
      <trkpt lat="46.46677" lon="6.05388">
        <ele>1100.1999511719</ele>
        <time>2018-05-10T08:48:50.000Z</time>
      </trkpt>
      <trkpt lat="46.46672" lon="6.05388">
        <ele>1099.4000244141</ele>
        <time>2018-05-10T08:48:54.000Z</time>
      </trkpt>
      <trkpt lat="46.46665" lon="6.05385">
        <ele>1097.4000244141</ele>
        <time>2018-05-10T08:49:00.000Z</time>
      </trkpt>
      <trkpt lat="46.46663" lon="6.05384">
        <ele>1096.8000488281</ele>
        <time>2018-05-10T08:49:02.000Z</time>
      </trkpt>
      <trkpt lat="46.46654" lon="6.05381">
        <ele>1094.1999511719</ele>
        <time>2018-05-10T08:49:10.000Z</time>
      </trkpt>
      <trkpt lat="46.46649" lon="6.05382">
        <ele>1093.4000244141</ele>
        <time>2018-05-10T08:49:14.000Z</time>
      </trkpt>
      <trkpt lat="46.46642" lon="6.05382">
        <ele>1091.8000488281</ele>
        <time>2018-05-10T08:49:19.000Z</time>
      </trkpt>
      <trkpt lat="46.46631" lon="6.05382">
        <ele>1089.4000244141</ele>
        <time>2018-05-10T08:49:28.000Z</time>
      </trkpt>
      <trkpt lat="46.46626" lon="6.05386">
        <ele>1089.4000244141</ele>
        <time>2018-05-10T08:49:34.000Z</time>
      </trkpt>
      <trkpt lat="46.46622" lon="6.05396">
        <ele>1090</ele>
        <time>2018-05-10T08:49:42.000Z</time>
      </trkpt>
      <trkpt lat="46.4662" lon="6.05399">
        <ele>1089.4000244141</ele>
        <time>2018-05-10T08:49:44.000Z</time>
      </trkpt>
      <trkpt lat="46.46616" lon="6.05411">
        <ele>1088.4000244141</ele>
        <time>2018-05-10T08:49:52.000Z</time>
      </trkpt>
      <trkpt lat="46.46615" lon="6.05416">
        <ele>1088</ele>
        <time>2018-05-10T08:49:56.000Z</time>
      </trkpt>
      <trkpt lat="46.46614" lon="6.05419">
        <ele>1087.5999755859</ele>
        <time>2018-05-10T08:50:01.000Z</time>
      </trkpt>
      <trkpt lat="46.46612" lon="6.05421">
        <ele>1087.4000244141</ele>
        <time>2018-05-10T08:50:08.000Z</time>
      </trkpt>
      <trkpt lat="46.46607" lon="6.05434">
        <ele>1085.8000488281</ele>
        <time>2018-05-10T08:50:15.000Z</time>
      </trkpt>
      <trkpt lat="46.46606" lon="6.05435">
        <ele>1085.8000488281</ele>
        <time>2018-05-10T08:50:16.000Z</time>
      </trkpt>
      <trkpt lat="46.46603" lon="6.05442">
        <ele>1085.4000244141</ele>
        <time>2018-05-10T08:50:21.000Z</time>
      </trkpt>
      <trkpt lat="46.466" lon="6.05448">
        <ele>1085</ele>
        <time>2018-05-10T08:50:25.000Z</time>
      </trkpt>
      <trkpt lat="46.46592" lon="6.05461">
        <ele>1084</ele>
        <time>2018-05-10T08:50:33.000Z</time>
      </trkpt>
      <trkpt lat="46.46588" lon="6.05467">
        <ele>1083.4000244141</ele>
        <time>2018-05-10T08:50:39.000Z</time>
      </trkpt>
      <trkpt lat="46.46581" lon="6.05477">
        <ele>1082.5999755859</ele>
        <time>2018-05-10T08:50:46.000Z</time>
      </trkpt>
      <trkpt lat="46.4658" lon="6.05479">
        <ele>1082.5999755859</ele>
        <time>2018-05-10T08:50:47.000Z</time>
      </trkpt>
      <trkpt lat="46.46576" lon="6.05483">
        <ele>1082</ele>
        <time>2018-05-10T08:50:52.000Z</time>
      </trkpt>
      <trkpt lat="46.46571" lon="6.05486">
        <ele>1081.4000244141</ele>
        <time>2018-05-10T08:50:56.000Z</time>
      </trkpt>
      <trkpt lat="46.46566" lon="6.05489">
        <ele>1080.5999755859</ele>
        <time>2018-05-10T08:51:03.000Z</time>
      </trkpt>
      <trkpt lat="46.46559" lon="6.05491">
        <ele>1079.5999755859</ele>
        <time>2018-05-10T08:51:09.000Z</time>
      </trkpt>
      <trkpt lat="46.46554" lon="6.05491">
        <ele>1078.8000488281</ele>
        <time>2018-05-10T08:51:14.000Z</time>
      </trkpt>
      <trkpt lat="46.46548" lon="6.05492">
        <ele>1078</ele>
        <time>2018-05-10T08:51:19.000Z</time>
      </trkpt>
      <trkpt lat="46.4654" lon="6.05493">
        <ele>1076.8000488281</ele>
        <time>2018-05-10T08:51:27.000Z</time>
      </trkpt>
      <trkpt lat="46.46539" lon="6.05493">
        <ele>1076.5999755859</ele>
        <time>2018-05-10T08:51:28.000Z</time>
      </trkpt>
      <trkpt lat="46.46531" lon="6.05491">
        <ele>1075.4000244141</ele>
        <time>2018-05-10T08:51:34.000Z</time>
      </trkpt>
      <trkpt lat="46.46522" lon="6.0549">
        <ele>1073.8000488281</ele>
        <time>2018-05-10T08:51:42.000Z</time>
      </trkpt>
      <trkpt lat="46.46522" lon="6.05491">
        <ele>1073.8000488281</ele>
        <time>2018-05-10T08:51:44.000Z</time>
      </trkpt>
      <trkpt lat="46.46523" lon="6.05492">
        <ele>1074</ele>
        <time>2018-05-10T08:51:59.000Z</time>
      </trkpt>
      <trkpt lat="46.46522" lon="6.05491">
        <ele>1073.8000488281</ele>
        <time>2018-05-10T08:52:03.000Z</time>
      </trkpt>
      <trkpt lat="46.46521" lon="6.05491">
        <ele>1073.5999755859</ele>
        <time>2018-05-10T08:52:06.000Z</time>
      </trkpt>
      <trkpt lat="46.46519" lon="6.05492">
        <ele>1073.4000244141</ele>
        <time>2018-05-10T08:52:13.000Z</time>
      </trkpt>
      <trkpt lat="46.46519" lon="6.05496">
        <ele>1073.5999755859</ele>
        <time>2018-05-10T08:52:34.000Z</time>
      </trkpt>
      <trkpt lat="46.46518" lon="6.05493">
        <ele>1073.4000244141</ele>
        <time>2018-05-10T08:52:41.000Z</time>
      </trkpt>
      <trkpt lat="46.46518" lon="6.05493">
        <ele>1073.4000244141</ele>
        <time>2018-05-10T08:52:43.000Z</time>
      </trkpt>
      <trkpt lat="46.46518" lon="6.05491">
        <ele>1073.1999511719</ele>
        <time>2018-05-10T08:52:46.000Z</time>
      </trkpt>
      <trkpt lat="46.46518" lon="6.05488">
        <ele>1073</ele>
        <time>2018-05-10T08:52:47.000Z</time>
      </trkpt>
      <trkpt lat="46.46516" lon="6.05484">
        <ele>1072.5999755859</ele>
        <time>2018-05-10T08:52:52.000Z</time>
      </trkpt>
      <trkpt lat="46.46517" lon="6.05485">
        <ele>1072.8000488281</ele>
        <time>2018-05-10T08:52:55.000Z</time>
      </trkpt>
      <trkpt lat="46.46518" lon="6.05485">
        <ele>1072.8000488281</ele>
        <time>2018-05-10T08:52:58.000Z</time>
      </trkpt>
      <trkpt lat="46.46519" lon="6.05486">
        <ele>1073</ele>
        <time>2018-05-10T08:53:06.000Z</time>
      </trkpt>
      <trkpt lat="46.46519" lon="6.05487">
        <ele>1073.1999511719</ele>
        <time>2018-05-10T08:53:17.000Z</time>
      </trkpt>
      <trkpt lat="46.46519" lon="6.05486">
        <ele>1073</ele>
        <time>2018-05-10T08:53:21.000Z</time>
      </trkpt>
      <trkpt lat="46.46519" lon="6.05491">
        <ele>1073.4000244141</ele>
        <time>2018-05-10T08:53:31.000Z</time>
      </trkpt>
      <trkpt lat="46.46519" lon="6.05492">
        <ele>1073.4000244141</ele>
        <time>2018-05-10T08:53:34.000Z</time>
      </trkpt>
      <trkpt lat="46.46516" lon="6.05488">
        <ele>1072.8000488281</ele>
        <time>2018-05-10T08:53:46.000Z</time>
      </trkpt>
      <trkpt lat="46.46518" lon="6.0549">
        <ele>1073.1999511719</ele>
        <time>2018-05-10T08:53:51.000Z</time>
      </trkpt>
      <trkpt lat="46.46518" lon="6.0549">
        <ele>1073.1999511719</ele>
        <time>2018-05-10T08:53:56.000Z</time>
      </trkpt>
      <trkpt lat="46.4652" lon="6.05489">
        <ele>1073.4000244141</ele>
        <time>2018-05-10T08:54:00.000Z</time>
      </trkpt>
      <trkpt lat="46.4652" lon="6.05488">
        <ele>1073.4000244141</ele>
        <time>2018-05-10T08:54:03.000Z</time>
      </trkpt>
      <trkpt lat="46.46519" lon="6.05489">
        <ele>1073.1999511719</ele>
        <time>2018-05-10T08:54:06.000Z</time>
      </trkpt>
      <trkpt lat="46.46519" lon="6.0549">
        <ele>1073.4000244141</ele>
        <time>2018-05-10T08:54:08.000Z</time>
      </trkpt>
      <trkpt lat="46.46519" lon="6.05489">
        <ele>1073.1999511719</ele>
        <time>2018-05-10T08:54:11.000Z</time>
      </trkpt>
      <trkpt lat="46.46517" lon="6.05493">
        <ele>1073</ele>
        <time>2018-05-10T08:54:18.000Z</time>
      </trkpt>
      <trkpt lat="46.46515" lon="6.05494">
        <ele>1073</ele>
        <time>2018-05-10T08:54:21.000Z</time>
      </trkpt>
      <trkpt lat="46.46508" lon="6.05494">
        <ele>1071.8000488281</ele>
        <time>2018-05-10T08:54:29.000Z</time>
      </trkpt>
      <trkpt lat="46.46508" lon="6.055">
        <ele>1072</ele>
        <time>2018-05-10T08:54:39.000Z</time>
      </trkpt>
      <trkpt lat="46.46509" lon="6.05497">
        <ele>1072.1999511719</ele>
        <time>2018-05-10T08:54:45.000Z</time>
      </trkpt>
      <trkpt lat="46.4651" lon="6.05499">
        <ele>1072.4000244141</ele>
        <time>2018-05-10T08:54:50.000Z</time>
      </trkpt>
      <trkpt lat="46.46512" lon="6.05497">
        <ele>1072.5999755859</ele>
        <time>2018-05-10T08:54:56.000Z</time>
      </trkpt>
      <trkpt lat="46.46512" lon="6.05497">
        <ele>1072.5999755859</ele>
        <time>2018-05-10T08:55:10.000Z</time>
      </trkpt>
      <trkpt lat="46.46512" lon="6.05497">
        <ele>1072.5999755859</ele>
        <time>2018-05-10T08:55:21.000Z</time>
      </trkpt>
      <trkpt lat="46.46514" lon="6.05497">
        <ele>1073</ele>
        <time>2018-05-10T08:55:30.000Z</time>
      </trkpt>
      <trkpt lat="46.46515" lon="6.05497">
        <ele>1073</ele>
        <time>2018-05-10T08:55:35.000Z</time>
      </trkpt>
      <trkpt lat="46.46517" lon="6.05497">
        <ele>1073.4000244141</ele>
        <time>2018-05-10T08:55:44.000Z</time>
      </trkpt>
      <trkpt lat="46.46517" lon="6.05497">
        <ele>1073.4000244141</ele>
        <time>2018-05-10T08:55:45.000Z</time>
      </trkpt>
      <trkpt lat="46.46516" lon="6.05497">
        <ele>1073.1999511719</ele>
        <time>2018-05-10T08:55:52.000Z</time>
      </trkpt>
      <trkpt lat="46.46516" lon="6.05497">
        <ele>1073.1999511719</ele>
        <time>2018-05-10T08:55:53.000Z</time>
      </trkpt>
      <trkpt lat="46.46514" lon="6.05499">
        <ele>1073</ele>
        <time>2018-05-10T08:56:02.000Z</time>
      </trkpt>
      <trkpt lat="46.46515" lon="6.05499">
        <ele>1073.1999511719</ele>
        <time>2018-05-10T08:56:12.000Z</time>
      </trkpt>
      <trkpt lat="46.46515" lon="6.05499">
        <ele>1073.1999511719</ele>
        <time>2018-05-10T08:56:18.000Z</time>
      </trkpt>
      <trkpt lat="46.46515" lon="6.05499">
        <ele>1073</ele>
        <time>2018-05-10T08:56:21.000Z</time>
      </trkpt>
      <trkpt lat="46.46516" lon="6.055">
        <ele>1073.1999511719</ele>
        <time>2018-05-10T08:56:32.000Z</time>
      </trkpt>
      <trkpt lat="46.46516" lon="6.05495">
        <ele>1073</ele>
        <time>2018-05-10T08:56:40.000Z</time>
      </trkpt>
      <trkpt lat="46.46516" lon="6.05494">
        <ele>1073</ele>
        <time>2018-05-10T08:56:41.000Z</time>
      </trkpt>
      <trkpt lat="46.46515" lon="6.05495">
        <ele>1072.8000488281</ele>
        <time>2018-05-10T08:56:45.000Z</time>
      </trkpt>
      <trkpt lat="46.46514" lon="6.05497">
        <ele>1072.8000488281</ele>
        <time>2018-05-10T08:56:51.000Z</time>
      </trkpt>
      <trkpt lat="46.46515" lon="6.05496">
        <ele>1073</ele>
        <time>2018-05-10T08:56:54.000Z</time>
      </trkpt>
      <trkpt lat="46.46514" lon="6.05495">
        <ele>1072.8000488281</ele>
        <time>2018-05-10T08:56:58.000Z</time>
      </trkpt>
      <trkpt lat="46.46515" lon="6.05495">
        <ele>1073</ele>
        <time>2018-05-10T08:57:00.000Z</time>
      </trkpt>
      <trkpt lat="46.46515" lon="6.05493">
        <ele>1072.8000488281</ele>
        <time>2018-05-10T08:57:03.000Z</time>
      </trkpt>
      <trkpt lat="46.46514" lon="6.05494">
        <ele>1072.8000488281</ele>
        <time>2018-05-10T08:57:06.000Z</time>
      </trkpt>
      <trkpt lat="46.46512" lon="6.05496">
        <ele>1072.5999755859</ele>
        <time>2018-05-10T08:57:14.000Z</time>
      </trkpt>
      <trkpt lat="46.46511" lon="6.05495">
        <ele>1072.1999511719</ele>
        <time>2018-05-10T08:57:19.000Z</time>
      </trkpt>
      <trkpt lat="46.46511" lon="6.05497">
        <ele>1072.4000244141</ele>
        <time>2018-05-10T08:57:25.000Z</time>
      </trkpt>
      <trkpt lat="46.46512" lon="6.055">
        <ele>1072.5999755859</ele>
        <time>2018-05-10T08:57:28.000Z</time>
      </trkpt>
      <trkpt lat="46.4651" lon="6.05501">
        <ele>1072.4000244141</ele>
        <time>2018-05-10T08:57:31.000Z</time>
      </trkpt>
      <trkpt lat="46.46512" lon="6.05497">
        <ele>1072.5999755859</ele>
        <time>2018-05-10T08:57:37.000Z</time>
      </trkpt>
      <trkpt lat="46.4651" lon="6.05502">
        <ele>1072.5999755859</ele>
        <time>2018-05-10T08:57:40.000Z</time>
      </trkpt>
      <trkpt lat="46.4651" lon="6.05504">
        <ele>1072.5999755859</ele>
        <time>2018-05-10T08:57:45.000Z</time>
      </trkpt>
      <trkpt lat="46.46512" lon="6.055">
        <ele>1072.5999755859</ele>
        <time>2018-05-10T08:57:55.000Z</time>
      </trkpt>
      <trkpt lat="46.46514" lon="6.05496">
        <ele>1072.8000488281</ele>
        <time>2018-05-10T08:58:05.000Z</time>
      </trkpt>
      <trkpt lat="46.46516" lon="6.05493">
        <ele>1073</ele>
        <time>2018-05-10T08:58:15.000Z</time>
      </trkpt>
      <trkpt lat="46.46514" lon="6.05492">
        <ele>1072.8000488281</ele>
        <time>2018-05-10T08:58:19.000Z</time>
      </trkpt>
      <trkpt lat="46.46514" lon="6.05492">
        <ele>1072.5999755859</ele>
        <time>2018-05-10T08:58:35.000Z</time>
      </trkpt>
      <trkpt lat="46.46516" lon="6.05493">
        <ele>1073</ele>
        <time>2018-05-10T08:58:57.000Z</time>
      </trkpt>
      <trkpt lat="46.46517" lon="6.05489">
        <ele>1073</ele>
        <time>2018-05-10T08:59:11.000Z</time>
      </trkpt>
      <trkpt lat="46.46517" lon="6.05493">
        <ele>1073</ele>
        <time>2018-05-10T08:59:21.000Z</time>
      </trkpt>
      <trkpt lat="46.46518" lon="6.05495">
        <ele>1073.4000244141</ele>
        <time>2018-05-10T08:59:25.000Z</time>
      </trkpt>
      <trkpt lat="46.46517" lon="6.05496">
        <ele>1073.4000244141</ele>
        <time>2018-05-10T08:59:27.000Z</time>
      </trkpt>
      <trkpt lat="46.46517" lon="6.05498">
        <ele>1073.4000244141</ele>
        <time>2018-05-10T08:59:30.000Z</time>
      </trkpt>
      <trkpt lat="46.46512" lon="6.05503">
        <ele>1072.8000488281</ele>
        <time>2018-05-10T08:59:35.000Z</time>
      </trkpt>
      <trkpt lat="46.46504" lon="6.0551">
        <ele>1071.1999511719</ele>
        <time>2018-05-10T08:59:44.000Z</time>
      </trkpt>
      <trkpt lat="46.46504" lon="6.0551">
        <ele>1071.1999511719</ele>
        <time>2018-05-10T08:59:46.000Z</time>
      </trkpt>
      <trkpt lat="46.46503" lon="6.05512">
        <ele>1070.8000488281</ele>
        <time>2018-05-10T09:00:28.000Z</time>
      </trkpt>
      <trkpt lat="46.46496" lon="6.05519">
        <ele>1069.4000244141</ele>
        <time>2018-05-10T09:00:36.000Z</time>
      </trkpt>
      <trkpt lat="46.4649" lon="6.05526">
        <ele>1067.8000488281</ele>
        <time>2018-05-10T09:00:43.000Z</time>
      </trkpt>
      <trkpt lat="46.46489" lon="6.05529">
        <ele>1067.5999755859</ele>
        <time>2018-05-10T09:00:45.000Z</time>
      </trkpt>
      <trkpt lat="46.46483" lon="6.05536">
        <ele>1066.4000244141</ele>
        <time>2018-05-10T09:00:51.000Z</time>
      </trkpt>
      <trkpt lat="46.46481" lon="6.05539">
        <ele>1065.8000488281</ele>
        <time>2018-05-10T09:00:53.000Z</time>
      </trkpt>
      <trkpt lat="46.46475" lon="6.05545">
        <ele>1064.5999755859</ele>
        <time>2018-05-10T09:00:58.000Z</time>
      </trkpt>
      <trkpt lat="46.46467" lon="6.05554">
        <ele>1062.5999755859</ele>
        <time>2018-05-10T09:01:05.000Z</time>
      </trkpt>
      <trkpt lat="46.46458" lon="6.05564">
        <ele>1061</ele>
        <time>2018-05-10T09:01:13.000Z</time>
      </trkpt>
      <trkpt lat="46.46447" lon="6.05569">
        <ele>1059</ele>
        <time>2018-05-10T09:01:21.000Z</time>
      </trkpt>
      <trkpt lat="46.46437" lon="6.05578">
        <ele>1057.4000244141</ele>
        <time>2018-05-10T09:01:29.000Z</time>
      </trkpt>
      <trkpt lat="46.46435" lon="6.05593">
        <ele>1058</ele>
        <time>2018-05-10T09:01:38.000Z</time>
      </trkpt>
      <trkpt lat="46.46435" lon="6.05605">
        <ele>1059</ele>
        <time>2018-05-10T09:01:44.000Z</time>
      </trkpt>
      <trkpt lat="46.46436" lon="6.05612">
        <ele>1059.5999755859</ele>
        <time>2018-05-10T09:01:50.000Z</time>
      </trkpt>
      <trkpt lat="46.46436" lon="6.05613">
        <ele>1059.8000488281</ele>
        <time>2018-05-10T09:01:53.000Z</time>
      </trkpt>
      <trkpt lat="46.46437" lon="6.05617">
        <ele>1060.1999511719</ele>
        <time>2018-05-10T09:02:09.000Z</time>
      </trkpt>
      <trkpt lat="46.46437" lon="6.05617">
        <ele>1060.1999511719</ele>
        <time>2018-05-10T09:02:10.000Z</time>
      </trkpt>
      <trkpt lat="46.46436" lon="6.05624">
        <ele>1060.5999755859</ele>
        <time>2018-05-10T09:02:15.000Z</time>
      </trkpt>
      <trkpt lat="46.46431" lon="6.05641">
        <ele>1060.8000488281</ele>
        <time>2018-05-10T09:02:23.000Z</time>
      </trkpt>
      <trkpt lat="46.46423" lon="6.05656">
        <ele>1061.5999755859</ele>
        <time>2018-05-10T09:02:31.000Z</time>
      </trkpt>
      <trkpt lat="46.4641" lon="6.05672">
        <ele>1062</ele>
        <time>2018-05-10T09:02:41.000Z</time>
      </trkpt>
      <trkpt lat="46.46397" lon="6.05689">
        <ele>1063.1999511719</ele>
        <time>2018-05-10T09:02:52.000Z</time>
      </trkpt>
      <trkpt lat="46.46384" lon="6.05712">
        <ele>1066.8000488281</ele>
        <time>2018-05-10T09:03:04.000Z</time>
      </trkpt>
      <trkpt lat="46.46382" lon="6.0573">
        <ele>1067.8000488281</ele>
        <time>2018-05-10T09:03:12.000Z</time>
      </trkpt>
      <trkpt lat="46.46384" lon="6.05754">
        <ele>1071.8000488281</ele>
        <time>2018-05-10T09:03:22.000Z</time>
      </trkpt>
      <trkpt lat="46.46389" lon="6.05773">
        <ele>1075.4000244141</ele>
        <time>2018-05-10T09:03:31.000Z</time>
      </trkpt>
      <trkpt lat="46.4639" lon="6.05785">
        <ele>1077.4000244141</ele>
        <time>2018-05-10T09:03:37.000Z</time>
      </trkpt>
      <trkpt lat="46.4639" lon="6.05787">
        <ele>1077.5999755859</ele>
        <time>2018-05-10T09:03:38.000Z</time>
      </trkpt>
      <trkpt lat="46.4639" lon="6.05787">
        <ele>1077.5999755859</ele>
        <time>2018-05-10T09:03:38.000Z</time>
      </trkpt>
      <trkpt lat="46.46385" lon="6.05798">
        <ele>1078.1999511719</ele>
        <time>2018-05-10T09:03:44.000Z</time>
      </trkpt>
      <trkpt lat="46.4638" lon="6.05803">
        <ele>1078</ele>
        <time>2018-05-10T09:03:48.000Z</time>
      </trkpt>
      <trkpt lat="46.46371" lon="6.05811">
        <ele>1076.8000488281</ele>
        <time>2018-05-10T09:03:56.000Z</time>
      </trkpt>
      <trkpt lat="46.46365" lon="6.05814">
        <ele>1075.8000488281</ele>
        <time>2018-05-10T09:04:01.000Z</time>
      </trkpt>
      <trkpt lat="46.4636" lon="6.05818">
        <ele>1074.8000488281</ele>
        <time>2018-05-10T09:04:06.000Z</time>
      </trkpt>
      <trkpt lat="46.46356" lon="6.05817">
        <ele>1074</ele>
        <time>2018-05-10T09:04:10.000Z</time>
      </trkpt>
      <trkpt lat="46.46355" lon="6.05817">
        <ele>1073.8000488281</ele>
        <time>2018-05-10T09:04:13.000Z</time>
      </trkpt>
      <trkpt lat="46.46352" lon="6.05824">
        <ele>1073.4000244141</ele>
        <time>2018-05-10T09:04:22.000Z</time>
      </trkpt>
      <trkpt lat="46.46342" lon="6.05837">
        <ele>1072</ele>
        <time>2018-05-10T09:04:31.000Z</time>
      </trkpt>
      <trkpt lat="46.46337" lon="6.05849">
        <ele>1072.1999511719</ele>
        <time>2018-05-10T09:04:37.000Z</time>
      </trkpt>
      <trkpt lat="46.46333" lon="6.05864">
        <ele>1073.1999511719</ele>
        <time>2018-05-10T09:04:44.000Z</time>
      </trkpt>
      <trkpt lat="46.46331" lon="6.05884">
        <ele>1074.8000488281</ele>
        <time>2018-05-10T09:04:53.000Z</time>
      </trkpt>
      <trkpt lat="46.46331" lon="6.05895">
        <ele>1075.8000488281</ele>
        <time>2018-05-10T09:05:00.000Z</time>
      </trkpt>
      <trkpt lat="46.46329" lon="6.05912">
        <ele>1077.4000244141</ele>
        <time>2018-05-10T09:05:09.000Z</time>
      </trkpt>
      <trkpt lat="46.46329" lon="6.05912">
        <ele>1077.4000244141</ele>
        <time>2018-05-10T09:05:11.000Z</time>
      </trkpt>
      <trkpt lat="46.46328" lon="6.05916">
        <ele>1077.8000488281</ele>
        <time>2018-05-10T09:05:14.000Z</time>
      </trkpt>
      <trkpt lat="46.46325" lon="6.05931">
        <ele>1078.8000488281</ele>
        <time>2018-05-10T09:05:21.000Z</time>
      </trkpt>
      <trkpt lat="46.46319" lon="6.05945">
        <ele>1079.1999511719</ele>
        <time>2018-05-10T09:05:29.000Z</time>
      </trkpt>
      <trkpt lat="46.46312" lon="6.05954">
        <ele>1079</ele>
        <time>2018-05-10T09:05:39.000Z</time>
      </trkpt>
      <trkpt lat="46.46308" lon="6.05956">
        <ele>1078.8000488281</ele>
        <time>2018-05-10T09:05:43.000Z</time>
      </trkpt>
      <trkpt lat="46.46302" lon="6.05956">
        <ele>1078</ele>
        <time>2018-05-10T09:05:48.000Z</time>
      </trkpt>
      <trkpt lat="46.46296" lon="6.05952">
        <ele>1076.8000488281</ele>
        <time>2018-05-10T09:05:53.000Z</time>
      </trkpt>
      <trkpt lat="46.46291" lon="6.05947">
        <ele>1075.5999755859</ele>
        <time>2018-05-10T09:05:58.000Z</time>
      </trkpt>
      <trkpt lat="46.46285" lon="6.05944">
        <ele>1074.4000244141</ele>
        <time>2018-05-10T09:06:04.000Z</time>
      </trkpt>
      <trkpt lat="46.46282" lon="6.05943">
        <ele>1073.8000488281</ele>
        <time>2018-05-10T09:06:06.000Z</time>
      </trkpt>
      <trkpt lat="46.46272" lon="6.05943">
        <ele>1072.4000244141</ele>
        <time>2018-05-10T09:06:13.000Z</time>
      </trkpt>
      <trkpt lat="46.46264" lon="6.05949">
        <ele>1072</ele>
        <time>2018-05-10T09:06:20.000Z</time>
      </trkpt>
      <trkpt lat="46.46258" lon="6.05958">
        <ele>1071.8000488281</ele>
        <time>2018-05-10T09:06:27.000Z</time>
      </trkpt>
      <trkpt lat="46.46252" lon="6.05971">
        <ele>1072.4000244141</ele>
        <time>2018-05-10T09:06:35.000Z</time>
      </trkpt>
      <trkpt lat="46.46246" lon="6.05991">
        <ele>1073.4000244141</ele>
        <time>2018-05-10T09:06:46.000Z</time>
      </trkpt>
      <trkpt lat="46.46241" lon="6.06004">
        <ele>1074.4000244141</ele>
        <time>2018-05-10T09:06:54.000Z</time>
      </trkpt>
      <trkpt lat="46.46233" lon="6.06017">
        <ele>1075</ele>
        <time>2018-05-10T09:07:03.000Z</time>
      </trkpt>
      <trkpt lat="46.46221" lon="6.0602">
        <ele>1073.5999755859</ele>
        <time>2018-05-10T09:07:11.000Z</time>
      </trkpt>
      <trkpt lat="46.46208" lon="6.06021">
        <ele>1072.1999511719</ele>
        <time>2018-05-10T09:07:20.000Z</time>
      </trkpt>
      <trkpt lat="46.46197" lon="6.06023">
        <ele>1071</ele>
        <time>2018-05-10T09:07:29.000Z</time>
      </trkpt>
      <trkpt lat="46.46191" lon="6.06025">
        <ele>1070.4000244141</ele>
        <time>2018-05-10T09:07:35.000Z</time>
      </trkpt>
      <trkpt lat="46.46179" lon="6.06032">
        <ele>1069.5999755859</ele>
        <time>2018-05-10T09:07:44.000Z</time>
      </trkpt>
      <trkpt lat="46.46167" lon="6.06037">
        <ele>1068.5999755859</ele>
        <time>2018-05-10T09:07:53.000Z</time>
      </trkpt>
      <trkpt lat="46.46157" lon="6.06036">
        <ele>1067.1999511719</ele>
        <time>2018-05-10T09:08:00.000Z</time>
      </trkpt>
      <trkpt lat="46.46149" lon="6.06033">
        <ele>1066</ele>
        <time>2018-05-10T09:08:07.000Z</time>
      </trkpt>
      <trkpt lat="46.46146" lon="6.06032">
        <ele>1066</ele>
        <time>2018-05-10T09:08:09.000Z</time>
      </trkpt>
      <trkpt lat="46.46143" lon="6.06029">
        <ele>1066</ele>
        <time>2018-05-10T09:08:12.000Z</time>
      </trkpt>
      <trkpt lat="46.46139" lon="6.06023">
        <ele>1066</ele>
        <time>2018-05-10T09:08:17.000Z</time>
      </trkpt>
      <trkpt lat="46.46136" lon="6.06019">
        <ele>1065.8000488281</ele>
        <time>2018-05-10T09:08:21.000Z</time>
      </trkpt>
      <trkpt lat="46.46131" lon="6.06012">
        <ele>1065.4000244141</ele>
        <time>2018-05-10T09:08:29.000Z</time>
      </trkpt>
      <trkpt lat="46.46131" lon="6.06012">
        <ele>1065.4000244141</ele>
        <time>2018-05-10T09:08:30.000Z</time>
      </trkpt>
      <trkpt lat="46.46131" lon="6.06014">
        <ele>1065.8000488281</ele>
        <time>2018-05-10T09:08:43.000Z</time>
      </trkpt>
      <trkpt lat="46.46129" lon="6.06014">
        <ele>1066</ele>
        <time>2018-05-10T09:08:47.000Z</time>
      </trkpt>
      <trkpt lat="46.46129" lon="6.06013">
        <ele>1065.8000488281</ele>
        <time>2018-05-10T09:09:19.000Z</time>
      </trkpt>
      <trkpt lat="46.46127" lon="6.06006">
        <ele>1065.4000244141</ele>
        <time>2018-05-10T09:09:26.000Z</time>
      </trkpt>
      <trkpt lat="46.46126" lon="6.06004">
        <ele>1065.1999511719</ele>
        <time>2018-05-10T09:09:30.000Z</time>
      </trkpt>
      <trkpt lat="46.46126" lon="6.06001">
        <ele>1064.8000488281</ele>
        <time>2018-05-10T09:09:45.000Z</time>
      </trkpt>
      <trkpt lat="46.46123" lon="6.05992">
        <ele>1064.1999511719</ele>
        <time>2018-05-10T09:09:54.000Z</time>
      </trkpt>
      <trkpt lat="46.46123" lon="6.05991">
        <ele>1064</ele>
        <time>2018-05-10T09:09:57.000Z</time>
      </trkpt>
      <trkpt lat="46.46122" lon="6.05988">
        <ele>1063.8000488281</ele>
        <time>2018-05-10T09:10:05.000Z</time>
      </trkpt>
      <trkpt lat="46.46118" lon="6.05974">
        <ele>1062.8000488281</ele>
        <time>2018-05-10T09:10:13.000Z</time>
      </trkpt>
      <trkpt lat="46.46114" lon="6.05956">
        <ele>1062.8000488281</ele>
        <time>2018-05-10T09:10:22.000Z</time>
      </trkpt>
      <trkpt lat="46.46115" lon="6.0593">
        <ele>1062</ele>
        <time>2018-05-10T09:10:33.000Z</time>
      </trkpt>
      <trkpt lat="46.46114" lon="6.05911">
        <ele>1061.5999755859</ele>
        <time>2018-05-10T09:10:42.000Z</time>
      </trkpt>
      <trkpt lat="46.4611" lon="6.05892">
        <ele>1061.8000488281</ele>
        <time>2018-05-10T09:10:52.000Z</time>
      </trkpt>
      <trkpt lat="46.46109" lon="6.05886">
        <ele>1062.1999511719</ele>
        <time>2018-05-10T09:10:55.000Z</time>
      </trkpt>
      <trkpt lat="46.46103" lon="6.05869">
        <ele>1063.4000244141</ele>
        <time>2018-05-10T09:11:04.000Z</time>
      </trkpt>
      <trkpt lat="46.46098" lon="6.05853">
        <ele>1064.5999755859</ele>
        <time>2018-05-10T09:11:12.000Z</time>
      </trkpt>
      <trkpt lat="46.46093" lon="6.05834">
        <ele>1065.8000488281</ele>
        <time>2018-05-10T09:11:21.000Z</time>
      </trkpt>
      <trkpt lat="46.46087" lon="6.05817">
        <ele>1067</ele>
        <time>2018-05-10T09:11:30.000Z</time>
      </trkpt>
      <trkpt lat="46.46079" lon="6.05803">
        <ele>1068.5999755859</ele>
        <time>2018-05-10T09:11:39.000Z</time>
      </trkpt>
      <trkpt lat="46.46072" lon="6.05802">
        <ele>1069.5999755859</ele>
        <time>2018-05-10T09:11:46.000Z</time>
      </trkpt>
      <trkpt lat="46.46065" lon="6.05812">
        <ele>1070</ele>
        <time>2018-05-10T09:11:53.000Z</time>
      </trkpt>
      <trkpt lat="46.46057" lon="6.05824">
        <ele>1071</ele>
        <time>2018-05-10T09:12:01.000Z</time>
      </trkpt>
      <trkpt lat="46.46052" lon="6.05834">
        <ele>1071.8000488281</ele>
        <time>2018-05-10T09:12:07.000Z</time>
      </trkpt>
      <trkpt lat="46.46047" lon="6.05844">
        <ele>1072.1999511719</ele>
        <time>2018-05-10T09:12:14.000Z</time>
      </trkpt>
      <trkpt lat="46.46044" lon="6.0585">
        <ele>1072.5999755859</ele>
        <time>2018-05-10T09:12:20.000Z</time>
      </trkpt>
      <trkpt lat="46.46039" lon="6.05856">
        <ele>1073.1999511719</ele>
        <time>2018-05-10T09:12:28.000Z</time>
      </trkpt>
      <trkpt lat="46.46035" lon="6.05864">
        <ele>1073.5999755859</ele>
        <time>2018-05-10T09:12:36.000Z</time>
      </trkpt>
      <trkpt lat="46.46028" lon="6.05874">
        <ele>1073.8000488281</ele>
        <time>2018-05-10T09:12:46.000Z</time>
      </trkpt>
      <trkpt lat="46.46022" lon="6.05883">
        <ele>1074</ele>
        <time>2018-05-10T09:12:54.000Z</time>
      </trkpt>
      <trkpt lat="46.46014" lon="6.05895">
        <ele>1074.5999755859</ele>
        <time>2018-05-10T09:13:03.000Z</time>
      </trkpt>
      <trkpt lat="46.46009" lon="6.059">
        <ele>1075.4000244141</ele>
        <time>2018-05-10T09:13:08.000Z</time>
      </trkpt>
      <trkpt lat="46.46004" lon="6.05905">
        <ele>1076.1999511719</ele>
        <time>2018-05-10T09:13:13.000Z</time>
      </trkpt>
      <trkpt lat="46.45998" lon="6.05913">
        <ele>1077.4000244141</ele>
        <time>2018-05-10T09:13:19.000Z</time>
      </trkpt>
      <trkpt lat="46.45992" lon="6.05922">
        <ele>1078.8000488281</ele>
        <time>2018-05-10T09:13:26.000Z</time>
      </trkpt>
      <trkpt lat="46.45988" lon="6.0593">
        <ele>1080</ele>
        <time>2018-05-10T09:13:33.000Z</time>
      </trkpt>
      <trkpt lat="46.45982" lon="6.05939">
        <ele>1081.4000244141</ele>
        <time>2018-05-10T09:13:41.000Z</time>
      </trkpt>
      <trkpt lat="46.45975" lon="6.05953">
        <ele>1083.4000244141</ele>
        <time>2018-05-10T09:13:51.000Z</time>
      </trkpt>
      <trkpt lat="46.45975" lon="6.05954">
        <ele>1083.5999755859</ele>
        <time>2018-05-10T09:13:55.000Z</time>
      </trkpt>
      <trkpt lat="46.45974" lon="6.05958">
        <ele>1084</ele>
        <time>2018-05-10T09:13:58.000Z</time>
      </trkpt>
      <trkpt lat="46.45969" lon="6.05968">
        <ele>1085</ele>
        <time>2018-05-10T09:14:05.000Z</time>
      </trkpt>
      <trkpt lat="46.45968" lon="6.05969">
        <ele>1085</ele>
        <time>2018-05-10T09:14:08.000Z</time>
      </trkpt>
      <trkpt lat="46.45966" lon="6.05973">
        <ele>1085</ele>
        <time>2018-05-10T09:14:11.000Z</time>
      </trkpt>
      <trkpt lat="46.45962" lon="6.05981">
        <ele>1085.1999511719</ele>
        <time>2018-05-10T09:14:16.000Z</time>
      </trkpt>
      <trkpt lat="46.45955" lon="6.05996">
        <ele>1086</ele>
        <time>2018-05-10T09:14:25.000Z</time>
      </trkpt>
      <trkpt lat="46.4595" lon="6.06008">
        <ele>1086.4000244141</ele>
        <time>2018-05-10T09:14:32.000Z</time>
      </trkpt>
      <trkpt lat="46.45946" lon="6.06022">
        <ele>1087</ele>
        <time>2018-05-10T09:14:40.000Z</time>
      </trkpt>
      <trkpt lat="46.45946" lon="6.06023">
        <ele>1087</ele>
        <time>2018-05-10T09:14:42.000Z</time>
      </trkpt>
      <trkpt lat="46.45946" lon="6.06024">
        <ele>1087</ele>
        <time>2018-05-10T09:15:08.000Z</time>
      </trkpt>
      <trkpt lat="46.45945" lon="6.06024">
        <ele>1087</ele>
        <time>2018-05-10T09:15:09.000Z</time>
      </trkpt>
      <trkpt lat="46.45943" lon="6.06023">
        <ele>1087.1999511719</ele>
        <time>2018-05-10T09:15:13.000Z</time>
      </trkpt>
      <trkpt lat="46.45939" lon="6.06034">
        <ele>1087</ele>
        <time>2018-05-10T09:16:15.000Z</time>
      </trkpt>
      <trkpt lat="46.45933" lon="6.06048">
        <ele>1087</ele>
        <time>2018-05-10T09:16:24.000Z</time>
      </trkpt>
      <trkpt lat="46.4593" lon="6.0606">
        <ele>1086.8000488281</ele>
        <time>2018-05-10T09:16:31.000Z</time>
      </trkpt>
      <trkpt lat="46.45927" lon="6.06074">
        <ele>1087.5999755859</ele>
        <time>2018-05-10T09:16:38.000Z</time>
      </trkpt>
      <trkpt lat="46.45925" lon="6.06086">
        <ele>1088.4000244141</ele>
        <time>2018-05-10T09:16:44.000Z</time>
      </trkpt>
      <trkpt lat="46.45922" lon="6.06101">
        <ele>1089.8000488281</ele>
        <time>2018-05-10T09:16:51.000Z</time>
      </trkpt>
      <trkpt lat="46.45918" lon="6.06114">
        <ele>1091.1999511719</ele>
        <time>2018-05-10T09:16:59.000Z</time>
      </trkpt>
      <trkpt lat="46.45916" lon="6.06116">
        <ele>1091.4000244141</ele>
        <time>2018-05-10T09:17:01.000Z</time>
      </trkpt>
      <trkpt lat="46.45909" lon="6.06123">
        <ele>1092.5999755859</ele>
        <time>2018-05-10T09:17:08.000Z</time>
      </trkpt>
      <trkpt lat="46.45908" lon="6.06123">
        <ele>1092.8000488281</ele>
        <time>2018-05-10T09:17:09.000Z</time>
      </trkpt>
      <trkpt lat="46.45899" lon="6.06127">
        <ele>1094</ele>
        <time>2018-05-10T09:17:16.000Z</time>
      </trkpt>
      <trkpt lat="46.45893" lon="6.06129">
        <ele>1094.8000488281</ele>
        <time>2018-05-10T09:17:23.000Z</time>
      </trkpt>
      <trkpt lat="46.45891" lon="6.06128">
        <ele>1095.1999511719</ele>
        <time>2018-05-10T09:17:26.000Z</time>
      </trkpt>
      <trkpt lat="46.45886" lon="6.06131">
        <ele>1096</ele>
        <time>2018-05-10T09:17:31.000Z</time>
      </trkpt>
      <trkpt lat="46.45883" lon="6.06132">
        <ele>1096.1999511719</ele>
        <time>2018-05-10T09:17:35.000Z</time>
      </trkpt>
      <trkpt lat="46.45875" lon="6.06141">
        <ele>1097.8000488281</ele>
        <time>2018-05-10T09:17:54.000Z</time>
      </trkpt>
      <trkpt lat="46.45866" lon="6.06149">
        <ele>1099.5999755859</ele>
        <time>2018-05-10T09:18:01.000Z</time>
      </trkpt>
      <trkpt lat="46.45864" lon="6.0615">
        <ele>1099.8000488281</ele>
        <time>2018-05-10T09:18:05.000Z</time>
      </trkpt>
      <trkpt lat="46.45859" lon="6.06159">
        <ele>1101.4000244141</ele>
        <time>2018-05-10T09:18:30.000Z</time>
      </trkpt>
      <trkpt lat="46.45849" lon="6.0617">
        <ele>1103.5999755859</ele>
        <time>2018-05-10T09:18:38.000Z</time>
      </trkpt>
      <trkpt lat="46.45843" lon="6.06177">
        <ele>1104.8000488281</ele>
        <time>2018-05-10T09:18:44.000Z</time>
      </trkpt>
      <trkpt lat="46.45843" lon="6.06177">
        <ele>1104.8000488281</ele>
        <time>2018-05-10T09:18:44.000Z</time>
      </trkpt>
      <trkpt lat="46.45839" lon="6.06182">
        <ele>1105.4000244141</ele>
        <time>2018-05-10T09:18:48.000Z</time>
      </trkpt>
      <trkpt lat="46.45832" lon="6.06194">
        <ele>1106.8000488281</ele>
        <time>2018-05-10T09:18:57.000Z</time>
      </trkpt>
      <trkpt lat="46.45823" lon="6.06203">
        <ele>1108</ele>
        <time>2018-05-10T09:19:05.000Z</time>
      </trkpt>
      <trkpt lat="46.45816" lon="6.06209">
        <ele>1109</ele>
        <time>2018-05-10T09:19:12.000Z</time>
      </trkpt>
      <trkpt lat="46.45807" lon="6.06216">
        <ele>1110.8000488281</ele>
        <time>2018-05-10T09:19:20.000Z</time>
      </trkpt>
      <trkpt lat="46.45799" lon="6.06228">
        <ele>1113</ele>
        <time>2018-05-10T09:19:29.000Z</time>
      </trkpt>
      <trkpt lat="46.45794" lon="6.06235">
        <ele>1114.4000244141</ele>
        <time>2018-05-10T09:19:35.000Z</time>
      </trkpt>
      <trkpt lat="46.4579" lon="6.06246">
        <ele>1115.5999755859</ele>
        <time>2018-05-10T09:19:42.000Z</time>
      </trkpt>
      <trkpt lat="46.45787" lon="6.06254">
        <ele>1116.4000244141</ele>
        <time>2018-05-10T09:19:50.000Z</time>
      </trkpt>
      <trkpt lat="46.45787" lon="6.06254">
        <ele>1116.5999755859</ele>
        <time>2018-05-10T09:19:51.000Z</time>
      </trkpt>
      <trkpt lat="46.45784" lon="6.0626">
        <ele>1117.4000244141</ele>
        <time>2018-05-10T09:19:58.000Z</time>
      </trkpt>
      <trkpt lat="46.45777" lon="6.06271">
        <ele>1119.1999511719</ele>
        <time>2018-05-10T09:20:06.000Z</time>
      </trkpt>
      <trkpt lat="46.45768" lon="6.06282">
        <ele>1120.5999755859</ele>
        <time>2018-05-10T09:20:15.000Z</time>
      </trkpt>
      <trkpt lat="46.45765" lon="6.06288">
        <ele>1121</ele>
        <time>2018-05-10T09:20:22.000Z</time>
      </trkpt>
      <trkpt lat="46.45761" lon="6.06299">
        <ele>1121.8000488281</ele>
        <time>2018-05-10T09:20:32.000Z</time>
      </trkpt>
      <trkpt lat="46.45759" lon="6.06308">
        <ele>1122.1999511719</ele>
        <time>2018-05-10T09:20:37.000Z</time>
      </trkpt>
      <trkpt lat="46.45755" lon="6.06317">
        <ele>1122.8000488281</ele>
        <time>2018-05-10T09:20:43.000Z</time>
      </trkpt>
      <trkpt lat="46.4575" lon="6.06327">
        <ele>1123.5999755859</ele>
        <time>2018-05-10T09:20:50.000Z</time>
      </trkpt>
      <trkpt lat="46.45742" lon="6.06336">
        <ele>1124</ele>
        <time>2018-05-10T09:20:58.000Z</time>
      </trkpt>
      <trkpt lat="46.45732" lon="6.06346">
        <ele>1124.8000488281</ele>
        <time>2018-05-10T09:21:07.000Z</time>
      </trkpt>
      <trkpt lat="46.45723" lon="6.0635">
        <ele>1124.8000488281</ele>
        <time>2018-05-10T09:21:14.000Z</time>
      </trkpt>
      <trkpt lat="46.45713" lon="6.06354">
        <ele>1125.1999511719</ele>
        <time>2018-05-10T09:21:23.000Z</time>
      </trkpt>
      <trkpt lat="46.45705" lon="6.06357">
        <ele>1125.1999511719</ele>
        <time>2018-05-10T09:21:30.000Z</time>
      </trkpt>
      <trkpt lat="46.45697" lon="6.06362">
        <ele>1125.1999511719</ele>
        <time>2018-05-10T09:21:37.000Z</time>
      </trkpt>
      <trkpt lat="46.45686" lon="6.06369">
        <ele>1125</ele>
        <time>2018-05-10T09:21:44.000Z</time>
      </trkpt>
      <trkpt lat="46.45671" lon="6.06376">
        <ele>1124.8000488281</ele>
        <time>2018-05-10T09:21:55.000Z</time>
      </trkpt>
      <trkpt lat="46.45657" lon="6.06382">
        <ele>1124.5999755859</ele>
        <time>2018-05-10T09:22:05.000Z</time>
      </trkpt>
      <trkpt lat="46.45655" lon="6.06383">
        <ele>1124.5999755859</ele>
        <time>2018-05-10T09:22:09.000Z</time>
      </trkpt>
      <trkpt lat="46.45644" lon="6.06392">
        <ele>1124.4000244141</ele>
        <time>2018-05-10T09:22:22.000Z</time>
      </trkpt>
      <trkpt lat="46.45634" lon="6.06393">
        <ele>1125.4000244141</ele>
        <time>2018-05-10T09:22:29.000Z</time>
      </trkpt>
      <trkpt lat="46.45624" lon="6.06391">
        <ele>1126.1999511719</ele>
        <time>2018-05-10T09:22:36.000Z</time>
      </trkpt>
      <trkpt lat="46.45613" lon="6.06387">
        <ele>1126.8000488281</ele>
        <time>2018-05-10T09:22:44.000Z</time>
      </trkpt>
      <trkpt lat="46.45609" lon="6.06382">
        <ele>1127</ele>
        <time>2018-05-10T09:22:49.000Z</time>
      </trkpt>
      <trkpt lat="46.45601" lon="6.06372">
        <ele>1127.4000244141</ele>
        <time>2018-05-10T09:22:57.000Z</time>
      </trkpt>
      <trkpt lat="46.45599" lon="6.06371">
        <ele>1127.4000244141</ele>
        <time>2018-05-10T09:23:01.000Z</time>
      </trkpt>
      <trkpt lat="46.45598" lon="6.06372">
        <ele>1127.5999755859</ele>
        <time>2018-05-10T09:23:10.000Z</time>
      </trkpt>
      <trkpt lat="46.45598" lon="6.06372">
        <ele>1127.5999755859</ele>
        <time>2018-05-10T09:23:11.000Z</time>
      </trkpt>
      <trkpt lat="46.45595" lon="6.06373">
        <ele>1127.8000488281</ele>
        <time>2018-05-10T09:23:20.000Z</time>
      </trkpt>
      <trkpt lat="46.45595" lon="6.06373">
        <ele>1127.8000488281</ele>
        <time>2018-05-10T09:23:21.000Z</time>
      </trkpt>
      <trkpt lat="46.45595" lon="6.06373">
        <ele>1127.8000488281</ele>
        <time>2018-05-10T09:24:10.000Z</time>
      </trkpt>
      <trkpt lat="46.45595" lon="6.06373">
        <ele>1127.8000488281</ele>
        <time>2018-05-10T09:24:11.000Z</time>
      </trkpt>
      <trkpt lat="46.45596" lon="6.06372">
        <ele>1127.8000488281</ele>
        <time>2018-05-10T09:25:02.000Z</time>
      </trkpt>
      <trkpt lat="46.45595" lon="6.06372">
        <ele>1127.8000488281</ele>
        <time>2018-05-10T09:25:06.000Z</time>
      </trkpt>
      <trkpt lat="46.45595" lon="6.06372">
        <ele>1127.8000488281</ele>
        <time>2018-05-10T09:25:07.000Z</time>
      </trkpt>
      <trkpt lat="46.45595" lon="6.06373">
        <ele>1127.8000488281</ele>
        <time>2018-05-10T09:25:10.000Z</time>
      </trkpt>
      <trkpt lat="46.45593" lon="6.06373">
        <ele>1128</ele>
        <time>2018-05-10T09:25:15.000Z</time>
      </trkpt>
      <trkpt lat="46.45593" lon="6.06373">
        <ele>1128</ele>
        <time>2018-05-10T09:25:16.000Z</time>
      </trkpt>
      <trkpt lat="46.45591" lon="6.06376">
        <ele>1128.1999511719</ele>
        <time>2018-05-10T09:25:24.000Z</time>
      </trkpt>
      <trkpt lat="46.45576" lon="6.06382">
        <ele>1129.8000488281</ele>
        <time>2018-05-10T09:26:23.000Z</time>
      </trkpt>
      <trkpt lat="46.45565" lon="6.0639">
        <ele>1131</ele>
        <time>2018-05-10T09:26:31.000Z</time>
      </trkpt>
      <trkpt lat="46.45553" lon="6.06395">
        <ele>1132.5999755859</ele>
        <time>2018-05-10T09:26:39.000Z</time>
      </trkpt>
      <trkpt lat="46.45538" lon="6.06405">
        <ele>1134.8000488281</ele>
        <time>2018-05-10T09:26:50.000Z</time>
      </trkpt>
      <trkpt lat="46.45526" lon="6.06412">
        <ele>1136.5999755859</ele>
        <time>2018-05-10T09:26:59.000Z</time>
      </trkpt>
      <trkpt lat="46.45516" lon="6.06417">
        <ele>1137.8000488281</ele>
        <time>2018-05-10T09:27:07.000Z</time>
      </trkpt>
      <trkpt lat="46.4551" lon="6.06418">
        <ele>1138.5999755859</ele>
        <time>2018-05-10T09:27:15.000Z</time>
      </trkpt>
      <trkpt lat="46.45504" lon="6.06419">
        <ele>1139.4000244141</ele>
        <time>2018-05-10T09:27:22.000Z</time>
      </trkpt>
      <trkpt lat="46.45502" lon="6.0642">
        <ele>1139.8000488281</ele>
        <time>2018-05-10T09:27:24.000Z</time>
      </trkpt>
      <trkpt lat="46.45499" lon="6.06421">
        <ele>1140.1999511719</ele>
        <time>2018-05-10T09:27:28.000Z</time>
      </trkpt>
      <trkpt lat="46.45493" lon="6.06425">
        <ele>1141.1999511719</ele>
        <time>2018-05-10T09:27:34.000Z</time>
      </trkpt>
      <trkpt lat="46.45489" lon="6.06429">
        <ele>1141.8000488281</ele>
        <time>2018-05-10T09:27:39.000Z</time>
      </trkpt>
      <trkpt lat="46.45483" lon="6.06432">
        <ele>1142.8000488281</ele>
        <time>2018-05-10T09:27:46.000Z</time>
      </trkpt>
      <trkpt lat="46.45476" lon="6.0643">
        <ele>1144</ele>
        <time>2018-05-10T09:27:52.000Z</time>
      </trkpt>
      <trkpt lat="46.45471" lon="6.06425">
        <ele>1144.8000488281</ele>
        <time>2018-05-10T09:27:58.000Z</time>
      </trkpt>
      <trkpt lat="46.45464" lon="6.0642">
        <ele>1145.8000488281</ele>
        <time>2018-05-10T09:28:06.000Z</time>
      </trkpt>
      <trkpt lat="46.45463" lon="6.06419">
        <ele>1146</ele>
        <time>2018-05-10T09:28:07.000Z</time>
      </trkpt>
      <trkpt lat="46.45459" lon="6.06417">
        <ele>1146.8000488281</ele>
        <time>2018-05-10T09:28:12.000Z</time>
      </trkpt>
      <trkpt lat="46.45452" lon="6.0642">
        <ele>1148.1999511719</ele>
        <time>2018-05-10T09:28:19.000Z</time>
      </trkpt>
      <trkpt lat="46.45448" lon="6.06423">
        <ele>1149</ele>
        <time>2018-05-10T09:28:26.000Z</time>
      </trkpt>
      <trkpt lat="46.45441" lon="6.06424">
        <ele>1150.5999755859</ele>
        <time>2018-05-10T09:28:34.000Z</time>
      </trkpt>
      <trkpt lat="46.45441" lon="6.06425">
        <ele>1150.5999755859</ele>
        <time>2018-05-10T09:28:35.000Z</time>
      </trkpt>
      <trkpt lat="46.45435" lon="6.06426">
        <ele>1151.8000488281</ele>
        <time>2018-05-10T09:28:41.000Z</time>
      </trkpt>
      <trkpt lat="46.45434" lon="6.06426">
        <ele>1151.8000488281</ele>
        <time>2018-05-10T09:28:44.000Z</time>
      </trkpt>
      <trkpt lat="46.45432" lon="6.06427">
        <ele>1152.1999511719</ele>
        <time>2018-05-10T09:28:49.000Z</time>
      </trkpt>
      <trkpt lat="46.4542" lon="6.0643">
        <ele>1152.1999511719</ele>
        <time>2018-05-10T09:28:57.000Z</time>
      </trkpt>
      <trkpt lat="46.45412" lon="6.06432">
        <ele>1152.1999511719</ele>
        <time>2018-05-10T09:29:04.000Z</time>
      </trkpt>
      <trkpt lat="46.45411" lon="6.06433">
        <ele>1152.1999511719</ele>
        <time>2018-05-10T09:29:07.000Z</time>
      </trkpt>
      <trkpt lat="46.45409" lon="6.06434">
        <ele>1152.1999511719</ele>
        <time>2018-05-10T09:29:10.000Z</time>
      </trkpt>
      <trkpt lat="46.45402" lon="6.06435">
        <ele>1152.4000244141</ele>
        <time>2018-05-10T09:29:17.000Z</time>
      </trkpt>
      <trkpt lat="46.45394" lon="6.06436">
        <ele>1153.5999755859</ele>
        <time>2018-05-10T09:29:24.000Z</time>
      </trkpt>
      <trkpt lat="46.45385" lon="6.06441">
        <ele>1155.4000244141</ele>
        <time>2018-05-10T09:29:32.000Z</time>
      </trkpt>
      <trkpt lat="46.45383" lon="6.06443">
        <ele>1155.5999755859</ele>
        <time>2018-05-10T09:29:35.000Z</time>
      </trkpt>
      <trkpt lat="46.45378" lon="6.06453">
        <ele>1156</ele>
        <time>2018-05-10T09:29:42.000Z</time>
      </trkpt>
      <trkpt lat="46.45377" lon="6.06454">
        <ele>1156</ele>
        <time>2018-05-10T09:29:43.000Z</time>
      </trkpt>
      <trkpt lat="46.45368" lon="6.06469">
        <ele>1153.5999755859</ele>
        <time>2018-05-10T09:29:53.000Z</time>
      </trkpt>
      <trkpt lat="46.45364" lon="6.06475">
        <ele>1152.5999755859</ele>
        <time>2018-05-10T09:29:59.000Z</time>
      </trkpt>
      <trkpt lat="46.4536" lon="6.06484">
        <ele>1153.5999755859</ele>
        <time>2018-05-10T09:30:07.000Z</time>
      </trkpt>
      <trkpt lat="46.45355" lon="6.06493">
        <ele>1155</ele>
        <time>2018-05-10T09:30:12.000Z</time>
      </trkpt>
      <trkpt lat="46.45354" lon="6.06493">
        <ele>1155.1999511719</ele>
        <time>2018-05-10T09:30:16.000Z</time>
      </trkpt>
      <trkpt lat="46.45352" lon="6.06493">
        <ele>1155.5999755859</ele>
        <time>2018-05-10T09:30:20.000Z</time>
      </trkpt>
      <trkpt lat="46.45351" lon="6.06493">
        <ele>1155.5999755859</ele>
        <time>2018-05-10T09:30:22.000Z</time>
      </trkpt>
      <trkpt lat="46.4535" lon="6.06485">
        <ele>1155</ele>
        <time>2018-05-10T09:31:12.000Z</time>
      </trkpt>
      <trkpt lat="46.45348" lon="6.06483">
        <ele>1154.8000488281</ele>
        <time>2018-05-10T09:31:27.000Z</time>
      </trkpt>
      <trkpt lat="46.4534" lon="6.06479">
        <ele>1155.4000244141</ele>
        <time>2018-05-10T09:31:34.000Z</time>
      </trkpt>
      <trkpt lat="46.4533" lon="6.06474">
        <ele>1156.8000488281</ele>
        <time>2018-05-10T09:31:42.000Z</time>
      </trkpt>
      <trkpt lat="46.45321" lon="6.06469">
        <ele>1159.1999511719</ele>
        <time>2018-05-10T09:31:51.000Z</time>
      </trkpt>
      <trkpt lat="46.45317" lon="6.06466">
        <ele>1160.1999511719</ele>
        <time>2018-05-10T09:31:55.000Z</time>
      </trkpt>
      <trkpt lat="46.45316" lon="6.06465">
        <ele>1160.8000488281</ele>
        <time>2018-05-10T09:31:59.000Z</time>
      </trkpt>
      <trkpt lat="46.45316" lon="6.06466">
        <ele>1160.4000244141</ele>
        <time>2018-05-10T09:32:23.000Z</time>
      </trkpt>
      <trkpt lat="46.45316" lon="6.06466">
        <ele>1160.4000244141</ele>
        <time>2018-05-10T09:32:33.000Z</time>
      </trkpt>
      <trkpt lat="46.45315" lon="6.06467">
        <ele>1160.4000244141</ele>
        <time>2018-05-10T09:32:36.000Z</time>
      </trkpt>
      <trkpt lat="46.45313" lon="6.06468">
        <ele>1160.5999755859</ele>
        <time>2018-05-10T09:32:40.000Z</time>
      </trkpt>
      <trkpt lat="46.45308" lon="6.06464">
        <ele>1162.5999755859</ele>
        <time>2018-05-10T09:32:45.000Z</time>
      </trkpt>
      <trkpt lat="46.45293" lon="6.06451">
        <ele>1168.8000488281</ele>
        <time>2018-05-10T09:32:59.000Z</time>
      </trkpt>
      <trkpt lat="46.45285" lon="6.06446">
        <ele>1172</ele>
        <time>2018-05-10T09:33:07.000Z</time>
      </trkpt>
      <trkpt lat="46.45278" lon="6.06438">
        <ele>1175.1999511719</ele>
        <time>2018-05-10T09:33:16.000Z</time>
      </trkpt>
      <trkpt lat="46.45275" lon="6.06435">
        <ele>1176.5999755859</ele>
        <time>2018-05-10T09:33:21.000Z</time>
      </trkpt>
      <trkpt lat="46.4527" lon="6.06429">
        <ele>1179.4000244141</ele>
        <time>2018-05-10T09:33:29.000Z</time>
      </trkpt>
      <trkpt lat="46.45269" lon="6.06428">
        <ele>1179.5999755859</ele>
        <time>2018-05-10T09:33:32.000Z</time>
      </trkpt>
      <trkpt lat="46.45269" lon="6.06428">
        <ele>1179.8000488281</ele>
        <time>2018-05-10T09:33:39.000Z</time>
      </trkpt>
      <trkpt lat="46.4527" lon="6.06426">
        <ele>1180</ele>
        <time>2018-05-10T09:33:44.000Z</time>
      </trkpt>
      <trkpt lat="46.4527" lon="6.06426">
        <ele>1179.8000488281</ele>
        <time>2018-05-10T09:33:46.000Z</time>
      </trkpt>
      <trkpt lat="46.45269" lon="6.06425">
        <ele>1180.1999511719</ele>
        <time>2018-05-10T09:33:55.000Z</time>
      </trkpt>
      <trkpt lat="46.45271" lon="6.06427">
        <ele>1179.5999755859</ele>
        <time>2018-05-10T09:34:05.000Z</time>
      </trkpt>
      <trkpt lat="46.4527" lon="6.06427">
        <ele>1179.5999755859</ele>
        <time>2018-05-10T09:34:08.000Z</time>
      </trkpt>
      <trkpt lat="46.45268" lon="6.06428">
        <ele>1179.8000488281</ele>
        <time>2018-05-10T09:34:25.000Z</time>
      </trkpt>
      <trkpt lat="46.45267" lon="6.06433">
        <ele>1178.8000488281</ele>
        <time>2018-05-10T09:34:37.000Z</time>
      </trkpt>
      <trkpt lat="46.45266" lon="6.06433">
        <ele>1179.1999511719</ele>
        <time>2018-05-10T09:34:41.000Z</time>
      </trkpt>
      <trkpt lat="46.45266" lon="6.06433">
        <ele>1179.4000244141</ele>
        <time>2018-05-10T09:35:05.000Z</time>
      </trkpt>
      <trkpt lat="46.45267" lon="6.06429">
        <ele>1179.8000488281</ele>
        <time>2018-05-10T09:35:27.000Z</time>
      </trkpt>
      <trkpt lat="46.4527" lon="6.06428">
        <ele>1179.5999755859</ele>
        <time>2018-05-10T09:35:35.000Z</time>
      </trkpt>
      <trkpt lat="46.4527" lon="6.06423">
        <ele>1180.5999755859</ele>
        <time>2018-05-10T09:35:45.000Z</time>
      </trkpt>
      <trkpt lat="46.45274" lon="6.06425">
        <ele>1179.1999511719</ele>
        <time>2018-05-10T09:36:06.000Z</time>
      </trkpt>
      <trkpt lat="46.45266" lon="6.06424">
        <ele>1181.1999511719</ele>
        <time>2018-05-10T09:36:23.000Z</time>
      </trkpt>
      <trkpt lat="46.45263" lon="6.06423">
        <ele>1182.4000244141</ele>
        <time>2018-05-10T09:36:36.000Z</time>
      </trkpt>
      <trkpt lat="46.45263" lon="6.06418">
        <ele>1183.4000244141</ele>
        <time>2018-05-10T09:36:42.000Z</time>
      </trkpt>
      <trkpt lat="46.45262" lon="6.06419">
        <ele>1183.4000244141</ele>
        <time>2018-05-10T09:36:43.000Z</time>
      </trkpt>
      <trkpt lat="46.45262" lon="6.06419">
        <ele>1183.5999755859</ele>
        <time>2018-05-10T09:36:46.000Z</time>
      </trkpt>
      <trkpt lat="46.45264" lon="6.06414">
        <ele>1184</ele>
        <time>2018-05-10T09:36:50.000Z</time>
      </trkpt>
      <trkpt lat="46.45266" lon="6.06403">
        <ele>1186.4000244141</ele>
        <time>2018-05-10T09:36:58.000Z</time>
      </trkpt>
      <trkpt lat="46.45267" lon="6.06393">
        <ele>1188.4000244141</ele>
        <time>2018-05-10T09:37:04.000Z</time>
      </trkpt>
      <trkpt lat="46.45269" lon="6.06387">
        <ele>1190</ele>
        <time>2018-05-10T09:37:07.000Z</time>
      </trkpt>
      <trkpt lat="46.45273" lon="6.0638">
        <ele>1191.4000244141</ele>
        <time>2018-05-10T09:37:12.000Z</time>
      </trkpt>
      <trkpt lat="46.45275" lon="6.06371">
        <ele>1194</ele>
        <time>2018-05-10T09:37:19.000Z</time>
      </trkpt>
      <trkpt lat="46.45279" lon="6.06365">
        <ele>1195</ele>
        <time>2018-05-10T09:37:24.000Z</time>
      </trkpt>
      <trkpt lat="46.45282" lon="6.06359">
        <ele>1196.4000244141</ele>
        <time>2018-05-10T09:37:30.000Z</time>
      </trkpt>
      <trkpt lat="46.45283" lon="6.06353">
        <ele>1197.1999511719</ele>
        <time>2018-05-10T09:37:34.000Z</time>
      </trkpt>
      <trkpt lat="46.45284" lon="6.0635">
        <ele>1197.5999755859</ele>
        <time>2018-05-10T09:37:39.000Z</time>
      </trkpt>
      <trkpt lat="46.45285" lon="6.06342">
        <ele>1198.8000488281</ele>
        <time>2018-05-10T09:37:46.000Z</time>
      </trkpt>
      <trkpt lat="46.45287" lon="6.06336">
        <ele>1199.4000244141</ele>
        <time>2018-05-10T09:37:51.000Z</time>
      </trkpt>
      <trkpt lat="46.45287" lon="6.06329">
        <ele>1200.5999755859</ele>
        <time>2018-05-10T09:37:56.000Z</time>
      </trkpt>
      <trkpt lat="46.45286" lon="6.06322">
        <ele>1202.4000244141</ele>
        <time>2018-05-10T09:38:02.000Z</time>
      </trkpt>
      <trkpt lat="46.45287" lon="6.06313">
        <ele>1204</ele>
        <time>2018-05-10T09:38:07.000Z</time>
      </trkpt>
      <trkpt lat="46.45288" lon="6.06304">
        <ele>1206</ele>
        <time>2018-05-10T09:38:13.000Z</time>
      </trkpt>
      <trkpt lat="46.45289" lon="6.06293">
        <ele>1208.5999755859</ele>
        <time>2018-05-10T09:38:19.000Z</time>
      </trkpt>
      <trkpt lat="46.45291" lon="6.06289">
        <ele>1209.1999511719</ele>
        <time>2018-05-10T09:38:22.000Z</time>
      </trkpt>
      <trkpt lat="46.45291" lon="6.06284">
        <ele>1210.1999511719</ele>
        <time>2018-05-10T09:38:25.000Z</time>
      </trkpt>
      <trkpt lat="46.45294" lon="6.06279">
        <ele>1210</ele>
        <time>2018-05-10T09:38:32.000Z</time>
      </trkpt>
      <trkpt lat="46.45295" lon="6.06277">
        <ele>1210</ele>
        <time>2018-05-10T09:38:37.000Z</time>
      </trkpt>
      <trkpt lat="46.45296" lon="6.06272">
        <ele>1210.4000244141</ele>
        <time>2018-05-10T09:38:42.000Z</time>
      </trkpt>
      <trkpt lat="46.45296" lon="6.06274">
        <ele>1210</ele>
        <time>2018-05-10T09:38:45.000Z</time>
      </trkpt>
      <trkpt lat="46.45301" lon="6.06276">
        <ele>1207.8000488281</ele>
        <time>2018-05-10T09:38:55.000Z</time>
      </trkpt>
      <trkpt lat="46.45304" lon="6.06265">
        <ele>1208.4000244141</ele>
        <time>2018-05-10T09:39:08.000Z</time>
      </trkpt>
      <trkpt lat="46.45302" lon="6.06258">
        <ele>1210.4000244141</ele>
        <time>2018-05-10T09:39:14.000Z</time>
      </trkpt>
      <trkpt lat="46.45309" lon="6.0625">
        <ele>1209.1999511719</ele>
        <time>2018-05-10T09:39:22.000Z</time>
      </trkpt>
      <trkpt lat="46.45304" lon="6.06243">
        <ele>1212.8000488281</ele>
        <time>2018-05-10T09:39:29.000Z</time>
      </trkpt>
      <trkpt lat="46.45304" lon="6.06241">
        <ele>1213.4000244141</ele>
        <time>2018-05-10T09:39:31.000Z</time>
      </trkpt>
      <trkpt lat="46.45305" lon="6.0623">
        <ele>1215</ele>
        <time>2018-05-10T09:39:37.000Z</time>
      </trkpt>
      <trkpt lat="46.45302" lon="6.06223">
        <ele>1217</ele>
        <time>2018-05-10T09:39:42.000Z</time>
      </trkpt>
      <trkpt lat="46.45301" lon="6.0622">
        <ele>1218</ele>
        <time>2018-05-10T09:39:45.000Z</time>
      </trkpt>
      <trkpt lat="46.45297" lon="6.0621">
        <ele>1220.5999755859</ele>
        <time>2018-05-10T09:39:52.000Z</time>
      </trkpt>
      <trkpt lat="46.45296" lon="6.06207">
        <ele>1221.1999511719</ele>
        <time>2018-05-10T09:39:54.000Z</time>
      </trkpt>
      <trkpt lat="46.45296" lon="6.06197">
        <ele>1223</ele>
        <time>2018-05-10T09:40:02.000Z</time>
      </trkpt>
      <trkpt lat="46.45295" lon="6.06191">
        <ele>1224.4000244141</ele>
        <time>2018-05-10T09:40:08.000Z</time>
      </trkpt>
      <trkpt lat="46.45295" lon="6.0619">
        <ele>1224.5999755859</ele>
        <time>2018-05-10T09:40:10.000Z</time>
      </trkpt>
      <trkpt lat="46.45295" lon="6.06184">
        <ele>1225.5999755859</ele>
        <time>2018-05-10T09:40:15.000Z</time>
      </trkpt>
      <trkpt lat="46.45294" lon="6.06178">
        <ele>1227.1999511719</ele>
        <time>2018-05-10T09:40:19.000Z</time>
      </trkpt>
      <trkpt lat="46.45294" lon="6.06174">
        <ele>1227.5999755859</ele>
        <time>2018-05-10T09:40:21.000Z</time>
      </trkpt>
      <trkpt lat="46.45296" lon="6.0617">
        <ele>1227.8000488281</ele>
        <time>2018-05-10T09:40:27.000Z</time>
      </trkpt>
      <trkpt lat="46.45296" lon="6.0617">
        <ele>1227.8000488281</ele>
        <time>2018-05-10T09:40:28.000Z</time>
      </trkpt>
      <trkpt lat="46.45297" lon="6.0617">
        <ele>1227.4000244141</ele>
        <time>2018-05-10T09:40:34.000Z</time>
      </trkpt>
      <trkpt lat="46.45296" lon="6.06172">
        <ele>1227.4000244141</ele>
        <time>2018-05-10T09:40:48.000Z</time>
      </trkpt>
      <trkpt lat="46.45292" lon="6.06163">
        <ele>1230.4000244141</ele>
        <time>2018-05-10T09:40:54.000Z</time>
      </trkpt>
      <trkpt lat="46.45291" lon="6.06155">
        <ele>1232.1999511719</ele>
        <time>2018-05-10T09:40:58.000Z</time>
      </trkpt>
      <trkpt lat="46.45291" lon="6.06155">
        <ele>1232.1999511719</ele>
        <time>2018-05-10T09:40:58.000Z</time>
      </trkpt>
      <trkpt lat="46.45288" lon="6.06146">
        <ele>1235</ele>
        <time>2018-05-10T09:41:04.000Z</time>
      </trkpt>
      <trkpt lat="46.45285" lon="6.06139">
        <ele>1236.4000244141</ele>
        <time>2018-05-10T09:41:09.000Z</time>
      </trkpt>
      <trkpt lat="46.45283" lon="6.06132">
        <ele>1237</ele>
        <time>2018-05-10T09:41:14.000Z</time>
      </trkpt>
      <trkpt lat="46.4528" lon="6.06123">
        <ele>1237.8000488281</ele>
        <time>2018-05-10T09:41:20.000Z</time>
      </trkpt>
      <trkpt lat="46.45277" lon="6.06112">
        <ele>1238.5999755859</ele>
        <time>2018-05-10T09:41:27.000Z</time>
      </trkpt>
      <trkpt lat="46.45274" lon="6.06101">
        <ele>1239.5999755859</ele>
        <time>2018-05-10T09:41:34.000Z</time>
      </trkpt>
      <trkpt lat="46.45267" lon="6.06095">
        <ele>1241.8000488281</ele>
        <time>2018-05-10T09:41:41.000Z</time>
      </trkpt>
      <trkpt lat="46.45263" lon="6.06093">
        <ele>1243.1999511719</ele>
        <time>2018-05-10T09:41:46.000Z</time>
      </trkpt>
      <trkpt lat="46.45264" lon="6.06093">
        <ele>1243</ele>
        <time>2018-05-10T09:41:49.000Z</time>
      </trkpt>
      <trkpt lat="46.45264" lon="6.06093">
        <ele>1242.8000488281</ele>
        <time>2018-05-10T09:41:50.000Z</time>
      </trkpt>
      <trkpt lat="46.45265" lon="6.06092">
        <ele>1242.4000244141</ele>
        <time>2018-05-10T09:41:53.000Z</time>
      </trkpt>
      <trkpt lat="46.45266" lon="6.06091">
        <ele>1242.1999511719</ele>
        <time>2018-05-10T09:41:58.000Z</time>
      </trkpt>
      <trkpt lat="46.45266" lon="6.06093">
        <ele>1242</ele>
        <time>2018-05-10T09:42:05.000Z</time>
      </trkpt>
      <trkpt lat="46.45266" lon="6.06096">
        <ele>1242.4000244141</ele>
        <time>2018-05-10T09:42:13.000Z</time>
      </trkpt>
      <trkpt lat="46.45265" lon="6.06098">
        <ele>1242.5999755859</ele>
        <time>2018-05-10T09:42:18.000Z</time>
      </trkpt>
      <trkpt lat="46.45264" lon="6.06101">
        <ele>1243</ele>
        <time>2018-05-10T09:42:29.000Z</time>
      </trkpt>
      <trkpt lat="46.45262" lon="6.06104">
        <ele>1243.5999755859</ele>
        <time>2018-05-10T09:42:38.000Z</time>
      </trkpt>
      <trkpt lat="46.45263" lon="6.06103">
        <ele>1243.4000244141</ele>
        <time>2018-05-10T09:42:47.000Z</time>
      </trkpt>
      <trkpt lat="46.45264" lon="6.061">
        <ele>1243</ele>
        <time>2018-05-10T09:43:08.000Z</time>
      </trkpt>
      <trkpt lat="46.45265" lon="6.06099">
        <ele>1242.5999755859</ele>
        <time>2018-05-10T09:43:14.000Z</time>
      </trkpt>
      <trkpt lat="46.45266" lon="6.06096">
        <ele>1242.4000244141</ele>
        <time>2018-05-10T09:43:40.000Z</time>
      </trkpt>
      <trkpt lat="46.45262" lon="6.06099">
        <ele>1243.5999755859</ele>
        <time>2018-05-10T09:44:10.000Z</time>
      </trkpt>
      <trkpt lat="46.45261" lon="6.06101">
        <ele>1244</ele>
        <time>2018-05-10T09:44:16.000Z</time>
      </trkpt>
      <trkpt lat="46.45257" lon="6.061">
        <ele>1245.1999511719</ele>
        <time>2018-05-10T09:44:29.000Z</time>
      </trkpt>
      <trkpt lat="46.45252" lon="6.06096">
        <ele>1246.8000488281</ele>
        <time>2018-05-10T09:44:36.000Z</time>
      </trkpt>
      <trkpt lat="46.45248" lon="6.06096">
        <ele>1248.1999511719</ele>
        <time>2018-05-10T09:44:42.000Z</time>
      </trkpt>
      <trkpt lat="46.45241" lon="6.06094">
        <ele>1250.4000244141</ele>
        <time>2018-05-10T09:44:50.000Z</time>
      </trkpt>
      <trkpt lat="46.45238" lon="6.06091">
        <ele>1251.5999755859</ele>
        <time>2018-05-10T09:44:56.000Z</time>
      </trkpt>
      <trkpt lat="46.45231" lon="6.0609">
        <ele>1253.8000488281</ele>
        <time>2018-05-10T09:45:05.000Z</time>
      </trkpt>
      <trkpt lat="46.45223" lon="6.06091">
        <ele>1255.1999511719</ele>
        <time>2018-05-10T09:45:13.000Z</time>
      </trkpt>
      <trkpt lat="46.45215" lon="6.06093">
        <ele>1256.8000488281</ele>
        <time>2018-05-10T09:45:22.000Z</time>
      </trkpt>
      <trkpt lat="46.45207" lon="6.06095">
        <ele>1258.4000244141</ele>
        <time>2018-05-10T09:45:31.000Z</time>
      </trkpt>
      <trkpt lat="46.452" lon="6.06096">
        <ele>1259.5999755859</ele>
        <time>2018-05-10T09:45:39.000Z</time>
      </trkpt>
      <trkpt lat="46.45194" lon="6.06097">
        <ele>1260.8000488281</ele>
        <time>2018-05-10T09:45:46.000Z</time>
      </trkpt>
      <trkpt lat="46.45189" lon="6.06098">
        <ele>1261.8000488281</ele>
        <time>2018-05-10T09:45:53.000Z</time>
      </trkpt>
      <trkpt lat="46.45187" lon="6.06101">
        <ele>1262.4000244141</ele>
        <time>2018-05-10T09:46:00.000Z</time>
      </trkpt>
      <trkpt lat="46.45179" lon="6.0611">
        <ele>1264.8000488281</ele>
        <time>2018-05-10T09:46:10.000Z</time>
      </trkpt>
      <trkpt lat="46.45172" lon="6.06116">
        <ele>1266.4000244141</ele>
        <time>2018-05-10T09:46:17.000Z</time>
      </trkpt>
      <trkpt lat="46.45166" lon="6.06123">
        <ele>1268.4000244141</ele>
        <time>2018-05-10T09:46:24.000Z</time>
      </trkpt>
      <trkpt lat="46.45159" lon="6.06129">
        <ele>1270.1999511719</ele>
        <time>2018-05-10T09:46:31.000Z</time>
      </trkpt>
      <trkpt lat="46.45155" lon="6.06133">
        <ele>1271.1999511719</ele>
        <time>2018-05-10T09:46:35.000Z</time>
      </trkpt>
      <trkpt lat="46.45152" lon="6.06141">
        <ele>1272.4000244141</ele>
        <time>2018-05-10T09:46:41.000Z</time>
      </trkpt>
      <trkpt lat="46.45146" lon="6.0615">
        <ele>1272.5999755859</ele>
        <time>2018-05-10T09:46:48.000Z</time>
      </trkpt>
      <trkpt lat="46.45145" lon="6.0615">
        <ele>1272.5999755859</ele>
        <time>2018-05-10T09:46:51.000Z</time>
      </trkpt>
      <trkpt lat="46.45144" lon="6.0615">
        <ele>1272.8000488281</ele>
        <time>2018-05-10T09:46:54.000Z</time>
      </trkpt>
      <trkpt lat="46.45144" lon="6.06149">
        <ele>1272.8000488281</ele>
        <time>2018-05-10T09:46:55.000Z</time>
      </trkpt>
      <trkpt lat="46.45143" lon="6.06147">
        <ele>1273.1999511719</ele>
        <time>2018-05-10T09:47:03.000Z</time>
      </trkpt>
      <trkpt lat="46.45142" lon="6.06144">
        <ele>1273.4000244141</ele>
        <time>2018-05-10T09:47:08.000Z</time>
      </trkpt>
      <trkpt lat="46.45142" lon="6.06141">
        <ele>1273.5999755859</ele>
        <time>2018-05-10T09:47:17.000Z</time>
      </trkpt>
      <trkpt lat="46.45143" lon="6.06143">
        <ele>1273.4000244141</ele>
        <time>2018-05-10T09:47:25.000Z</time>
      </trkpt>
      <trkpt lat="46.45143" lon="6.06143">
        <ele>1273.4000244141</ele>
        <time>2018-05-10T09:47:31.000Z</time>
      </trkpt>
      <trkpt lat="46.4514" lon="6.06138">
        <ele>1274</ele>
        <time>2018-05-10T09:47:47.000Z</time>
      </trkpt>
      <trkpt lat="46.45139" lon="6.06134">
        <ele>1274.1999511719</ele>
        <time>2018-05-10T09:47:55.000Z</time>
      </trkpt>
      <trkpt lat="46.4514" lon="6.06139">
        <ele>1273.8000488281</ele>
        <time>2018-05-10T09:48:04.000Z</time>
      </trkpt>
      <trkpt lat="46.45141" lon="6.0614">
        <ele>1273.8000488281</ele>
        <time>2018-05-10T09:48:08.000Z</time>
      </trkpt>
      <trkpt lat="46.45141" lon="6.06143">
        <ele>1273.5999755859</ele>
        <time>2018-05-10T09:48:17.000Z</time>
      </trkpt>
      <trkpt lat="46.4513" lon="6.06155">
        <ele>1273.4000244141</ele>
        <time>2018-05-10T09:48:26.000Z</time>
      </trkpt>
      <trkpt lat="46.45121" lon="6.06161">
        <ele>1273.5999755859</ele>
        <time>2018-05-10T09:48:33.000Z</time>
      </trkpt>
      <trkpt lat="46.45111" lon="6.06168">
        <ele>1273.5999755859</ele>
        <time>2018-05-10T09:48:41.000Z</time>
      </trkpt>
      <trkpt lat="46.45099" lon="6.06175">
        <ele>1274</ele>
        <time>2018-05-10T09:48:51.000Z</time>
      </trkpt>
      <trkpt lat="46.45097" lon="6.06178">
        <ele>1274.1999511719</ele>
        <time>2018-05-10T09:48:57.000Z</time>
      </trkpt>
      <trkpt lat="46.45093" lon="6.06179">
        <ele>1274.8000488281</ele>
        <time>2018-05-10T09:49:03.000Z</time>
      </trkpt>
      <trkpt lat="46.45088" lon="6.06183">
        <ele>1275.5999755859</ele>
        <time>2018-05-10T09:49:08.000Z</time>
      </trkpt>
      <trkpt lat="46.45077" lon="6.06189">
        <ele>1277.1999511719</ele>
        <time>2018-05-10T09:49:18.000Z</time>
      </trkpt>
      <trkpt lat="46.45073" lon="6.06191">
        <ele>1278</ele>
        <time>2018-05-10T09:49:25.000Z</time>
      </trkpt>
      <trkpt lat="46.45068" lon="6.06194">
        <ele>1278.8000488281</ele>
        <time>2018-05-10T09:49:46.000Z</time>
      </trkpt>
      <trkpt lat="46.45058" lon="6.06199">
        <ele>1280.1999511719</ele>
        <time>2018-05-10T09:49:55.000Z</time>
      </trkpt>
      <trkpt lat="46.45051" lon="6.06201">
        <ele>1281.5999755859</ele>
        <time>2018-05-10T09:50:03.000Z</time>
      </trkpt>
      <trkpt lat="46.45042" lon="6.06206">
        <ele>1283.1999511719</ele>
        <time>2018-05-10T09:50:12.000Z</time>
      </trkpt>
      <trkpt lat="46.45034" lon="6.06209">
        <ele>1285.1999511719</ele>
        <time>2018-05-10T09:50:20.000Z</time>
      </trkpt>
      <trkpt lat="46.45026" lon="6.06212">
        <ele>1286.8000488281</ele>
        <time>2018-05-10T09:50:28.000Z</time>
      </trkpt>
      <trkpt lat="46.45026" lon="6.06212">
        <ele>1287</ele>
        <time>2018-05-10T09:50:29.000Z</time>
      </trkpt>
      <trkpt lat="46.45022" lon="6.06214">
        <ele>1287.8000488281</ele>
        <time>2018-05-10T09:50:34.000Z</time>
      </trkpt>
      <trkpt lat="46.45016" lon="6.06216">
        <ele>1289.1999511719</ele>
        <time>2018-05-10T09:50:40.000Z</time>
      </trkpt>
      <trkpt lat="46.45015" lon="6.06216">
        <ele>1289.5999755859</ele>
        <time>2018-05-10T09:50:43.000Z</time>
      </trkpt>
      <trkpt lat="46.45011" lon="6.06218">
        <ele>1290.5999755859</ele>
        <time>2018-05-10T09:51:14.000Z</time>
      </trkpt>
      <trkpt lat="46.45001" lon="6.06225">
        <ele>1292.8000488281</ele>
        <time>2018-05-10T09:51:23.000Z</time>
      </trkpt>
      <trkpt lat="46.44993" lon="6.06231">
        <ele>1295</ele>
        <time>2018-05-10T09:51:31.000Z</time>
      </trkpt>
      <trkpt lat="46.44982" lon="6.06237">
        <ele>1297.8000488281</ele>
        <time>2018-05-10T09:51:41.000Z</time>
      </trkpt>
      <trkpt lat="46.44971" lon="6.06243">
        <ele>1301</ele>
        <time>2018-05-10T09:51:50.000Z</time>
      </trkpt>
      <trkpt lat="46.44962" lon="6.06247">
        <ele>1303.5999755859</ele>
        <time>2018-05-10T09:51:58.000Z</time>
      </trkpt>
      <trkpt lat="46.44954" lon="6.0625">
        <ele>1306</ele>
        <time>2018-05-10T09:52:05.000Z</time>
      </trkpt>
      <trkpt lat="46.44947" lon="6.06249">
        <ele>1307.8000488281</ele>
        <time>2018-05-10T09:52:12.000Z</time>
      </trkpt>
      <trkpt lat="46.44945" lon="6.06247">
        <ele>1308</ele>
        <time>2018-05-10T09:52:16.000Z</time>
      </trkpt>
      <trkpt lat="46.44946" lon="6.06245">
        <ele>1307.8000488281</ele>
        <time>2018-05-10T09:52:53.000Z</time>
      </trkpt>
      <trkpt lat="46.44948" lon="6.0625">
        <ele>1307.5999755859</ele>
        <time>2018-05-10T09:53:17.000Z</time>
      </trkpt>
      <trkpt lat="46.44947" lon="6.06253">
        <ele>1308</ele>
        <time>2018-05-10T09:53:21.000Z</time>
      </trkpt>
      <trkpt lat="46.44949" lon="6.06252">
        <ele>1307.4000244141</ele>
        <time>2018-05-10T09:54:13.000Z</time>
      </trkpt>
      <trkpt lat="46.44949" lon="6.06252">
        <ele>1307.4000244141</ele>
        <time>2018-05-10T09:54:38.000Z</time>
      </trkpt>
      <trkpt lat="46.44949" lon="6.06252">
        <ele>1307.5999755859</ele>
        <time>2018-05-10T09:54:39.000Z</time>
      </trkpt>
      <trkpt lat="46.44949" lon="6.06254">
        <ele>1307.5999755859</ele>
        <time>2018-05-10T09:54:54.000Z</time>
      </trkpt>
      <trkpt lat="46.44942" lon="6.06267">
        <ele>1310.1999511719</ele>
        <time>2018-05-10T09:55:03.000Z</time>
      </trkpt>
      <trkpt lat="46.44936" lon="6.0628">
        <ele>1312.1999511719</ele>
        <time>2018-05-10T09:55:11.000Z</time>
      </trkpt>
      <trkpt lat="46.44929" lon="6.06295">
        <ele>1314.8000488281</ele>
        <time>2018-05-10T09:55:21.000Z</time>
      </trkpt>
      <trkpt lat="46.44926" lon="6.06308">
        <ele>1316.1999511719</ele>
        <time>2018-05-10T09:55:29.000Z</time>
      </trkpt>
      <trkpt lat="46.44919" lon="6.06318">
        <ele>1317.8000488281</ele>
        <time>2018-05-10T09:55:37.000Z</time>
      </trkpt>
      <trkpt lat="46.44917" lon="6.0632">
        <ele>1318.1999511719</ele>
        <time>2018-05-10T09:55:41.000Z</time>
      </trkpt>
      <trkpt lat="46.44916" lon="6.0632">
        <ele>1318.4000244141</ele>
        <time>2018-05-10T09:55:44.000Z</time>
      </trkpt>
      <trkpt lat="46.44916" lon="6.0632">
        <ele>1318.4000244141</ele>
        <time>2018-05-10T09:55:45.000Z</time>
      </trkpt>
      <trkpt lat="46.44913" lon="6.06321">
        <ele>1319.1999511719</ele>
        <time>2018-05-10T09:55:49.000Z</time>
      </trkpt>
      <trkpt lat="46.44909" lon="6.06322">
        <ele>1320.4000244141</ele>
        <time>2018-05-10T09:55:54.000Z</time>
      </trkpt>
      <trkpt lat="46.44903" lon="6.06325">
        <ele>1322</ele>
        <time>2018-05-10T09:56:00.000Z</time>
      </trkpt>
      <trkpt lat="46.44895" lon="6.0633">
        <ele>1324.1999511719</ele>
        <time>2018-05-10T09:56:08.000Z</time>
      </trkpt>
      <trkpt lat="46.44889" lon="6.06333">
        <ele>1326</ele>
        <time>2018-05-10T09:56:15.000Z</time>
      </trkpt>
      <trkpt lat="46.44882" lon="6.06339">
        <ele>1327.8000488281</ele>
        <time>2018-05-10T09:56:23.000Z</time>
      </trkpt>
      <trkpt lat="46.44875" lon="6.06346">
        <ele>1329.8000488281</ele>
        <time>2018-05-10T09:56:32.000Z</time>
      </trkpt>
      <trkpt lat="46.44871" lon="6.06351">
        <ele>1331.1999511719</ele>
        <time>2018-05-10T09:56:39.000Z</time>
      </trkpt>
      <trkpt lat="46.44866" lon="6.06357">
        <ele>1332.5999755859</ele>
        <time>2018-05-10T09:56:47.000Z</time>
      </trkpt>
      <trkpt lat="46.44863" lon="6.06362">
        <ele>1333.8000488281</ele>
        <time>2018-05-10T09:56:52.000Z</time>
      </trkpt>
      <trkpt lat="46.44862" lon="6.06363">
        <ele>1334.1999511719</ele>
        <time>2018-05-10T09:56:55.000Z</time>
      </trkpt>
      <trkpt lat="46.44862" lon="6.06362">
        <ele>1334.4000244141</ele>
        <time>2018-05-10T09:57:05.000Z</time>
      </trkpt>
      <trkpt lat="46.44861" lon="6.06361">
        <ele>1334.5999755859</ele>
        <time>2018-05-10T09:57:09.000Z</time>
      </trkpt>
      <trkpt lat="46.44859" lon="6.06364">
        <ele>1335.4000244141</ele>
        <time>2018-05-10T09:57:36.000Z</time>
      </trkpt>
      <trkpt lat="46.44856" lon="6.06369">
        <ele>1337.1999511719</ele>
        <time>2018-05-10T09:57:43.000Z</time>
      </trkpt>
      <trkpt lat="46.44851" lon="6.06376">
        <ele>1339.4000244141</ele>
        <time>2018-05-10T09:57:50.000Z</time>
      </trkpt>
      <trkpt lat="46.4485" lon="6.0638">
        <ele>1340.1999511719</ele>
        <time>2018-05-10T09:57:53.000Z</time>
      </trkpt>
      <trkpt lat="46.44847" lon="6.06385">
        <ele>1341.8000488281</ele>
        <time>2018-05-10T09:58:00.000Z</time>
      </trkpt>
      <trkpt lat="46.44843" lon="6.06394">
        <ele>1344</ele>
        <time>2018-05-10T09:58:08.000Z</time>
      </trkpt>
      <trkpt lat="46.44837" lon="6.06402">
        <ele>1345.5999755859</ele>
        <time>2018-05-10T09:58:15.000Z</time>
      </trkpt>
      <trkpt lat="46.44836" lon="6.06405">
        <ele>1346.1999511719</ele>
        <time>2018-05-10T09:58:17.000Z</time>
      </trkpt>
      <trkpt lat="46.44828" lon="6.06415">
        <ele>1348.8000488281</ele>
        <time>2018-05-10T09:58:27.000Z</time>
      </trkpt>
      <trkpt lat="46.44826" lon="6.06418">
        <ele>1349.8000488281</ele>
        <time>2018-05-10T09:58:32.000Z</time>
      </trkpt>
      <trkpt lat="46.44825" lon="6.06419">
        <ele>1350</ele>
        <time>2018-05-10T09:58:44.000Z</time>
      </trkpt>
      <trkpt lat="46.44825" lon="6.06419">
        <ele>1350</ele>
        <time>2018-05-10T09:58:45.000Z</time>
      </trkpt>
      <trkpt lat="46.44822" lon="6.06424">
        <ele>1351</ele>
        <time>2018-05-10T09:58:55.000Z</time>
      </trkpt>
      <trkpt lat="46.44819" lon="6.06428">
        <ele>1352.1999511719</ele>
        <time>2018-05-10T09:58:59.000Z</time>
      </trkpt>
      <trkpt lat="46.44813" lon="6.06435">
        <ele>1354.1999511719</ele>
        <time>2018-05-10T09:59:07.000Z</time>
      </trkpt>
      <trkpt lat="46.44805" lon="6.06443">
        <ele>1355.4000244141</ele>
        <time>2018-05-10T09:59:16.000Z</time>
      </trkpt>
      <trkpt lat="46.44803" lon="6.06447">
        <ele>1355.8000488281</ele>
        <time>2018-05-10T09:59:19.000Z</time>
      </trkpt>
      <trkpt lat="46.44803" lon="6.06448">
        <ele>1355.8000488281</ele>
        <time>2018-05-10T09:59:22.000Z</time>
      </trkpt>
      <trkpt lat="46.448" lon="6.0645">
        <ele>1356.1999511719</ele>
        <time>2018-05-10T09:59:34.000Z</time>
      </trkpt>
      <trkpt lat="46.44796" lon="6.06453">
        <ele>1357</ele>
        <time>2018-05-10T09:59:38.000Z</time>
      </trkpt>
      <trkpt lat="46.44787" lon="6.06456">
        <ele>1359.1999511719</ele>
        <time>2018-05-10T09:59:47.000Z</time>
      </trkpt>
      <trkpt lat="46.44778" lon="6.06457">
        <ele>1361.1999511719</ele>
        <time>2018-05-10T09:59:56.000Z</time>
      </trkpt>
      <trkpt lat="46.44769" lon="6.06464">
        <ele>1363.4000244141</ele>
        <time>2018-05-10T10:00:05.000Z</time>
      </trkpt>
      <trkpt lat="46.44761" lon="6.06472">
        <ele>1365.4000244141</ele>
        <time>2018-05-10T10:00:14.000Z</time>
      </trkpt>
      <trkpt lat="46.44754" lon="6.06479">
        <ele>1366.5999755859</ele>
        <time>2018-05-10T10:00:21.000Z</time>
      </trkpt>
      <trkpt lat="46.4475" lon="6.06486">
        <ele>1366.8000488281</ele>
        <time>2018-05-10T10:00:28.000Z</time>
      </trkpt>
      <trkpt lat="46.44749" lon="6.06487">
        <ele>1366.5999755859</ele>
        <time>2018-05-10T10:00:32.000Z</time>
      </trkpt>
      <trkpt lat="46.4475" lon="6.06489">
        <ele>1366.1999511719</ele>
        <time>2018-05-10T10:00:36.000Z</time>
      </trkpt>
      <trkpt lat="46.44751" lon="6.06486">
        <ele>1366.4000244141</ele>
        <time>2018-05-10T10:00:42.000Z</time>
      </trkpt>
      <trkpt lat="46.44751" lon="6.06485">
        <ele>1366.5999755859</ele>
        <time>2018-05-10T10:00:45.000Z</time>
      </trkpt>
      <trkpt lat="46.44752" lon="6.0648">
        <ele>1367</ele>
        <time>2018-05-10T10:01:17.000Z</time>
      </trkpt>
      <trkpt lat="46.44753" lon="6.06478">
        <ele>1367</ele>
        <time>2018-05-10T10:01:24.000Z</time>
      </trkpt>
      <trkpt lat="46.44752" lon="6.06478">
        <ele>1367.1999511719</ele>
        <time>2018-05-10T10:01:33.000Z</time>
      </trkpt>
      <trkpt lat="46.44753" lon="6.0648">
        <ele>1366.8000488281</ele>
        <time>2018-05-10T10:01:37.000Z</time>
      </trkpt>
      <trkpt lat="46.44754" lon="6.06482">
        <ele>1366.1999511719</ele>
        <time>2018-05-10T10:01:48.000Z</time>
      </trkpt>
      <trkpt lat="46.44755" lon="6.06484">
        <ele>1365.8000488281</ele>
        <time>2018-05-10T10:01:52.000Z</time>
      </trkpt>
      <trkpt lat="46.44755" lon="6.06485">
        <ele>1365.5999755859</ele>
        <time>2018-05-10T10:01:58.000Z</time>
      </trkpt>
      <trkpt lat="46.44756" lon="6.06486">
        <ele>1365.1999511719</ele>
        <time>2018-05-10T10:02:05.000Z</time>
      </trkpt>
      <trkpt lat="46.44762" lon="6.06484">
        <ele>1364.1999511719</ele>
        <time>2018-05-10T10:02:13.000Z</time>
      </trkpt>
      <trkpt lat="46.44756" lon="6.06487">
        <ele>1365.1999511719</ele>
        <time>2018-05-10T10:02:48.000Z</time>
      </trkpt>
      <trkpt lat="46.44755" lon="6.06488">
        <ele>1365.1999511719</ele>
        <time>2018-05-10T10:02:51.000Z</time>
      </trkpt>
      <trkpt lat="46.44749" lon="6.06491">
        <ele>1366</ele>
        <time>2018-05-10T10:03:11.000Z</time>
      </trkpt>
      <trkpt lat="46.44742" lon="6.06501">
        <ele>1368.5999755859</ele>
        <time>2018-05-10T10:03:22.000Z</time>
      </trkpt>
      <trkpt lat="46.44739" lon="6.06506">
        <ele>1369.8000488281</ele>
        <time>2018-05-10T10:03:28.000Z</time>
      </trkpt>
      <trkpt lat="46.44732" lon="6.06515">
        <ele>1372.5999755859</ele>
        <time>2018-05-10T10:03:38.000Z</time>
      </trkpt>
      <trkpt lat="46.44725" lon="6.06521">
        <ele>1374.5999755859</ele>
        <time>2018-05-10T10:03:46.000Z</time>
      </trkpt>
      <trkpt lat="46.44725" lon="6.06521">
        <ele>1374.5999755859</ele>
        <time>2018-05-10T10:03:48.000Z</time>
      </trkpt>
      <trkpt lat="46.44726" lon="6.06521">
        <ele>1374.4000244141</ele>
        <time>2018-05-10T10:04:01.000Z</time>
      </trkpt>
      <trkpt lat="46.44729" lon="6.06525">
        <ele>1373.5999755859</ele>
        <time>2018-05-10T10:04:50.000Z</time>
      </trkpt>
      <trkpt lat="46.44724" lon="6.06529">
        <ele>1375</ele>
        <time>2018-05-10T10:04:57.000Z</time>
      </trkpt>
      <trkpt lat="46.44717" lon="6.06533">
        <ele>1377.1999511719</ele>
        <time>2018-05-10T10:05:06.000Z</time>
      </trkpt>
      <trkpt lat="46.44713" lon="6.06537">
        <ele>1378.1999511719</ele>
        <time>2018-05-10T10:05:12.000Z</time>
      </trkpt>
      <trkpt lat="46.44708" lon="6.06542">
        <ele>1379.5999755859</ele>
        <time>2018-05-10T10:05:20.000Z</time>
      </trkpt>
      <trkpt lat="46.44704" lon="6.06545">
        <ele>1380.5999755859</ele>
        <time>2018-05-10T10:05:26.000Z</time>
      </trkpt>
      <trkpt lat="46.447" lon="6.06548">
        <ele>1381.5999755859</ele>
        <time>2018-05-10T10:05:32.000Z</time>
      </trkpt>
      <trkpt lat="46.44695" lon="6.06552">
        <ele>1382.5999755859</ele>
        <time>2018-05-10T10:05:39.000Z</time>
      </trkpt>
      <trkpt lat="46.4469" lon="6.06555">
        <ele>1383.8000488281</ele>
        <time>2018-05-10T10:05:46.000Z</time>
      </trkpt>
      <trkpt lat="46.4469" lon="6.06555">
        <ele>1383.8000488281</ele>
        <time>2018-05-10T10:05:47.000Z</time>
      </trkpt>
      <trkpt lat="46.44686" lon="6.06558">
        <ele>1384.5999755859</ele>
        <time>2018-05-10T10:06:05.000Z</time>
      </trkpt>
      <trkpt lat="46.44684" lon="6.0656">
        <ele>1385.4000244141</ele>
        <time>2018-05-10T10:06:10.000Z</time>
      </trkpt>
      <trkpt lat="46.44678" lon="6.06564">
        <ele>1386.4000244141</ele>
        <time>2018-05-10T10:06:17.000Z</time>
      </trkpt>
      <trkpt lat="46.44677" lon="6.06565">
        <ele>1386.5999755859</ele>
        <time>2018-05-10T10:06:19.000Z</time>
      </trkpt>
      <trkpt lat="46.44674" lon="6.06568">
        <ele>1387.1999511719</ele>
        <time>2018-05-10T10:06:25.000Z</time>
      </trkpt>
      <trkpt lat="46.4467" lon="6.06571">
        <ele>1388</ele>
        <time>2018-05-10T10:06:32.000Z</time>
      </trkpt>
      <trkpt lat="46.44669" lon="6.06573">
        <ele>1388.1999511719</ele>
        <time>2018-05-10T10:06:42.000Z</time>
      </trkpt>
      <trkpt lat="46.44669" lon="6.06573">
        <ele>1388.1999511719</ele>
        <time>2018-05-10T10:06:44.000Z</time>
      </trkpt>
      <trkpt lat="46.44665" lon="6.06573">
        <ele>1389</ele>
        <time>2018-05-10T10:06:51.000Z</time>
      </trkpt>
      <trkpt lat="46.44656" lon="6.06581">
        <ele>1392.8000488281</ele>
        <time>2018-05-10T10:07:02.000Z</time>
      </trkpt>
      <trkpt lat="46.44651" lon="6.06584">
        <ele>1395</ele>
        <time>2018-05-10T10:07:10.000Z</time>
      </trkpt>
      <trkpt lat="46.44652" lon="6.06583">
        <ele>1394.5999755859</ele>
        <time>2018-05-10T10:07:16.000Z</time>
      </trkpt>
      <trkpt lat="46.44649" lon="6.06584">
        <ele>1395.8000488281</ele>
        <time>2018-05-10T10:07:27.000Z</time>
      </trkpt>
      <trkpt lat="46.44641" lon="6.06588">
        <ele>1398</ele>
        <time>2018-05-10T10:07:36.000Z</time>
      </trkpt>
      <trkpt lat="46.44635" lon="6.06592">
        <ele>1399.8000488281</ele>
        <time>2018-05-10T10:07:43.000Z</time>
      </trkpt>
      <trkpt lat="46.44633" lon="6.06593">
        <ele>1400.1999511719</ele>
        <time>2018-05-10T10:07:47.000Z</time>
      </trkpt>
      <trkpt lat="46.44632" lon="6.06594">
        <ele>1400.8000488281</ele>
        <time>2018-05-10T10:07:52.000Z</time>
      </trkpt>
      <trkpt lat="46.44624" lon="6.06599">
        <ele>1403</ele>
        <time>2018-05-10T10:08:01.000Z</time>
      </trkpt>
      <trkpt lat="46.44616" lon="6.06607">
        <ele>1405.4000244141</ele>
        <time>2018-05-10T10:08:11.000Z</time>
      </trkpt>
      <trkpt lat="46.44614" lon="6.06612">
        <ele>1406.1999511719</ele>
        <time>2018-05-10T10:08:15.000Z</time>
      </trkpt>
      <trkpt lat="46.44612" lon="6.06612">
        <ele>1406.4000244141</ele>
        <time>2018-05-10T10:08:18.000Z</time>
      </trkpt>
      <trkpt lat="46.44605" lon="6.0662">
        <ele>1408.5999755859</ele>
        <time>2018-05-10T10:08:40.000Z</time>
      </trkpt>
      <trkpt lat="46.44597" lon="6.06626">
        <ele>1410.4000244141</ele>
        <time>2018-05-10T10:08:48.000Z</time>
      </trkpt>
      <trkpt lat="46.44589" lon="6.06632">
        <ele>1412.5999755859</ele>
        <time>2018-05-10T10:08:56.000Z</time>
      </trkpt>
      <trkpt lat="46.44582" lon="6.06635">
        <ele>1414</ele>
        <time>2018-05-10T10:09:02.000Z</time>
      </trkpt>
      <trkpt lat="46.44581" lon="6.06636">
        <ele>1414.4000244141</ele>
        <time>2018-05-10T10:09:06.000Z</time>
      </trkpt>
      <trkpt lat="46.44573" lon="6.06641">
        <ele>1416.4000244141</ele>
        <time>2018-05-10T10:09:22.000Z</time>
      </trkpt>
      <trkpt lat="46.44569" lon="6.06643">
        <ele>1417.1999511719</ele>
        <time>2018-05-10T10:09:25.000Z</time>
      </trkpt>
      <trkpt lat="46.44569" lon="6.06643">
        <ele>1417.1999511719</ele>
        <time>2018-05-10T10:09:25.000Z</time>
      </trkpt>
      <trkpt lat="46.44565" lon="6.06645">
        <ele>1418</ele>
        <time>2018-05-10T10:09:28.000Z</time>
      </trkpt>
      <trkpt lat="46.44553" lon="6.06652">
        <ele>1418.1999511719</ele>
        <time>2018-05-10T10:09:38.000Z</time>
      </trkpt>
      <trkpt lat="46.44546" lon="6.06659">
        <ele>1418.4000244141</ele>
        <time>2018-05-10T10:09:45.000Z</time>
      </trkpt>
      <trkpt lat="46.44545" lon="6.0666">
        <ele>1418.4000244141</ele>
        <time>2018-05-10T10:09:46.000Z</time>
      </trkpt>
      <trkpt lat="46.44542" lon="6.06661">
        <ele>1418.4000244141</ele>
        <time>2018-05-10T10:09:51.000Z</time>
      </trkpt>
      <trkpt lat="46.4453" lon="6.06665">
        <ele>1418.5999755859</ele>
        <time>2018-05-10T10:10:01.000Z</time>
      </trkpt>
      <trkpt lat="46.44518" lon="6.06669">
        <ele>1418.5999755859</ele>
        <time>2018-05-10T10:10:11.000Z</time>
      </trkpt>
      <trkpt lat="46.44507" lon="6.06672">
        <ele>1418.5999755859</ele>
        <time>2018-05-10T10:10:20.000Z</time>
      </trkpt>
      <trkpt lat="46.44495" lon="6.06674">
        <ele>1418</ele>
        <time>2018-05-10T10:10:29.000Z</time>
      </trkpt>
      <trkpt lat="46.44493" lon="6.06674">
        <ele>1418</ele>
        <time>2018-05-10T10:10:33.000Z</time>
      </trkpt>
      <trkpt lat="46.44491" lon="6.06674">
        <ele>1418</ele>
        <time>2018-05-10T10:10:57.000Z</time>
      </trkpt>
      <trkpt lat="46.44492" lon="6.06674">
        <ele>1418</ele>
        <time>2018-05-10T10:11:01.000Z</time>
      </trkpt>
      <trkpt lat="46.44491" lon="6.06677">
        <ele>1418</ele>
        <time>2018-05-10T10:11:05.000Z</time>
      </trkpt>
      <trkpt lat="46.44492" lon="6.06677">
        <ele>1418</ele>
        <time>2018-05-10T10:11:16.000Z</time>
      </trkpt>
      <trkpt lat="46.44496" lon="6.06677">
        <ele>1418</ele>
        <time>2018-05-10T10:11:51.000Z</time>
      </trkpt>
      <trkpt lat="46.44497" lon="6.06675">
        <ele>1418.1999511719</ele>
        <time>2018-05-10T10:11:59.000Z</time>
      </trkpt>
      <trkpt lat="46.44495" lon="6.06675">
        <ele>1418</ele>
        <time>2018-05-10T10:12:11.000Z</time>
      </trkpt>
      <trkpt lat="46.44494" lon="6.06676">
        <ele>1418</ele>
        <time>2018-05-10T10:12:17.000Z</time>
      </trkpt>
      <trkpt lat="46.44494" lon="6.06676">
        <ele>1418</ele>
        <time>2018-05-10T10:12:27.000Z</time>
      </trkpt>
      <trkpt lat="46.44491" lon="6.06674">
        <ele>1418</ele>
        <time>2018-05-10T10:12:54.000Z</time>
      </trkpt>
      <trkpt lat="46.44489" lon="6.06678">
        <ele>1417.8000488281</ele>
        <time>2018-05-10T10:13:02.000Z</time>
      </trkpt>
      <trkpt lat="46.44483" lon="6.06679">
        <ele>1417.5999755859</ele>
        <time>2018-05-10T10:13:09.000Z</time>
      </trkpt>
      <trkpt lat="46.44485" lon="6.06678">
        <ele>1417.5999755859</ele>
        <time>2018-05-10T10:13:11.000Z</time>
      </trkpt>
      <trkpt lat="46.44492" lon="6.06674">
        <ele>1418</ele>
        <time>2018-05-10T10:13:21.000Z</time>
      </trkpt>
      <trkpt lat="46.44495" lon="6.06675">
        <ele>1418</ele>
        <time>2018-05-10T10:14:34.000Z</time>
      </trkpt>
      <trkpt lat="46.445" lon="6.06694">
        <ele>1418</ele>
        <time>2018-05-10T10:14:44.000Z</time>
      </trkpt>
      <trkpt lat="46.44505" lon="6.06712">
        <ele>1418</ele>
        <time>2018-05-10T10:14:53.000Z</time>
      </trkpt>
      <trkpt lat="46.44503" lon="6.06729">
        <ele>1417.5999755859</ele>
        <time>2018-05-10T10:15:02.000Z</time>
      </trkpt>
      <trkpt lat="46.44502" lon="6.06743">
        <ele>1416.1999511719</ele>
        <time>2018-05-10T10:15:11.000Z</time>
      </trkpt>
      <trkpt lat="46.44498" lon="6.06755">
        <ele>1416.1999511719</ele>
        <time>2018-05-10T10:15:19.000Z</time>
      </trkpt>
      <trkpt lat="46.44495" lon="6.06768">
        <ele>1416</ele>
        <time>2018-05-10T10:15:28.000Z</time>
      </trkpt>
      <trkpt lat="46.44493" lon="6.0678">
        <ele>1416</ele>
        <time>2018-05-10T10:15:36.000Z</time>
      </trkpt>
      <trkpt lat="46.44491" lon="6.0679">
        <ele>1416</ele>
        <time>2018-05-10T10:15:43.000Z</time>
      </trkpt>
      <trkpt lat="46.44488" lon="6.06794">
        <ele>1416</ele>
        <time>2018-05-10T10:15:50.000Z</time>
      </trkpt>
      <trkpt lat="46.44488" lon="6.06797">
        <ele>1416</ele>
        <time>2018-05-10T10:15:52.000Z</time>
      </trkpt>
      <trkpt lat="46.44481" lon="6.06813">
        <ele>1415.8000488281</ele>
        <time>2018-05-10T10:16:01.000Z</time>
      </trkpt>
      <trkpt lat="46.44475" lon="6.06827">
        <ele>1414.8000488281</ele>
        <time>2018-05-10T10:16:10.000Z</time>
      </trkpt>
      <trkpt lat="46.44471" lon="6.06832">
        <ele>1414.5999755859</ele>
        <time>2018-05-10T10:16:14.000Z</time>
      </trkpt>
      <trkpt lat="46.44467" lon="6.06838">
        <ele>1414</ele>
        <time>2018-05-10T10:16:20.000Z</time>
      </trkpt>
      <trkpt lat="46.44462" lon="6.06844">
        <ele>1413.8000488281</ele>
        <time>2018-05-10T10:16:27.000Z</time>
      </trkpt>
      <trkpt lat="46.4446" lon="6.06845">
        <ele>1413.5999755859</ele>
        <time>2018-05-10T10:16:29.000Z</time>
      </trkpt>
      <trkpt lat="46.44453" lon="6.06852">
        <ele>1413.1999511719</ele>
        <time>2018-05-10T10:16:35.000Z</time>
      </trkpt>
      <trkpt lat="46.44443" lon="6.06858">
        <ele>1412.5999755859</ele>
        <time>2018-05-10T10:16:41.000Z</time>
      </trkpt>
      <trkpt lat="46.44426" lon="6.06867">
        <ele>1411.8000488281</ele>
        <time>2018-05-10T10:16:52.000Z</time>
      </trkpt>
      <trkpt lat="46.44413" lon="6.06874">
        <ele>1411.4000244141</ele>
        <time>2018-05-10T10:16:59.000Z</time>
      </trkpt>
      <trkpt lat="46.44408" lon="6.06874">
        <ele>1411.1999511719</ele>
        <time>2018-05-10T10:17:02.000Z</time>
      </trkpt>
      <trkpt lat="46.44396" lon="6.06874">
        <ele>1411.1999511719</ele>
        <time>2018-05-10T10:17:09.000Z</time>
      </trkpt>
      <trkpt lat="46.44388" lon="6.06862">
        <ele>1412.4000244141</ele>
        <time>2018-05-10T10:17:17.000Z</time>
      </trkpt>
      <trkpt lat="46.44384" lon="6.06842">
        <ele>1413.8000488281</ele>
        <time>2018-05-10T10:17:27.000Z</time>
      </trkpt>
      <trkpt lat="46.44381" lon="6.06834">
        <ele>1414.4000244141</ele>
        <time>2018-05-10T10:17:35.000Z</time>
      </trkpt>
      <trkpt lat="46.44376" lon="6.06818">
        <ele>1415.5999755859</ele>
        <time>2018-05-10T10:17:49.000Z</time>
      </trkpt>
      <trkpt lat="46.44375" lon="6.06816">
        <ele>1415.8000488281</ele>
        <time>2018-05-10T10:17:50.000Z</time>
      </trkpt>
      <trkpt lat="46.44372" lon="6.068">
        <ele>1416.4000244141</ele>
        <time>2018-05-10T10:17:57.000Z</time>
      </trkpt>
      <trkpt lat="46.44368" lon="6.06785">
        <ele>1416.4000244141</ele>
        <time>2018-05-10T10:18:04.000Z</time>
      </trkpt>
      <trkpt lat="46.44366" lon="6.06774">
        <ele>1416.5999755859</ele>
        <time>2018-05-10T10:18:09.000Z</time>
      </trkpt>
      <trkpt lat="46.44365" lon="6.06763">
        <ele>1417</ele>
        <time>2018-05-10T10:18:15.000Z</time>
      </trkpt>
      <trkpt lat="46.44366" lon="6.0676">
        <ele>1417.1999511719</ele>
        <time>2018-05-10T10:18:17.000Z</time>
      </trkpt>
      <trkpt lat="46.44367" lon="6.06752">
        <ele>1417.4000244141</ele>
        <time>2018-05-10T10:18:24.000Z</time>
      </trkpt>
      <trkpt lat="46.44368" lon="6.0675">
        <ele>1417.5999755859</ele>
        <time>2018-05-10T10:18:25.000Z</time>
      </trkpt>
      <trkpt lat="46.4437" lon="6.06742">
        <ele>1417.8000488281</ele>
        <time>2018-05-10T10:18:31.000Z</time>
      </trkpt>
      <trkpt lat="46.44371" lon="6.06739">
        <ele>1417.8000488281</ele>
        <time>2018-05-10T10:18:34.000Z</time>
      </trkpt>
      <trkpt lat="46.44372" lon="6.06733">
        <ele>1418</ele>
        <time>2018-05-10T10:18:38.000Z</time>
      </trkpt>
      <trkpt lat="46.44369" lon="6.06714">
        <ele>1418.1999511719</ele>
        <time>2018-05-10T10:18:46.000Z</time>
      </trkpt>
      <trkpt lat="46.44372" lon="6.06706">
        <ele>1418</ele>
        <time>2018-05-10T10:18:51.000Z</time>
      </trkpt>
      <trkpt lat="46.44376" lon="6.06696">
        <ele>1417.8000488281</ele>
        <time>2018-05-10T10:19:00.000Z</time>
      </trkpt>
      <trkpt lat="46.44375" lon="6.06683">
        <ele>1417.4000244141</ele>
        <time>2018-05-10T10:19:07.000Z</time>
      </trkpt>
      <trkpt lat="46.44376" lon="6.06681">
        <ele>1417.1999511719</ele>
        <time>2018-05-10T10:19:09.000Z</time>
      </trkpt>
      <trkpt lat="46.44376" lon="6.06672">
        <ele>1416.8000488281</ele>
        <time>2018-05-10T10:19:15.000Z</time>
      </trkpt>
      <trkpt lat="46.44377" lon="6.06666">
        <ele>1416.5999755859</ele>
        <time>2018-05-10T10:19:19.000Z</time>
      </trkpt>
      <trkpt lat="46.44377" lon="6.06659">
        <ele>1416.4000244141</ele>
        <time>2018-05-10T10:19:30.000Z</time>
      </trkpt>
      <trkpt lat="46.44372" lon="6.06656">
        <ele>1416.4000244141</ele>
        <time>2018-05-10T10:19:39.000Z</time>
      </trkpt>
      <trkpt lat="46.44371" lon="6.06656">
        <ele>1416.4000244141</ele>
        <time>2018-05-10T10:19:46.000Z</time>
      </trkpt>
      <trkpt lat="46.44373" lon="6.06658">
        <ele>1416.4000244141</ele>
        <time>2018-05-10T10:19:55.000Z</time>
      </trkpt>
      <trkpt lat="46.44374" lon="6.0665">
        <ele>1416.1999511719</ele>
        <time>2018-05-10T10:20:00.000Z</time>
      </trkpt>
      <trkpt lat="46.44374" lon="6.06648">
        <ele>1416.1999511719</ele>
        <time>2018-05-10T10:20:01.000Z</time>
      </trkpt>
      <trkpt lat="46.44376" lon="6.06644">
        <ele>1415.8000488281</ele>
        <time>2018-05-10T10:20:09.000Z</time>
      </trkpt>
      <trkpt lat="46.44375" lon="6.06644">
        <ele>1415.8000488281</ele>
        <time>2018-05-10T10:20:19.000Z</time>
      </trkpt>
      <trkpt lat="46.44387" lon="6.06648">
        <ele>1415.5999755859</ele>
        <time>2018-05-10T10:20:35.000Z</time>
      </trkpt>
      <trkpt lat="46.44388" lon="6.06647">
        <ele>1415.5999755859</ele>
        <time>2018-05-10T10:20:56.000Z</time>
      </trkpt>
      <trkpt lat="46.44384" lon="6.06644">
        <ele>1415.5999755859</ele>
        <time>2018-05-10T10:21:05.000Z</time>
      </trkpt>
      <trkpt lat="46.44388" lon="6.06642">
        <ele>1415.4000244141</ele>
        <time>2018-05-10T10:21:13.000Z</time>
      </trkpt>
      <trkpt lat="46.44388" lon="6.06644">
        <ele>1415.4000244141</ele>
        <time>2018-05-10T10:21:20.000Z</time>
      </trkpt>
      <trkpt lat="46.44389" lon="6.06644">
        <ele>1415.4000244141</ele>
        <time>2018-05-10T10:21:24.000Z</time>
      </trkpt>
      <trkpt lat="46.44395" lon="6.06642">
        <ele>1415.1999511719</ele>
        <time>2018-05-10T10:21:37.000Z</time>
      </trkpt>
      <trkpt lat="46.44396" lon="6.06643">
        <ele>1415.1999511719</ele>
        <time>2018-05-10T10:21:40.000Z</time>
      </trkpt>
      <trkpt lat="46.44396" lon="6.06645">
        <ele>1415.1999511719</ele>
        <time>2018-05-10T10:21:47.000Z</time>
      </trkpt>
      <trkpt lat="46.44398" lon="6.06645">
        <ele>1415.1999511719</ele>
        <time>2018-05-10T10:21:55.000Z</time>
      </trkpt>
      <trkpt lat="46.44396" lon="6.06645">
        <ele>1415.1999511719</ele>
        <time>2018-05-10T10:22:04.000Z</time>
      </trkpt>
      <trkpt lat="46.44396" lon="6.06645">
        <ele>1415.1999511719</ele>
        <time>2018-05-10T10:22:09.000Z</time>
      </trkpt>
      <trkpt lat="46.44395" lon="6.06646">
        <ele>1415.1999511719</ele>
        <time>2018-05-10T10:22:15.000Z</time>
      </trkpt>
      <trkpt lat="46.44386" lon="6.06641">
        <ele>1415.4000244141</ele>
        <time>2018-05-10T10:22:27.000Z</time>
      </trkpt>
      <trkpt lat="46.44383" lon="6.06642">
        <ele>1415.5999755859</ele>
        <time>2018-05-10T10:22:35.000Z</time>
      </trkpt>
      <trkpt lat="46.44382" lon="6.06645">
        <ele>1415.8000488281</ele>
        <time>2018-05-10T10:22:45.000Z</time>
      </trkpt>
      <trkpt lat="46.44379" lon="6.0664">
        <ele>1415.5999755859</ele>
        <time>2018-05-10T10:22:57.000Z</time>
      </trkpt>
      <trkpt lat="46.44379" lon="6.06638">
        <ele>1415.5999755859</ele>
        <time>2018-05-10T10:22:58.000Z</time>
      </trkpt>
      <trkpt lat="46.44375" lon="6.06626">
        <ele>1415.4000244141</ele>
        <time>2018-05-10T10:23:06.000Z</time>
      </trkpt>
      <trkpt lat="46.44374" lon="6.0662">
        <ele>1415.4000244141</ele>
        <time>2018-05-10T10:23:11.000Z</time>
      </trkpt>
      <trkpt lat="46.44376" lon="6.06614">
        <ele>1415.1999511719</ele>
        <time>2018-05-10T10:23:14.000Z</time>
      </trkpt>
      <trkpt lat="46.44376" lon="6.06601">
        <ele>1415</ele>
        <time>2018-05-10T10:23:20.000Z</time>
      </trkpt>
      <trkpt lat="46.44376" lon="6.06596">
        <ele>1415</ele>
        <time>2018-05-10T10:23:22.000Z</time>
      </trkpt>
      <trkpt lat="46.44373" lon="6.06588">
        <ele>1415</ele>
        <time>2018-05-10T10:23:26.000Z</time>
      </trkpt>
      <trkpt lat="46.44368" lon="6.06577">
        <ele>1415</ele>
        <time>2018-05-10T10:23:33.000Z</time>
      </trkpt>
      <trkpt lat="46.44365" lon="6.06562">
        <ele>1414.8000488281</ele>
        <time>2018-05-10T10:23:41.000Z</time>
      </trkpt>
      <trkpt lat="46.44364" lon="6.06554">
        <ele>1414.5999755859</ele>
        <time>2018-05-10T10:23:46.000Z</time>
      </trkpt>
      <trkpt lat="46.44362" lon="6.06547">
        <ele>1414.1999511719</ele>
        <time>2018-05-10T10:23:50.000Z</time>
      </trkpt>
      <trkpt lat="46.44363" lon="6.0653">
        <ele>1413.4000244141</ele>
        <time>2018-05-10T10:23:58.000Z</time>
      </trkpt>
      <trkpt lat="46.44363" lon="6.06529">
        <ele>1413.4000244141</ele>
        <time>2018-05-10T10:23:59.000Z</time>
      </trkpt>
      <trkpt lat="46.44358" lon="6.06516">
        <ele>1412.8000488281</ele>
        <time>2018-05-10T10:24:07.000Z</time>
      </trkpt>
      <trkpt lat="46.44359" lon="6.06509">
        <ele>1412.1999511719</ele>
        <time>2018-05-10T10:24:13.000Z</time>
      </trkpt>
      <trkpt lat="46.4436" lon="6.06499">
        <ele>1411.1999511719</ele>
        <time>2018-05-10T10:24:20.000Z</time>
      </trkpt>
      <trkpt lat="46.44364" lon="6.06484">
        <ele>1409.8000488281</ele>
        <time>2018-05-10T10:24:29.000Z</time>
      </trkpt>
      <trkpt lat="46.44361" lon="6.06474">
        <ele>1409.1999511719</ele>
        <time>2018-05-10T10:24:35.000Z</time>
      </trkpt>
      <trkpt lat="46.4436" lon="6.06461">
        <ele>1408.5999755859</ele>
        <time>2018-05-10T10:24:43.000Z</time>
      </trkpt>
      <trkpt lat="46.44363" lon="6.06452">
        <ele>1408</ele>
        <time>2018-05-10T10:24:49.000Z</time>
      </trkpt>
      <trkpt lat="46.44366" lon="6.06439">
        <ele>1407</ele>
        <time>2018-05-10T10:24:57.000Z</time>
      </trkpt>
      <trkpt lat="46.44369" lon="6.06425">
        <ele>1405.5999755859</ele>
        <time>2018-05-10T10:25:05.000Z</time>
      </trkpt>
      <trkpt lat="46.44366" lon="6.06413">
        <ele>1404.8000488281</ele>
        <time>2018-05-10T10:25:11.000Z</time>
      </trkpt>
      <trkpt lat="46.44366" lon="6.06406">
        <ele>1404.4000244141</ele>
        <time>2018-05-10T10:25:15.000Z</time>
      </trkpt>
      <trkpt lat="46.44363" lon="6.06402">
        <ele>1404.4000244141</ele>
        <time>2018-05-10T10:25:18.000Z</time>
      </trkpt>
      <trkpt lat="46.44356" lon="6.06389">
        <ele>1403.5999755859</ele>
        <time>2018-05-10T10:25:25.000Z</time>
      </trkpt>
      <trkpt lat="46.44353" lon="6.06376">
        <ele>1402.1999511719</ele>
        <time>2018-05-10T10:25:33.000Z</time>
      </trkpt>
      <trkpt lat="46.44353" lon="6.06373">
        <ele>1401.8000488281</ele>
        <time>2018-05-10T10:25:35.000Z</time>
      </trkpt>
      <trkpt lat="46.44349" lon="6.06365">
        <ele>1401.1999511719</ele>
        <time>2018-05-10T10:25:40.000Z</time>
      </trkpt>
      <trkpt lat="46.4434" lon="6.06352">
        <ele>1400.1999511719</ele>
        <time>2018-05-10T10:25:49.000Z</time>
      </trkpt>
      <trkpt lat="46.4434" lon="6.06351">
        <ele>1400.1999511719</ele>
        <time>2018-05-10T10:25:50.000Z</time>
      </trkpt>
      <trkpt lat="46.44336" lon="6.06339">
        <ele>1399</ele>
        <time>2018-05-10T10:25:59.000Z</time>
      </trkpt>
      <trkpt lat="46.44331" lon="6.06334">
        <ele>1398.8000488281</ele>
        <time>2018-05-10T10:26:03.000Z</time>
      </trkpt>
      <trkpt lat="46.44327" lon="6.06333">
        <ele>1399</ele>
        <time>2018-05-10T10:26:07.000Z</time>
      </trkpt>
      <trkpt lat="46.4432" lon="6.06329">
        <ele>1399.1999511719</ele>
        <time>2018-05-10T10:26:15.000Z</time>
      </trkpt>
      <trkpt lat="46.44318" lon="6.06328">
        <ele>1399.1999511719</ele>
        <time>2018-05-10T10:26:17.000Z</time>
      </trkpt>
      <trkpt lat="46.44311" lon="6.06323">
        <ele>1398.8000488281</ele>
        <time>2018-05-10T10:26:24.000Z</time>
      </trkpt>
      <trkpt lat="46.44302" lon="6.06321">
        <ele>1398.1999511719</ele>
        <time>2018-05-10T10:26:31.000Z</time>
      </trkpt>
      <trkpt lat="46.44299" lon="6.0632">
        <ele>1398</ele>
        <time>2018-05-10T10:26:33.000Z</time>
      </trkpt>
      <trkpt lat="46.44292" lon="6.06316">
        <ele>1397.1999511719</ele>
        <time>2018-05-10T10:26:39.000Z</time>
      </trkpt>
      <trkpt lat="46.44282" lon="6.06312">
        <ele>1396.5999755859</ele>
        <time>2018-05-10T10:26:47.000Z</time>
      </trkpt>
      <trkpt lat="46.44273" lon="6.06314">
        <ele>1396.5999755859</ele>
        <time>2018-05-10T10:26:54.000Z</time>
      </trkpt>
      <trkpt lat="46.44261" lon="6.06313">
        <ele>1396.1999511719</ele>
        <time>2018-05-10T10:27:03.000Z</time>
      </trkpt>
      <trkpt lat="46.44253" lon="6.06312">
        <ele>1395.8000488281</ele>
        <time>2018-05-10T10:27:10.000Z</time>
      </trkpt>
      <trkpt lat="46.44244" lon="6.0631">
        <ele>1395.4000244141</ele>
        <time>2018-05-10T10:27:17.000Z</time>
      </trkpt>
      <trkpt lat="46.44231" lon="6.06305">
        <ele>1394.5999755859</ele>
        <time>2018-05-10T10:27:26.000Z</time>
      </trkpt>
      <trkpt lat="46.44217" lon="6.06302">
        <ele>1393</ele>
        <time>2018-05-10T10:27:36.000Z</time>
      </trkpt>
      <trkpt lat="46.44213" lon="6.06301">
        <ele>1392.5999755859</ele>
        <time>2018-05-10T10:27:39.000Z</time>
      </trkpt>
      <trkpt lat="46.44202" lon="6.063">
        <ele>1391.4000244141</ele>
        <time>2018-05-10T10:27:47.000Z</time>
      </trkpt>
      <trkpt lat="46.44193" lon="6.063">
        <ele>1390.4000244141</ele>
        <time>2018-05-10T10:27:54.000Z</time>
      </trkpt>
      <trkpt lat="46.44182" lon="6.06306">
        <ele>1389.4000244141</ele>
        <time>2018-05-10T10:28:03.000Z</time>
      </trkpt>
      <trkpt lat="46.44174" lon="6.06314">
        <ele>1389.4000244141</ele>
        <time>2018-05-10T10:28:11.000Z</time>
      </trkpt>
      <trkpt lat="46.44173" lon="6.06315">
        <ele>1389.5999755859</ele>
        <time>2018-05-10T10:28:12.000Z</time>
      </trkpt>
      <trkpt lat="46.44171" lon="6.06318">
        <ele>1389.5999755859</ele>
        <time>2018-05-10T10:28:15.000Z</time>
      </trkpt>
      <trkpt lat="46.44167" lon="6.06321">
        <ele>1389.5999755859</ele>
        <time>2018-05-10T10:28:19.000Z</time>
      </trkpt>
      <trkpt lat="46.44163" lon="6.06326">
        <ele>1389.5999755859</ele>
        <time>2018-05-10T10:28:24.000Z</time>
      </trkpt>
      <trkpt lat="46.44159" lon="6.06328">
        <ele>1389</ele>
        <time>2018-05-10T10:28:28.000Z</time>
      </trkpt>
      <trkpt lat="46.44154" lon="6.06331">
        <ele>1388.1999511719</ele>
        <time>2018-05-10T10:28:32.000Z</time>
      </trkpt>
      <trkpt lat="46.44149" lon="6.06336">
        <ele>1387.5999755859</ele>
        <time>2018-05-10T10:28:36.000Z</time>
      </trkpt>
      <trkpt lat="46.44144" lon="6.06343">
        <ele>1387</ele>
        <time>2018-05-10T10:28:41.000Z</time>
      </trkpt>
      <trkpt lat="46.44135" lon="6.06352">
        <ele>1386.1999511719</ele>
        <time>2018-05-10T10:28:48.000Z</time>
      </trkpt>
      <trkpt lat="46.44128" lon="6.06356">
        <ele>1385.1999511719</ele>
        <time>2018-05-10T10:28:53.000Z</time>
      </trkpt>
      <trkpt lat="46.44119" lon="6.06356">
        <ele>1383.8000488281</ele>
        <time>2018-05-10T10:29:00.000Z</time>
      </trkpt>
      <trkpt lat="46.44115" lon="6.06354">
        <ele>1383</ele>
        <time>2018-05-10T10:29:03.000Z</time>
      </trkpt>
      <trkpt lat="46.44108" lon="6.06344">
        <ele>1381.1999511719</ele>
        <time>2018-05-10T10:29:11.000Z</time>
      </trkpt>
      <trkpt lat="46.44103" lon="6.06331">
        <ele>1379.5999755859</ele>
        <time>2018-05-10T10:29:18.000Z</time>
      </trkpt>
      <trkpt lat="46.44096" lon="6.06318">
        <ele>1377.5999755859</ele>
        <time>2018-05-10T10:29:27.000Z</time>
      </trkpt>
      <trkpt lat="46.4409" lon="6.06309">
        <ele>1376</ele>
        <time>2018-05-10T10:29:34.000Z</time>
      </trkpt>
      <trkpt lat="46.44086" lon="6.063">
        <ele>1375.1999511719</ele>
        <time>2018-05-10T10:29:41.000Z</time>
      </trkpt>
      <trkpt lat="46.44086" lon="6.06301">
        <ele>1375.1999511719</ele>
        <time>2018-05-10T10:29:42.000Z</time>
      </trkpt>
      <trkpt lat="46.44086" lon="6.06297">
        <ele>1375</ele>
        <time>2018-05-10T10:29:47.000Z</time>
      </trkpt>
      <trkpt lat="46.44084" lon="6.06291">
        <ele>1374.5999755859</ele>
        <time>2018-05-10T10:29:51.000Z</time>
      </trkpt>
      <trkpt lat="46.44081" lon="6.06272">
        <ele>1373.8000488281</ele>
        <time>2018-05-10T10:30:00.000Z</time>
      </trkpt>
      <trkpt lat="46.44078" lon="6.06258">
        <ele>1372.8000488281</ele>
        <time>2018-05-10T10:30:07.000Z</time>
      </trkpt>
      <trkpt lat="46.44075" lon="6.06244">
        <ele>1372</ele>
        <time>2018-05-10T10:30:15.000Z</time>
      </trkpt>
      <trkpt lat="46.44072" lon="6.06233">
        <ele>1371.1999511719</ele>
        <time>2018-05-10T10:30:21.000Z</time>
      </trkpt>
      <trkpt lat="46.44067" lon="6.06219">
        <ele>1370</ele>
        <time>2018-05-10T10:30:29.000Z</time>
      </trkpt>
      <trkpt lat="46.44064" lon="6.06206">
        <ele>1369.8000488281</ele>
        <time>2018-05-10T10:30:36.000Z</time>
      </trkpt>
      <trkpt lat="46.44066" lon="6.06193">
        <ele>1369.5999755859</ele>
        <time>2018-05-10T10:30:43.000Z</time>
      </trkpt>
      <trkpt lat="46.44066" lon="6.06187">
        <ele>1369.5999755859</ele>
        <time>2018-05-10T10:30:46.000Z</time>
      </trkpt>
      <trkpt lat="46.44066" lon="6.06177">
        <ele>1369.4000244141</ele>
        <time>2018-05-10T10:30:52.000Z</time>
      </trkpt>
      <trkpt lat="46.44065" lon="6.06172">
        <ele>1369.4000244141</ele>
        <time>2018-05-10T10:30:55.000Z</time>
      </trkpt>
      <trkpt lat="46.44064" lon="6.06169">
        <ele>1369.4000244141</ele>
        <time>2018-05-10T10:30:57.000Z</time>
      </trkpt>
      <trkpt lat="46.44063" lon="6.0616">
        <ele>1369.4000244141</ele>
        <time>2018-05-10T10:31:02.000Z</time>
      </trkpt>
      <trkpt lat="46.44061" lon="6.06151">
        <ele>1369.4000244141</ele>
        <time>2018-05-10T10:31:07.000Z</time>
      </trkpt>
      <trkpt lat="46.4406" lon="6.06144">
        <ele>1369.4000244141</ele>
        <time>2018-05-10T10:31:11.000Z</time>
      </trkpt>
      <trkpt lat="46.44058" lon="6.06125">
        <ele>1369.1999511719</ele>
        <time>2018-05-10T10:31:21.000Z</time>
      </trkpt>
      <trkpt lat="46.44057" lon="6.06112">
        <ele>1369.1999511719</ele>
        <time>2018-05-10T10:31:28.000Z</time>
      </trkpt>
      <trkpt lat="46.44053" lon="6.06097">
        <ele>1369.1999511719</ele>
        <time>2018-05-10T10:31:37.000Z</time>
      </trkpt>
      <trkpt lat="46.44054" lon="6.06097">
        <ele>1369.1999511719</ele>
        <time>2018-05-10T10:31:38.000Z</time>
      </trkpt>
      <trkpt lat="46.44052" lon="6.06097">
        <ele>1369.4000244141</ele>
        <time>2018-05-10T10:31:43.000Z</time>
      </trkpt>
      <trkpt lat="46.44049" lon="6.06092">
        <ele>1369.4000244141</ele>
        <time>2018-05-10T10:32:01.000Z</time>
      </trkpt>
      <trkpt lat="46.44049" lon="6.06092">
        <ele>1369.4000244141</ele>
        <time>2018-05-10T10:32:02.000Z</time>
      </trkpt>
      <trkpt lat="46.44051" lon="6.06093">
        <ele>1369.4000244141</ele>
        <time>2018-05-10T10:32:05.000Z</time>
      </trkpt>
      <trkpt lat="46.44052" lon="6.06093">
        <ele>1369.4000244141</ele>
        <time>2018-05-10T10:32:19.000Z</time>
      </trkpt>
      <trkpt lat="46.44049" lon="6.061">
        <ele>1369.4000244141</ele>
        <time>2018-05-10T10:32:43.000Z</time>
      </trkpt>
      <trkpt lat="46.44051" lon="6.06102">
        <ele>1369.4000244141</ele>
        <time>2018-05-10T10:33:39.000Z</time>
      </trkpt>
      <trkpt lat="46.44052" lon="6.061">
        <ele>1369.4000244141</ele>
        <time>2018-05-10T10:33:46.000Z</time>
      </trkpt>
      <trkpt lat="46.44049" lon="6.06097">
        <ele>1369.4000244141</ele>
        <time>2018-05-10T10:34:01.000Z</time>
      </trkpt>
      <trkpt lat="46.44051" lon="6.06094">
        <ele>1369.4000244141</ele>
        <time>2018-05-10T10:34:11.000Z</time>
      </trkpt>
      <trkpt lat="46.4405" lon="6.06089">
        <ele>1369.4000244141</ele>
        <time>2018-05-10T10:34:27.000Z</time>
      </trkpt>
      <trkpt lat="46.44049" lon="6.06086">
        <ele>1369.4000244141</ele>
        <time>2018-05-10T10:34:34.000Z</time>
      </trkpt>
      <trkpt lat="46.44052" lon="6.06087">
        <ele>1369.4000244141</ele>
        <time>2018-05-10T10:34:50.000Z</time>
      </trkpt>
      <trkpt lat="46.44052" lon="6.06088">
        <ele>1369.4000244141</ele>
        <time>2018-05-10T10:34:59.000Z</time>
      </trkpt>
      <trkpt lat="46.4405" lon="6.06082">
        <ele>1369.4000244141</ele>
        <time>2018-05-10T10:35:15.000Z</time>
      </trkpt>
      <trkpt lat="46.44044" lon="6.0608">
        <ele>1369.5999755859</ele>
        <time>2018-05-10T10:35:21.000Z</time>
      </trkpt>
      <trkpt lat="46.44041" lon="6.06082">
        <ele>1369.5999755859</ele>
        <time>2018-05-10T10:35:25.000Z</time>
      </trkpt>
      <trkpt lat="46.44032" lon="6.06082">
        <ele>1369.8000488281</ele>
        <time>2018-05-10T10:35:32.000Z</time>
      </trkpt>
      <trkpt lat="46.44032" lon="6.06082">
        <ele>1369.8000488281</ele>
        <time>2018-05-10T10:35:35.000Z</time>
      </trkpt>
      <trkpt lat="46.4403" lon="6.0608">
        <ele>1369.8000488281</ele>
        <time>2018-05-10T10:35:42.000Z</time>
      </trkpt>
      <trkpt lat="46.44028" lon="6.06078">
        <ele>1370</ele>
        <time>2018-05-10T10:35:47.000Z</time>
      </trkpt>
      <trkpt lat="46.44027" lon="6.06076">
        <ele>1370</ele>
        <time>2018-05-10T10:35:51.000Z</time>
      </trkpt>
      <trkpt lat="46.44025" lon="6.06075">
        <ele>1370</ele>
        <time>2018-05-10T10:35:56.000Z</time>
      </trkpt>
      <trkpt lat="46.44024" lon="6.06075">
        <ele>1370</ele>
        <time>2018-05-10T10:36:01.000Z</time>
      </trkpt>
      <trkpt lat="46.44025" lon="6.06072">
        <ele>1370</ele>
        <time>2018-05-10T10:36:13.000Z</time>
      </trkpt>
      <trkpt lat="46.44026" lon="6.06071">
        <ele>1370</ele>
        <time>2018-05-10T10:36:22.000Z</time>
      </trkpt>
      <trkpt lat="46.4401" lon="6.06071">
        <ele>1370.4000244141</ele>
        <time>2018-05-10T10:36:57.000Z</time>
      </trkpt>
      <trkpt lat="46.44012" lon="6.06068">
        <ele>1370.1999511719</ele>
        <time>2018-05-10T10:37:05.000Z</time>
      </trkpt>
      <trkpt lat="46.44013" lon="6.06069">
        <ele>1370.1999511719</ele>
        <time>2018-05-10T10:37:13.000Z</time>
      </trkpt>
      <trkpt lat="46.44012" lon="6.06072">
        <ele>1370.1999511719</ele>
        <time>2018-05-10T10:37:18.000Z</time>
      </trkpt>
      <trkpt lat="46.44015" lon="6.06075">
        <ele>1370.1999511719</ele>
        <time>2018-05-10T10:37:31.000Z</time>
      </trkpt>
      <trkpt lat="46.44017" lon="6.06077">
        <ele>1370.1999511719</ele>
        <time>2018-05-10T10:37:37.000Z</time>
      </trkpt>
      <trkpt lat="46.4402" lon="6.06078">
        <ele>1370.1999511719</ele>
        <time>2018-05-10T10:37:45.000Z</time>
      </trkpt>
      <trkpt lat="46.44021" lon="6.06078">
        <ele>1370</ele>
        <time>2018-05-10T10:37:50.000Z</time>
      </trkpt>
      <trkpt lat="46.44013" lon="6.06073">
        <ele>1370.1999511719</ele>
        <time>2018-05-10T10:37:57.000Z</time>
      </trkpt>
      <trkpt lat="46.44006" lon="6.06061">
        <ele>1370.4000244141</ele>
        <time>2018-05-10T10:38:04.000Z</time>
      </trkpt>
      <trkpt lat="46.44001" lon="6.06044">
        <ele>1370</ele>
        <time>2018-05-10T10:38:12.000Z</time>
      </trkpt>
      <trkpt lat="46.43995" lon="6.06033">
        <ele>1369.8000488281</ele>
        <time>2018-05-10T10:38:19.000Z</time>
      </trkpt>
      <trkpt lat="46.43992" lon="6.06024">
        <ele>1369.5999755859</ele>
        <time>2018-05-10T10:38:25.000Z</time>
      </trkpt>
      <trkpt lat="46.43992" lon="6.06023">
        <ele>1369.4000244141</ele>
        <time>2018-05-10T10:38:28.000Z</time>
      </trkpt>
      <trkpt lat="46.43992" lon="6.06018">
        <ele>1369.4000244141</ele>
        <time>2018-05-10T10:38:35.000Z</time>
      </trkpt>
      <trkpt lat="46.43991" lon="6.06018">
        <ele>1369.4000244141</ele>
        <time>2018-05-10T10:38:55.000Z</time>
      </trkpt>
      <trkpt lat="46.43987" lon="6.06018">
        <ele>1369.4000244141</ele>
        <time>2018-05-10T10:39:09.000Z</time>
      </trkpt>
      <trkpt lat="46.43982" lon="6.06019">
        <ele>1369.5999755859</ele>
        <time>2018-05-10T10:39:16.000Z</time>
      </trkpt>
      <trkpt lat="46.43978" lon="6.06021">
        <ele>1370.4000244141</ele>
        <time>2018-05-10T10:39:22.000Z</time>
      </trkpt>
      <trkpt lat="46.43976" lon="6.06024">
        <ele>1370.8000488281</ele>
        <time>2018-05-10T10:39:25.000Z</time>
      </trkpt>
      <trkpt lat="46.43968" lon="6.06029">
        <ele>1372.4000244141</ele>
        <time>2018-05-10T10:39:33.000Z</time>
      </trkpt>
      <trkpt lat="46.43966" lon="6.06033">
        <ele>1372.8000488281</ele>
        <time>2018-05-10T10:39:37.000Z</time>
      </trkpt>
      <trkpt lat="46.43961" lon="6.06036">
        <ele>1373.8000488281</ele>
        <time>2018-05-10T10:39:45.000Z</time>
      </trkpt>
      <trkpt lat="46.43957" lon="6.06039">
        <ele>1374.5999755859</ele>
        <time>2018-05-10T10:39:52.000Z</time>
      </trkpt>
      <trkpt lat="46.43957" lon="6.06044">
        <ele>1374.8000488281</ele>
        <time>2018-05-10T10:39:59.000Z</time>
      </trkpt>
      <trkpt lat="46.43954" lon="6.06045">
        <ele>1375.5999755859</ele>
        <time>2018-05-10T10:40:03.000Z</time>
      </trkpt>
      <trkpt lat="46.43948" lon="6.0605">
        <ele>1377</ele>
        <time>2018-05-10T10:40:08.000Z</time>
      </trkpt>
      <trkpt lat="46.4394" lon="6.06054">
        <ele>1378.8000488281</ele>
        <time>2018-05-10T10:40:15.000Z</time>
      </trkpt>
      <trkpt lat="46.43939" lon="6.06053">
        <ele>1379</ele>
        <time>2018-05-10T10:40:16.000Z</time>
      </trkpt>
      <trkpt lat="46.43936" lon="6.06052">
        <ele>1379.4000244141</ele>
        <time>2018-05-10T10:40:20.000Z</time>
      </trkpt>
      <trkpt lat="46.43933" lon="6.06054">
        <ele>1380.1999511719</ele>
        <time>2018-05-10T10:40:25.000Z</time>
      </trkpt>
      <trkpt lat="46.43926" lon="6.06062">
        <ele>1381.8000488281</ele>
        <time>2018-05-10T10:40:32.000Z</time>
      </trkpt>
      <trkpt lat="46.43921" lon="6.06065">
        <ele>1383</ele>
        <time>2018-05-10T10:40:37.000Z</time>
      </trkpt>
      <trkpt lat="46.43913" lon="6.06071">
        <ele>1385</ele>
        <time>2018-05-10T10:40:43.000Z</time>
      </trkpt>
      <trkpt lat="46.43907" lon="6.06075">
        <ele>1386.4000244141</ele>
        <time>2018-05-10T10:40:50.000Z</time>
      </trkpt>
      <trkpt lat="46.43904" lon="6.06077">
        <ele>1387.1999511719</ele>
        <time>2018-05-10T10:40:53.000Z</time>
      </trkpt>
      <trkpt lat="46.43899" lon="6.06075">
        <ele>1388</ele>
        <time>2018-05-10T10:41:00.000Z</time>
      </trkpt>
      <trkpt lat="46.43895" lon="6.06075">
        <ele>1388.4000244141</ele>
        <time>2018-05-10T10:41:05.000Z</time>
      </trkpt>
      <trkpt lat="46.43892" lon="6.06078">
        <ele>1388.8000488281</ele>
        <time>2018-05-10T10:41:11.000Z</time>
      </trkpt>
      <trkpt lat="46.43884" lon="6.06086">
        <ele>1390</ele>
        <time>2018-05-10T10:41:18.000Z</time>
      </trkpt>
      <trkpt lat="46.43882" lon="6.06089">
        <ele>1390.4000244141</ele>
        <time>2018-05-10T10:41:20.000Z</time>
      </trkpt>
      <trkpt lat="46.43878" lon="6.06093">
        <ele>1391</ele>
        <time>2018-05-10T10:41:24.000Z</time>
      </trkpt>
      <trkpt lat="46.43876" lon="6.061">
        <ele>1391.5999755859</ele>
        <time>2018-05-10T10:41:28.000Z</time>
      </trkpt>
      <trkpt lat="46.43872" lon="6.06109">
        <ele>1392.4000244141</ele>
        <time>2018-05-10T10:41:35.000Z</time>
      </trkpt>
      <trkpt lat="46.43868" lon="6.06116">
        <ele>1393.4000244141</ele>
        <time>2018-05-10T10:41:42.000Z</time>
      </trkpt>
      <trkpt lat="46.43867" lon="6.06116">
        <ele>1393.4000244141</ele>
        <time>2018-05-10T10:41:43.000Z</time>
      </trkpt>
      <trkpt lat="46.43862" lon="6.06124">
        <ele>1394.5999755859</ele>
        <time>2018-05-10T10:41:50.000Z</time>
      </trkpt>
      <trkpt lat="46.43861" lon="6.0613">
        <ele>1395.1999511719</ele>
        <time>2018-05-10T10:41:55.000Z</time>
      </trkpt>
      <trkpt lat="46.43859" lon="6.06135">
        <ele>1395.8000488281</ele>
        <time>2018-05-10T10:42:01.000Z</time>
      </trkpt>
      <trkpt lat="46.43858" lon="6.06141">
        <ele>1396.1999511719</ele>
        <time>2018-05-10T10:42:05.000Z</time>
      </trkpt>
      <trkpt lat="46.43857" lon="6.06148">
        <ele>1396.8000488281</ele>
        <time>2018-05-10T10:42:09.000Z</time>
      </trkpt>
      <trkpt lat="46.43853" lon="6.06154">
        <ele>1397.4000244141</ele>
        <time>2018-05-10T10:42:13.000Z</time>
      </trkpt>
      <trkpt lat="46.43847" lon="6.06164">
        <ele>1398.4000244141</ele>
        <time>2018-05-10T10:42:21.000Z</time>
      </trkpt>
      <trkpt lat="46.43843" lon="6.06168">
        <ele>1399</ele>
        <time>2018-05-10T10:42:25.000Z</time>
      </trkpt>
      <trkpt lat="46.43837" lon="6.06165">
        <ele>1399.4000244141</ele>
        <time>2018-05-10T10:42:38.000Z</time>
      </trkpt>
      <trkpt lat="46.43836" lon="6.06166">
        <ele>1399.4000244141</ele>
        <time>2018-05-10T10:42:41.000Z</time>
      </trkpt>
      <trkpt lat="46.43831" lon="6.06166">
        <ele>1400.1999511719</ele>
        <time>2018-05-10T10:42:48.000Z</time>
      </trkpt>
      <trkpt lat="46.43825" lon="6.06166">
        <ele>1400.8000488281</ele>
        <time>2018-05-10T10:42:52.000Z</time>
      </trkpt>
      <trkpt lat="46.43821" lon="6.06165">
        <ele>1401.1999511719</ele>
        <time>2018-05-10T10:42:56.000Z</time>
      </trkpt>
      <trkpt lat="46.43816" lon="6.06163">
        <ele>1401.8000488281</ele>
        <time>2018-05-10T10:43:01.000Z</time>
      </trkpt>
      <trkpt lat="46.43815" lon="6.06162">
        <ele>1401.5999755859</ele>
        <time>2018-05-10T10:43:02.000Z</time>
      </trkpt>
      <trkpt lat="46.43812" lon="6.06157">
        <ele>1401</ele>
        <time>2018-05-10T10:43:08.000Z</time>
      </trkpt>
      <trkpt lat="46.43812" lon="6.06153">
        <ele>1400.5999755859</ele>
        <time>2018-05-10T10:43:24.000Z</time>
      </trkpt>
      <trkpt lat="46.43812" lon="6.06153">
        <ele>1400.5999755859</ele>
        <time>2018-05-10T10:43:25.000Z</time>
      </trkpt>
      <trkpt lat="46.43813" lon="6.06153">
        <ele>1400.8000488281</ele>
        <time>2018-05-10T10:43:30.000Z</time>
      </trkpt>
      <trkpt lat="46.43807" lon="6.06161">
        <ele>1401</ele>
        <time>2018-05-10T10:44:01.000Z</time>
      </trkpt>
      <trkpt lat="46.43806" lon="6.06155">
        <ele>1400.4000244141</ele>
        <time>2018-05-10T10:44:18.000Z</time>
      </trkpt>
      <trkpt lat="46.43805" lon="6.0615">
        <ele>1400</ele>
        <time>2018-05-10T10:44:22.000Z</time>
      </trkpt>
      <trkpt lat="46.438" lon="6.0614">
        <ele>1398.8000488281</ele>
        <time>2018-05-10T10:44:29.000Z</time>
      </trkpt>
      <trkpt lat="46.43799" lon="6.06136">
        <ele>1398.5999755859</ele>
        <time>2018-05-10T10:44:31.000Z</time>
      </trkpt>
      <trkpt lat="46.43797" lon="6.06133">
        <ele>1398.1999511719</ele>
        <time>2018-05-10T10:44:33.000Z</time>
      </trkpt>
      <trkpt lat="46.43792" lon="6.06128">
        <ele>1397.5999755859</ele>
        <time>2018-05-10T10:44:39.000Z</time>
      </trkpt>
      <trkpt lat="46.43789" lon="6.06127">
        <ele>1397.4000244141</ele>
        <time>2018-05-10T10:44:44.000Z</time>
      </trkpt>
      <trkpt lat="46.43788" lon="6.06127">
        <ele>1397.1999511719</ele>
        <time>2018-05-10T10:44:47.000Z</time>
      </trkpt>
      <trkpt lat="46.43783" lon="6.06125">
        <ele>1396.8000488281</ele>
        <time>2018-05-10T10:44:50.000Z</time>
      </trkpt>
      <trkpt lat="46.43775" lon="6.06127">
        <ele>1396.4000244141</ele>
        <time>2018-05-10T10:44:57.000Z</time>
      </trkpt>
      <trkpt lat="46.4377" lon="6.06132">
        <ele>1396.4000244141</ele>
        <time>2018-05-10T10:45:04.000Z</time>
      </trkpt>
      <trkpt lat="46.43766" lon="6.06137">
        <ele>1396.5999755859</ele>
        <time>2018-05-10T10:45:08.000Z</time>
      </trkpt>
      <trkpt lat="46.4376" lon="6.06143">
        <ele>1396.8000488281</ele>
        <time>2018-05-10T10:45:15.000Z</time>
      </trkpt>
      <trkpt lat="46.43759" lon="6.06148">
        <ele>1397</ele>
        <time>2018-05-10T10:45:21.000Z</time>
      </trkpt>
      <trkpt lat="46.43758" lon="6.06149">
        <ele>1397.1999511719</ele>
        <time>2018-05-10T10:45:24.000Z</time>
      </trkpt>
      <trkpt lat="46.43758" lon="6.0615">
        <ele>1397.1999511719</ele>
        <time>2018-05-10T10:45:25.000Z</time>
      </trkpt>
      <trkpt lat="46.4375" lon="6.06153">
        <ele>1397</ele>
        <time>2018-05-10T10:45:31.000Z</time>
      </trkpt>
      <trkpt lat="46.43746" lon="6.06154">
        <ele>1396.8000488281</ele>
        <time>2018-05-10T10:45:35.000Z</time>
      </trkpt>
      <trkpt lat="46.43742" lon="6.06165">
        <ele>1397.5999755859</ele>
        <time>2018-05-10T10:45:44.000Z</time>
      </trkpt>
      <trkpt lat="46.43742" lon="6.06168">
        <ele>1397.8000488281</ele>
        <time>2018-05-10T10:45:48.000Z</time>
      </trkpt>
      <trkpt lat="46.43742" lon="6.06171">
        <ele>1398.1999511719</ele>
        <time>2018-05-10T10:45:54.000Z</time>
      </trkpt>
      <trkpt lat="46.43737" lon="6.06176">
        <ele>1398.4000244141</ele>
        <time>2018-05-10T10:46:00.000Z</time>
      </trkpt>
      <trkpt lat="46.43733" lon="6.06182">
        <ele>1398.8000488281</ele>
        <time>2018-05-10T10:46:07.000Z</time>
      </trkpt>
      <trkpt lat="46.43724" lon="6.06183">
        <ele>1398</ele>
        <time>2018-05-10T10:46:13.000Z</time>
      </trkpt>
      <trkpt lat="46.43723" lon="6.06183">
        <ele>1397.8000488281</ele>
        <time>2018-05-10T10:46:14.000Z</time>
      </trkpt>
      <trkpt lat="46.43717" lon="6.06184">
        <ele>1397.4000244141</ele>
        <time>2018-05-10T10:46:19.000Z</time>
      </trkpt>
      <trkpt lat="46.43711" lon="6.06185">
        <ele>1396.8000488281</ele>
        <time>2018-05-10T10:46:24.000Z</time>
      </trkpt>
      <trkpt lat="46.4371" lon="6.06187">
        <ele>1396.8000488281</ele>
        <time>2018-05-10T10:46:30.000Z</time>
      </trkpt>
      <trkpt lat="46.43706" lon="6.06192">
        <ele>1397</ele>
        <time>2018-05-10T10:46:35.000Z</time>
      </trkpt>
      <trkpt lat="46.43703" lon="6.06197">
        <ele>1397.1999511719</ele>
        <time>2018-05-10T10:46:41.000Z</time>
      </trkpt>
      <trkpt lat="46.43702" lon="6.06198">
        <ele>1397</ele>
        <time>2018-05-10T10:46:43.000Z</time>
      </trkpt>
      <trkpt lat="46.43699" lon="6.06201">
        <ele>1397.4000244141</ele>
        <time>2018-05-10T10:46:49.000Z</time>
      </trkpt>
      <trkpt lat="46.43695" lon="6.06202">
        <ele>1397</ele>
        <time>2018-05-10T10:46:54.000Z</time>
      </trkpt>
      <trkpt lat="46.43692" lon="6.062">
        <ele>1396.5999755859</ele>
        <time>2018-05-10T10:46:56.000Z</time>
      </trkpt>
      <trkpt lat="46.43685" lon="6.06199">
        <ele>1396.1999511719</ele>
        <time>2018-05-10T10:47:01.000Z</time>
      </trkpt>
      <trkpt lat="46.43677" lon="6.06196">
        <ele>1395</ele>
        <time>2018-05-10T10:47:07.000Z</time>
      </trkpt>
      <trkpt lat="46.43676" lon="6.06195">
        <ele>1394.8000488281</ele>
        <time>2018-05-10T10:47:09.000Z</time>
      </trkpt>
      <trkpt lat="46.43671" lon="6.06195">
        <ele>1394.4000244141</ele>
        <time>2018-05-10T10:47:13.000Z</time>
      </trkpt>
      <trkpt lat="46.43666" lon="6.06192">
        <ele>1393.5999755859</ele>
        <time>2018-05-10T10:47:17.000Z</time>
      </trkpt>
      <trkpt lat="46.43662" lon="6.06191">
        <ele>1393.1999511719</ele>
        <time>2018-05-10T10:47:20.000Z</time>
      </trkpt>
      <trkpt lat="46.43655" lon="6.06193">
        <ele>1393</ele>
        <time>2018-05-10T10:47:27.000Z</time>
      </trkpt>
      <trkpt lat="46.43656" lon="6.06197">
        <ele>1393.5999755859</ele>
        <time>2018-05-10T10:47:34.000Z</time>
      </trkpt>
      <trkpt lat="46.43657" lon="6.06197">
        <ele>1393.8000488281</ele>
        <time>2018-05-10T10:47:43.000Z</time>
      </trkpt>
      <trkpt lat="46.43653" lon="6.06192">
        <ele>1392.8000488281</ele>
        <time>2018-05-10T10:47:53.000Z</time>
      </trkpt>
      <trkpt lat="46.4365" lon="6.06188">
        <ele>1392</ele>
        <time>2018-05-10T10:48:02.000Z</time>
      </trkpt>
      <trkpt lat="46.43648" lon="6.06191">
        <ele>1392.4000244141</ele>
        <time>2018-05-10T10:48:29.000Z</time>
      </trkpt>
      <trkpt lat="46.43647" lon="6.06196">
        <ele>1393</ele>
        <time>2018-05-10T10:48:32.000Z</time>
      </trkpt>
      <trkpt lat="46.43646" lon="6.06204">
        <ele>1394.1999511719</ele>
        <time>2018-05-10T10:48:38.000Z</time>
      </trkpt>
      <trkpt lat="46.43645" lon="6.06206">
        <ele>1394.4000244141</ele>
        <time>2018-05-10T10:48:41.000Z</time>
      </trkpt>
      <trkpt lat="46.43643" lon="6.06212">
        <ele>1395.1999511719</ele>
        <time>2018-05-10T10:48:49.000Z</time>
      </trkpt>
      <trkpt lat="46.43643" lon="6.06213">
        <ele>1395.4000244141</ele>
        <time>2018-05-10T10:48:50.000Z</time>
      </trkpt>
      <trkpt lat="46.43638" lon="6.0622">
        <ele>1396</ele>
        <time>2018-05-10T10:48:56.000Z</time>
      </trkpt>
      <trkpt lat="46.43629" lon="6.06225">
        <ele>1396</ele>
        <time>2018-05-10T10:49:02.000Z</time>
      </trkpt>
      <trkpt lat="46.43628" lon="6.06225">
        <ele>1396</ele>
        <time>2018-05-10T10:49:03.000Z</time>
      </trkpt>
      <trkpt lat="46.4362" lon="6.06232">
        <ele>1396</ele>
        <time>2018-05-10T10:49:12.000Z</time>
      </trkpt>
      <trkpt lat="46.43619" lon="6.06238">
        <ele>1396.4000244141</ele>
        <time>2018-05-10T10:49:16.000Z</time>
      </trkpt>
      <trkpt lat="46.43616" lon="6.06244">
        <ele>1396.5999755859</ele>
        <time>2018-05-10T10:49:22.000Z</time>
      </trkpt>
      <trkpt lat="46.43613" lon="6.06245">
        <ele>1396.5999755859</ele>
        <time>2018-05-10T10:49:25.000Z</time>
      </trkpt>
      <trkpt lat="46.43604" lon="6.06251">
        <ele>1396.5999755859</ele>
        <time>2018-05-10T10:49:30.000Z</time>
      </trkpt>
      <trkpt lat="46.43601" lon="6.06251">
        <ele>1396.5999755859</ele>
        <time>2018-05-10T10:49:35.000Z</time>
      </trkpt>
      <trkpt lat="46.43601" lon="6.06251">
        <ele>1396.4000244141</ele>
        <time>2018-05-10T10:49:38.000Z</time>
      </trkpt>
      <trkpt lat="46.436" lon="6.06248">
        <ele>1396.1999511719</ele>
        <time>2018-05-10T10:49:45.000Z</time>
      </trkpt>
      <trkpt lat="46.43599" lon="6.06246">
        <ele>1396</ele>
        <time>2018-05-10T10:49:52.000Z</time>
      </trkpt>
      <trkpt lat="46.43601" lon="6.06248">
        <ele>1396.1999511719</ele>
        <time>2018-05-10T10:49:59.000Z</time>
      </trkpt>
      <trkpt lat="46.43598" lon="6.06257">
        <ele>1396.8000488281</ele>
        <time>2018-05-10T10:50:07.000Z</time>
      </trkpt>
      <trkpt lat="46.43598" lon="6.06259">
        <ele>1396.8000488281</ele>
        <time>2018-05-10T10:50:09.000Z</time>
      </trkpt>
      <trkpt lat="46.43597" lon="6.0626">
        <ele>1396.8000488281</ele>
        <time>2018-05-10T10:50:12.000Z</time>
      </trkpt>
      <trkpt lat="46.43597" lon="6.06261">
        <ele>1396.8000488281</ele>
        <time>2018-05-10T10:50:15.000Z</time>
      </trkpt>
      <trkpt lat="46.43595" lon="6.06257">
        <ele>1396.5999755859</ele>
        <time>2018-05-10T10:50:29.000Z</time>
      </trkpt>
      <trkpt lat="46.43594" lon="6.06257">
        <ele>1396.4000244141</ele>
        <time>2018-05-10T10:50:32.000Z</time>
      </trkpt>
      <trkpt lat="46.43596" lon="6.06266">
        <ele>1397</ele>
        <time>2018-05-10T10:51:32.000Z</time>
      </trkpt>
      <trkpt lat="46.43597" lon="6.06265">
        <ele>1397</ele>
        <time>2018-05-10T10:51:35.000Z</time>
      </trkpt>
      <trkpt lat="46.43597" lon="6.06264">
        <ele>1397</ele>
        <time>2018-05-10T10:51:52.000Z</time>
      </trkpt>
      <trkpt lat="46.43597" lon="6.06266">
        <ele>1397</ele>
        <time>2018-05-10T10:51:56.000Z</time>
      </trkpt>
      <trkpt lat="46.43593" lon="6.06272">
        <ele>1397</ele>
        <time>2018-05-10T10:52:00.000Z</time>
      </trkpt>
      <trkpt lat="46.43591" lon="6.06279">
        <ele>1397</ele>
        <time>2018-05-10T10:52:05.000Z</time>
      </trkpt>
      <trkpt lat="46.43593" lon="6.06265">
        <ele>1396.5999755859</ele>
        <time>2018-05-10T10:52:12.000Z</time>
      </trkpt>
      <trkpt lat="46.43593" lon="6.06261">
        <ele>1396.5999755859</ele>
        <time>2018-05-10T10:52:15.000Z</time>
      </trkpt>
      <trkpt lat="46.43591" lon="6.0627">
        <ele>1396.8000488281</ele>
        <time>2018-05-10T10:52:20.000Z</time>
      </trkpt>
      <trkpt lat="46.43585" lon="6.06284">
        <ele>1396.8000488281</ele>
        <time>2018-05-10T10:52:28.000Z</time>
      </trkpt>
      <trkpt lat="46.43585" lon="6.06284">
        <ele>1396.8000488281</ele>
        <time>2018-05-10T10:52:28.000Z</time>
      </trkpt>
      <trkpt lat="46.43577" lon="6.06298">
        <ele>1396.5999755859</ele>
        <time>2018-05-10T10:52:37.000Z</time>
      </trkpt>
      <trkpt lat="46.43578" lon="6.06311">
        <ele>1397.1999511719</ele>
        <time>2018-05-10T10:52:45.000Z</time>
      </trkpt>
      <trkpt lat="46.43579" lon="6.06317">
        <ele>1397.5999755859</ele>
        <time>2018-05-10T10:52:50.000Z</time>
      </trkpt>
      <trkpt lat="46.43579" lon="6.06319">
        <ele>1397.5999755859</ele>
        <time>2018-05-10T10:52:53.000Z</time>
      </trkpt>
      <trkpt lat="46.4358" lon="6.06321">
        <ele>1398</ele>
        <time>2018-05-10T10:52:55.000Z</time>
      </trkpt>
      <trkpt lat="46.43578" lon="6.06327">
        <ele>1398</ele>
        <time>2018-05-10T10:53:00.000Z</time>
      </trkpt>
      <trkpt lat="46.43577" lon="6.06331">
        <ele>1397.8000488281</ele>
        <time>2018-05-10T10:53:03.000Z</time>
      </trkpt>
      <trkpt lat="46.43572" lon="6.06339">
        <ele>1397.5999755859</ele>
        <time>2018-05-10T10:53:10.000Z</time>
      </trkpt>
      <trkpt lat="46.4357" lon="6.06345">
        <ele>1397.4000244141</ele>
        <time>2018-05-10T10:53:14.000Z</time>
      </trkpt>
      <trkpt lat="46.43565" lon="6.06348">
        <ele>1397</ele>
        <time>2018-05-10T10:53:19.000Z</time>
      </trkpt>
      <trkpt lat="46.43563" lon="6.06352">
        <ele>1397</ele>
        <time>2018-05-10T10:53:22.000Z</time>
      </trkpt>
      <trkpt lat="46.43559" lon="6.06363">
        <ele>1397.1999511719</ele>
        <time>2018-05-10T10:53:28.000Z</time>
      </trkpt>
      <trkpt lat="46.43558" lon="6.06367">
        <ele>1397.1999511719</ele>
        <time>2018-05-10T10:53:30.000Z</time>
      </trkpt>
      <trkpt lat="46.43556" lon="6.06377">
        <ele>1397.5999755859</ele>
        <time>2018-05-10T10:53:36.000Z</time>
      </trkpt>
      <trkpt lat="46.43556" lon="6.0638">
        <ele>1397.5999755859</ele>
        <time>2018-05-10T10:53:38.000Z</time>
      </trkpt>
      <trkpt lat="46.43553" lon="6.06388">
        <ele>1398</ele>
        <time>2018-05-10T10:53:45.000Z</time>
      </trkpt>
      <trkpt lat="46.43551" lon="6.0639">
        <ele>1398.1999511719</ele>
        <time>2018-05-10T10:53:47.000Z</time>
      </trkpt>
      <trkpt lat="46.43552" lon="6.06392">
        <ele>1398.4000244141</ele>
        <time>2018-05-10T10:53:50.000Z</time>
      </trkpt>
      <trkpt lat="46.4355" lon="6.06404">
        <ele>1399.5999755859</ele>
        <time>2018-05-10T10:53:58.000Z</time>
      </trkpt>
      <trkpt lat="46.43548" lon="6.06407">
        <ele>1400</ele>
        <time>2018-05-10T10:54:00.000Z</time>
      </trkpt>
      <trkpt lat="46.43542" lon="6.0642">
        <ele>1401.4000244141</ele>
        <time>2018-05-10T10:54:08.000Z</time>
      </trkpt>
      <trkpt lat="46.4354" lon="6.06421">
        <ele>1401.5999755859</ele>
        <time>2018-05-10T10:54:10.000Z</time>
      </trkpt>
      <trkpt lat="46.43535" lon="6.06427">
        <ele>1402.4000244141</ele>
        <time>2018-05-10T10:54:17.000Z</time>
      </trkpt>
      <trkpt lat="46.43534" lon="6.06427">
        <ele>1402.5999755859</ele>
        <time>2018-05-10T10:54:18.000Z</time>
      </trkpt>
      <trkpt lat="46.43532" lon="6.06427">
        <ele>1402.5999755859</ele>
        <time>2018-05-10T10:54:20.000Z</time>
      </trkpt>
      <trkpt lat="46.43526" lon="6.06422">
        <ele>1402.1999511719</ele>
        <time>2018-05-10T10:54:27.000Z</time>
      </trkpt>
      <trkpt lat="46.4352" lon="6.06421">
        <ele>1402.1999511719</ele>
        <time>2018-05-10T10:54:33.000Z</time>
      </trkpt>
      <trkpt lat="46.43519" lon="6.06421">
        <ele>1402.1999511719</ele>
        <time>2018-05-10T10:54:34.000Z</time>
      </trkpt>
      <trkpt lat="46.43517" lon="6.0642">
        <ele>1402</ele>
        <time>2018-05-10T10:54:36.000Z</time>
      </trkpt>
      <trkpt lat="46.43511" lon="6.06415">
        <ele>1401.5999755859</ele>
        <time>2018-05-10T10:54:40.000Z</time>
      </trkpt>
      <trkpt lat="46.43509" lon="6.06413">
        <ele>1401.5999755859</ele>
        <time>2018-05-10T10:54:42.000Z</time>
      </trkpt>
      <trkpt lat="46.43502" lon="6.06414">
        <ele>1401.8000488281</ele>
        <time>2018-05-10T10:54:48.000Z</time>
      </trkpt>
      <trkpt lat="46.43493" lon="6.06415">
        <ele>1401.8000488281</ele>
        <time>2018-05-10T10:54:54.000Z</time>
      </trkpt>
      <trkpt lat="46.43489" lon="6.06415">
        <ele>1401.5999755859</ele>
        <time>2018-05-10T10:54:57.000Z</time>
      </trkpt>
      <trkpt lat="46.43481" lon="6.0642">
        <ele>1402</ele>
        <time>2018-05-10T10:55:03.000Z</time>
      </trkpt>
      <trkpt lat="46.43474" lon="6.06417">
        <ele>1401.8000488281</ele>
        <time>2018-05-10T10:55:10.000Z</time>
      </trkpt>
      <trkpt lat="46.43466" lon="6.06415">
        <ele>1401.8000488281</ele>
        <time>2018-05-10T10:55:18.000Z</time>
      </trkpt>
      <trkpt lat="46.43463" lon="6.06416">
        <ele>1401.8000488281</ele>
        <time>2018-05-10T10:55:21.000Z</time>
      </trkpt>
      <trkpt lat="46.43457" lon="6.06414">
        <ele>1401.8000488281</ele>
        <time>2018-05-10T10:55:27.000Z</time>
      </trkpt>
      <trkpt lat="46.4345" lon="6.06417">
        <ele>1402.1999511719</ele>
        <time>2018-05-10T10:55:35.000Z</time>
      </trkpt>
      <trkpt lat="46.43449" lon="6.06419">
        <ele>1402.1999511719</ele>
        <time>2018-05-10T10:55:42.000Z</time>
      </trkpt>
      <trkpt lat="46.43449" lon="6.06419">
        <ele>1402.1999511719</ele>
        <time>2018-05-10T10:55:43.000Z</time>
      </trkpt>
      <trkpt lat="46.43449" lon="6.06415">
        <ele>1402</ele>
        <time>2018-05-10T10:55:49.000Z</time>
      </trkpt>
      <trkpt lat="46.43444" lon="6.06418">
        <ele>1402.1999511719</ele>
        <time>2018-05-10T10:55:55.000Z</time>
      </trkpt>
      <trkpt lat="46.43439" lon="6.0642">
        <ele>1402.4000244141</ele>
        <time>2018-05-10T10:55:59.000Z</time>
      </trkpt>
      <trkpt lat="46.43429" lon="6.06424">
        <ele>1402.8000488281</ele>
        <time>2018-05-10T10:56:06.000Z</time>
      </trkpt>
      <trkpt lat="46.43427" lon="6.06425">
        <ele>1402.8000488281</ele>
        <time>2018-05-10T10:56:08.000Z</time>
      </trkpt>
      <trkpt lat="46.43422" lon="6.06433">
        <ele>1403</ele>
        <time>2018-05-10T10:56:14.000Z</time>
      </trkpt>
      <trkpt lat="46.43415" lon="6.06436">
        <ele>1403</ele>
        <time>2018-05-10T10:56:20.000Z</time>
      </trkpt>
      <trkpt lat="46.43408" lon="6.0643">
        <ele>1402.5999755859</ele>
        <time>2018-05-10T10:56:26.000Z</time>
      </trkpt>
      <trkpt lat="46.43403" lon="6.06422">
        <ele>1402.1999511719</ele>
        <time>2018-05-10T10:56:32.000Z</time>
      </trkpt>
      <trkpt lat="46.43397" lon="6.06416">
        <ele>1401.5999755859</ele>
        <time>2018-05-10T10:56:37.000Z</time>
      </trkpt>
      <trkpt lat="46.43391" lon="6.0641">
        <ele>1401</ele>
        <time>2018-05-10T10:56:43.000Z</time>
      </trkpt>
      <trkpt lat="46.43387" lon="6.06408">
        <ele>1400.5999755859</ele>
        <time>2018-05-10T10:56:47.000Z</time>
      </trkpt>
      <trkpt lat="46.4338" lon="6.06401">
        <ele>1399.8000488281</ele>
        <time>2018-05-10T10:56:54.000Z</time>
      </trkpt>
      <trkpt lat="46.43368" lon="6.06389">
        <ele>1398.4000244141</ele>
        <time>2018-05-10T10:57:04.000Z</time>
      </trkpt>
      <trkpt lat="46.43368" lon="6.06389">
        <ele>1398.4000244141</ele>
        <time>2018-05-10T10:57:06.000Z</time>
      </trkpt>
      <trkpt lat="46.43362" lon="6.06387">
        <ele>1398</ele>
        <time>2018-05-10T10:57:12.000Z</time>
      </trkpt>
      <trkpt lat="46.43359" lon="6.06384">
        <ele>1397.8000488281</ele>
        <time>2018-05-10T10:57:14.000Z</time>
      </trkpt>
      <trkpt lat="46.43353" lon="6.06378">
        <ele>1397.4000244141</ele>
        <time>2018-05-10T10:57:20.000Z</time>
      </trkpt>
      <trkpt lat="46.4335" lon="6.06374">
        <ele>1397</ele>
        <time>2018-05-10T10:57:33.000Z</time>
      </trkpt>
      <trkpt lat="46.43347" lon="6.06375">
        <ele>1396.8000488281</ele>
        <time>2018-05-10T10:57:47.000Z</time>
      </trkpt>
      <trkpt lat="46.43347" lon="6.06375">
        <ele>1396.8000488281</ele>
        <time>2018-05-10T10:57:48.000Z</time>
      </trkpt>
      <trkpt lat="46.43345" lon="6.06372">
        <ele>1396.5999755859</ele>
        <time>2018-05-10T10:57:53.000Z</time>
      </trkpt>
      <trkpt lat="46.4334" lon="6.06366">
        <ele>1396.4000244141</ele>
        <time>2018-05-10T10:58:01.000Z</time>
      </trkpt>
      <trkpt lat="46.43335" lon="6.06357">
        <ele>1396</ele>
        <time>2018-05-10T10:58:10.000Z</time>
      </trkpt>
      <trkpt lat="46.43333" lon="6.06354">
        <ele>1396</ele>
        <time>2018-05-10T10:58:13.000Z</time>
      </trkpt>
      <trkpt lat="46.4333" lon="6.06347">
        <ele>1395.8000488281</ele>
        <time>2018-05-10T10:58:20.000Z</time>
      </trkpt>
      <trkpt lat="46.43329" lon="6.06342">
        <ele>1395.8000488281</ele>
        <time>2018-05-10T10:58:24.000Z</time>
      </trkpt>
      <trkpt lat="46.43327" lon="6.06336">
        <ele>1395.5999755859</ele>
        <time>2018-05-10T10:58:31.000Z</time>
      </trkpt>
      <trkpt lat="46.43326" lon="6.06336">
        <ele>1395.5999755859</ele>
        <time>2018-05-10T10:58:33.000Z</time>
      </trkpt>
      <trkpt lat="46.43321" lon="6.06334">
        <ele>1395.1999511719</ele>
        <time>2018-05-10T10:58:37.000Z</time>
      </trkpt>
      <trkpt lat="46.43318" lon="6.06331">
        <ele>1395</ele>
        <time>2018-05-10T10:58:40.000Z</time>
      </trkpt>
      <trkpt lat="46.43316" lon="6.06329">
        <ele>1394.8000488281</ele>
        <time>2018-05-10T10:58:43.000Z</time>
      </trkpt>
      <trkpt lat="46.43315" lon="6.06328">
        <ele>1394.8000488281</ele>
        <time>2018-05-10T10:58:45.000Z</time>
      </trkpt>
      <trkpt lat="46.43314" lon="6.06325">
        <ele>1394.8000488281</ele>
        <time>2018-05-10T10:58:47.000Z</time>
      </trkpt>
      <trkpt lat="46.43311" lon="6.06311">
        <ele>1394.8000488281</ele>
        <time>2018-05-10T10:58:54.000Z</time>
      </trkpt>
      <trkpt lat="46.43307" lon="6.06303">
        <ele>1395</ele>
        <time>2018-05-10T10:58:58.000Z</time>
      </trkpt>
      <trkpt lat="46.43304" lon="6.06295">
        <ele>1395.1999511719</ele>
        <time>2018-05-10T10:59:04.000Z</time>
      </trkpt>
      <trkpt lat="46.43304" lon="6.06293">
        <ele>1395.1999511719</ele>
        <time>2018-05-10T10:59:06.000Z</time>
      </trkpt>
      <trkpt lat="46.43299" lon="6.06287">
        <ele>1395.4000244141</ele>
        <time>2018-05-10T10:59:12.000Z</time>
      </trkpt>
      <trkpt lat="46.43296" lon="6.06281">
        <ele>1395.4000244141</ele>
        <time>2018-05-10T10:59:16.000Z</time>
      </trkpt>
      <trkpt lat="46.43292" lon="6.0628">
        <ele>1395.4000244141</ele>
        <time>2018-05-10T10:59:21.000Z</time>
      </trkpt>
      <trkpt lat="46.4329" lon="6.0628">
        <ele>1395.1999511719</ele>
        <time>2018-05-10T10:59:30.000Z</time>
      </trkpt>
      <trkpt lat="46.43288" lon="6.06276">
        <ele>1395.4000244141</ele>
        <time>2018-05-10T10:59:34.000Z</time>
      </trkpt>
      <trkpt lat="46.43286" lon="6.0627">
        <ele>1395.5999755859</ele>
        <time>2018-05-10T10:59:40.000Z</time>
      </trkpt>
      <trkpt lat="46.43284" lon="6.06265">
        <ele>1395.8000488281</ele>
        <time>2018-05-10T10:59:45.000Z</time>
      </trkpt>
      <trkpt lat="46.43277" lon="6.06257">
        <ele>1395.8000488281</ele>
        <time>2018-05-10T10:59:51.000Z</time>
      </trkpt>
      <trkpt lat="46.43268" lon="6.06248">
        <ele>1395.8000488281</ele>
        <time>2018-05-10T10:59:59.000Z</time>
      </trkpt>
      <trkpt lat="46.43266" lon="6.06247">
        <ele>1395.8000488281</ele>
        <time>2018-05-10T11:00:01.000Z</time>
      </trkpt>
      <trkpt lat="46.43258" lon="6.06244">
        <ele>1395.4000244141</ele>
        <time>2018-05-10T11:00:08.000Z</time>
      </trkpt>
      <trkpt lat="46.43256" lon="6.06243">
        <ele>1395.4000244141</ele>
        <time>2018-05-10T11:00:10.000Z</time>
      </trkpt>
      <trkpt lat="46.43253" lon="6.0624">
        <ele>1395.4000244141</ele>
        <time>2018-05-10T11:00:15.000Z</time>
      </trkpt>
      <trkpt lat="46.43251" lon="6.0624">
        <ele>1395.4000244141</ele>
        <time>2018-05-10T11:00:19.000Z</time>
      </trkpt>
      <trkpt lat="46.4325" lon="6.06237">
        <ele>1395.4000244141</ele>
        <time>2018-05-10T11:00:22.000Z</time>
      </trkpt>
      <trkpt lat="46.43249" lon="6.06233">
        <ele>1395.5999755859</ele>
        <time>2018-05-10T11:00:25.000Z</time>
      </trkpt>
      <trkpt lat="46.43237" lon="6.06227">
        <ele>1395.1999511719</ele>
        <time>2018-05-10T11:00:33.000Z</time>
      </trkpt>
      <trkpt lat="46.43233" lon="6.06222">
        <ele>1395.1999511719</ele>
        <time>2018-05-10T11:00:38.000Z</time>
      </trkpt>
      <trkpt lat="46.43225" lon="6.06219">
        <ele>1394.5999755859</ele>
        <time>2018-05-10T11:00:44.000Z</time>
      </trkpt>
      <trkpt lat="46.43219" lon="6.06215">
        <ele>1394</ele>
        <time>2018-05-10T11:00:50.000Z</time>
      </trkpt>
      <trkpt lat="46.43213" lon="6.06209">
        <ele>1393.5999755859</ele>
        <time>2018-05-10T11:00:55.000Z</time>
      </trkpt>
      <trkpt lat="46.43211" lon="6.06206">
        <ele>1393.4000244141</ele>
        <time>2018-05-10T11:00:57.000Z</time>
      </trkpt>
      <trkpt lat="46.43205" lon="6.06202">
        <ele>1393</ele>
        <time>2018-05-10T11:01:03.000Z</time>
      </trkpt>
      <trkpt lat="46.432" lon="6.06197">
        <ele>1392.5999755859</ele>
        <time>2018-05-10T11:01:07.000Z</time>
      </trkpt>
      <trkpt lat="46.4319" lon="6.06189">
        <ele>1392</ele>
        <time>2018-05-10T11:01:16.000Z</time>
      </trkpt>
      <trkpt lat="46.43186" lon="6.06186">
        <ele>1391.5999755859</ele>
        <time>2018-05-10T11:01:20.000Z</time>
      </trkpt>
      <trkpt lat="46.43177" lon="6.06175">
        <ele>1391</ele>
        <time>2018-05-10T11:01:28.000Z</time>
      </trkpt>
      <trkpt lat="46.43173" lon="6.06167">
        <ele>1390.8000488281</ele>
        <time>2018-05-10T11:01:33.000Z</time>
      </trkpt>
      <trkpt lat="46.43166" lon="6.06164">
        <ele>1390.1999511719</ele>
        <time>2018-05-10T11:01:39.000Z</time>
      </trkpt>
      <trkpt lat="46.43158" lon="6.06166">
        <ele>1389.5999755859</ele>
        <time>2018-05-10T11:01:47.000Z</time>
      </trkpt>
      <trkpt lat="46.43149" lon="6.06165">
        <ele>1389</ele>
        <time>2018-05-10T11:01:53.000Z</time>
      </trkpt>
      <trkpt lat="46.43148" lon="6.06164">
        <ele>1389</ele>
        <time>2018-05-10T11:01:55.000Z</time>
      </trkpt>
      <trkpt lat="46.4314" lon="6.06158">
        <ele>1388.8000488281</ele>
        <time>2018-05-10T11:02:03.000Z</time>
      </trkpt>
      <trkpt lat="46.43136" lon="6.06156">
        <ele>1388.8000488281</ele>
        <time>2018-05-10T11:02:08.000Z</time>
      </trkpt>
      <trkpt lat="46.43135" lon="6.06156">
        <ele>1388.8000488281</ele>
        <time>2018-05-10T11:02:09.000Z</time>
      </trkpt>
      <trkpt lat="46.43125" lon="6.06157">
        <ele>1388.8000488281</ele>
        <time>2018-05-10T11:02:15.000Z</time>
      </trkpt>
      <trkpt lat="46.43124" lon="6.06157">
        <ele>1388.5999755859</ele>
        <time>2018-05-10T11:02:18.000Z</time>
      </trkpt>
      <trkpt lat="46.43122" lon="6.06157">
        <ele>1388.5999755859</ele>
        <time>2018-05-10T11:02:21.000Z</time>
      </trkpt>
      <trkpt lat="46.43118" lon="6.06157">
        <ele>1388.5999755859</ele>
        <time>2018-05-10T11:02:24.000Z</time>
      </trkpt>
      <trkpt lat="46.43117" lon="6.06157">
        <ele>1388.5999755859</ele>
        <time>2018-05-10T11:02:28.000Z</time>
      </trkpt>
      <trkpt lat="46.4312" lon="6.06159">
        <ele>1388.5999755859</ele>
        <time>2018-05-10T11:02:38.000Z</time>
      </trkpt>
      <trkpt lat="46.43121" lon="6.06159">
        <ele>1388.5999755859</ele>
        <time>2018-05-10T11:02:42.000Z</time>
      </trkpt>
      <trkpt lat="46.4312" lon="6.0616">
        <ele>1388.5999755859</ele>
        <time>2018-05-10T11:02:44.000Z</time>
      </trkpt>
      <trkpt lat="46.4312" lon="6.06159">
        <ele>1388.5999755859</ele>
        <time>2018-05-10T11:02:53.000Z</time>
      </trkpt>
      <trkpt lat="46.43119" lon="6.06158">
        <ele>1388.5999755859</ele>
        <time>2018-05-10T11:02:57.000Z</time>
      </trkpt>
      <trkpt lat="46.4312" lon="6.06167">
        <ele>1388.5999755859</ele>
        <time>2018-05-10T11:03:27.000Z</time>
      </trkpt>
      <trkpt lat="46.43116" lon="6.06166">
        <ele>1388.5999755859</ele>
        <time>2018-05-10T11:03:35.000Z</time>
      </trkpt>
      <trkpt lat="46.43113" lon="6.0616">
        <ele>1388.5999755859</ele>
        <time>2018-05-10T11:03:44.000Z</time>
      </trkpt>
      <trkpt lat="46.43106" lon="6.06156">
        <ele>1388.4000244141</ele>
        <time>2018-05-10T11:04:08.000Z</time>
      </trkpt>
      <trkpt lat="46.43109" lon="6.06156">
        <ele>1388.5999755859</ele>
        <time>2018-05-10T11:04:18.000Z</time>
      </trkpt>
      <trkpt lat="46.43111" lon="6.06157">
        <ele>1388.5999755859</ele>
        <time>2018-05-10T11:04:23.000Z</time>
      </trkpt>
      <trkpt lat="46.43118" lon="6.06159">
        <ele>1388.5999755859</ele>
        <time>2018-05-10T11:04:36.000Z</time>
      </trkpt>
      <trkpt lat="46.4312" lon="6.06161">
        <ele>1388.5999755859</ele>
        <time>2018-05-10T11:04:44.000Z</time>
      </trkpt>
      <trkpt lat="46.43116" lon="6.0616">
        <ele>1388.5999755859</ele>
        <time>2018-05-10T11:04:57.000Z</time>
      </trkpt>
      <trkpt lat="46.43107" lon="6.06159">
        <ele>1388.4000244141</ele>
        <time>2018-05-10T11:05:03.000Z</time>
      </trkpt>
      <trkpt lat="46.43099" lon="6.06159">
        <ele>1388.4000244141</ele>
        <time>2018-05-10T11:05:12.000Z</time>
      </trkpt>
      <trkpt lat="46.43093" lon="6.06156">
        <ele>1388.4000244141</ele>
        <time>2018-05-10T11:05:17.000Z</time>
      </trkpt>
      <trkpt lat="46.43092" lon="6.06157">
        <ele>1388.4000244141</ele>
        <time>2018-05-10T11:05:19.000Z</time>
      </trkpt>
      <trkpt lat="46.43087" lon="6.06155">
        <ele>1388.1999511719</ele>
        <time>2018-05-10T11:05:23.000Z</time>
      </trkpt>
      <trkpt lat="46.43083" lon="6.06151">
        <ele>1388.1999511719</ele>
        <time>2018-05-10T11:05:29.000Z</time>
      </trkpt>
      <trkpt lat="46.4308" lon="6.0615">
        <ele>1388.1999511719</ele>
        <time>2018-05-10T11:05:32.000Z</time>
      </trkpt>
      <trkpt lat="46.43079" lon="6.06149">
        <ele>1388.1999511719</ele>
        <time>2018-05-10T11:05:35.000Z</time>
      </trkpt>
      <trkpt lat="46.43073" lon="6.06147">
        <ele>1388</ele>
        <time>2018-05-10T11:05:41.000Z</time>
      </trkpt>
      <trkpt lat="46.43064" lon="6.06144">
        <ele>1387.8000488281</ele>
        <time>2018-05-10T11:05:50.000Z</time>
      </trkpt>
      <trkpt lat="46.43052" lon="6.06141">
        <ele>1387.1999511719</ele>
        <time>2018-05-10T11:05:59.000Z</time>
      </trkpt>
      <trkpt lat="46.43042" lon="6.06133">
        <ele>1386.5999755859</ele>
        <time>2018-05-10T11:06:08.000Z</time>
      </trkpt>
      <trkpt lat="46.43039" lon="6.06132">
        <ele>1386.5999755859</ele>
        <time>2018-05-10T11:06:10.000Z</time>
      </trkpt>
      <trkpt lat="46.43034" lon="6.06119">
        <ele>1386.5999755859</ele>
        <time>2018-05-10T11:06:18.000Z</time>
      </trkpt>
      <trkpt lat="46.43028" lon="6.0611">
        <ele>1386.4000244141</ele>
        <time>2018-05-10T11:06:25.000Z</time>
      </trkpt>
      <trkpt lat="46.43027" lon="6.06099">
        <ele>1386.4000244141</ele>
        <time>2018-05-10T11:06:31.000Z</time>
      </trkpt>
      <trkpt lat="46.43022" lon="6.06084">
        <ele>1385.8000488281</ele>
        <time>2018-05-10T11:06:40.000Z</time>
      </trkpt>
      <trkpt lat="46.43019" lon="6.0607">
        <ele>1385.4000244141</ele>
        <time>2018-05-10T11:06:47.000Z</time>
      </trkpt>
      <trkpt lat="46.43016" lon="6.06056">
        <ele>1385</ele>
        <time>2018-05-10T11:06:55.000Z</time>
      </trkpt>
      <trkpt lat="46.43014" lon="6.06051">
        <ele>1384.8000488281</ele>
        <time>2018-05-10T11:07:00.000Z</time>
      </trkpt>
      <trkpt lat="46.43012" lon="6.0605">
        <ele>1384.8000488281</ele>
        <time>2018-05-10T11:07:03.000Z</time>
      </trkpt>
      <trkpt lat="46.43009" lon="6.06044">
        <ele>1384.8000488281</ele>
        <time>2018-05-10T11:07:07.000Z</time>
      </trkpt>
      <trkpt lat="46.43007" lon="6.06035">
        <ele>1384.8000488281</ele>
        <time>2018-05-10T11:07:12.000Z</time>
      </trkpt>
      <trkpt lat="46.42999" lon="6.06025">
        <ele>1384.5999755859</ele>
        <time>2018-05-10T11:07:21.000Z</time>
      </trkpt>
      <trkpt lat="46.42996" lon="6.06021">
        <ele>1384.5999755859</ele>
        <time>2018-05-10T11:07:27.000Z</time>
      </trkpt>
      <trkpt lat="46.42985" lon="6.06013">
        <ele>1384.4000244141</ele>
        <time>2018-05-10T11:07:49.000Z</time>
      </trkpt>
      <trkpt lat="46.42978" lon="6.06005">
        <ele>1384</ele>
        <time>2018-05-10T11:07:57.000Z</time>
      </trkpt>
      <trkpt lat="46.42972" lon="6.05999">
        <ele>1383.5999755859</ele>
        <time>2018-05-10T11:08:04.000Z</time>
      </trkpt>
      <trkpt lat="46.42966" lon="6.05991">
        <ele>1383</ele>
        <time>2018-05-10T11:08:11.000Z</time>
      </trkpt>
      <trkpt lat="46.42958" lon="6.05982">
        <ele>1382.4000244141</ele>
        <time>2018-05-10T11:08:19.000Z</time>
      </trkpt>
      <trkpt lat="46.42948" lon="6.05966">
        <ele>1381.1999511719</ele>
        <time>2018-05-10T11:08:29.000Z</time>
      </trkpt>
      <trkpt lat="46.42938" lon="6.0595">
        <ele>1380</ele>
        <time>2018-05-10T11:08:39.000Z</time>
      </trkpt>
      <trkpt lat="46.4293" lon="6.05938">
        <ele>1378.8000488281</ele>
        <time>2018-05-10T11:08:47.000Z</time>
      </trkpt>
      <trkpt lat="46.4293" lon="6.05938">
        <ele>1378.8000488281</ele>
        <time>2018-05-10T11:08:47.000Z</time>
      </trkpt>
      <trkpt lat="46.42924" lon="6.05927">
        <ele>1378</ele>
        <time>2018-05-10T11:08:54.000Z</time>
      </trkpt>
      <trkpt lat="46.42914" lon="6.05912">
        <ele>1376.8000488281</ele>
        <time>2018-05-10T11:09:04.000Z</time>
      </trkpt>
      <trkpt lat="46.42905" lon="6.05897">
        <ele>1375.5999755859</ele>
        <time>2018-05-10T11:09:14.000Z</time>
      </trkpt>
      <trkpt lat="46.42899" lon="6.05888">
        <ele>1375</ele>
        <time>2018-05-10T11:09:21.000Z</time>
      </trkpt>
      <trkpt lat="46.4289" lon="6.0588">
        <ele>1374.1999511719</ele>
        <time>2018-05-10T11:09:29.000Z</time>
      </trkpt>
      <trkpt lat="46.42882" lon="6.0587">
        <ele>1373.4000244141</ele>
        <time>2018-05-10T11:09:36.000Z</time>
      </trkpt>
      <trkpt lat="46.42876" lon="6.05858">
        <ele>1372.5999755859</ele>
        <time>2018-05-10T11:09:43.000Z</time>
      </trkpt>
      <trkpt lat="46.42869" lon="6.05848">
        <ele>1372</ele>
        <time>2018-05-10T11:09:51.000Z</time>
      </trkpt>
      <trkpt lat="46.42862" lon="6.05834">
        <ele>1371.1999511719</ele>
        <time>2018-05-10T11:09:59.000Z</time>
      </trkpt>
      <trkpt lat="46.42859" lon="6.05821">
        <ele>1370.8000488281</ele>
        <time>2018-05-10T11:10:05.000Z</time>
      </trkpt>
      <trkpt lat="46.42855" lon="6.05808">
        <ele>1370.1999511719</ele>
        <time>2018-05-10T11:10:12.000Z</time>
      </trkpt>
      <trkpt lat="46.42854" lon="6.05796">
        <ele>1369.5999755859</ele>
        <time>2018-05-10T11:10:18.000Z</time>
      </trkpt>
      <trkpt lat="46.42855" lon="6.0578">
        <ele>1369</ele>
        <time>2018-05-10T11:10:26.000Z</time>
      </trkpt>
      <trkpt lat="46.42858" lon="6.05767">
        <ele>1368.5999755859</ele>
        <time>2018-05-10T11:10:33.000Z</time>
      </trkpt>
      <trkpt lat="46.4286" lon="6.05754">
        <ele>1368.4000244141</ele>
        <time>2018-05-10T11:10:41.000Z</time>
      </trkpt>
      <trkpt lat="46.42862" lon="6.05747">
        <ele>1368.1999511719</ele>
        <time>2018-05-10T11:10:47.000Z</time>
      </trkpt>
      <trkpt lat="46.42866" lon="6.05734">
        <ele>1368</ele>
        <time>2018-05-10T11:10:55.000Z</time>
      </trkpt>
      <trkpt lat="46.4287" lon="6.05719">
        <ele>1368.4000244141</ele>
        <time>2018-05-10T11:11:03.000Z</time>
      </trkpt>
      <trkpt lat="46.42873" lon="6.05706">
        <ele>1369</ele>
        <time>2018-05-10T11:11:11.000Z</time>
      </trkpt>
      <trkpt lat="46.42873" lon="6.05702">
        <ele>1369.1999511719</ele>
        <time>2018-05-10T11:11:15.000Z</time>
      </trkpt>
      <trkpt lat="46.42876" lon="6.05688">
        <ele>1369</ele>
        <time>2018-05-10T11:11:23.000Z</time>
      </trkpt>
      <trkpt lat="46.42881" lon="6.05676">
        <ele>1369</ele>
        <time>2018-05-10T11:11:30.000Z</time>
      </trkpt>
      <trkpt lat="46.42886" lon="6.05662">
        <ele>1368.8000488281</ele>
        <time>2018-05-10T11:11:38.000Z</time>
      </trkpt>
      <trkpt lat="46.4289" lon="6.05645">
        <ele>1368.5999755859</ele>
        <time>2018-05-10T11:11:47.000Z</time>
      </trkpt>
      <trkpt lat="46.42891" lon="6.0564">
        <ele>1368.5999755859</ele>
        <time>2018-05-10T11:11:50.000Z</time>
      </trkpt>
      <trkpt lat="46.42891" lon="6.05638">
        <ele>1368.4000244141</ele>
        <time>2018-05-10T11:11:53.000Z</time>
      </trkpt>
      <trkpt lat="46.4289" lon="6.05636">
        <ele>1368.4000244141</ele>
        <time>2018-05-10T11:11:58.000Z</time>
      </trkpt>
      <trkpt lat="46.42892" lon="6.05622">
        <ele>1368</ele>
        <time>2018-05-10T11:12:06.000Z</time>
      </trkpt>
      <trkpt lat="46.42892" lon="6.05605">
        <ele>1367.5999755859</ele>
        <time>2018-05-10T11:12:15.000Z</time>
      </trkpt>
      <trkpt lat="46.42891" lon="6.05602">
        <ele>1367.5999755859</ele>
        <time>2018-05-10T11:12:17.000Z</time>
      </trkpt>
      <trkpt lat="46.42888" lon="6.05587">
        <ele>1367</ele>
        <time>2018-05-10T11:12:26.000Z</time>
      </trkpt>
      <trkpt lat="46.42884" lon="6.05576">
        <ele>1366.5999755859</ele>
        <time>2018-05-10T11:12:33.000Z</time>
      </trkpt>
      <trkpt lat="46.4288" lon="6.05568">
        <ele>1366.1999511719</ele>
        <time>2018-05-10T11:12:38.000Z</time>
      </trkpt>
      <trkpt lat="46.42873" lon="6.05555">
        <ele>1365.4000244141</ele>
        <time>2018-05-10T11:12:46.000Z</time>
      </trkpt>
      <trkpt lat="46.4287" lon="6.05546">
        <ele>1365.1999511719</ele>
        <time>2018-05-10T11:12:51.000Z</time>
      </trkpt>
      <trkpt lat="46.42869" lon="6.0554">
        <ele>1365.1999511719</ele>
        <time>2018-05-10T11:12:57.000Z</time>
      </trkpt>
      <trkpt lat="46.42869" lon="6.05539">
        <ele>1365.1999511719</ele>
        <time>2018-05-10T11:13:00.000Z</time>
      </trkpt>
      <trkpt lat="46.42869" lon="6.05539">
        <ele>1365.1999511719</ele>
        <time>2018-05-10T11:13:08.000Z</time>
      </trkpt>
      <trkpt lat="46.42868" lon="6.05537">
        <ele>1365.1999511719</ele>
        <time>2018-05-10T11:13:12.000Z</time>
      </trkpt>
      <trkpt lat="46.42864" lon="6.05528">
        <ele>1365</ele>
        <time>2018-05-10T11:13:20.000Z</time>
      </trkpt>
      <trkpt lat="46.42858" lon="6.05516">
        <ele>1364.5999755859</ele>
        <time>2018-05-10T11:13:28.000Z</time>
      </trkpt>
      <trkpt lat="46.42856" lon="6.0551">
        <ele>1364.5999755859</ele>
        <time>2018-05-10T11:13:34.000Z</time>
      </trkpt>
      <trkpt lat="46.42855" lon="6.05507">
        <ele>1364.5999755859</ele>
        <time>2018-05-10T11:13:37.000Z</time>
      </trkpt>
      <trkpt lat="46.42849" lon="6.05494">
        <ele>1364.5999755859</ele>
        <time>2018-05-10T11:13:45.000Z</time>
      </trkpt>
      <trkpt lat="46.42842" lon="6.05483">
        <ele>1364.4000244141</ele>
        <time>2018-05-10T11:13:54.000Z</time>
      </trkpt>
      <trkpt lat="46.42837" lon="6.05472">
        <ele>1364.1999511719</ele>
        <time>2018-05-10T11:14:02.000Z</time>
      </trkpt>
      <trkpt lat="46.42834" lon="6.05463">
        <ele>1364</ele>
        <time>2018-05-10T11:14:09.000Z</time>
      </trkpt>
      <trkpt lat="46.4283" lon="6.05454">
        <ele>1363.5999755859</ele>
        <time>2018-05-10T11:14:14.000Z</time>
      </trkpt>
      <trkpt lat="46.42828" lon="6.05451">
        <ele>1363.5999755859</ele>
        <time>2018-05-10T11:14:16.000Z</time>
      </trkpt>
      <trkpt lat="46.42825" lon="6.05446">
        <ele>1363.1999511719</ele>
        <time>2018-05-10T11:14:20.000Z</time>
      </trkpt>
      <trkpt lat="46.4282" lon="6.05436">
        <ele>1362.8000488281</ele>
        <time>2018-05-10T11:14:27.000Z</time>
      </trkpt>
      <trkpt lat="46.42814" lon="6.05424">
        <ele>1362.5999755859</ele>
        <time>2018-05-10T11:14:35.000Z</time>
      </trkpt>
      <trkpt lat="46.42806" lon="6.05408">
        <ele>1363</ele>
        <time>2018-05-10T11:14:45.000Z</time>
      </trkpt>
      <trkpt lat="46.42802" lon="6.05398">
        <ele>1363.1999511719</ele>
        <time>2018-05-10T11:14:51.000Z</time>
      </trkpt>
      <trkpt lat="46.42797" lon="6.0539">
        <ele>1363.4000244141</ele>
        <time>2018-05-10T11:14:58.000Z</time>
      </trkpt>
      <trkpt lat="46.42795" lon="6.05387">
        <ele>1363.1999511719</ele>
        <time>2018-05-10T11:15:00.000Z</time>
      </trkpt>
      <trkpt lat="46.42787" lon="6.05372">
        <ele>1363</ele>
        <time>2018-05-10T11:15:09.000Z</time>
      </trkpt>
      <trkpt lat="46.42783" lon="6.05359">
        <ele>1362.5999755859</ele>
        <time>2018-05-10T11:15:17.000Z</time>
      </trkpt>
      <trkpt lat="46.42779" lon="6.05344">
        <ele>1362.8000488281</ele>
        <time>2018-05-10T11:15:26.000Z</time>
      </trkpt>
      <trkpt lat="46.42775" lon="6.05333">
        <ele>1363</ele>
        <time>2018-05-10T11:15:33.000Z</time>
      </trkpt>
      <trkpt lat="46.4277" lon="6.05323">
        <ele>1363</ele>
        <time>2018-05-10T11:15:41.000Z</time>
      </trkpt>
      <trkpt lat="46.42765" lon="6.05314">
        <ele>1363</ele>
        <time>2018-05-10T11:15:48.000Z</time>
      </trkpt>
      <trkpt lat="46.42765" lon="6.05314">
        <ele>1363</ele>
        <time>2018-05-10T11:15:50.000Z</time>
      </trkpt>
      <trkpt lat="46.42763" lon="6.05314">
        <ele>1363</ele>
        <time>2018-05-10T11:16:00.000Z</time>
      </trkpt>
      <trkpt lat="46.4276" lon="6.0531">
        <ele>1363</ele>
        <time>2018-05-10T11:16:55.000Z</time>
      </trkpt>
      <trkpt lat="46.42755" lon="6.05308">
        <ele>1362.8000488281</ele>
        <time>2018-05-10T11:17:22.000Z</time>
      </trkpt>
      <trkpt lat="46.42751" lon="6.05301">
        <ele>1362.5999755859</ele>
        <time>2018-05-10T11:17:28.000Z</time>
      </trkpt>
      <trkpt lat="46.42745" lon="6.05295">
        <ele>1362.1999511719</ele>
        <time>2018-05-10T11:17:35.000Z</time>
      </trkpt>
      <trkpt lat="46.42736" lon="6.05291">
        <ele>1362</ele>
        <time>2018-05-10T11:17:44.000Z</time>
      </trkpt>
      <trkpt lat="46.42729" lon="6.05292">
        <ele>1361.8000488281</ele>
        <time>2018-05-10T11:17:51.000Z</time>
      </trkpt>
      <trkpt lat="46.42725" lon="6.05292">
        <ele>1361.8000488281</ele>
        <time>2018-05-10T11:17:59.000Z</time>
      </trkpt>
      <trkpt lat="46.42722" lon="6.05295">
        <ele>1361.8000488281</ele>
        <time>2018-05-10T11:18:05.000Z</time>
      </trkpt>
      <trkpt lat="46.42721" lon="6.05296">
        <ele>1361.8000488281</ele>
        <time>2018-05-10T11:18:09.000Z</time>
      </trkpt>
      <trkpt lat="46.42721" lon="6.05297">
        <ele>1361.8000488281</ele>
        <time>2018-05-10T11:18:13.000Z</time>
      </trkpt>
      <trkpt lat="46.42722" lon="6.05296">
        <ele>1361.8000488281</ele>
        <time>2018-05-10T11:18:22.000Z</time>
      </trkpt>
      <trkpt lat="46.42723" lon="6.05295">
        <ele>1361.8000488281</ele>
        <time>2018-05-10T11:18:26.000Z</time>
      </trkpt>
      <trkpt lat="46.42723" lon="6.05295">
        <ele>1361.8000488281</ele>
        <time>2018-05-10T11:18:27.000Z</time>
      </trkpt>
      <trkpt lat="46.42722" lon="6.05296">
        <ele>1361.8000488281</ele>
        <time>2018-05-10T11:18:34.000Z</time>
      </trkpt>
      <trkpt lat="46.42721" lon="6.05297">
        <ele>1361.8000488281</ele>
        <time>2018-05-10T11:18:37.000Z</time>
      </trkpt>
      <trkpt lat="46.42721" lon="6.05295">
        <ele>1361.5999755859</ele>
        <time>2018-05-10T11:18:41.000Z</time>
      </trkpt>
      <trkpt lat="46.4272" lon="6.05296">
        <ele>1361.5999755859</ele>
        <time>2018-05-10T11:18:45.000Z</time>
      </trkpt>
      <trkpt lat="46.42713" lon="6.05288">
        <ele>1361.5999755859</ele>
        <time>2018-05-10T11:18:52.000Z</time>
      </trkpt>
      <trkpt lat="46.42711" lon="6.05283">
        <ele>1361.4000244141</ele>
        <time>2018-05-10T11:19:02.000Z</time>
      </trkpt>
      <trkpt lat="46.42708" lon="6.0529">
        <ele>1361.8000488281</ele>
        <time>2018-05-10T11:19:28.000Z</time>
      </trkpt>
      <trkpt lat="46.42715" lon="6.05292">
        <ele>1361.5999755859</ele>
        <time>2018-05-10T11:19:34.000Z</time>
      </trkpt>
      <trkpt lat="46.42716" lon="6.05292">
        <ele>1361.5999755859</ele>
        <time>2018-05-10T11:19:35.000Z</time>
      </trkpt>
      <trkpt lat="46.42717" lon="6.05294">
        <ele>1361.5999755859</ele>
        <time>2018-05-10T11:19:40.000Z</time>
      </trkpt>
      <trkpt lat="46.42718" lon="6.05299">
        <ele>1362</ele>
        <time>2018-05-10T11:19:49.000Z</time>
      </trkpt>
      <trkpt lat="46.4272" lon="6.05298">
        <ele>1361.8000488281</ele>
        <time>2018-05-10T11:19:57.000Z</time>
      </trkpt>
      <trkpt lat="46.4272" lon="6.05296">
        <ele>1361.5999755859</ele>
        <time>2018-05-10T11:20:02.000Z</time>
      </trkpt>
      <trkpt lat="46.42719" lon="6.05296">
        <ele>1361.5999755859</ele>
        <time>2018-05-10T11:20:07.000Z</time>
      </trkpt>
      <trkpt lat="46.42723" lon="6.05294">
        <ele>1361.8000488281</ele>
        <time>2018-05-10T11:20:12.000Z</time>
      </trkpt>
      <trkpt lat="46.42724" lon="6.05293">
        <ele>1361.8000488281</ele>
        <time>2018-05-10T11:20:17.000Z</time>
      </trkpt>
      <trkpt lat="46.42723" lon="6.05291">
        <ele>1361.5999755859</ele>
        <time>2018-05-10T11:20:21.000Z</time>
      </trkpt>
      <trkpt lat="46.42722" lon="6.05291">
        <ele>1361.5999755859</ele>
        <time>2018-05-10T11:20:27.000Z</time>
      </trkpt>
      <trkpt lat="46.42719" lon="6.05289">
        <ele>1361.5999755859</ele>
        <time>2018-05-10T11:20:32.000Z</time>
      </trkpt>
      <trkpt lat="46.4272" lon="6.05292">
        <ele>1361.5999755859</ele>
        <time>2018-05-10T11:20:42.000Z</time>
      </trkpt>
      <trkpt lat="46.42722" lon="6.05291">
        <ele>1361.5999755859</ele>
        <time>2018-05-10T11:20:54.000Z</time>
      </trkpt>
      <trkpt lat="46.42719" lon="6.05291">
        <ele>1361.5999755859</ele>
        <time>2018-05-10T11:21:02.000Z</time>
      </trkpt>
      <trkpt lat="46.42721" lon="6.05294">
        <ele>1361.5999755859</ele>
        <time>2018-05-10T11:21:15.000Z</time>
      </trkpt>
      <trkpt lat="46.42721" lon="6.05295">
        <ele>1361.5999755859</ele>
        <time>2018-05-10T11:21:20.000Z</time>
      </trkpt>
      <trkpt lat="46.42723" lon="6.05296">
        <ele>1361.8000488281</ele>
        <time>2018-05-10T11:21:25.000Z</time>
      </trkpt>
      <trkpt lat="46.42722" lon="6.05294">
        <ele>1361.5999755859</ele>
        <time>2018-05-10T11:21:48.000Z</time>
      </trkpt>
      <trkpt lat="46.42722" lon="6.05292">
        <ele>1361.5999755859</ele>
        <time>2018-05-10T11:21:52.000Z</time>
      </trkpt>
      <trkpt lat="46.42722" lon="6.05295">
        <ele>1361.8000488281</ele>
        <time>2018-05-10T11:22:02.000Z</time>
      </trkpt>
      <trkpt lat="46.42722" lon="6.05296">
        <ele>1361.8000488281</ele>
        <time>2018-05-10T11:22:07.000Z</time>
      </trkpt>
      <trkpt lat="46.42721" lon="6.05296">
        <ele>1361.8000488281</ele>
        <time>2018-05-10T11:22:14.000Z</time>
      </trkpt>
      <trkpt lat="46.42719" lon="6.05295">
        <ele>1361.5999755859</ele>
        <time>2018-05-10T11:22:21.000Z</time>
      </trkpt>
      <trkpt lat="46.42719" lon="6.05292">
        <ele>1361.5999755859</ele>
        <time>2018-05-10T11:22:28.000Z</time>
      </trkpt>
      <trkpt lat="46.42718" lon="6.05289">
        <ele>1361.5999755859</ele>
        <time>2018-05-10T11:22:31.000Z</time>
      </trkpt>
      <trkpt lat="46.4272" lon="6.05287">
        <ele>1361.5999755859</ele>
        <time>2018-05-10T11:22:35.000Z</time>
      </trkpt>
      <trkpt lat="46.42723" lon="6.05289">
        <ele>1361.5999755859</ele>
        <time>2018-05-10T11:22:46.000Z</time>
      </trkpt>
      <trkpt lat="46.42721" lon="6.05291">
        <ele>1361.5999755859</ele>
        <time>2018-05-10T11:22:50.000Z</time>
      </trkpt>
      <trkpt lat="46.42721" lon="6.05292">
        <ele>1361.5999755859</ele>
        <time>2018-05-10T11:22:52.000Z</time>
      </trkpt>
      <trkpt lat="46.42721" lon="6.05294">
        <ele>1361.5999755859</ele>
        <time>2018-05-10T11:23:02.000Z</time>
      </trkpt>
      <trkpt lat="46.42721" lon="6.05297">
        <ele>1361.8000488281</ele>
        <time>2018-05-10T11:23:08.000Z</time>
      </trkpt>
      <trkpt lat="46.4272" lon="6.05296">
        <ele>1361.5999755859</ele>
        <time>2018-05-10T11:23:11.000Z</time>
      </trkpt>
      <trkpt lat="46.4272" lon="6.05291">
        <ele>1361.5999755859</ele>
        <time>2018-05-10T11:23:14.000Z</time>
      </trkpt>
      <trkpt lat="46.4272" lon="6.05287">
        <ele>1361.5999755859</ele>
        <time>2018-05-10T11:23:16.000Z</time>
      </trkpt>
      <trkpt lat="46.42719" lon="6.05279">
        <ele>1361.4000244141</ele>
        <time>2018-05-10T11:23:22.000Z</time>
      </trkpt>
      <trkpt lat="46.42718" lon="6.05279">
        <ele>1361.4000244141</ele>
        <time>2018-05-10T11:23:26.000Z</time>
      </trkpt>
      <trkpt lat="46.42717" lon="6.05282">
        <ele>1361.4000244141</ele>
        <time>2018-05-10T11:23:46.000Z</time>
      </trkpt>
      <trkpt lat="46.42718" lon="6.05292">
        <ele>1361.5999755859</ele>
        <time>2018-05-10T11:24:00.000Z</time>
      </trkpt>
      <trkpt lat="46.42721" lon="6.05294">
        <ele>1361.5999755859</ele>
        <time>2018-05-10T11:24:06.000Z</time>
      </trkpt>
      <trkpt lat="46.42725" lon="6.0529">
        <ele>1361.5999755859</ele>
        <time>2018-05-10T11:24:15.000Z</time>
      </trkpt>
      <trkpt lat="46.42725" lon="6.05291">
        <ele>1361.5999755859</ele>
        <time>2018-05-10T11:24:18.000Z</time>
      </trkpt>
      <trkpt lat="46.4272" lon="6.05281">
        <ele>1361.5999755859</ele>
        <time>2018-05-10T11:24:26.000Z</time>
      </trkpt>
      <trkpt lat="46.42719" lon="6.05279">
        <ele>1361.4000244141</ele>
        <time>2018-05-10T11:24:28.000Z</time>
      </trkpt>
      <trkpt lat="46.4272" lon="6.05284">
        <ele>1361.5999755859</ele>
        <time>2018-05-10T11:24:37.000Z</time>
      </trkpt>
      <trkpt lat="46.4272" lon="6.05285">
        <ele>1361.5999755859</ele>
        <time>2018-05-10T11:24:40.000Z</time>
      </trkpt>
      <trkpt lat="46.4272" lon="6.05287">
        <ele>1361.5999755859</ele>
        <time>2018-05-10T11:24:43.000Z</time>
      </trkpt>
      <trkpt lat="46.42718" lon="6.05286">
        <ele>1361.5999755859</ele>
        <time>2018-05-10T11:25:01.000Z</time>
      </trkpt>
      <trkpt lat="46.42718" lon="6.05284">
        <ele>1361.5999755859</ele>
        <time>2018-05-10T11:25:12.000Z</time>
      </trkpt>
      <trkpt lat="46.42717" lon="6.05283">
        <ele>1361.5999755859</ele>
        <time>2018-05-10T11:25:15.000Z</time>
      </trkpt>
      <trkpt lat="46.42716" lon="6.05282">
        <ele>1361.4000244141</ele>
        <time>2018-05-10T11:25:19.000Z</time>
      </trkpt>
      <trkpt lat="46.42716" lon="6.05287">
        <ele>1361.5999755859</ele>
        <time>2018-05-10T11:25:28.000Z</time>
      </trkpt>
      <trkpt lat="46.42715" lon="6.05286">
        <ele>1361.5999755859</ele>
        <time>2018-05-10T11:25:31.000Z</time>
      </trkpt>
      <trkpt lat="46.42714" lon="6.05286">
        <ele>1361.5999755859</ele>
        <time>2018-05-10T11:25:36.000Z</time>
      </trkpt>
      <trkpt lat="46.42715" lon="6.05286">
        <ele>1361.5999755859</ele>
        <time>2018-05-10T11:25:40.000Z</time>
      </trkpt>
      <trkpt lat="46.42712" lon="6.05285">
        <ele>1361.4000244141</ele>
        <time>2018-05-10T11:25:48.000Z</time>
      </trkpt>
      <trkpt lat="46.42711" lon="6.05286">
        <ele>1361.4000244141</ele>
        <time>2018-05-10T11:25:51.000Z</time>
      </trkpt>
      <trkpt lat="46.42712" lon="6.05286">
        <ele>1361.4000244141</ele>
        <time>2018-05-10T11:25:55.000Z</time>
      </trkpt>
      <trkpt lat="46.42713" lon="6.05284">
        <ele>1361.4000244141</ele>
        <time>2018-05-10T11:26:06.000Z</time>
      </trkpt>
      <trkpt lat="46.42714" lon="6.05282">
        <ele>1361.4000244141</ele>
        <time>2018-05-10T11:26:13.000Z</time>
      </trkpt>
      <trkpt lat="46.42714" lon="6.05282">
        <ele>1361.4000244141</ele>
        <time>2018-05-10T11:26:30.000Z</time>
      </trkpt>
      <trkpt lat="46.42716" lon="6.05285">
        <ele>1361.5999755859</ele>
        <time>2018-05-10T11:26:56.000Z</time>
      </trkpt>
      <trkpt lat="46.42713" lon="6.05284">
        <ele>1361.4000244141</ele>
        <time>2018-05-10T11:27:27.000Z</time>
      </trkpt>
      <trkpt lat="46.42715" lon="6.05283">
        <ele>1361.4000244141</ele>
        <time>2018-05-10T11:28:06.000Z</time>
      </trkpt>
      <trkpt lat="46.42713" lon="6.05285">
        <ele>1361.4000244141</ele>
        <time>2018-05-10T11:28:20.000Z</time>
      </trkpt>
      <trkpt lat="46.42713" lon="6.05287">
        <ele>1361.4000244141</ele>
        <time>2018-05-10T11:28:27.000Z</time>
      </trkpt>
      <trkpt lat="46.42716" lon="6.05284">
        <ele>1361.5999755859</ele>
        <time>2018-05-10T11:28:42.000Z</time>
      </trkpt>
      <trkpt lat="46.42716" lon="6.05281">
        <ele>1361.4000244141</ele>
        <time>2018-05-10T11:28:55.000Z</time>
      </trkpt>
      <trkpt lat="46.42715" lon="6.05278">
        <ele>1361.4000244141</ele>
        <time>2018-05-10T11:29:03.000Z</time>
      </trkpt>
      <trkpt lat="46.42714" lon="6.05277">
        <ele>1361.4000244141</ele>
        <time>2018-05-10T11:29:06.000Z</time>
      </trkpt>
      <trkpt lat="46.42716" lon="6.05276">
        <ele>1361.4000244141</ele>
        <time>2018-05-10T11:29:17.000Z</time>
      </trkpt>
      <trkpt lat="46.42717" lon="6.05278">
        <ele>1361.4000244141</ele>
        <time>2018-05-10T11:29:23.000Z</time>
      </trkpt>
      <trkpt lat="46.42718" lon="6.05284">
        <ele>1361.5999755859</ele>
        <time>2018-05-10T11:29:40.000Z</time>
      </trkpt>
      <trkpt lat="46.42718" lon="6.05285">
        <ele>1361.5999755859</ele>
        <time>2018-05-10T11:29:42.000Z</time>
      </trkpt>
      <trkpt lat="46.42717" lon="6.05283">
        <ele>1361.5999755859</ele>
        <time>2018-05-10T11:29:58.000Z</time>
      </trkpt>
      <trkpt lat="46.42716" lon="6.05281">
        <ele>1361.4000244141</ele>
        <time>2018-05-10T11:30:06.000Z</time>
      </trkpt>
      <trkpt lat="46.42715" lon="6.05283">
        <ele>1361.4000244141</ele>
        <time>2018-05-10T11:32:00.000Z</time>
      </trkpt>
      <trkpt lat="46.42715" lon="6.05284">
        <ele>1361.4000244141</ele>
        <time>2018-05-10T11:32:03.000Z</time>
      </trkpt>
      <trkpt lat="46.42716" lon="6.05281">
        <ele>1361.4000244141</ele>
        <time>2018-05-10T11:33:02.000Z</time>
      </trkpt>
      <trkpt lat="46.4272" lon="6.05281">
        <ele>1361.5999755859</ele>
        <time>2018-05-10T11:34:02.000Z</time>
      </trkpt>
      <trkpt lat="46.42721" lon="6.05281">
        <ele>1361.5999755859</ele>
        <time>2018-05-10T11:34:06.000Z</time>
      </trkpt>
      <trkpt lat="46.4272" lon="6.05286">
        <ele>1361.5999755859</ele>
        <time>2018-05-10T11:34:27.000Z</time>
      </trkpt>
      <trkpt lat="46.42722" lon="6.05284">
        <ele>1361.5999755859</ele>
        <time>2018-05-10T11:34:56.000Z</time>
      </trkpt>
      <trkpt lat="46.42722" lon="6.05282">
        <ele>1361.5999755859</ele>
        <time>2018-05-10T11:35:09.000Z</time>
      </trkpt>
      <trkpt lat="46.42721" lon="6.05281">
        <ele>1361.5999755859</ele>
        <time>2018-05-10T11:35:29.000Z</time>
      </trkpt>
      <trkpt lat="46.4272" lon="6.0528">
        <ele>1361.5999755859</ele>
        <time>2018-05-10T11:35:42.000Z</time>
      </trkpt>
      <trkpt lat="46.42719" lon="6.05282">
        <ele>1361.5999755859</ele>
        <time>2018-05-10T11:35:57.000Z</time>
      </trkpt>
      <trkpt lat="46.42719" lon="6.05283">
        <ele>1361.5999755859</ele>
        <time>2018-05-10T11:35:59.000Z</time>
      </trkpt>
      <trkpt lat="46.42718" lon="6.05285">
        <ele>1361.5999755859</ele>
        <time>2018-05-10T11:36:22.000Z</time>
      </trkpt>
      <trkpt lat="46.42716" lon="6.05284">
        <ele>1361.4000244141</ele>
        <time>2018-05-10T11:36:30.000Z</time>
      </trkpt>
      <trkpt lat="46.42715" lon="6.05283">
        <ele>1361.4000244141</ele>
        <time>2018-05-10T11:36:34.000Z</time>
      </trkpt>
      <trkpt lat="46.42714" lon="6.05281">
        <ele>1361.4000244141</ele>
        <time>2018-05-10T11:36:43.000Z</time>
      </trkpt>
      <trkpt lat="46.42714" lon="6.0528">
        <ele>1361.4000244141</ele>
        <time>2018-05-10T11:36:53.000Z</time>
      </trkpt>
      <trkpt lat="46.42715" lon="6.0528">
        <ele>1361.4000244141</ele>
        <time>2018-05-10T11:37:04.000Z</time>
      </trkpt>
      <trkpt lat="46.42718" lon="6.05289">
        <ele>1361.5999755859</ele>
        <time>2018-05-10T11:37:10.000Z</time>
      </trkpt>
      <trkpt lat="46.42718" lon="6.05291">
        <ele>1361.5999755859</ele>
        <time>2018-05-10T11:37:12.000Z</time>
      </trkpt>
      <trkpt lat="46.42718" lon="6.05296">
        <ele>1361.5999755859</ele>
        <time>2018-05-10T11:37:18.000Z</time>
      </trkpt>
      <trkpt lat="46.42718" lon="6.05292">
        <ele>1361.5999755859</ele>
        <time>2018-05-10T11:37:25.000Z</time>
      </trkpt>
      <trkpt lat="46.42718" lon="6.05292">
        <ele>1361.5999755859</ele>
        <time>2018-05-10T11:37:29.000Z</time>
      </trkpt>
      <trkpt lat="46.42716" lon="6.05292">
        <ele>1361.5999755859</ele>
        <time>2018-05-10T11:37:34.000Z</time>
      </trkpt>
      <trkpt lat="46.42717" lon="6.05296">
        <ele>1361.8000488281</ele>
        <time>2018-05-10T11:37:41.000Z</time>
      </trkpt>
      <trkpt lat="46.42717" lon="6.05296">
        <ele>1361.8000488281</ele>
        <time>2018-05-10T11:37:44.000Z</time>
      </trkpt>
      <trkpt lat="46.42713" lon="6.05299">
        <ele>1362.1999511719</ele>
        <time>2018-05-10T11:37:51.000Z</time>
      </trkpt>
      <trkpt lat="46.42716" lon="6.05296">
        <ele>1361.8000488281</ele>
        <time>2018-05-10T11:37:56.000Z</time>
      </trkpt>
      <trkpt lat="46.42716" lon="6.05296">
        <ele>1361.8000488281</ele>
        <time>2018-05-10T11:38:03.000Z</time>
      </trkpt>
      <trkpt lat="46.42717" lon="6.05295">
        <ele>1361.8000488281</ele>
        <time>2018-05-10T11:38:07.000Z</time>
      </trkpt>
      <trkpt lat="46.42719" lon="6.05295">
        <ele>1361.5999755859</ele>
        <time>2018-05-10T11:38:17.000Z</time>
      </trkpt>
      <trkpt lat="46.42719" lon="6.05296">
        <ele>1361.8000488281</ele>
        <time>2018-05-10T11:38:21.000Z</time>
      </trkpt>
      <trkpt lat="46.42721" lon="6.05294">
        <ele>1361.5999755859</ele>
        <time>2018-05-10T11:38:28.000Z</time>
      </trkpt>
      <trkpt lat="46.42721" lon="6.05295">
        <ele>1361.5999755859</ele>
        <time>2018-05-10T11:38:33.000Z</time>
      </trkpt>
      <trkpt lat="46.42719" lon="6.05296">
        <ele>1361.5999755859</ele>
        <time>2018-05-10T11:38:38.000Z</time>
      </trkpt>
      <trkpt lat="46.42719" lon="6.05297">
        <ele>1361.8000488281</ele>
        <time>2018-05-10T11:38:41.000Z</time>
      </trkpt>
      <trkpt lat="46.42719" lon="6.05297">
        <ele>1361.8000488281</ele>
        <time>2018-05-10T11:38:42.000Z</time>
      </trkpt>
      <trkpt lat="46.42719" lon="6.05294">
        <ele>1361.5999755859</ele>
        <time>2018-05-10T11:39:11.000Z</time>
      </trkpt>
      <trkpt lat="46.42718" lon="6.05292">
        <ele>1361.5999755859</ele>
        <time>2018-05-10T11:39:20.000Z</time>
      </trkpt>
      <trkpt lat="46.42716" lon="6.0529">
        <ele>1361.5999755859</ele>
        <time>2018-05-10T11:39:23.000Z</time>
      </trkpt>
      <trkpt lat="46.42717" lon="6.05291">
        <ele>1361.5999755859</ele>
        <time>2018-05-10T11:39:29.000Z</time>
      </trkpt>
      <trkpt lat="46.42717" lon="6.0529">
        <ele>1361.5999755859</ele>
        <time>2018-05-10T11:39:31.000Z</time>
      </trkpt>
      <trkpt lat="46.4272" lon="6.0529">
        <ele>1361.5999755859</ele>
        <time>2018-05-10T11:39:48.000Z</time>
      </trkpt>
      <trkpt lat="46.42723" lon="6.0529">
        <ele>1361.5999755859</ele>
        <time>2018-05-10T11:39:57.000Z</time>
      </trkpt>
      <trkpt lat="46.42721" lon="6.05297">
        <ele>1361.8000488281</ele>
        <time>2018-05-10T11:40:17.000Z</time>
      </trkpt>
      <trkpt lat="46.4272" lon="6.05298">
        <ele>1361.8000488281</ele>
        <time>2018-05-10T11:40:29.000Z</time>
      </trkpt>
      <trkpt lat="46.42721" lon="6.05296">
        <ele>1361.8000488281</ele>
        <time>2018-05-10T11:40:42.000Z</time>
      </trkpt>
      <trkpt lat="46.42721" lon="6.05296">
        <ele>1361.8000488281</ele>
        <time>2018-05-10T11:41:08.000Z</time>
      </trkpt>
      <trkpt lat="46.42716" lon="6.05291">
        <ele>1361.5999755859</ele>
        <time>2018-05-10T11:41:30.000Z</time>
      </trkpt>
      <trkpt lat="46.42722" lon="6.05292">
        <ele>1361.5999755859</ele>
        <time>2018-05-10T11:41:43.000Z</time>
      </trkpt>
      <trkpt lat="46.42718" lon="6.05294">
        <ele>1361.5999755859</ele>
        <time>2018-05-10T11:42:05.000Z</time>
      </trkpt>
      <trkpt lat="46.42715" lon="6.05298">
        <ele>1362</ele>
        <time>2018-05-10T11:42:25.000Z</time>
      </trkpt>
      <trkpt lat="46.42714" lon="6.05297">
        <ele>1362</ele>
        <time>2018-05-10T11:42:33.000Z</time>
      </trkpt>
      <trkpt lat="46.42713" lon="6.05295">
        <ele>1362</ele>
        <time>2018-05-10T11:42:40.000Z</time>
      </trkpt>
      <trkpt lat="46.42712" lon="6.05295">
        <ele>1362</ele>
        <time>2018-05-10T11:42:41.000Z</time>
      </trkpt>
      <trkpt lat="46.42705" lon="6.05295">
        <ele>1362.1999511719</ele>
        <time>2018-05-10T11:42:46.000Z</time>
      </trkpt>
      <trkpt lat="46.42691" lon="6.05294">
        <ele>1362.8000488281</ele>
        <time>2018-05-10T11:42:56.000Z</time>
      </trkpt>
      <trkpt lat="46.42681" lon="6.05289">
        <ele>1363</ele>
        <time>2018-05-10T11:43:05.000Z</time>
      </trkpt>
      <trkpt lat="46.42676" lon="6.05284">
        <ele>1362.8000488281</ele>
        <time>2018-05-10T11:43:11.000Z</time>
      </trkpt>
      <trkpt lat="46.42668" lon="6.05276">
        <ele>1362.5999755859</ele>
        <time>2018-05-10T11:43:19.000Z</time>
      </trkpt>
      <trkpt lat="46.42661" lon="6.05263">
        <ele>1362.1999511719</ele>
        <time>2018-05-10T11:43:28.000Z</time>
      </trkpt>
      <trkpt lat="46.4265" lon="6.05252">
        <ele>1361.8000488281</ele>
        <time>2018-05-10T11:43:38.000Z</time>
      </trkpt>
      <trkpt lat="46.4265" lon="6.0525">
        <ele>1361.8000488281</ele>
        <time>2018-05-10T11:43:39.000Z</time>
      </trkpt>
      <trkpt lat="46.42645" lon="6.05247">
        <ele>1361.5999755859</ele>
        <time>2018-05-10T11:43:43.000Z</time>
      </trkpt>
      <trkpt lat="46.42635" lon="6.05236">
        <ele>1361</ele>
        <time>2018-05-10T11:43:51.000Z</time>
      </trkpt>
      <trkpt lat="46.4263" lon="6.05228">
        <ele>1360.5999755859</ele>
        <time>2018-05-10T11:43:57.000Z</time>
      </trkpt>
      <trkpt lat="46.42622" lon="6.05218">
        <ele>1360.4000244141</ele>
        <time>2018-05-10T11:44:05.000Z</time>
      </trkpt>
      <trkpt lat="46.42616" lon="6.05214">
        <ele>1360.4000244141</ele>
        <time>2018-05-10T11:44:10.000Z</time>
      </trkpt>
      <trkpt lat="46.42609" lon="6.05206">
        <ele>1360.1999511719</ele>
        <time>2018-05-10T11:44:17.000Z</time>
      </trkpt>
      <trkpt lat="46.42601" lon="6.05201">
        <ele>1360.1999511719</ele>
        <time>2018-05-10T11:44:24.000Z</time>
      </trkpt>
      <trkpt lat="46.42595" lon="6.05197">
        <ele>1360.1999511719</ele>
        <time>2018-05-10T11:44:29.000Z</time>
      </trkpt>
      <trkpt lat="46.42584" lon="6.05192">
        <ele>1360.4000244141</ele>
        <time>2018-05-10T11:44:38.000Z</time>
      </trkpt>
      <trkpt lat="46.4257" lon="6.05187">
        <ele>1360.4000244141</ele>
        <time>2018-05-10T11:44:47.000Z</time>
      </trkpt>
      <trkpt lat="46.42558" lon="6.05181">
        <ele>1360</ele>
        <time>2018-05-10T11:44:55.000Z</time>
      </trkpt>
      <trkpt lat="46.42549" lon="6.05174">
        <ele>1359.4000244141</ele>
        <time>2018-05-10T11:45:02.000Z</time>
      </trkpt>
      <trkpt lat="46.42539" lon="6.05168">
        <ele>1358.5999755859</ele>
        <time>2018-05-10T11:45:10.000Z</time>
      </trkpt>
      <trkpt lat="46.42525" lon="6.05161">
        <ele>1357.8000488281</ele>
        <time>2018-05-10T11:45:19.000Z</time>
      </trkpt>
      <trkpt lat="46.42525" lon="6.05161">
        <ele>1357.8000488281</ele>
        <time>2018-05-10T11:45:19.000Z</time>
      </trkpt>
      <trkpt lat="46.42515" lon="6.05156">
        <ele>1357</ele>
        <time>2018-05-10T11:45:26.000Z</time>
      </trkpt>
      <trkpt lat="46.42512" lon="6.05155">
        <ele>1356.8000488281</ele>
        <time>2018-05-10T11:45:28.000Z</time>
      </trkpt>
      <trkpt lat="46.42496" lon="6.05152">
        <ele>1356</ele>
        <time>2018-05-10T11:45:38.000Z</time>
      </trkpt>
      <trkpt lat="46.42485" lon="6.0515">
        <ele>1355.1999511719</ele>
        <time>2018-05-10T11:45:45.000Z</time>
      </trkpt>
      <trkpt lat="46.42475" lon="6.05147">
        <ele>1354.8000488281</ele>
        <time>2018-05-10T11:45:52.000Z</time>
      </trkpt>
      <trkpt lat="46.42466" lon="6.05142">
        <ele>1354.4000244141</ele>
        <time>2018-05-10T11:45:59.000Z</time>
      </trkpt>
      <trkpt lat="46.42456" lon="6.0514">
        <ele>1354</ele>
        <time>2018-05-10T11:46:06.000Z</time>
      </trkpt>
      <trkpt lat="46.42442" lon="6.05135">
        <ele>1353.1999511719</ele>
        <time>2018-05-10T11:46:16.000Z</time>
      </trkpt>
      <trkpt lat="46.42428" lon="6.05133">
        <ele>1352.5999755859</ele>
        <time>2018-05-10T11:46:25.000Z</time>
      </trkpt>
      <trkpt lat="46.42418" lon="6.05129">
        <ele>1352.1999511719</ele>
        <time>2018-05-10T11:46:32.000Z</time>
      </trkpt>
      <trkpt lat="46.42416" lon="6.05128">
        <ele>1352</ele>
        <time>2018-05-10T11:46:33.000Z</time>
      </trkpt>
      <trkpt lat="46.42404" lon="6.05123">
        <ele>1351.4000244141</ele>
        <time>2018-05-10T11:46:42.000Z</time>
      </trkpt>
      <trkpt lat="46.42394" lon="6.05117">
        <ele>1350.8000488281</ele>
        <time>2018-05-10T11:46:50.000Z</time>
      </trkpt>
      <trkpt lat="46.42391" lon="6.05115">
        <ele>1350.5999755859</ele>
        <time>2018-05-10T11:46:52.000Z</time>
      </trkpt>
      <trkpt lat="46.42384" lon="6.05107">
        <ele>1350</ele>
        <time>2018-05-10T11:46:59.000Z</time>
      </trkpt>
      <trkpt lat="46.42371" lon="6.05097">
        <ele>1349</ele>
        <time>2018-05-10T11:47:09.000Z</time>
      </trkpt>
      <trkpt lat="46.42363" lon="6.05094">
        <ele>1348.5999755859</ele>
        <time>2018-05-10T11:47:16.000Z</time>
      </trkpt>
      <trkpt lat="46.42361" lon="6.05092">
        <ele>1348.4000244141</ele>
        <time>2018-05-10T11:47:18.000Z</time>
      </trkpt>
      <trkpt lat="46.42359" lon="6.05083">
        <ele>1348</ele>
        <time>2018-05-10T11:47:26.000Z</time>
      </trkpt>
      <trkpt lat="46.42358" lon="6.05083">
        <ele>1348</ele>
        <time>2018-05-10T11:47:28.000Z</time>
      </trkpt>
      <trkpt lat="46.42352" lon="6.05088">
        <ele>1347.8000488281</ele>
        <time>2018-05-10T11:47:33.000Z</time>
      </trkpt>
      <trkpt lat="46.42351" lon="6.05088">
        <ele>1347.8000488281</ele>
        <time>2018-05-10T11:47:37.000Z</time>
      </trkpt>
      <trkpt lat="46.42351" lon="6.05089">
        <ele>1347.8000488281</ele>
        <time>2018-05-10T11:47:41.000Z</time>
      </trkpt>
      <trkpt lat="46.42351" lon="6.05087">
        <ele>1347.5999755859</ele>
        <time>2018-05-10T11:47:45.000Z</time>
      </trkpt>
      <trkpt lat="46.42349" lon="6.05086">
        <ele>1347.5999755859</ele>
        <time>2018-05-10T11:47:52.000Z</time>
      </trkpt>
      <trkpt lat="46.42348" lon="6.05087">
        <ele>1347.5999755859</ele>
        <time>2018-05-10T11:48:01.000Z</time>
      </trkpt>
      <trkpt lat="46.42349" lon="6.05086">
        <ele>1347.5999755859</ele>
        <time>2018-05-10T11:48:07.000Z</time>
      </trkpt>
      <trkpt lat="46.42346" lon="6.05087">
        <ele>1347.4000244141</ele>
        <time>2018-05-10T11:48:16.000Z</time>
      </trkpt>
      <trkpt lat="46.42348" lon="6.05086">
        <ele>1347.5999755859</ele>
        <time>2018-05-10T11:48:24.000Z</time>
      </trkpt>
      <trkpt lat="46.4235" lon="6.05087">
        <ele>1347.5999755859</ele>
        <time>2018-05-10T11:48:29.000Z</time>
      </trkpt>
      <trkpt lat="46.4235" lon="6.05086">
        <ele>1347.5999755859</ele>
        <time>2018-05-10T11:48:32.000Z</time>
      </trkpt>
      <trkpt lat="46.4235" lon="6.05087">
        <ele>1347.5999755859</ele>
        <time>2018-05-10T11:48:35.000Z</time>
      </trkpt>
      <trkpt lat="46.4235" lon="6.05088">
        <ele>1347.5999755859</ele>
        <time>2018-05-10T11:48:40.000Z</time>
      </trkpt>
      <trkpt lat="46.42352" lon="6.05086">
        <ele>1347.8000488281</ele>
        <time>2018-05-10T11:48:51.000Z</time>
      </trkpt>
      <trkpt lat="46.42353" lon="6.05083">
        <ele>1347.5999755859</ele>
        <time>2018-05-10T11:49:02.000Z</time>
      </trkpt>
      <trkpt lat="46.42354" lon="6.05083">
        <ele>1347.5999755859</ele>
        <time>2018-05-10T11:49:14.000Z</time>
      </trkpt>
      <trkpt lat="46.42347" lon="6.05088">
        <ele>1347.5999755859</ele>
        <time>2018-05-10T11:49:22.000Z</time>
      </trkpt>
      <trkpt lat="46.42337" lon="6.05088">
        <ele>1346.8000488281</ele>
        <time>2018-05-10T11:49:30.000Z</time>
      </trkpt>
      <trkpt lat="46.42334" lon="6.05086">
        <ele>1346.4000244141</ele>
        <time>2018-05-10T11:49:35.000Z</time>
      </trkpt>
      <trkpt lat="46.42333" lon="6.05085">
        <ele>1346.4000244141</ele>
        <time>2018-05-10T11:49:37.000Z</time>
      </trkpt>
      <trkpt lat="46.42322" lon="6.05084">
        <ele>1345.4000244141</ele>
        <time>2018-05-10T11:49:45.000Z</time>
      </trkpt>
      <trkpt lat="46.42315" lon="6.05085">
        <ele>1344.5999755859</ele>
        <time>2018-05-10T11:49:52.000Z</time>
      </trkpt>
      <trkpt lat="46.4231" lon="6.05083">
        <ele>1344.5999755859</ele>
        <time>2018-05-10T11:49:56.000Z</time>
      </trkpt>
      <trkpt lat="46.42299" lon="6.05078">
        <ele>1344.1999511719</ele>
        <time>2018-05-10T11:50:04.000Z</time>
      </trkpt>
      <trkpt lat="46.4229" lon="6.05078">
        <ele>1343.8000488281</ele>
        <time>2018-05-10T11:50:11.000Z</time>
      </trkpt>
      <trkpt lat="46.42282" lon="6.05078">
        <ele>1343.5999755859</ele>
        <time>2018-05-10T11:50:19.000Z</time>
      </trkpt>
      <trkpt lat="46.4228" lon="6.05078">
        <ele>1343.4000244141</ele>
        <time>2018-05-10T11:50:25.000Z</time>
      </trkpt>
      <trkpt lat="46.42274" lon="6.05077">
        <ele>1343.4000244141</ele>
        <time>2018-05-10T11:50:32.000Z</time>
      </trkpt>
      <trkpt lat="46.42267" lon="6.05076">
        <ele>1343</ele>
        <time>2018-05-10T11:50:38.000Z</time>
      </trkpt>
      <trkpt lat="46.42258" lon="6.05075">
        <ele>1342.8000488281</ele>
        <time>2018-05-10T11:50:46.000Z</time>
      </trkpt>
      <trkpt lat="46.42249" lon="6.05072">
        <ele>1342.4000244141</ele>
        <time>2018-05-10T11:50:53.000Z</time>
      </trkpt>
      <trkpt lat="46.42238" lon="6.05074">
        <ele>1341.8000488281</ele>
        <time>2018-05-10T11:51:01.000Z</time>
      </trkpt>
      <trkpt lat="46.42223" lon="6.05073">
        <ele>1341.1999511719</ele>
        <time>2018-05-10T11:51:10.000Z</time>
      </trkpt>
      <trkpt lat="46.42216" lon="6.05073">
        <ele>1341.1999511719</ele>
        <time>2018-05-10T11:51:15.000Z</time>
      </trkpt>
      <trkpt lat="46.42214" lon="6.05072">
        <ele>1341.1999511719</ele>
        <time>2018-05-10T11:51:19.000Z</time>
      </trkpt>
      <trkpt lat="46.42201" lon="6.05068">
        <ele>1341.1999511719</ele>
        <time>2018-05-10T11:51:28.000Z</time>
      </trkpt>
      <trkpt lat="46.42191" lon="6.05062">
        <ele>1341.4000244141</ele>
        <time>2018-05-10T11:51:36.000Z</time>
      </trkpt>
      <trkpt lat="46.42179" lon="6.05058">
        <ele>1341.4000244141</ele>
        <time>2018-05-10T11:51:45.000Z</time>
      </trkpt>
      <trkpt lat="46.42172" lon="6.05054">
        <ele>1341.5999755859</ele>
        <time>2018-05-10T11:51:51.000Z</time>
      </trkpt>
      <trkpt lat="46.42162" lon="6.05053">
        <ele>1341.5999755859</ele>
        <time>2018-05-10T11:51:58.000Z</time>
      </trkpt>
      <trkpt lat="46.4215" lon="6.05049">
        <ele>1341.5999755859</ele>
        <time>2018-05-10T11:52:07.000Z</time>
      </trkpt>
      <trkpt lat="46.42143" lon="6.05042">
        <ele>1341.4000244141</ele>
        <time>2018-05-10T11:52:13.000Z</time>
      </trkpt>
      <trkpt lat="46.42133" lon="6.05037">
        <ele>1340.8000488281</ele>
        <time>2018-05-10T11:52:21.000Z</time>
      </trkpt>
      <trkpt lat="46.42123" lon="6.05032">
        <ele>1340.1999511719</ele>
        <time>2018-05-10T11:52:29.000Z</time>
      </trkpt>
      <trkpt lat="46.42117" lon="6.05029">
        <ele>1339.5999755859</ele>
        <time>2018-05-10T11:52:35.000Z</time>
      </trkpt>
      <trkpt lat="46.42112" lon="6.05024">
        <ele>1339.5999755859</ele>
        <time>2018-05-10T11:52:40.000Z</time>
      </trkpt>
      <trkpt lat="46.42099" lon="6.05012">
        <ele>1339</ele>
        <time>2018-05-10T11:52:50.000Z</time>
      </trkpt>
      <trkpt lat="46.42091" lon="6.05003">
        <ele>1338.8000488281</ele>
        <time>2018-05-10T11:52:59.000Z</time>
      </trkpt>
      <trkpt lat="46.42083" lon="6.04991">
        <ele>1338.8000488281</ele>
        <time>2018-05-10T11:53:06.000Z</time>
      </trkpt>
      <trkpt lat="46.42079" lon="6.04979">
        <ele>1339</ele>
        <time>2018-05-10T11:53:12.000Z</time>
      </trkpt>
      <trkpt lat="46.42077" lon="6.04964">
        <ele>1340.1999511719</ele>
        <time>2018-05-10T11:53:19.000Z</time>
      </trkpt>
      <trkpt lat="46.42072" lon="6.04952">
        <ele>1340.8000488281</ele>
        <time>2018-05-10T11:53:25.000Z</time>
      </trkpt>
      <trkpt lat="46.42066" lon="6.0493">
        <ele>1342.4000244141</ele>
        <time>2018-05-10T11:53:35.000Z</time>
      </trkpt>
      <trkpt lat="46.42063" lon="6.0492">
        <ele>1343.4000244141</ele>
        <time>2018-05-10T11:53:41.000Z</time>
      </trkpt>
      <trkpt lat="46.42061" lon="6.04909">
        <ele>1344.4000244141</ele>
        <time>2018-05-10T11:53:47.000Z</time>
      </trkpt>
      <trkpt lat="46.42058" lon="6.04891">
        <ele>1346.1999511719</ele>
        <time>2018-05-10T11:53:56.000Z</time>
      </trkpt>
      <trkpt lat="46.42056" lon="6.04878">
        <ele>1347.1999511719</ele>
        <time>2018-05-10T11:54:03.000Z</time>
      </trkpt>
      <trkpt lat="46.42055" lon="6.04868">
        <ele>1348</ele>
        <time>2018-05-10T11:54:09.000Z</time>
      </trkpt>
      <trkpt lat="46.42056" lon="6.04861">
        <ele>1348.5999755859</ele>
        <time>2018-05-10T11:54:13.000Z</time>
      </trkpt>
      <trkpt lat="46.42057" lon="6.04845">
        <ele>1349.5999755859</ele>
        <time>2018-05-10T11:54:22.000Z</time>
      </trkpt>
      <trkpt lat="46.42057" lon="6.04841">
        <ele>1349.8000488281</ele>
        <time>2018-05-10T11:54:24.000Z</time>
      </trkpt>
      <trkpt lat="46.42057" lon="6.04833">
        <ele>1350.5999755859</ele>
        <time>2018-05-10T11:54:28.000Z</time>
      </trkpt>
      <trkpt lat="46.42052" lon="6.0482">
        <ele>1351.5999755859</ele>
        <time>2018-05-10T11:54:35.000Z</time>
      </trkpt>
      <trkpt lat="46.42047" lon="6.04812">
        <ele>1352.1999511719</ele>
        <time>2018-05-10T11:54:42.000Z</time>
      </trkpt>
      <trkpt lat="46.42047" lon="6.04811">
        <ele>1352.4000244141</ele>
        <time>2018-05-10T11:54:43.000Z</time>
      </trkpt>
      <trkpt lat="46.42042" lon="6.04798">
        <ele>1353</ele>
        <time>2018-05-10T11:54:51.000Z</time>
      </trkpt>
      <trkpt lat="46.42042" lon="6.04797">
        <ele>1353.1999511719</ele>
        <time>2018-05-10T11:54:52.000Z</time>
      </trkpt>
      <trkpt lat="46.42037" lon="6.04786">
        <ele>1353.8000488281</ele>
        <time>2018-05-10T11:54:58.000Z</time>
      </trkpt>
      <trkpt lat="46.42033" lon="6.04777">
        <ele>1354.4000244141</ele>
        <time>2018-05-10T11:55:05.000Z</time>
      </trkpt>
      <trkpt lat="46.42031" lon="6.04773">
        <ele>1354.8000488281</ele>
        <time>2018-05-10T11:55:09.000Z</time>
      </trkpt>
      <trkpt lat="46.42029" lon="6.04771">
        <ele>1354.8000488281</ele>
        <time>2018-05-10T11:55:11.000Z</time>
      </trkpt>
      <trkpt lat="46.42026" lon="6.04766">
        <ele>1355.1999511719</ele>
        <time>2018-05-10T11:55:16.000Z</time>
      </trkpt>
      <trkpt lat="46.42024" lon="6.04764">
        <ele>1355.4000244141</ele>
        <time>2018-05-10T11:55:21.000Z</time>
      </trkpt>
      <trkpt lat="46.42022" lon="6.04767">
        <ele>1355</ele>
        <time>2018-05-10T11:55:28.000Z</time>
      </trkpt>
      <trkpt lat="46.42023" lon="6.04768">
        <ele>1355</ele>
        <time>2018-05-10T11:55:31.000Z</time>
      </trkpt>
      <trkpt lat="46.42024" lon="6.04768">
        <ele>1355</ele>
        <time>2018-05-10T11:55:35.000Z</time>
      </trkpt>
      <trkpt lat="46.42025" lon="6.0477">
        <ele>1354.8000488281</ele>
        <time>2018-05-10T11:55:41.000Z</time>
      </trkpt>
      <trkpt lat="46.42027" lon="6.04769">
        <ele>1355</ele>
        <time>2018-05-10T11:55:58.000Z</time>
      </trkpt>
      <trkpt lat="46.42029" lon="6.04769">
        <ele>1355</ele>
        <time>2018-05-10T11:56:05.000Z</time>
      </trkpt>
      <trkpt lat="46.4203" lon="6.0477">
        <ele>1355</ele>
        <time>2018-05-10T11:56:09.000Z</time>
      </trkpt>
      <trkpt lat="46.4202" lon="6.04755">
        <ele>1356.1999511719</ele>
        <time>2018-05-10T11:56:19.000Z</time>
      </trkpt>
      <trkpt lat="46.42018" lon="6.04753">
        <ele>1356.4000244141</ele>
        <time>2018-05-10T11:56:20.000Z</time>
      </trkpt>
      <trkpt lat="46.42016" lon="6.0475">
        <ele>1356.5999755859</ele>
        <time>2018-05-10T11:56:22.000Z</time>
      </trkpt>
      <trkpt lat="46.42014" lon="6.04749">
        <ele>1356.5999755859</ele>
        <time>2018-05-10T11:56:26.000Z</time>
      </trkpt>
      <trkpt lat="46.42009" lon="6.04751">
        <ele>1356.1999511719</ele>
        <time>2018-05-10T11:56:59.000Z</time>
      </trkpt>
      <trkpt lat="46.42001" lon="6.04744">
        <ele>1356.8000488281</ele>
        <time>2018-05-10T11:57:07.000Z</time>
      </trkpt>
      <trkpt lat="46.41994" lon="6.04739">
        <ele>1357.1999511719</ele>
        <time>2018-05-10T11:57:14.000Z</time>
      </trkpt>
      <trkpt lat="46.41985" lon="6.04734">
        <ele>1357.5999755859</ele>
        <time>2018-05-10T11:57:22.000Z</time>
      </trkpt>
      <trkpt lat="46.41978" lon="6.0473">
        <ele>1357.5999755859</ele>
        <time>2018-05-10T11:57:29.000Z</time>
      </trkpt>
      <trkpt lat="46.41976" lon="6.0473">
        <ele>1357.4000244141</ele>
        <time>2018-05-10T11:57:30.000Z</time>
      </trkpt>
      <trkpt lat="46.41967" lon="6.04727">
        <ele>1357</ele>
        <time>2018-05-10T11:57:37.000Z</time>
      </trkpt>
      <trkpt lat="46.4196" lon="6.04725">
        <ele>1356.5999755859</ele>
        <time>2018-05-10T11:57:44.000Z</time>
      </trkpt>
      <trkpt lat="46.41952" lon="6.04721">
        <ele>1356.5999755859</ele>
        <time>2018-05-10T11:57:51.000Z</time>
      </trkpt>
      <trkpt lat="46.41944" lon="6.04715">
        <ele>1356.5999755859</ele>
        <time>2018-05-10T11:57:59.000Z</time>
      </trkpt>
      <trkpt lat="46.41938" lon="6.04708">
        <ele>1357</ele>
        <time>2018-05-10T11:58:07.000Z</time>
      </trkpt>
      <trkpt lat="46.41934" lon="6.04698">
        <ele>1357.8000488281</ele>
        <time>2018-05-10T11:58:15.000Z</time>
      </trkpt>
      <trkpt lat="46.41933" lon="6.04696">
        <ele>1358</ele>
        <time>2018-05-10T11:58:19.000Z</time>
      </trkpt>
      <trkpt lat="46.41934" lon="6.04694">
        <ele>1358.1999511719</ele>
        <time>2018-05-10T11:58:30.000Z</time>
      </trkpt>
      <trkpt lat="46.41934" lon="6.04692">
        <ele>1358.4000244141</ele>
        <time>2018-05-10T11:58:33.000Z</time>
      </trkpt>
      <trkpt lat="46.41932" lon="6.04686">
        <ele>1358.8000488281</ele>
        <time>2018-05-10T11:58:44.000Z</time>
      </trkpt>
      <trkpt lat="46.41925" lon="6.04673">
        <ele>1359.5999755859</ele>
        <time>2018-05-10T11:58:53.000Z</time>
      </trkpt>
      <trkpt lat="46.41921" lon="6.04661">
        <ele>1360.4000244141</ele>
        <time>2018-05-10T11:59:00.000Z</time>
      </trkpt>
      <trkpt lat="46.41918" lon="6.04644">
        <ele>1361.8000488281</ele>
        <time>2018-05-10T11:59:10.000Z</time>
      </trkpt>
      <trkpt lat="46.41917" lon="6.04636">
        <ele>1362.1999511719</ele>
        <time>2018-05-10T11:59:14.000Z</time>
      </trkpt>
      <trkpt lat="46.41915" lon="6.04619">
        <ele>1363</ele>
        <time>2018-05-10T11:59:23.000Z</time>
      </trkpt>
      <trkpt lat="46.41916" lon="6.04604">
        <ele>1363.5999755859</ele>
        <time>2018-05-10T11:59:30.000Z</time>
      </trkpt>
      <trkpt lat="46.41916" lon="6.04592">
        <ele>1364.1999511719</ele>
        <time>2018-05-10T11:59:36.000Z</time>
      </trkpt>
      <trkpt lat="46.41917" lon="6.04577">
        <ele>1365</ele>
        <time>2018-05-10T11:59:43.000Z</time>
      </trkpt>
      <trkpt lat="46.41917" lon="6.04563">
        <ele>1366.1999511719</ele>
        <time>2018-05-10T11:59:50.000Z</time>
      </trkpt>
      <trkpt lat="46.41917" lon="6.04542">
        <ele>1367.1999511719</ele>
        <time>2018-05-10T12:00:00.000Z</time>
      </trkpt>
      <trkpt lat="46.41918" lon="6.04523">
        <ele>1368</ele>
        <time>2018-05-10T12:00:09.000Z</time>
      </trkpt>
      <trkpt lat="46.41919" lon="6.04511">
        <ele>1368.4000244141</ele>
        <time>2018-05-10T12:00:15.000Z</time>
      </trkpt>
      <trkpt lat="46.41919" lon="6.04511">
        <ele>1368.4000244141</ele>
        <time>2018-05-10T12:00:15.000Z</time>
      </trkpt>
      <trkpt lat="46.4192" lon="6.04505">
        <ele>1368.5999755859</ele>
        <time>2018-05-10T12:00:18.000Z</time>
      </trkpt>
      <trkpt lat="46.41919" lon="6.04487">
        <ele>1369.8000488281</ele>
        <time>2018-05-10T12:00:28.000Z</time>
      </trkpt>
      <trkpt lat="46.4192" lon="6.04474">
        <ele>1371</ele>
        <time>2018-05-10T12:00:36.000Z</time>
      </trkpt>
      <trkpt lat="46.41916" lon="6.04455">
        <ele>1371.8000488281</ele>
        <time>2018-05-10T12:00:46.000Z</time>
      </trkpt>
      <trkpt lat="46.41914" lon="6.04448">
        <ele>1372</ele>
        <time>2018-05-10T12:00:50.000Z</time>
      </trkpt>
      <trkpt lat="46.41913" lon="6.04438">
        <ele>1372.5999755859</ele>
        <time>2018-05-10T12:00:56.000Z</time>
      </trkpt>
      <trkpt lat="46.41909" lon="6.04426">
        <ele>1373</ele>
        <time>2018-05-10T12:01:04.000Z</time>
      </trkpt>
      <trkpt lat="46.41907" lon="6.04423">
        <ele>1373</ele>
        <time>2018-05-10T12:01:06.000Z</time>
      </trkpt>
      <trkpt lat="46.41902" lon="6.04409">
        <ele>1373.1999511719</ele>
        <time>2018-05-10T12:01:14.000Z</time>
      </trkpt>
      <trkpt lat="46.41901" lon="6.04407">
        <ele>1373.1999511719</ele>
        <time>2018-05-10T12:01:15.000Z</time>
      </trkpt>
      <trkpt lat="46.41898" lon="6.04396">
        <ele>1373.5999755859</ele>
        <time>2018-05-10T12:01:22.000Z</time>
      </trkpt>
      <trkpt lat="46.41897" lon="6.04385">
        <ele>1374.1999511719</ele>
        <time>2018-05-10T12:01:29.000Z</time>
      </trkpt>
      <trkpt lat="46.41896" lon="6.04375">
        <ele>1374.8000488281</ele>
        <time>2018-05-10T12:01:35.000Z</time>
      </trkpt>
      <trkpt lat="46.41897" lon="6.04364">
        <ele>1375.5999755859</ele>
        <time>2018-05-10T12:01:41.000Z</time>
      </trkpt>
      <trkpt lat="46.41899" lon="6.0435">
        <ele>1376.5999755859</ele>
        <time>2018-05-10T12:01:49.000Z</time>
      </trkpt>
      <trkpt lat="46.41902" lon="6.04337">
        <ele>1377.5999755859</ele>
        <time>2018-05-10T12:01:56.000Z</time>
      </trkpt>
      <trkpt lat="46.41903" lon="6.04335">
        <ele>1377.8000488281</ele>
        <time>2018-05-10T12:01:57.000Z</time>
      </trkpt>
      <trkpt lat="46.41906" lon="6.04325">
        <ele>1378.8000488281</ele>
        <time>2018-05-10T12:02:04.000Z</time>
      </trkpt>
      <trkpt lat="46.4191" lon="6.0431">
        <ele>1380</ele>
        <time>2018-05-10T12:02:12.000Z</time>
      </trkpt>
      <trkpt lat="46.41913" lon="6.04302">
        <ele>1380</ele>
        <time>2018-05-10T12:02:18.000Z</time>
      </trkpt>
      <trkpt lat="46.41916" lon="6.04299">
        <ele>1380.1999511719</ele>
        <time>2018-05-10T12:02:21.000Z</time>
      </trkpt>
      <trkpt lat="46.4192" lon="6.04293">
        <ele>1380.4000244141</ele>
        <time>2018-05-10T12:02:33.000Z</time>
      </trkpt>
      <trkpt lat="46.41919" lon="6.04292">
        <ele>1380.1999511719</ele>
        <time>2018-05-10T12:02:35.000Z</time>
      </trkpt>
      <trkpt lat="46.41915" lon="6.04288">
        <ele>1379.8000488281</ele>
        <time>2018-05-10T12:02:41.000Z</time>
      </trkpt>
      <trkpt lat="46.41912" lon="6.04289">
        <ele>1379.5999755859</ele>
        <time>2018-05-10T12:02:46.000Z</time>
      </trkpt>
      <trkpt lat="46.41911" lon="6.04291">
        <ele>1379.5999755859</ele>
        <time>2018-05-10T12:02:50.000Z</time>
      </trkpt>
      <trkpt lat="46.41911" lon="6.04292">
        <ele>1379.5999755859</ele>
        <time>2018-05-10T12:02:57.000Z</time>
      </trkpt>
      <trkpt lat="46.4191" lon="6.04294">
        <ele>1379.5999755859</ele>
        <time>2018-05-10T12:03:01.000Z</time>
      </trkpt>
      <trkpt lat="46.41914" lon="6.04295">
        <ele>1380</ele>
        <time>2018-05-10T12:03:08.000Z</time>
      </trkpt>
      <trkpt lat="46.41916" lon="6.04292">
        <ele>1380</ele>
        <time>2018-05-10T12:03:15.000Z</time>
      </trkpt>
      <trkpt lat="46.41915" lon="6.04292">
        <ele>1380</ele>
        <time>2018-05-10T12:03:18.000Z</time>
      </trkpt>
      <trkpt lat="46.41917" lon="6.04289">
        <ele>1380</ele>
        <time>2018-05-10T12:03:30.000Z</time>
      </trkpt>
      <trkpt lat="46.41925" lon="6.0428">
        <ele>1380.5999755859</ele>
        <time>2018-05-10T12:03:37.000Z</time>
      </trkpt>
      <trkpt lat="46.41931" lon="6.04267">
        <ele>1380.5999755859</ele>
        <time>2018-05-10T12:03:45.000Z</time>
      </trkpt>
      <trkpt lat="46.41932" lon="6.04259">
        <ele>1380.5999755859</ele>
        <time>2018-05-10T12:03:51.000Z</time>
      </trkpt>
      <trkpt lat="46.41931" lon="6.04254">
        <ele>1380.4000244141</ele>
        <time>2018-05-10T12:04:06.000Z</time>
      </trkpt>
      <trkpt lat="46.41929" lon="6.04256">
        <ele>1380.4000244141</ele>
        <time>2018-05-10T12:04:22.000Z</time>
      </trkpt>
      <trkpt lat="46.41929" lon="6.04251">
        <ele>1380.1999511719</ele>
        <time>2018-05-10T12:04:29.000Z</time>
      </trkpt>
      <trkpt lat="46.41932" lon="6.04234">
        <ele>1380.5999755859</ele>
        <time>2018-05-10T12:04:38.000Z</time>
      </trkpt>
      <trkpt lat="46.41933" lon="6.04229">
        <ele>1380.8000488281</ele>
        <time>2018-05-10T12:04:41.000Z</time>
      </trkpt>
      <trkpt lat="46.41935" lon="6.04215">
        <ele>1380.5999755859</ele>
        <time>2018-05-10T12:04:48.000Z</time>
      </trkpt>
      <trkpt lat="46.41935" lon="6.04213">
        <ele>1380.4000244141</ele>
        <time>2018-05-10T12:04:49.000Z</time>
      </trkpt>
      <trkpt lat="46.41939" lon="6.042">
        <ele>1380.4000244141</ele>
        <time>2018-05-10T12:04:58.000Z</time>
      </trkpt>
      <trkpt lat="46.41939" lon="6.04199">
        <ele>1380.4000244141</ele>
        <time>2018-05-10T12:05:01.000Z</time>
      </trkpt>
      <trkpt lat="46.41937" lon="6.04197">
        <ele>1380.1999511719</ele>
        <time>2018-05-10T12:05:11.000Z</time>
      </trkpt>
      <trkpt lat="46.41935" lon="6.04191">
        <ele>1379.5999755859</ele>
        <time>2018-05-10T12:05:15.000Z</time>
      </trkpt>
      <trkpt lat="46.41933" lon="6.04191">
        <ele>1379.4000244141</ele>
        <time>2018-05-10T12:05:19.000Z</time>
      </trkpt>
      <trkpt lat="46.41931" lon="6.04189">
        <ele>1379.1999511719</ele>
        <time>2018-05-10T12:05:47.000Z</time>
      </trkpt>
      <trkpt lat="46.41931" lon="6.04189">
        <ele>1379.1999511719</ele>
        <time>2018-05-10T12:05:48.000Z</time>
      </trkpt>
      <trkpt lat="46.41932" lon="6.04188">
        <ele>1379.1999511719</ele>
        <time>2018-05-10T12:05:56.000Z</time>
      </trkpt>
      <trkpt lat="46.41931" lon="6.04186">
        <ele>1379</ele>
        <time>2018-05-10T12:06:00.000Z</time>
      </trkpt>
      <trkpt lat="46.41927" lon="6.04166">
        <ele>1378</ele>
        <time>2018-05-10T12:06:10.000Z</time>
      </trkpt>
      <trkpt lat="46.41923" lon="6.04151">
        <ele>1377</ele>
        <time>2018-05-10T12:06:18.000Z</time>
      </trkpt>
      <trkpt lat="46.41915" lon="6.04137">
        <ele>1376</ele>
        <time>2018-05-10T12:06:27.000Z</time>
      </trkpt>
      <trkpt lat="46.41904" lon="6.04127">
        <ele>1375</ele>
        <time>2018-05-10T12:06:36.000Z</time>
      </trkpt>
      <trkpt lat="46.41896" lon="6.04122">
        <ele>1374.4000244141</ele>
        <time>2018-05-10T12:06:43.000Z</time>
      </trkpt>
      <trkpt lat="46.41895" lon="6.04121">
        <ele>1374.4000244141</ele>
        <time>2018-05-10T12:06:44.000Z</time>
      </trkpt>
      <trkpt lat="46.4189" lon="6.04118">
        <ele>1374</ele>
        <time>2018-05-10T12:06:50.000Z</time>
      </trkpt>
      <trkpt lat="46.41885" lon="6.04109">
        <ele>1374</ele>
        <time>2018-05-10T12:06:57.000Z</time>
      </trkpt>
      <trkpt lat="46.41881" lon="6.04105">
        <ele>1373.8000488281</ele>
        <time>2018-05-10T12:07:03.000Z</time>
      </trkpt>
      <trkpt lat="46.41879" lon="6.04099">
        <ele>1373.8000488281</ele>
        <time>2018-05-10T12:07:11.000Z</time>
      </trkpt>
      <trkpt lat="46.41875" lon="6.0409">
        <ele>1373.8000488281</ele>
        <time>2018-05-10T12:07:18.000Z</time>
      </trkpt>
      <trkpt lat="46.41872" lon="6.04085">
        <ele>1373.8000488281</ele>
        <time>2018-05-10T12:07:23.000Z</time>
      </trkpt>
      <trkpt lat="46.41868" lon="6.0408">
        <ele>1373.5999755859</ele>
        <time>2018-05-10T12:07:28.000Z</time>
      </trkpt>
      <trkpt lat="46.41866" lon="6.04077">
        <ele>1373.5999755859</ele>
        <time>2018-05-10T12:07:33.000Z</time>
      </trkpt>
      <trkpt lat="46.41862" lon="6.04074">
        <ele>1373.4000244141</ele>
        <time>2018-05-10T12:07:44.000Z</time>
      </trkpt>
      <trkpt lat="46.41861" lon="6.04075">
        <ele>1373.4000244141</ele>
        <time>2018-05-10T12:07:49.000Z</time>
      </trkpt>
      <trkpt lat="46.41859" lon="6.04077">
        <ele>1373.1999511719</ele>
        <time>2018-05-10T12:07:58.000Z</time>
      </trkpt>
      <trkpt lat="46.41862" lon="6.04069">
        <ele>1373.5999755859</ele>
        <time>2018-05-10T12:08:25.000Z</time>
      </trkpt>
      <trkpt lat="46.41862" lon="6.0407">
        <ele>1373.5999755859</ele>
        <time>2018-05-10T12:08:28.000Z</time>
      </trkpt>
      <trkpt lat="46.41864" lon="6.04071">
        <ele>1373.5999755859</ele>
        <time>2018-05-10T12:08:31.000Z</time>
      </trkpt>
      <trkpt lat="46.41865" lon="6.04074">
        <ele>1373.5999755859</ele>
        <time>2018-05-10T12:08:34.000Z</time>
      </trkpt>
      <trkpt lat="46.41866" lon="6.04079">
        <ele>1373.5999755859</ele>
        <time>2018-05-10T12:08:37.000Z</time>
      </trkpt>
      <trkpt lat="46.41871" lon="6.04084">
        <ele>1373.8000488281</ele>
        <time>2018-05-10T12:08:44.000Z</time>
      </trkpt>
      <trkpt lat="46.41872" lon="6.04087">
        <ele>1373.8000488281</ele>
        <time>2018-05-10T12:08:47.000Z</time>
      </trkpt>
      <trkpt lat="46.41876" lon="6.04098">
        <ele>1373.8000488281</ele>
        <time>2018-05-10T12:08:55.000Z</time>
      </trkpt>
      <trkpt lat="46.41878" lon="6.04104">
        <ele>1373.8000488281</ele>
        <time>2018-05-10T12:09:00.000Z</time>
      </trkpt>
      <trkpt lat="46.41879" lon="6.04106">
        <ele>1373.8000488281</ele>
        <time>2018-05-10T12:09:02.000Z</time>
      </trkpt>
      <trkpt lat="46.41886" lon="6.04111">
        <ele>1374</ele>
        <time>2018-05-10T12:09:10.000Z</time>
      </trkpt>
      <trkpt lat="46.41887" lon="6.04112">
        <ele>1374</ele>
        <time>2018-05-10T12:09:11.000Z</time>
      </trkpt>
      <trkpt lat="46.41893" lon="6.04119">
        <ele>1374.1999511719</ele>
        <time>2018-05-10T12:09:18.000Z</time>
      </trkpt>
      <trkpt lat="46.419" lon="6.04123">
        <ele>1374.5999755859</ele>
        <time>2018-05-10T12:09:24.000Z</time>
      </trkpt>
      <trkpt lat="46.41906" lon="6.04128">
        <ele>1375.1999511719</ele>
        <time>2018-05-10T12:09:29.000Z</time>
      </trkpt>
      <trkpt lat="46.41912" lon="6.04135">
        <ele>1375.5999755859</ele>
        <time>2018-05-10T12:09:35.000Z</time>
      </trkpt>
      <trkpt lat="46.41919" lon="6.04144">
        <ele>1376.1999511719</ele>
        <time>2018-05-10T12:09:42.000Z</time>
      </trkpt>
      <trkpt lat="46.41923" lon="6.04151">
        <ele>1377</ele>
        <time>2018-05-10T12:09:47.000Z</time>
      </trkpt>
      <trkpt lat="46.41928" lon="6.04164">
        <ele>1378</ele>
        <time>2018-05-10T12:09:54.000Z</time>
      </trkpt>
      <trkpt lat="46.41933" lon="6.04174">
        <ele>1378.8000488281</ele>
        <time>2018-05-10T12:10:00.000Z</time>
      </trkpt>
      <trkpt lat="46.41933" lon="6.04178">
        <ele>1379</ele>
        <time>2018-05-10T12:10:02.000Z</time>
      </trkpt>
      <trkpt lat="46.41935" lon="6.04188">
        <ele>1379.5999755859</ele>
        <time>2018-05-10T12:10:10.000Z</time>
      </trkpt>
      <trkpt lat="46.41935" lon="6.04188">
        <ele>1379.5999755859</ele>
        <time>2018-05-10T12:10:12.000Z</time>
      </trkpt>
      <trkpt lat="46.41932" lon="6.04184">
        <ele>1379</ele>
        <time>2018-05-10T12:10:29.000Z</time>
      </trkpt>
      <trkpt lat="46.41932" lon="6.04184">
        <ele>1379.1999511719</ele>
        <time>2018-05-10T12:10:33.000Z</time>
      </trkpt>
      <trkpt lat="46.41939" lon="6.04183">
        <ele>1379.8000488281</ele>
        <time>2018-05-10T12:10:52.000Z</time>
      </trkpt>
      <trkpt lat="46.41948" lon="6.04174">
        <ele>1380.4000244141</ele>
        <time>2018-05-10T12:11:01.000Z</time>
      </trkpt>
      <trkpt lat="46.41954" lon="6.04169">
        <ele>1381</ele>
        <time>2018-05-10T12:11:07.000Z</time>
      </trkpt>
      <trkpt lat="46.41959" lon="6.04162">
        <ele>1381.1999511719</ele>
        <time>2018-05-10T12:11:12.000Z</time>
      </trkpt>
      <trkpt lat="46.4196" lon="6.04161">
        <ele>1381.4000244141</ele>
        <time>2018-05-10T12:11:15.000Z</time>
      </trkpt>
      <trkpt lat="46.41961" lon="6.04159">
        <ele>1381.4000244141</ele>
        <time>2018-05-10T12:11:19.000Z</time>
      </trkpt>
      <trkpt lat="46.41967" lon="6.04147">
        <ele>1381.5999755859</ele>
        <time>2018-05-10T12:11:27.000Z</time>
      </trkpt>
      <trkpt lat="46.41968" lon="6.04146">
        <ele>1381.5999755859</ele>
        <time>2018-05-10T12:11:28.000Z</time>
      </trkpt>
      <trkpt lat="46.41975" lon="6.04135">
        <ele>1382.4000244141</ele>
        <time>2018-05-10T12:11:37.000Z</time>
      </trkpt>
      <trkpt lat="46.41981" lon="6.04126">
        <ele>1382.8000488281</ele>
        <time>2018-05-10T12:11:45.000Z</time>
      </trkpt>
      <trkpt lat="46.41985" lon="6.04112">
        <ele>1382.8000488281</ele>
        <time>2018-05-10T12:11:53.000Z</time>
      </trkpt>
      <trkpt lat="46.41987" lon="6.04106">
        <ele>1382.8000488281</ele>
        <time>2018-05-10T12:11:57.000Z</time>
      </trkpt>
      <trkpt lat="46.41988" lon="6.04104">
        <ele>1382.8000488281</ele>
        <time>2018-05-10T12:12:01.000Z</time>
      </trkpt>
      <trkpt lat="46.41988" lon="6.04103">
        <ele>1382.8000488281</ele>
        <time>2018-05-10T12:12:04.000Z</time>
      </trkpt>
      <trkpt lat="46.4199" lon="6.04098">
        <ele>1382.8000488281</ele>
        <time>2018-05-10T12:12:10.000Z</time>
      </trkpt>
      <trkpt lat="46.41991" lon="6.04096">
        <ele>1382.8000488281</ele>
        <time>2018-05-10T12:12:11.000Z</time>
      </trkpt>
      <trkpt lat="46.41994" lon="6.04086">
        <ele>1382.8000488281</ele>
        <time>2018-05-10T12:12:18.000Z</time>
      </trkpt>
      <trkpt lat="46.41997" lon="6.04073">
        <ele>1382.5999755859</ele>
        <time>2018-05-10T12:12:25.000Z</time>
      </trkpt>
      <trkpt lat="46.42" lon="6.0406">
        <ele>1382.5999755859</ele>
        <time>2018-05-10T12:12:33.000Z</time>
      </trkpt>
      <trkpt lat="46.42001" lon="6.04044">
        <ele>1383.1999511719</ele>
        <time>2018-05-10T12:12:41.000Z</time>
      </trkpt>
      <trkpt lat="46.42" lon="6.04035">
        <ele>1383.5999755859</ele>
        <time>2018-05-10T12:12:47.000Z</time>
      </trkpt>
      <trkpt lat="46.42" lon="6.04035">
        <ele>1383.5999755859</ele>
        <time>2018-05-10T12:12:48.000Z</time>
      </trkpt>
      <trkpt lat="46.41999" lon="6.04031">
        <ele>1383.5999755859</ele>
        <time>2018-05-10T12:12:54.000Z</time>
      </trkpt>
      <trkpt lat="46.41993" lon="6.04022">
        <ele>1383.8000488281</ele>
        <time>2018-05-10T12:13:04.000Z</time>
      </trkpt>
      <trkpt lat="46.41992" lon="6.04023">
        <ele>1383.5999755859</ele>
        <time>2018-05-10T12:13:08.000Z</time>
      </trkpt>
      <trkpt lat="46.41991" lon="6.04026">
        <ele>1383.5999755859</ele>
        <time>2018-05-10T12:13:14.000Z</time>
      </trkpt>
      <trkpt lat="46.4199" lon="6.04027">
        <ele>1383.4000244141</ele>
        <time>2018-05-10T12:13:26.000Z</time>
      </trkpt>
      <trkpt lat="46.4199" lon="6.04029">
        <ele>1383.4000244141</ele>
        <time>2018-05-10T12:13:32.000Z</time>
      </trkpt>
      <trkpt lat="46.41992" lon="6.04027">
        <ele>1383.5999755859</ele>
        <time>2018-05-10T12:13:36.000Z</time>
      </trkpt>
      <trkpt lat="46.41985" lon="6.04035">
        <ele>1383</ele>
        <time>2018-05-10T12:14:21.000Z</time>
      </trkpt>
      <trkpt lat="46.41986" lon="6.04033">
        <ele>1383</ele>
        <time>2018-05-10T12:14:28.000Z</time>
      </trkpt>
      <trkpt lat="46.41986" lon="6.04031">
        <ele>1383.1999511719</ele>
        <time>2018-05-10T12:14:31.000Z</time>
      </trkpt>
      <trkpt lat="46.41986" lon="6.04031">
        <ele>1383.1999511719</ele>
        <time>2018-05-10T12:14:32.000Z</time>
      </trkpt>
      <trkpt lat="46.41987" lon="6.04027">
        <ele>1383.4000244141</ele>
        <time>2018-05-10T12:14:39.000Z</time>
      </trkpt>
      <trkpt lat="46.41989" lon="6.04024">
        <ele>1383.5999755859</ele>
        <time>2018-05-10T12:14:53.000Z</time>
      </trkpt>
      <trkpt lat="46.41989" lon="6.04026">
        <ele>1383.4000244141</ele>
        <time>2018-05-10T12:14:56.000Z</time>
      </trkpt>
      <trkpt lat="46.41989" lon="6.04026">
        <ele>1383.4000244141</ele>
        <time>2018-05-10T12:15:01.000Z</time>
      </trkpt>
      <trkpt lat="46.41989" lon="6.04026">
        <ele>1383.4000244141</ele>
        <time>2018-05-10T12:15:04.000Z</time>
      </trkpt>
      <trkpt lat="46.41989" lon="6.04025">
        <ele>1383.5999755859</ele>
        <time>2018-05-10T12:15:11.000Z</time>
      </trkpt>
      <trkpt lat="46.41988" lon="6.04025">
        <ele>1383.4000244141</ele>
        <time>2018-05-10T12:15:16.000Z</time>
      </trkpt>
      <trkpt lat="46.41987" lon="6.0403">
        <ele>1383.1999511719</ele>
        <time>2018-05-10T12:15:26.000Z</time>
      </trkpt>
      <trkpt lat="46.41985" lon="6.04035">
        <ele>1383</ele>
        <time>2018-05-10T12:15:42.000Z</time>
      </trkpt>
      <trkpt lat="46.41991" lon="6.04027">
        <ele>1383.4000244141</ele>
        <time>2018-05-10T12:15:58.000Z</time>
      </trkpt>
      <trkpt lat="46.41982" lon="6.04014">
        <ele>1383.5999755859</ele>
        <time>2018-05-10T12:16:14.000Z</time>
      </trkpt>
      <trkpt lat="46.41975" lon="6.04008">
        <ele>1383.1999511719</ele>
        <time>2018-05-10T12:16:20.000Z</time>
      </trkpt>
      <trkpt lat="46.41966" lon="6.04">
        <ele>1382.5999755859</ele>
        <time>2018-05-10T12:16:30.000Z</time>
      </trkpt>
      <trkpt lat="46.41958" lon="6.03986">
        <ele>1382.1999511719</ele>
        <time>2018-05-10T12:16:38.000Z</time>
      </trkpt>
      <trkpt lat="46.4195" lon="6.03971">
        <ele>1382.4000244141</ele>
        <time>2018-05-10T12:16:46.000Z</time>
      </trkpt>
      <trkpt lat="46.41943" lon="6.03961">
        <ele>1382.4000244141</ele>
        <time>2018-05-10T12:16:54.000Z</time>
      </trkpt>
      <trkpt lat="46.41942" lon="6.03959">
        <ele>1382.4000244141</ele>
        <time>2018-05-10T12:16:56.000Z</time>
      </trkpt>
      <trkpt lat="46.41937" lon="6.03953">
        <ele>1382.4000244141</ele>
        <time>2018-05-10T12:17:02.000Z</time>
      </trkpt>
      <trkpt lat="46.41934" lon="6.0395">
        <ele>1382.1999511719</ele>
        <time>2018-05-10T12:17:05.000Z</time>
      </trkpt>
      <trkpt lat="46.41932" lon="6.03946">
        <ele>1382.4000244141</ele>
        <time>2018-05-10T12:17:09.000Z</time>
      </trkpt>
      <trkpt lat="46.41925" lon="6.03935">
        <ele>1382.4000244141</ele>
        <time>2018-05-10T12:17:19.000Z</time>
      </trkpt>
      <trkpt lat="46.41918" lon="6.03924">
        <ele>1382.5999755859</ele>
        <time>2018-05-10T12:17:27.000Z</time>
      </trkpt>
      <trkpt lat="46.41912" lon="6.03915">
        <ele>1382.8000488281</ele>
        <time>2018-05-10T12:17:34.000Z</time>
      </trkpt>
      <trkpt lat="46.41909" lon="6.03908">
        <ele>1382.8000488281</ele>
        <time>2018-05-10T12:17:41.000Z</time>
      </trkpt>
      <trkpt lat="46.41908" lon="6.03907">
        <ele>1382.8000488281</ele>
        <time>2018-05-10T12:17:42.000Z</time>
      </trkpt>
      <trkpt lat="46.41907" lon="6.03901">
        <ele>1383.1999511719</ele>
        <time>2018-05-10T12:17:46.000Z</time>
      </trkpt>
      <trkpt lat="46.41899" lon="6.03887">
        <ele>1383.5999755859</ele>
        <time>2018-05-10T12:17:56.000Z</time>
      </trkpt>
      <trkpt lat="46.41892" lon="6.03871">
        <ele>1383.8000488281</ele>
        <time>2018-05-10T12:18:07.000Z</time>
      </trkpt>
      <trkpt lat="46.41885" lon="6.03861">
        <ele>1383.5999755859</ele>
        <time>2018-05-10T12:18:15.000Z</time>
      </trkpt>
      <trkpt lat="46.4188" lon="6.03851">
        <ele>1383.8000488281</ele>
        <time>2018-05-10T12:18:22.000Z</time>
      </trkpt>
      <trkpt lat="46.41874" lon="6.03841">
        <ele>1383.8000488281</ele>
        <time>2018-05-10T12:18:30.000Z</time>
      </trkpt>
      <trkpt lat="46.4187" lon="6.03837">
        <ele>1383.5999755859</ele>
        <time>2018-05-10T12:18:36.000Z</time>
      </trkpt>
      <trkpt lat="46.41863" lon="6.03826">
        <ele>1383.4000244141</ele>
        <time>2018-05-10T12:18:43.000Z</time>
      </trkpt>
      <trkpt lat="46.41859" lon="6.03819">
        <ele>1383.5999755859</ele>
        <time>2018-05-10T12:18:47.000Z</time>
      </trkpt>
      <trkpt lat="46.41857" lon="6.03815">
        <ele>1383.5999755859</ele>
        <time>2018-05-10T12:18:50.000Z</time>
      </trkpt>
      <trkpt lat="46.41853" lon="6.03805">
        <ele>1383.5999755859</ele>
        <time>2018-05-10T12:18:56.000Z</time>
      </trkpt>
      <trkpt lat="46.41849" lon="6.03794">
        <ele>1383.1999511719</ele>
        <time>2018-05-10T12:19:02.000Z</time>
      </trkpt>
      <trkpt lat="46.41846" lon="6.03781">
        <ele>1383</ele>
        <time>2018-05-10T12:19:08.000Z</time>
      </trkpt>
      <trkpt lat="46.41842" lon="6.03771">
        <ele>1382.8000488281</ele>
        <time>2018-05-10T12:19:14.000Z</time>
      </trkpt>
      <trkpt lat="46.41837" lon="6.03762">
        <ele>1382.1999511719</ele>
        <time>2018-05-10T12:19:19.000Z</time>
      </trkpt>
      <trkpt lat="46.41834" lon="6.03749">
        <ele>1382.1999511719</ele>
        <time>2018-05-10T12:19:25.000Z</time>
      </trkpt>
      <trkpt lat="46.41831" lon="6.0374">
        <ele>1382.1999511719</ele>
        <time>2018-05-10T12:19:30.000Z</time>
      </trkpt>
      <trkpt lat="46.41828" lon="6.03732">
        <ele>1382</ele>
        <time>2018-05-10T12:19:35.000Z</time>
      </trkpt>
      <trkpt lat="46.41827" lon="6.03727">
        <ele>1382.4000244141</ele>
        <time>2018-05-10T12:19:38.000Z</time>
      </trkpt>
      <trkpt lat="46.41823" lon="6.03716">
        <ele>1382.1999511719</ele>
        <time>2018-05-10T12:19:45.000Z</time>
      </trkpt>
      <trkpt lat="46.41819" lon="6.03705">
        <ele>1381.8000488281</ele>
        <time>2018-05-10T12:19:51.000Z</time>
      </trkpt>
      <trkpt lat="46.41818" lon="6.03692">
        <ele>1382.1999511719</ele>
        <time>2018-05-10T12:19:58.000Z</time>
      </trkpt>
      <trkpt lat="46.41814" lon="6.0368">
        <ele>1381.8000488281</ele>
        <time>2018-05-10T12:20:06.000Z</time>
      </trkpt>
      <trkpt lat="46.41813" lon="6.03678">
        <ele>1381.8000488281</ele>
        <time>2018-05-10T12:20:07.000Z</time>
      </trkpt>
      <trkpt lat="46.41811" lon="6.03672">
        <ele>1381.8000488281</ele>
        <time>2018-05-10T12:20:11.000Z</time>
      </trkpt>
      <trkpt lat="46.41808" lon="6.03659">
        <ele>1381.8000488281</ele>
        <time>2018-05-10T12:20:18.000Z</time>
      </trkpt>
      <trkpt lat="46.41801" lon="6.03651">
        <ele>1380.8000488281</ele>
        <time>2018-05-10T12:20:25.000Z</time>
      </trkpt>
      <trkpt lat="46.41799" lon="6.03645">
        <ele>1380.5999755859</ele>
        <time>2018-05-10T12:20:30.000Z</time>
      </trkpt>
      <trkpt lat="46.41793" lon="6.03633">
        <ele>1380.8000488281</ele>
        <time>2018-05-10T12:20:37.000Z</time>
      </trkpt>
      <trkpt lat="46.41785" lon="6.03625">
        <ele>1380.4000244141</ele>
        <time>2018-05-10T12:20:43.000Z</time>
      </trkpt>
      <trkpt lat="46.41778" lon="6.0361">
        <ele>1380.8000488281</ele>
        <time>2018-05-10T12:20:51.000Z</time>
      </trkpt>
      <trkpt lat="46.41777" lon="6.03606">
        <ele>1381</ele>
        <time>2018-05-10T12:20:53.000Z</time>
      </trkpt>
      <trkpt lat="46.41772" lon="6.036">
        <ele>1380.8000488281</ele>
        <time>2018-05-10T12:20:57.000Z</time>
      </trkpt>
      <trkpt lat="46.41764" lon="6.03591">
        <ele>1380.4000244141</ele>
        <time>2018-05-10T12:21:04.000Z</time>
      </trkpt>
      <trkpt lat="46.41756" lon="6.03585">
        <ele>1379.4000244141</ele>
        <time>2018-05-10T12:21:11.000Z</time>
      </trkpt>
      <trkpt lat="46.41747" lon="6.03582">
        <ele>1378.1999511719</ele>
        <time>2018-05-10T12:21:18.000Z</time>
      </trkpt>
      <trkpt lat="46.41739" lon="6.0358">
        <ele>1376.8000488281</ele>
        <time>2018-05-10T12:21:26.000Z</time>
      </trkpt>
      <trkpt lat="46.41728" lon="6.03576">
        <ele>1375.5999755859</ele>
        <time>2018-05-10T12:21:34.000Z</time>
      </trkpt>
      <trkpt lat="46.41719" lon="6.0357">
        <ele>1375.4000244141</ele>
        <time>2018-05-10T12:21:41.000Z</time>
      </trkpt>
      <trkpt lat="46.4171" lon="6.03561">
        <ele>1375.5999755859</ele>
        <time>2018-05-10T12:21:49.000Z</time>
      </trkpt>
      <trkpt lat="46.41703" lon="6.03553">
        <ele>1376.1999511719</ele>
        <time>2018-05-10T12:21:56.000Z</time>
      </trkpt>
      <trkpt lat="46.41695" lon="6.03545">
        <ele>1376.5999755859</ele>
        <time>2018-05-10T12:22:02.000Z</time>
      </trkpt>
      <trkpt lat="46.41687" lon="6.03535">
        <ele>1377.4000244141</ele>
        <time>2018-05-10T12:22:10.000Z</time>
      </trkpt>
      <trkpt lat="46.41683" lon="6.03532">
        <ele>1377.5999755859</ele>
        <time>2018-05-10T12:22:16.000Z</time>
      </trkpt>
      <trkpt lat="46.41684" lon="6.0354">
        <ele>1376.4000244141</ele>
        <time>2018-05-10T12:22:52.000Z</time>
      </trkpt>
      <trkpt lat="46.41685" lon="6.03541">
        <ele>1376.1999511719</ele>
        <time>2018-05-10T12:22:54.000Z</time>
      </trkpt>
      <trkpt lat="46.41684" lon="6.0354">
        <ele>1376.4000244141</ele>
        <time>2018-05-10T12:23:04.000Z</time>
      </trkpt>
      <trkpt lat="46.41683" lon="6.0354">
        <ele>1376.1999511719</ele>
        <time>2018-05-10T12:23:35.000Z</time>
      </trkpt>
      <trkpt lat="46.41683" lon="6.03537">
        <ele>1376.5999755859</ele>
        <time>2018-05-10T12:23:42.000Z</time>
      </trkpt>
      <trkpt lat="46.41683" lon="6.03538">
        <ele>1376.4000244141</ele>
        <time>2018-05-10T12:23:48.000Z</time>
      </trkpt>
      <trkpt lat="46.41683" lon="6.03539">
        <ele>1376.4000244141</ele>
        <time>2018-05-10T12:24:00.000Z</time>
      </trkpt>
      <trkpt lat="46.4168" lon="6.03542">
        <ele>1375.5999755859</ele>
        <time>2018-05-10T12:24:08.000Z</time>
      </trkpt>
      <trkpt lat="46.41674" lon="6.03543">
        <ele>1375</ele>
        <time>2018-05-10T12:24:15.000Z</time>
      </trkpt>
      <trkpt lat="46.41665" lon="6.03544">
        <ele>1374</ele>
        <time>2018-05-10T12:24:24.000Z</time>
      </trkpt>
      <trkpt lat="46.41666" lon="6.03542">
        <ele>1374.4000244141</ele>
        <time>2018-05-10T12:24:30.000Z</time>
      </trkpt>
      <trkpt lat="46.41661" lon="6.03543">
        <ele>1373.8000488281</ele>
        <time>2018-05-10T12:24:41.000Z</time>
      </trkpt>
      <trkpt lat="46.41649" lon="6.03549">
        <ele>1371.5999755859</ele>
        <time>2018-05-10T12:24:50.000Z</time>
      </trkpt>
      <trkpt lat="46.41639" lon="6.03558">
        <ele>1370</ele>
        <time>2018-05-10T12:24:58.000Z</time>
      </trkpt>
      <trkpt lat="46.41631" lon="6.03564">
        <ele>1369.5999755859</ele>
        <time>2018-05-10T12:25:04.000Z</time>
      </trkpt>
      <trkpt lat="46.41624" lon="6.03574">
        <ele>1368.8000488281</ele>
        <time>2018-05-10T12:25:12.000Z</time>
      </trkpt>
      <trkpt lat="46.41621" lon="6.03578">
        <ele>1368.4000244141</ele>
        <time>2018-05-10T12:25:17.000Z</time>
      </trkpt>
      <trkpt lat="46.41619" lon="6.03583">
        <ele>1368</ele>
        <time>2018-05-10T12:25:22.000Z</time>
      </trkpt>
      <trkpt lat="46.41613" lon="6.03594">
        <ele>1367</ele>
        <time>2018-05-10T12:25:29.000Z</time>
      </trkpt>
      <trkpt lat="46.41604" lon="6.03603">
        <ele>1366.1999511719</ele>
        <time>2018-05-10T12:25:36.000Z</time>
      </trkpt>
      <trkpt lat="46.41592" lon="6.0361">
        <ele>1365</ele>
        <time>2018-05-10T12:25:45.000Z</time>
      </trkpt>
      <trkpt lat="46.41584" lon="6.03615">
        <ele>1364.4000244141</ele>
        <time>2018-05-10T12:25:51.000Z</time>
      </trkpt>
      <trkpt lat="46.41574" lon="6.03618">
        <ele>1363.8000488281</ele>
        <time>2018-05-10T12:25:58.000Z</time>
      </trkpt>
      <trkpt lat="46.41561" lon="6.03626">
        <ele>1362.5999755859</ele>
        <time>2018-05-10T12:26:07.000Z</time>
      </trkpt>
      <trkpt lat="46.4155" lon="6.03633">
        <ele>1361.8000488281</ele>
        <time>2018-05-10T12:26:15.000Z</time>
      </trkpt>
      <trkpt lat="46.41542" lon="6.03636">
        <ele>1361.8000488281</ele>
        <time>2018-05-10T12:26:21.000Z</time>
      </trkpt>
      <trkpt lat="46.41533" lon="6.03634">
        <ele>1362</ele>
        <time>2018-05-10T12:26:27.000Z</time>
      </trkpt>
      <trkpt lat="46.41521" lon="6.03634">
        <ele>1362.1999511719</ele>
        <time>2018-05-10T12:26:36.000Z</time>
      </trkpt>
      <trkpt lat="46.41512" lon="6.03634">
        <ele>1362.1999511719</ele>
        <time>2018-05-10T12:26:42.000Z</time>
      </trkpt>
      <trkpt lat="46.41508" lon="6.03633">
        <ele>1362.4000244141</ele>
        <time>2018-05-10T12:26:45.000Z</time>
      </trkpt>
      <trkpt lat="46.41507" lon="6.03632">
        <ele>1362.4000244141</ele>
        <time>2018-05-10T12:26:48.000Z</time>
      </trkpt>
      <trkpt lat="46.41506" lon="6.03632">
        <ele>1362.4000244141</ele>
        <time>2018-05-10T12:26:51.000Z</time>
      </trkpt>
      <trkpt lat="46.41495" lon="6.03629">
        <ele>1362.8000488281</ele>
        <time>2018-05-10T12:26:59.000Z</time>
      </trkpt>
      <trkpt lat="46.41484" lon="6.03622">
        <ele>1363.4000244141</ele>
        <time>2018-05-10T12:27:07.000Z</time>
      </trkpt>
      <trkpt lat="46.41472" lon="6.03614">
        <ele>1364</ele>
        <time>2018-05-10T12:27:17.000Z</time>
      </trkpt>
      <trkpt lat="46.41463" lon="6.03611">
        <ele>1364</ele>
        <time>2018-05-10T12:27:24.000Z</time>
      </trkpt>
      <trkpt lat="46.41455" lon="6.03608">
        <ele>1364.1999511719</ele>
        <time>2018-05-10T12:27:32.000Z</time>
      </trkpt>
      <trkpt lat="46.41454" lon="6.03609">
        <ele>1364</ele>
        <time>2018-05-10T12:27:33.000Z</time>
      </trkpt>
      <trkpt lat="46.41445" lon="6.03607">
        <ele>1364.1999511719</ele>
        <time>2018-05-10T12:27:40.000Z</time>
      </trkpt>
      <trkpt lat="46.41435" lon="6.03614">
        <ele>1365.1999511719</ele>
        <time>2018-05-10T12:27:48.000Z</time>
      </trkpt>
      <trkpt lat="46.41425" lon="6.03621">
        <ele>1366.1999511719</ele>
        <time>2018-05-10T12:27:56.000Z</time>
      </trkpt>
      <trkpt lat="46.41416" lon="6.03625">
        <ele>1367.1999511719</ele>
        <time>2018-05-10T12:28:03.000Z</time>
      </trkpt>
      <trkpt lat="46.41406" lon="6.03627">
        <ele>1368</ele>
        <time>2018-05-10T12:28:11.000Z</time>
      </trkpt>
      <trkpt lat="46.41398" lon="6.03629">
        <ele>1368.8000488281</ele>
        <time>2018-05-10T12:28:17.000Z</time>
      </trkpt>
      <trkpt lat="46.41388" lon="6.03629">
        <ele>1369.4000244141</ele>
        <time>2018-05-10T12:28:24.000Z</time>
      </trkpt>
      <trkpt lat="46.41385" lon="6.03628">
        <ele>1369.5999755859</ele>
        <time>2018-05-10T12:28:26.000Z</time>
      </trkpt>
      <trkpt lat="46.4138" lon="6.03622">
        <ele>1369.8000488281</ele>
        <time>2018-05-10T12:28:32.000Z</time>
      </trkpt>
      <trkpt lat="46.41365" lon="6.03617">
        <ele>1370.4000244141</ele>
        <time>2018-05-10T12:28:44.000Z</time>
      </trkpt>
      <trkpt lat="46.41356" lon="6.03613">
        <ele>1370.8000488281</ele>
        <time>2018-05-10T12:28:50.000Z</time>
      </trkpt>
      <trkpt lat="46.4135" lon="6.03611">
        <ele>1371</ele>
        <time>2018-05-10T12:28:55.000Z</time>
      </trkpt>
      <trkpt lat="46.4134" lon="6.03606">
        <ele>1371.1999511719</ele>
        <time>2018-05-10T12:29:03.000Z</time>
      </trkpt>
      <trkpt lat="46.4133" lon="6.03596">
        <ele>1371.8000488281</ele>
        <time>2018-05-10T12:29:12.000Z</time>
      </trkpt>
      <trkpt lat="46.41324" lon="6.0359">
        <ele>1372</ele>
        <time>2018-05-10T12:29:19.000Z</time>
      </trkpt>
      <trkpt lat="46.41318" lon="6.03584">
        <ele>1372.4000244141</ele>
        <time>2018-05-10T12:29:25.000Z</time>
      </trkpt>
      <trkpt lat="46.41312" lon="6.03579">
        <ele>1372.8000488281</ele>
        <time>2018-05-10T12:29:31.000Z</time>
      </trkpt>
      <trkpt lat="46.41305" lon="6.03575">
        <ele>1374</ele>
        <time>2018-05-10T12:29:38.000Z</time>
      </trkpt>
      <trkpt lat="46.41299" lon="6.03574">
        <ele>1374.8000488281</ele>
        <time>2018-05-10T12:29:44.000Z</time>
      </trkpt>
      <trkpt lat="46.41293" lon="6.03574">
        <ele>1375.5999755859</ele>
        <time>2018-05-10T12:29:51.000Z</time>
      </trkpt>
      <trkpt lat="46.41292" lon="6.03574">
        <ele>1375.5999755859</ele>
        <time>2018-05-10T12:29:52.000Z</time>
      </trkpt>
      <trkpt lat="46.41283" lon="6.03577">
        <ele>1376.8000488281</ele>
        <time>2018-05-10T12:30:00.000Z</time>
      </trkpt>
      <trkpt lat="46.41281" lon="6.03577">
        <ele>1377</ele>
        <time>2018-05-10T12:30:01.000Z</time>
      </trkpt>
      <trkpt lat="46.4128" lon="6.03577">
        <ele>1377.1999511719</ele>
        <time>2018-05-10T12:30:04.000Z</time>
      </trkpt>
      <trkpt lat="46.41277" lon="6.03575">
        <ele>1377.5999755859</ele>
        <time>2018-05-10T12:30:10.000Z</time>
      </trkpt>
      <trkpt lat="46.41277" lon="6.03575">
        <ele>1377.5999755859</ele>
        <time>2018-05-10T12:30:11.000Z</time>
      </trkpt>
      <trkpt lat="46.41277" lon="6.03573">
        <ele>1377.5999755859</ele>
        <time>2018-05-10T12:30:23.000Z</time>
      </trkpt>
      <trkpt lat="46.41277" lon="6.03572">
        <ele>1377.8000488281</ele>
        <time>2018-05-10T12:30:34.000Z</time>
      </trkpt>
      <trkpt lat="46.41275" lon="6.03576">
        <ele>1377.8000488281</ele>
        <time>2018-05-10T12:31:20.000Z</time>
      </trkpt>
      <trkpt lat="46.41275" lon="6.03576">
        <ele>1377.8000488281</ele>
        <time>2018-05-10T12:31:21.000Z</time>
      </trkpt>
      <trkpt lat="46.41274" lon="6.03578">
        <ele>1378</ele>
        <time>2018-05-10T12:31:39.000Z</time>
      </trkpt>
      <trkpt lat="46.41272" lon="6.03578">
        <ele>1378.1999511719</ele>
        <time>2018-05-10T12:32:01.000Z</time>
      </trkpt>
      <trkpt lat="46.41261" lon="6.03572">
        <ele>1379.8000488281</ele>
        <time>2018-05-10T12:32:08.000Z</time>
      </trkpt>
      <trkpt lat="46.41248" lon="6.03568">
        <ele>1381.5999755859</ele>
        <time>2018-05-10T12:32:16.000Z</time>
      </trkpt>
      <trkpt lat="46.41244" lon="6.03568">
        <ele>1382.1999511719</ele>
        <time>2018-05-10T12:32:19.000Z</time>
      </trkpt>
      <trkpt lat="46.41239" lon="6.03566">
        <ele>1383</ele>
        <time>2018-05-10T12:32:23.000Z</time>
      </trkpt>
      <trkpt lat="46.41229" lon="6.0356">
        <ele>1384.4000244141</ele>
        <time>2018-05-10T12:32:30.000Z</time>
      </trkpt>
      <trkpt lat="46.41222" lon="6.03551">
        <ele>1384.8000488281</ele>
        <time>2018-05-10T12:32:36.000Z</time>
      </trkpt>
      <trkpt lat="46.41213" lon="6.03537">
        <ele>1385.4000244141</ele>
        <time>2018-05-10T12:32:44.000Z</time>
      </trkpt>
      <trkpt lat="46.41204" lon="6.03523">
        <ele>1385.8000488281</ele>
        <time>2018-05-10T12:32:52.000Z</time>
      </trkpt>
      <trkpt lat="46.41197" lon="6.03511">
        <ele>1386.1999511719</ele>
        <time>2018-05-10T12:32:59.000Z</time>
      </trkpt>
      <trkpt lat="46.41189" lon="6.035">
        <ele>1386.8000488281</ele>
        <time>2018-05-10T12:33:06.000Z</time>
      </trkpt>
      <trkpt lat="46.41183" lon="6.03491">
        <ele>1387</ele>
        <time>2018-05-10T12:33:12.000Z</time>
      </trkpt>
      <trkpt lat="46.41179" lon="6.03484">
        <ele>1387.4000244141</ele>
        <time>2018-05-10T12:33:16.000Z</time>
      </trkpt>
      <trkpt lat="46.41178" lon="6.03478">
        <ele>1387.1999511719</ele>
        <time>2018-05-10T12:33:18.000Z</time>
      </trkpt>
      <trkpt lat="46.41176" lon="6.03469">
        <ele>1387.1999511719</ele>
        <time>2018-05-10T12:33:22.000Z</time>
      </trkpt>
      <trkpt lat="46.41169" lon="6.03455">
        <ele>1387.4000244141</ele>
        <time>2018-05-10T12:33:29.000Z</time>
      </trkpt>
      <trkpt lat="46.4116" lon="6.03443">
        <ele>1387.8000488281</ele>
        <time>2018-05-10T12:33:36.000Z</time>
      </trkpt>
      <trkpt lat="46.41151" lon="6.03432">
        <ele>1388.1999511719</ele>
        <time>2018-05-10T12:33:43.000Z</time>
      </trkpt>
      <trkpt lat="46.41143" lon="6.03428">
        <ele>1388.8000488281</ele>
        <time>2018-05-10T12:33:48.000Z</time>
      </trkpt>
      <trkpt lat="46.41133" lon="6.03423">
        <ele>1389.4000244141</ele>
        <time>2018-05-10T12:33:54.000Z</time>
      </trkpt>
      <trkpt lat="46.41122" lon="6.03414">
        <ele>1390</ele>
        <time>2018-05-10T12:34:02.000Z</time>
      </trkpt>
      <trkpt lat="46.41118" lon="6.03401">
        <ele>1390</ele>
        <time>2018-05-10T12:34:09.000Z</time>
      </trkpt>
      <trkpt lat="46.41109" lon="6.03393">
        <ele>1390.4000244141</ele>
        <time>2018-05-10T12:34:17.000Z</time>
      </trkpt>
      <trkpt lat="46.41102" lon="6.03384">
        <ele>1390.5999755859</ele>
        <time>2018-05-10T12:34:24.000Z</time>
      </trkpt>
      <trkpt lat="46.411" lon="6.03382">
        <ele>1390.8000488281</ele>
        <time>2018-05-10T12:34:26.000Z</time>
      </trkpt>
      <trkpt lat="46.41099" lon="6.03381">
        <ele>1390.8000488281</ele>
        <time>2018-05-10T12:34:27.000Z</time>
      </trkpt>
      <trkpt lat="46.41099" lon="6.03381">
        <ele>1390.8000488281</ele>
        <time>2018-05-10T12:34:27.000Z</time>
      </trkpt>
      <trkpt lat="46.41092" lon="6.03374">
        <ele>1391</ele>
        <time>2018-05-10T12:34:34.000Z</time>
      </trkpt>
      <trkpt lat="46.41086" lon="6.0337">
        <ele>1391.4000244141</ele>
        <time>2018-05-10T12:34:41.000Z</time>
      </trkpt>
      <trkpt lat="46.4108" lon="6.03368">
        <ele>1391.8000488281</ele>
        <time>2018-05-10T12:34:48.000Z</time>
      </trkpt>
      <trkpt lat="46.41074" lon="6.0336">
        <ele>1392.1999511719</ele>
        <time>2018-05-10T12:34:55.000Z</time>
      </trkpt>
      <trkpt lat="46.41068" lon="6.03357">
        <ele>1392.4000244141</ele>
        <time>2018-05-10T12:35:01.000Z</time>
      </trkpt>
      <trkpt lat="46.4106" lon="6.03351">
        <ele>1393</ele>
        <time>2018-05-10T12:35:10.000Z</time>
      </trkpt>
      <trkpt lat="46.41053" lon="6.03344">
        <ele>1393.4000244141</ele>
        <time>2018-05-10T12:35:17.000Z</time>
      </trkpt>
      <trkpt lat="46.41047" lon="6.03336">
        <ele>1393.8000488281</ele>
        <time>2018-05-10T12:35:23.000Z</time>
      </trkpt>
      <trkpt lat="46.41039" lon="6.0332">
        <ele>1394</ele>
        <time>2018-05-10T12:35:33.000Z</time>
      </trkpt>
      <trkpt lat="46.41034" lon="6.03314">
        <ele>1394.1999511719</ele>
        <time>2018-05-10T12:35:38.000Z</time>
      </trkpt>
      <trkpt lat="46.41034" lon="6.03311">
        <ele>1394.1999511719</ele>
        <time>2018-05-10T12:35:42.000Z</time>
      </trkpt>
      <trkpt lat="46.41033" lon="6.03309">
        <ele>1394</ele>
        <time>2018-05-10T12:35:47.000Z</time>
      </trkpt>
      <trkpt lat="46.41024" lon="6.03295">
        <ele>1393.4000244141</ele>
        <time>2018-05-10T12:35:58.000Z</time>
      </trkpt>
      <trkpt lat="46.41017" lon="6.03291">
        <ele>1393.5999755859</ele>
        <time>2018-05-10T12:36:03.000Z</time>
      </trkpt>
      <trkpt lat="46.41007" lon="6.03283">
        <ele>1393.8000488281</ele>
        <time>2018-05-10T12:36:11.000Z</time>
      </trkpt>
      <trkpt lat="46.41002" lon="6.0328">
        <ele>1394</ele>
        <time>2018-05-10T12:36:16.000Z</time>
      </trkpt>
      <trkpt lat="46.40997" lon="6.03276">
        <ele>1394</ele>
        <time>2018-05-10T12:36:20.000Z</time>
      </trkpt>
      <trkpt lat="46.40994" lon="6.03269">
        <ele>1393.4000244141</ele>
        <time>2018-05-10T12:36:25.000Z</time>
      </trkpt>
      <trkpt lat="46.40994" lon="6.03267">
        <ele>1393.4000244141</ele>
        <time>2018-05-10T12:36:26.000Z</time>
      </trkpt>
      <trkpt lat="46.40987" lon="6.03259">
        <ele>1393.1999511719</ele>
        <time>2018-05-10T12:36:33.000Z</time>
      </trkpt>
      <trkpt lat="46.40979" lon="6.03245">
        <ele>1392.4000244141</ele>
        <time>2018-05-10T12:36:41.000Z</time>
      </trkpt>
      <trkpt lat="46.40969" lon="6.03232">
        <ele>1391.5999755859</ele>
        <time>2018-05-10T12:36:50.000Z</time>
      </trkpt>
      <trkpt lat="46.40961" lon="6.03218">
        <ele>1390.5999755859</ele>
        <time>2018-05-10T12:36:59.000Z</time>
      </trkpt>
      <trkpt lat="46.40953" lon="6.03205">
        <ele>1389.5999755859</ele>
        <time>2018-05-10T12:37:08.000Z</time>
      </trkpt>
      <trkpt lat="46.40948" lon="6.03193">
        <ele>1388.4000244141</ele>
        <time>2018-05-10T12:37:15.000Z</time>
      </trkpt>
      <trkpt lat="46.40945" lon="6.03183">
        <ele>1388</ele>
        <time>2018-05-10T12:37:21.000Z</time>
      </trkpt>
      <trkpt lat="46.4094" lon="6.0317">
        <ele>1387.4000244141</ele>
        <time>2018-05-10T12:37:29.000Z</time>
      </trkpt>
      <trkpt lat="46.40941" lon="6.03169">
        <ele>1387.1999511719</ele>
        <time>2018-05-10T12:37:31.000Z</time>
      </trkpt>
      <trkpt lat="46.40938" lon="6.03163">
        <ele>1387</ele>
        <time>2018-05-10T12:37:36.000Z</time>
      </trkpt>
      <trkpt lat="46.40936" lon="6.0316">
        <ele>1386.8000488281</ele>
        <time>2018-05-10T12:37:38.000Z</time>
      </trkpt>
      <trkpt lat="46.40935" lon="6.03158">
        <ele>1386.8000488281</ele>
        <time>2018-05-10T12:37:41.000Z</time>
      </trkpt>
      <trkpt lat="46.40923" lon="6.03146">
        <ele>1386.1999511719</ele>
        <time>2018-05-10T12:37:52.000Z</time>
      </trkpt>
      <trkpt lat="46.40909" lon="6.03139">
        <ele>1385.8000488281</ele>
        <time>2018-05-10T12:38:02.000Z</time>
      </trkpt>
      <trkpt lat="46.40899" lon="6.03136">
        <ele>1385.5999755859</ele>
        <time>2018-05-10T12:38:09.000Z</time>
      </trkpt>
      <trkpt lat="46.40892" lon="6.03125">
        <ele>1385.4000244141</ele>
        <time>2018-05-10T12:38:17.000Z</time>
      </trkpt>
      <trkpt lat="46.40884" lon="6.03114">
        <ele>1385.1999511719</ele>
        <time>2018-05-10T12:38:25.000Z</time>
      </trkpt>
      <trkpt lat="46.40877" lon="6.03102">
        <ele>1384.8000488281</ele>
        <time>2018-05-10T12:38:33.000Z</time>
      </trkpt>
      <trkpt lat="46.40868" lon="6.03088">
        <ele>1384.4000244141</ele>
        <time>2018-05-10T12:38:43.000Z</time>
      </trkpt>
      <trkpt lat="46.40857" lon="6.03074">
        <ele>1384.1999511719</ele>
        <time>2018-05-10T12:38:53.000Z</time>
      </trkpt>
      <trkpt lat="46.40847" lon="6.03065">
        <ele>1384.1999511719</ele>
        <time>2018-05-10T12:39:02.000Z</time>
      </trkpt>
      <trkpt lat="46.40838" lon="6.03058">
        <ele>1384.1999511719</ele>
        <time>2018-05-10T12:39:09.000Z</time>
      </trkpt>
      <trkpt lat="46.40828" lon="6.03052">
        <ele>1383.8000488281</ele>
        <time>2018-05-10T12:39:17.000Z</time>
      </trkpt>
      <trkpt lat="46.40818" lon="6.03044">
        <ele>1383.4000244141</ele>
        <time>2018-05-10T12:39:26.000Z</time>
      </trkpt>
      <trkpt lat="46.40808" lon="6.03039">
        <ele>1383.5999755859</ele>
        <time>2018-05-10T12:39:34.000Z</time>
      </trkpt>
      <trkpt lat="46.40797" lon="6.03036">
        <ele>1384.1999511719</ele>
        <time>2018-05-10T12:39:42.000Z</time>
      </trkpt>
      <trkpt lat="46.40788" lon="6.03026">
        <ele>1384.1999511719</ele>
        <time>2018-05-10T12:39:51.000Z</time>
      </trkpt>
      <trkpt lat="46.40783" lon="6.03019">
        <ele>1383.8000488281</ele>
        <time>2018-05-10T12:39:57.000Z</time>
      </trkpt>
      <trkpt lat="46.40776" lon="6.03009">
        <ele>1383.5999755859</ele>
        <time>2018-05-10T12:40:04.000Z</time>
      </trkpt>
      <trkpt lat="46.4077" lon="6.03001">
        <ele>1383.1999511719</ele>
        <time>2018-05-10T12:40:12.000Z</time>
      </trkpt>
      <trkpt lat="46.40766" lon="6.02995">
        <ele>1383</ele>
        <time>2018-05-10T12:40:17.000Z</time>
      </trkpt>
      <trkpt lat="46.40759" lon="6.02987">
        <ele>1382.8000488281</ele>
        <time>2018-05-10T12:40:24.000Z</time>
      </trkpt>
      <trkpt lat="46.40754" lon="6.02981">
        <ele>1382.5999755859</ele>
        <time>2018-05-10T12:40:31.000Z</time>
      </trkpt>
      <trkpt lat="46.40754" lon="6.02981">
        <ele>1382.5999755859</ele>
        <time>2018-05-10T12:40:32.000Z</time>
      </trkpt>
      <trkpt lat="46.4075" lon="6.02976">
        <ele>1382.5999755859</ele>
        <time>2018-05-10T12:40:48.000Z</time>
      </trkpt>
      <trkpt lat="46.40742" lon="6.02961">
        <ele>1382.4000244141</ele>
        <time>2018-05-10T12:40:58.000Z</time>
      </trkpt>
      <trkpt lat="46.40736" lon="6.02946">
        <ele>1382.1999511719</ele>
        <time>2018-05-10T12:41:07.000Z</time>
      </trkpt>
      <trkpt lat="46.40732" lon="6.02938">
        <ele>1382.1999511719</ele>
        <time>2018-05-10T12:41:12.000Z</time>
      </trkpt>
      <trkpt lat="46.40728" lon="6.02935">
        <ele>1382.4000244141</ele>
        <time>2018-05-10T12:41:16.000Z</time>
      </trkpt>
      <trkpt lat="46.40719" lon="6.02922">
        <ele>1382.4000244141</ele>
        <time>2018-05-10T12:41:26.000Z</time>
      </trkpt>
      <trkpt lat="46.40713" lon="6.02918">
        <ele>1382.5999755859</ele>
        <time>2018-05-10T12:41:32.000Z</time>
      </trkpt>
      <trkpt lat="46.40707" lon="6.02912">
        <ele>1382.8000488281</ele>
        <time>2018-05-10T12:41:38.000Z</time>
      </trkpt>
      <trkpt lat="46.40696" lon="6.02902">
        <ele>1383</ele>
        <time>2018-05-10T12:41:46.000Z</time>
      </trkpt>
      <trkpt lat="46.40687" lon="6.02891">
        <ele>1383.1999511719</ele>
        <time>2018-05-10T12:41:53.000Z</time>
      </trkpt>
      <trkpt lat="46.40676" lon="6.02879">
        <ele>1383</ele>
        <time>2018-05-10T12:42:03.000Z</time>
      </trkpt>
      <trkpt lat="46.40668" lon="6.02868">
        <ele>1382.5999755859</ele>
        <time>2018-05-10T12:42:12.000Z</time>
      </trkpt>
      <trkpt lat="46.40659" lon="6.0286">
        <ele>1382.5999755859</ele>
        <time>2018-05-10T12:42:20.000Z</time>
      </trkpt>
      <trkpt lat="46.40653" lon="6.02852">
        <ele>1382.1999511719</ele>
        <time>2018-05-10T12:42:27.000Z</time>
      </trkpt>
      <trkpt lat="46.40651" lon="6.02849">
        <ele>1382.1999511719</ele>
        <time>2018-05-10T12:42:29.000Z</time>
      </trkpt>
      <trkpt lat="46.40643" lon="6.02839">
        <ele>1381.8000488281</ele>
        <time>2018-05-10T12:42:38.000Z</time>
      </trkpt>
      <trkpt lat="46.4064" lon="6.02832">
        <ele>1381.1999511719</ele>
        <time>2018-05-10T12:42:42.000Z</time>
      </trkpt>
      <trkpt lat="46.40639" lon="6.02829">
        <ele>1381</ele>
        <time>2018-05-10T12:42:47.000Z</time>
      </trkpt>
      <trkpt lat="46.40635" lon="6.02826">
        <ele>1381</ele>
        <time>2018-05-10T12:42:53.000Z</time>
      </trkpt>
      <trkpt lat="46.40633" lon="6.02827">
        <ele>1381</ele>
        <time>2018-05-10T12:42:56.000Z</time>
      </trkpt>
      <trkpt lat="46.40628" lon="6.02831">
        <ele>1381.5999755859</ele>
        <time>2018-05-10T12:43:03.000Z</time>
      </trkpt>
      <trkpt lat="46.40628" lon="6.02831">
        <ele>1381.5999755859</ele>
        <time>2018-05-10T12:43:04.000Z</time>
      </trkpt>
      <trkpt lat="46.40627" lon="6.02829">
        <ele>1381.4000244141</ele>
        <time>2018-05-10T12:43:25.000Z</time>
      </trkpt>
      <trkpt lat="46.40627" lon="6.02829">
        <ele>1381.4000244141</ele>
        <time>2018-05-10T12:43:26.000Z</time>
      </trkpt>
      <trkpt lat="46.40626" lon="6.0283">
        <ele>1381.5999755859</ele>
        <time>2018-05-10T12:43:36.000Z</time>
      </trkpt>
      <trkpt lat="46.40613" lon="6.02825">
        <ele>1381.5999755859</ele>
        <time>2018-05-10T12:43:45.000Z</time>
      </trkpt>
      <trkpt lat="46.40604" lon="6.0282">
        <ele>1381.5999755859</ele>
        <time>2018-05-10T12:43:51.000Z</time>
      </trkpt>
      <trkpt lat="46.40592" lon="6.02812">
        <ele>1381.1999511719</ele>
        <time>2018-05-10T12:44:00.000Z</time>
      </trkpt>
      <trkpt lat="46.40584" lon="6.02806">
        <ele>1381</ele>
        <time>2018-05-10T12:44:08.000Z</time>
      </trkpt>
      <trkpt lat="46.40583" lon="6.02805">
        <ele>1381</ele>
        <time>2018-05-10T12:44:09.000Z</time>
      </trkpt>
      <trkpt lat="46.40582" lon="6.02802">
        <ele>1380.5999755859</ele>
        <time>2018-05-10T12:44:14.000Z</time>
      </trkpt>
      <trkpt lat="46.40583" lon="6.02802">
        <ele>1380.5999755859</ele>
        <time>2018-05-10T12:44:22.000Z</time>
      </trkpt>
      <trkpt lat="46.40582" lon="6.02804">
        <ele>1380.8000488281</ele>
        <time>2018-05-10T12:44:35.000Z</time>
      </trkpt>
      <trkpt lat="46.40573" lon="6.02802">
        <ele>1380.8000488281</ele>
        <time>2018-05-10T12:44:41.000Z</time>
      </trkpt>
      <trkpt lat="46.40561" lon="6.02793">
        <ele>1379.8000488281</ele>
        <time>2018-05-10T12:44:46.000Z</time>
      </trkpt>
      <trkpt lat="46.40558" lon="6.02791">
        <ele>1379.5999755859</ele>
        <time>2018-05-10T12:44:47.000Z</time>
      </trkpt>
      <trkpt lat="46.40549" lon="6.02773">
        <ele>1377</ele>
        <time>2018-05-10T12:44:53.000Z</time>
      </trkpt>
      <trkpt lat="46.40549" lon="6.02763">
        <ele>1375.5999755859</ele>
        <time>2018-05-10T12:44:58.000Z</time>
      </trkpt>
      <trkpt lat="46.40551" lon="6.02748">
        <ele>1374</ele>
        <time>2018-05-10T12:45:06.000Z</time>
      </trkpt>
      <trkpt lat="46.40551" lon="6.02744">
        <ele>1373.4000244141</ele>
        <time>2018-05-10T12:45:08.000Z</time>
      </trkpt>
      <trkpt lat="46.40546" lon="6.02737">
        <ele>1372.4000244141</ele>
        <time>2018-05-10T12:45:13.000Z</time>
      </trkpt>
      <trkpt lat="46.40542" lon="6.02729">
        <ele>1371.4000244141</ele>
        <time>2018-05-10T12:45:18.000Z</time>
      </trkpt>
      <trkpt lat="46.40538" lon="6.02724">
        <ele>1370.4000244141</ele>
        <time>2018-05-10T12:45:25.000Z</time>
      </trkpt>
      <trkpt lat="46.40538" lon="6.02723">
        <ele>1370.4000244141</ele>
        <time>2018-05-10T12:45:26.000Z</time>
      </trkpt>
      <trkpt lat="46.40534" lon="6.02719">
        <ele>1369.8000488281</ele>
        <time>2018-05-10T12:45:34.000Z</time>
      </trkpt>
      <trkpt lat="46.40526" lon="6.02705">
        <ele>1368</ele>
        <time>2018-05-10T12:45:45.000Z</time>
      </trkpt>
      <trkpt lat="46.40519" lon="6.02693">
        <ele>1366.1999511719</ele>
        <time>2018-05-10T12:45:54.000Z</time>
      </trkpt>
      <trkpt lat="46.40515" lon="6.02686">
        <ele>1365.1999511719</ele>
        <time>2018-05-10T12:46:01.000Z</time>
      </trkpt>
      <trkpt lat="46.40507" lon="6.02677">
        <ele>1364</ele>
        <time>2018-05-10T12:46:09.000Z</time>
      </trkpt>
      <trkpt lat="46.40498" lon="6.02668">
        <ele>1362.5999755859</ele>
        <time>2018-05-10T12:46:17.000Z</time>
      </trkpt>
      <trkpt lat="46.40495" lon="6.02663">
        <ele>1362</ele>
        <time>2018-05-10T12:46:20.000Z</time>
      </trkpt>
      <trkpt lat="46.40486" lon="6.02653">
        <ele>1360.4000244141</ele>
        <time>2018-05-10T12:46:28.000Z</time>
      </trkpt>
      <trkpt lat="46.40475" lon="6.02641">
        <ele>1359.4000244141</ele>
        <time>2018-05-10T12:46:37.000Z</time>
      </trkpt>
      <trkpt lat="46.40467" lon="6.02631">
        <ele>1358.5999755859</ele>
        <time>2018-05-10T12:46:44.000Z</time>
      </trkpt>
      <trkpt lat="46.40465" lon="6.02628">
        <ele>1358.4000244141</ele>
        <time>2018-05-10T12:46:46.000Z</time>
      </trkpt>
      <trkpt lat="46.40461" lon="6.02615">
        <ele>1357.5999755859</ele>
        <time>2018-05-10T12:46:53.000Z</time>
      </trkpt>
      <trkpt lat="46.40458" lon="6.0261">
        <ele>1357.4000244141</ele>
        <time>2018-05-10T12:46:57.000Z</time>
      </trkpt>
      <trkpt lat="46.40451" lon="6.02598">
        <ele>1357</ele>
        <time>2018-05-10T12:47:05.000Z</time>
      </trkpt>
      <trkpt lat="46.40444" lon="6.02584">
        <ele>1356.4000244141</ele>
        <time>2018-05-10T12:47:15.000Z</time>
      </trkpt>
      <trkpt lat="46.40443" lon="6.02582">
        <ele>1356.4000244141</ele>
        <time>2018-05-10T12:47:16.000Z</time>
      </trkpt>
      <trkpt lat="46.40436" lon="6.02572">
        <ele>1356</ele>
        <time>2018-05-10T12:47:24.000Z</time>
      </trkpt>
      <trkpt lat="46.40431" lon="6.02575">
        <ele>1355.8000488281</ele>
        <time>2018-05-10T12:47:32.000Z</time>
      </trkpt>
      <trkpt lat="46.4043" lon="6.02575">
        <ele>1355.8000488281</ele>
        <time>2018-05-10T12:47:33.000Z</time>
      </trkpt>
      <trkpt lat="46.40424" lon="6.02572">
        <ele>1355.4000244141</ele>
        <time>2018-05-10T12:47:39.000Z</time>
      </trkpt>
      <trkpt lat="46.40417" lon="6.02559">
        <ele>1355</ele>
        <time>2018-05-10T12:47:47.000Z</time>
      </trkpt>
      <trkpt lat="46.40414" lon="6.02545">
        <ele>1353</ele>
        <time>2018-05-10T12:47:55.000Z</time>
      </trkpt>
      <trkpt lat="46.40413" lon="6.02527">
        <ele>1350.8000488281</ele>
        <time>2018-05-10T12:48:04.000Z</time>
      </trkpt>
      <trkpt lat="46.40413" lon="6.02517">
        <ele>1349.5999755859</ele>
        <time>2018-05-10T12:48:10.000Z</time>
      </trkpt>
      <trkpt lat="46.40413" lon="6.02515">
        <ele>1349.5999755859</ele>
        <time>2018-05-10T12:48:14.000Z</time>
      </trkpt>
      <trkpt lat="46.40414" lon="6.02514">
        <ele>1349.4000244141</ele>
        <time>2018-05-10T12:48:25.000Z</time>
      </trkpt>
      <trkpt lat="46.40414" lon="6.02514">
        <ele>1349.4000244141</ele>
        <time>2018-05-10T12:48:26.000Z</time>
      </trkpt>
      <trkpt lat="46.40409" lon="6.02499">
        <ele>1347.1999511719</ele>
        <time>2018-05-10T12:48:39.000Z</time>
      </trkpt>
      <trkpt lat="46.40404" lon="6.0249">
        <ele>1346</ele>
        <time>2018-05-10T12:48:44.000Z</time>
      </trkpt>
      <trkpt lat="46.40397" lon="6.02479">
        <ele>1344.4000244141</ele>
        <time>2018-05-10T12:48:51.000Z</time>
      </trkpt>
      <trkpt lat="46.40391" lon="6.02465">
        <ele>1343.1999511719</ele>
        <time>2018-05-10T12:48:58.000Z</time>
      </trkpt>
      <trkpt lat="46.40383" lon="6.02454">
        <ele>1342.5999755859</ele>
        <time>2018-05-10T12:49:06.000Z</time>
      </trkpt>
      <trkpt lat="46.40377" lon="6.02445">
        <ele>1342</ele>
        <time>2018-05-10T12:49:13.000Z</time>
      </trkpt>
      <trkpt lat="46.40375" lon="6.02443">
        <ele>1341.8000488281</ele>
        <time>2018-05-10T12:49:15.000Z</time>
      </trkpt>
      <trkpt lat="46.40373" lon="6.02441">
        <ele>1341.5999755859</ele>
        <time>2018-05-10T12:49:17.000Z</time>
      </trkpt>
      <trkpt lat="46.40367" lon="6.02434">
        <ele>1341.1999511719</ele>
        <time>2018-05-10T12:49:23.000Z</time>
      </trkpt>
      <trkpt lat="46.40356" lon="6.02423">
        <ele>1340.4000244141</ele>
        <time>2018-05-10T12:49:33.000Z</time>
      </trkpt>
      <trkpt lat="46.40348" lon="6.02412">
        <ele>1339.5999755859</ele>
        <time>2018-05-10T12:49:41.000Z</time>
      </trkpt>
      <trkpt lat="46.40347" lon="6.02411">
        <ele>1339.4000244141</ele>
        <time>2018-05-10T12:49:44.000Z</time>
      </trkpt>
      <trkpt lat="46.40351" lon="6.02404">
        <ele>1339.1999511719</ele>
        <time>2018-05-10T12:50:02.000Z</time>
      </trkpt>
      <trkpt lat="46.40352" lon="6.02394">
        <ele>1338.5999755859</ele>
        <time>2018-05-10T12:50:10.000Z</time>
      </trkpt>
      <trkpt lat="46.40347" lon="6.02399">
        <ele>1338.8000488281</ele>
        <time>2018-05-10T12:50:23.000Z</time>
      </trkpt>
      <trkpt lat="46.40347" lon="6.02396">
        <ele>1338.5999755859</ele>
        <time>2018-05-10T12:50:29.000Z</time>
      </trkpt>
      <trkpt lat="46.40347" lon="6.02395">
        <ele>1338.5999755859</ele>
        <time>2018-05-10T12:50:31.000Z</time>
      </trkpt>
      <trkpt lat="46.40349" lon="6.02392">
        <ele>1338.4000244141</ele>
        <time>2018-05-10T12:50:55.000Z</time>
      </trkpt>
      <trkpt lat="46.40348" lon="6.02392">
        <ele>1338.4000244141</ele>
        <time>2018-05-10T12:51:32.000Z</time>
      </trkpt>
      <trkpt lat="46.40348" lon="6.02391">
        <ele>1338.1999511719</ele>
        <time>2018-05-10T12:51:44.000Z</time>
      </trkpt>
      <trkpt lat="46.40347" lon="6.02388">
        <ele>1338.1999511719</ele>
        <time>2018-05-10T12:52:14.000Z</time>
      </trkpt>
      <trkpt lat="46.40347" lon="6.02389">
        <ele>1338.1999511719</ele>
        <time>2018-05-10T12:52:16.000Z</time>
      </trkpt>
      <trkpt lat="46.40346" lon="6.0239">
        <ele>1338.1999511719</ele>
        <time>2018-05-10T12:52:20.000Z</time>
      </trkpt>
      <trkpt lat="46.40344" lon="6.02396">
        <ele>1338.5999755859</ele>
        <time>2018-05-10T12:52:49.000Z</time>
      </trkpt>
      <trkpt lat="46.40336" lon="6.02399">
        <ele>1338.5999755859</ele>
        <time>2018-05-10T12:53:00.000Z</time>
      </trkpt>
      <trkpt lat="46.40345" lon="6.02394">
        <ele>1338.4000244141</ele>
        <time>2018-05-10T12:53:22.000Z</time>
      </trkpt>
      <trkpt lat="46.40346" lon="6.02394">
        <ele>1338.4000244141</ele>
        <time>2018-05-10T12:53:31.000Z</time>
      </trkpt>
      <trkpt lat="46.40344" lon="6.02395">
        <ele>1338.4000244141</ele>
        <time>2018-05-10T12:53:35.000Z</time>
      </trkpt>
      <trkpt lat="46.4034" lon="6.02391">
        <ele>1338.1999511719</ele>
        <time>2018-05-10T12:53:46.000Z</time>
      </trkpt>
      <trkpt lat="46.40332" lon="6.02376">
        <ele>1337.1999511719</ele>
        <time>2018-05-10T12:53:56.000Z</time>
      </trkpt>
      <trkpt lat="46.40324" lon="6.02359">
        <ele>1336.1999511719</ele>
        <time>2018-05-10T12:54:06.000Z</time>
      </trkpt>
      <trkpt lat="46.40319" lon="6.02346">
        <ele>1335.1999511719</ele>
        <time>2018-05-10T12:54:13.000Z</time>
      </trkpt>
      <trkpt lat="46.40318" lon="6.02344">
        <ele>1335.1999511719</ele>
        <time>2018-05-10T12:54:14.000Z</time>
      </trkpt>
      <trkpt lat="46.40313" lon="6.02339">
        <ele>1334.8000488281</ele>
        <time>2018-05-10T12:54:18.000Z</time>
      </trkpt>
      <trkpt lat="46.40304" lon="6.02328">
        <ele>1333.8000488281</ele>
        <time>2018-05-10T12:54:27.000Z</time>
      </trkpt>
      <trkpt lat="46.40296" lon="6.02322">
        <ele>1333.4000244141</ele>
        <time>2018-05-10T12:54:34.000Z</time>
      </trkpt>
      <trkpt lat="46.40285" lon="6.02318">
        <ele>1332.8000488281</ele>
        <time>2018-05-10T12:54:43.000Z</time>
      </trkpt>
      <trkpt lat="46.40279" lon="6.02315">
        <ele>1332.5999755859</ele>
        <time>2018-05-10T12:54:49.000Z</time>
      </trkpt>
      <trkpt lat="46.40271" lon="6.02313">
        <ele>1332.1999511719</ele>
        <time>2018-05-10T12:54:55.000Z</time>
      </trkpt>
      <trkpt lat="46.40262" lon="6.0231">
        <ele>1331.8000488281</ele>
        <time>2018-05-10T12:55:02.000Z</time>
      </trkpt>
      <trkpt lat="46.40251" lon="6.02307">
        <ele>1331.4000244141</ele>
        <time>2018-05-10T12:55:09.000Z</time>
      </trkpt>
      <trkpt lat="46.40242" lon="6.02303">
        <ele>1330.8000488281</ele>
        <time>2018-05-10T12:55:15.000Z</time>
      </trkpt>
      <trkpt lat="46.40231" lon="6.02296">
        <ele>1330</ele>
        <time>2018-05-10T12:55:23.000Z</time>
      </trkpt>
      <trkpt lat="46.40221" lon="6.0229">
        <ele>1328.5999755859</ele>
        <time>2018-05-10T12:55:30.000Z</time>
      </trkpt>
      <trkpt lat="46.4021" lon="6.02283">
        <ele>1327</ele>
        <time>2018-05-10T12:55:39.000Z</time>
      </trkpt>
      <trkpt lat="46.40199" lon="6.02277">
        <ele>1325.5999755859</ele>
        <time>2018-05-10T12:55:47.000Z</time>
      </trkpt>
      <trkpt lat="46.40193" lon="6.02272">
        <ele>1324.8000488281</ele>
        <time>2018-05-10T12:55:52.000Z</time>
      </trkpt>
      <trkpt lat="46.40186" lon="6.02269">
        <ele>1324</ele>
        <time>2018-05-10T12:55:58.000Z</time>
      </trkpt>
      <trkpt lat="46.40178" lon="6.02266">
        <ele>1323.4000244141</ele>
        <time>2018-05-10T12:56:04.000Z</time>
      </trkpt>
      <trkpt lat="46.40166" lon="6.02265">
        <ele>1322.5999755859</ele>
        <time>2018-05-10T12:56:11.000Z</time>
      </trkpt>
      <trkpt lat="46.40158" lon="6.02263">
        <ele>1322</ele>
        <time>2018-05-10T12:56:18.000Z</time>
      </trkpt>
      <trkpt lat="46.40143" lon="6.02266">
        <ele>1321.8000488281</ele>
        <time>2018-05-10T12:56:26.000Z</time>
      </trkpt>
      <trkpt lat="46.40139" lon="6.02266">
        <ele>1321.5999755859</ele>
        <time>2018-05-10T12:56:29.000Z</time>
      </trkpt>
      <trkpt lat="46.40133" lon="6.02259">
        <ele>1320.5999755859</ele>
        <time>2018-05-10T12:56:36.000Z</time>
      </trkpt>
      <trkpt lat="46.40127" lon="6.02252">
        <ele>1319.5999755859</ele>
        <time>2018-05-10T12:56:42.000Z</time>
      </trkpt>
      <trkpt lat="46.40118" lon="6.02246">
        <ele>1318.8000488281</ele>
        <time>2018-05-10T12:56:50.000Z</time>
      </trkpt>
      <trkpt lat="46.40112" lon="6.02242">
        <ele>1318</ele>
        <time>2018-05-10T12:56:56.000Z</time>
      </trkpt>
      <trkpt lat="46.40111" lon="6.02241">
        <ele>1318</ele>
        <time>2018-05-10T12:56:58.000Z</time>
      </trkpt>
      <trkpt lat="46.40106" lon="6.02237">
        <ele>1317.4000244141</ele>
        <time>2018-05-10T12:57:03.000Z</time>
      </trkpt>
      <trkpt lat="46.40094" lon="6.02234">
        <ele>1316.5999755859</ele>
        <time>2018-05-10T12:57:10.000Z</time>
      </trkpt>
      <trkpt lat="46.40085" lon="6.02227">
        <ele>1315.5999755859</ele>
        <time>2018-05-10T12:57:16.000Z</time>
      </trkpt>
      <trkpt lat="46.40073" lon="6.02227">
        <ele>1315.4000244141</ele>
        <time>2018-05-10T12:57:23.000Z</time>
      </trkpt>
      <trkpt lat="46.40072" lon="6.02221">
        <ele>1314.8000488281</ele>
        <time>2018-05-10T12:57:28.000Z</time>
      </trkpt>
      <trkpt lat="46.40065" lon="6.0222">
        <ele>1314.5999755859</ele>
        <time>2018-05-10T12:57:33.000Z</time>
      </trkpt>
      <trkpt lat="46.40058" lon="6.02213">
        <ele>1314</ele>
        <time>2018-05-10T12:57:41.000Z</time>
      </trkpt>
      <trkpt lat="46.40053" lon="6.02208">
        <ele>1313.5999755859</ele>
        <time>2018-05-10T12:57:47.000Z</time>
      </trkpt>
      <trkpt lat="46.40043" lon="6.02202">
        <ele>1313</ele>
        <time>2018-05-10T12:57:54.000Z</time>
      </trkpt>
      <trkpt lat="46.40037" lon="6.02197">
        <ele>1312.5999755859</ele>
        <time>2018-05-10T12:57:58.000Z</time>
      </trkpt>
      <trkpt lat="46.40029" lon="6.02184">
        <ele>1311.5999755859</ele>
        <time>2018-05-10T12:58:07.000Z</time>
      </trkpt>
      <trkpt lat="46.40024" lon="6.02174">
        <ele>1310.8000488281</ele>
        <time>2018-05-10T12:58:13.000Z</time>
      </trkpt>
      <trkpt lat="46.4002" lon="6.02165">
        <ele>1310.1999511719</ele>
        <time>2018-05-10T12:58:18.000Z</time>
      </trkpt>
      <trkpt lat="46.40015" lon="6.0215">
        <ele>1309</ele>
        <time>2018-05-10T12:58:28.000Z</time>
      </trkpt>
      <trkpt lat="46.40008" lon="6.02136">
        <ele>1308.1999511719</ele>
        <time>2018-05-10T12:58:37.000Z</time>
      </trkpt>
      <trkpt lat="46.40002" lon="6.02128">
        <ele>1308</ele>
        <time>2018-05-10T12:58:44.000Z</time>
      </trkpt>
      <trkpt lat="46.39993" lon="6.02112">
        <ele>1307.8000488281</ele>
        <time>2018-05-10T12:58:55.000Z</time>
      </trkpt>
      <trkpt lat="46.39986" lon="6.02101">
        <ele>1307.5999755859</ele>
        <time>2018-05-10T12:59:03.000Z</time>
      </trkpt>
      <trkpt lat="46.3998" lon="6.02085">
        <ele>1307.4000244141</ele>
        <time>2018-05-10T12:59:14.000Z</time>
      </trkpt>
      <trkpt lat="46.39979" lon="6.02084">
        <ele>1307.4000244141</ele>
        <time>2018-05-10T12:59:17.000Z</time>
      </trkpt>
      <trkpt lat="46.3998" lon="6.02085">
        <ele>1307.4000244141</ele>
        <time>2018-05-10T12:59:39.000Z</time>
      </trkpt>
      <trkpt lat="46.39977" lon="6.0208">
        <ele>1307.4000244141</ele>
        <time>2018-05-10T12:59:44.000Z</time>
      </trkpt>
      <trkpt lat="46.39968" lon="6.02068">
        <ele>1307.8000488281</ele>
        <time>2018-05-10T12:59:54.000Z</time>
      </trkpt>
      <trkpt lat="46.39963" lon="6.0206">
        <ele>1307.8000488281</ele>
        <time>2018-05-10T13:00:00.000Z</time>
      </trkpt>
      <trkpt lat="46.39958" lon="6.02055">
        <ele>1307.8000488281</ele>
        <time>2018-05-10T13:00:05.000Z</time>
      </trkpt>
      <trkpt lat="46.39952" lon="6.02039">
        <ele>1306.5999755859</ele>
        <time>2018-05-10T13:00:15.000Z</time>
      </trkpt>
      <trkpt lat="46.39945" lon="6.02023">
        <ele>1305.4000244141</ele>
        <time>2018-05-10T13:00:25.000Z</time>
      </trkpt>
      <trkpt lat="46.39939" lon="6.02012">
        <ele>1305</ele>
        <time>2018-05-10T13:00:33.000Z</time>
      </trkpt>
      <trkpt lat="46.39933" lon="6.02006">
        <ele>1304.8000488281</ele>
        <time>2018-05-10T13:00:41.000Z</time>
      </trkpt>
      <trkpt lat="46.39932" lon="6.02005">
        <ele>1304.5999755859</ele>
        <time>2018-05-10T13:00:42.000Z</time>
      </trkpt>
      <trkpt lat="46.39925" lon="6.02001">
        <ele>1304.4000244141</ele>
        <time>2018-05-10T13:00:50.000Z</time>
      </trkpt>
      <trkpt lat="46.39925" lon="6.01999">
        <ele>1304.4000244141</ele>
        <time>2018-05-10T13:00:51.000Z</time>
      </trkpt>
      <trkpt lat="46.39917" lon="6.01988">
        <ele>1304</ele>
        <time>2018-05-10T13:00:59.000Z</time>
      </trkpt>
      <trkpt lat="46.39906" lon="6.0198">
        <ele>1303.4000244141</ele>
        <time>2018-05-10T13:01:06.000Z</time>
      </trkpt>
      <trkpt lat="46.39898" lon="6.0197">
        <ele>1302.8000488281</ele>
        <time>2018-05-10T13:01:13.000Z</time>
      </trkpt>
      <trkpt lat="46.39892" lon="6.0196">
        <ele>1302.4000244141</ele>
        <time>2018-05-10T13:01:20.000Z</time>
      </trkpt>
      <trkpt lat="46.39886" lon="6.01953">
        <ele>1302.1999511719</ele>
        <time>2018-05-10T13:01:26.000Z</time>
      </trkpt>
      <trkpt lat="46.39885" lon="6.01948">
        <ele>1302</ele>
        <time>2018-05-10T13:01:29.000Z</time>
      </trkpt>
      <trkpt lat="46.39884" lon="6.01938">
        <ele>1301.8000488281</ele>
        <time>2018-05-10T13:01:34.000Z</time>
      </trkpt>
      <trkpt lat="46.39876" lon="6.01928">
        <ele>1301.4000244141</ele>
        <time>2018-05-10T13:01:44.000Z</time>
      </trkpt>
      <trkpt lat="46.3987" lon="6.01916">
        <ele>1301</ele>
        <time>2018-05-10T13:01:52.000Z</time>
      </trkpt>
      <trkpt lat="46.39863" lon="6.01916">
        <ele>1300.8000488281</ele>
        <time>2018-05-10T13:01:57.000Z</time>
      </trkpt>
      <trkpt lat="46.39862" lon="6.01915">
        <ele>1300.5999755859</ele>
        <time>2018-05-10T13:01:58.000Z</time>
      </trkpt>
      <trkpt lat="46.39854" lon="6.01911">
        <ele>1300.4000244141</ele>
        <time>2018-05-10T13:02:03.000Z</time>
      </trkpt>
      <trkpt lat="46.39849" lon="6.01904">
        <ele>1300</ele>
        <time>2018-05-10T13:02:08.000Z</time>
      </trkpt>
      <trkpt lat="46.39846" lon="6.01892">
        <ele>1299.8000488281</ele>
        <time>2018-05-10T13:02:13.000Z</time>
      </trkpt>
      <trkpt lat="46.39843" lon="6.01887">
        <ele>1299.1999511719</ele>
        <time>2018-05-10T13:02:17.000Z</time>
      </trkpt>
      <trkpt lat="46.39837" lon="6.01882">
        <ele>1298.8000488281</ele>
        <time>2018-05-10T13:02:23.000Z</time>
      </trkpt>
      <trkpt lat="46.39836" lon="6.01881">
        <ele>1298.8000488281</ele>
        <time>2018-05-10T13:02:24.000Z</time>
      </trkpt>
      <trkpt lat="46.39833" lon="6.01873">
        <ele>1298</ele>
        <time>2018-05-10T13:02:29.000Z</time>
      </trkpt>
      <trkpt lat="46.39832" lon="6.01872">
        <ele>1298</ele>
        <time>2018-05-10T13:02:30.000Z</time>
      </trkpt>
      <trkpt lat="46.39828" lon="6.01862">
        <ele>1297.1999511719</ele>
        <time>2018-05-10T13:02:37.000Z</time>
      </trkpt>
      <trkpt lat="46.39827" lon="6.01857">
        <ele>1296.8000488281</ele>
        <time>2018-05-10T13:02:40.000Z</time>
      </trkpt>
      <trkpt lat="46.39822" lon="6.01854">
        <ele>1296.4000244141</ele>
        <time>2018-05-10T13:02:44.000Z</time>
      </trkpt>
      <trkpt lat="46.39817" lon="6.01844">
        <ele>1295.5999755859</ele>
        <time>2018-05-10T13:02:52.000Z</time>
      </trkpt>
      <trkpt lat="46.39818" lon="6.01844">
        <ele>1295.5999755859</ele>
        <time>2018-05-10T13:02:53.000Z</time>
      </trkpt>
      <trkpt lat="46.39823" lon="6.01833">
        <ele>1295</ele>
        <time>2018-05-10T13:03:01.000Z</time>
      </trkpt>
      <trkpt lat="46.39823" lon="6.01833">
        <ele>1295</ele>
        <time>2018-05-10T13:03:02.000Z</time>
      </trkpt>
      <trkpt lat="46.39824" lon="6.0183">
        <ele>1294.8000488281</ele>
        <time>2018-05-10T13:03:06.000Z</time>
      </trkpt>
      <trkpt lat="46.39818" lon="6.01829">
        <ele>1294.5999755859</ele>
        <time>2018-05-10T13:03:16.000Z</time>
      </trkpt>
      <trkpt lat="46.39815" lon="6.01827">
        <ele>1294.4000244141</ele>
        <time>2018-05-10T13:03:19.000Z</time>
      </trkpt>
      <trkpt lat="46.39809" lon="6.01821">
        <ele>1294</ele>
        <time>2018-05-10T13:03:25.000Z</time>
      </trkpt>
      <trkpt lat="46.39809" lon="6.01821">
        <ele>1294</ele>
        <time>2018-05-10T13:03:25.000Z</time>
      </trkpt>
      <trkpt lat="46.39807" lon="6.01818">
        <ele>1293.8000488281</ele>
        <time>2018-05-10T13:03:27.000Z</time>
      </trkpt>
      <trkpt lat="46.39802" lon="6.0181">
        <ele>1293.1999511719</ele>
        <time>2018-05-10T13:03:33.000Z</time>
      </trkpt>
      <trkpt lat="46.39799" lon="6.0179">
        <ele>1292.4000244141</ele>
        <time>2018-05-10T13:03:43.000Z</time>
      </trkpt>
      <trkpt lat="46.39798" lon="6.01776">
        <ele>1291.5999755859</ele>
        <time>2018-05-10T13:03:51.000Z</time>
      </trkpt>
      <trkpt lat="46.39794" lon="6.01766">
        <ele>1291.1999511719</ele>
        <time>2018-05-10T13:03:57.000Z</time>
      </trkpt>
      <trkpt lat="46.39792" lon="6.0176">
        <ele>1291</ele>
        <time>2018-05-10T13:04:01.000Z</time>
      </trkpt>
      <trkpt lat="46.39789" lon="6.01757">
        <ele>1290.8000488281</ele>
        <time>2018-05-10T13:04:07.000Z</time>
      </trkpt>
      <trkpt lat="46.39785" lon="6.01752">
        <ele>1290.5999755859</ele>
        <time>2018-05-10T13:04:12.000Z</time>
      </trkpt>
      <trkpt lat="46.39779" lon="6.01742">
        <ele>1290.4000244141</ele>
        <time>2018-05-10T13:04:19.000Z</time>
      </trkpt>
      <trkpt lat="46.39773" lon="6.01731">
        <ele>1289.8000488281</ele>
        <time>2018-05-10T13:04:26.000Z</time>
      </trkpt>
      <trkpt lat="46.39767" lon="6.01718">
        <ele>1289.5999755859</ele>
        <time>2018-05-10T13:04:35.000Z</time>
      </trkpt>
      <trkpt lat="46.39764" lon="6.01716">
        <ele>1289.5999755859</ele>
        <time>2018-05-10T13:04:37.000Z</time>
      </trkpt>
      <trkpt lat="46.39761" lon="6.01699">
        <ele>1289.1999511719</ele>
        <time>2018-05-10T13:04:46.000Z</time>
      </trkpt>
      <trkpt lat="46.3976" lon="6.01692">
        <ele>1289.1999511719</ele>
        <time>2018-05-10T13:04:52.000Z</time>
      </trkpt>
      <trkpt lat="46.39756" lon="6.01692">
        <ele>1289.4000244141</ele>
        <time>2018-05-10T13:04:55.000Z</time>
      </trkpt>
      <trkpt lat="46.3975" lon="6.01684">
        <ele>1289.4000244141</ele>
        <time>2018-05-10T13:05:02.000Z</time>
      </trkpt>
      <trkpt lat="46.39747" lon="6.01678">
        <ele>1289.4000244141</ele>
        <time>2018-05-10T13:05:06.000Z</time>
      </trkpt>
      <trkpt lat="46.39744" lon="6.01663">
        <ele>1289</ele>
        <time>2018-05-10T13:05:13.000Z</time>
      </trkpt>
      <trkpt lat="46.39742" lon="6.01651">
        <ele>1288.8000488281</ele>
        <time>2018-05-10T13:05:19.000Z</time>
      </trkpt>
      <trkpt lat="46.39738" lon="6.01647">
        <ele>1289</ele>
        <time>2018-05-10T13:05:25.000Z</time>
      </trkpt>
      <trkpt lat="46.39734" lon="6.01645">
        <ele>1289</ele>
        <time>2018-05-10T13:05:28.000Z</time>
      </trkpt>
      <trkpt lat="46.39726" lon="6.01641">
        <ele>1289.4000244141</ele>
        <time>2018-05-10T13:05:34.000Z</time>
      </trkpt>
      <trkpt lat="46.39726" lon="6.01639">
        <ele>1289.4000244141</ele>
        <time>2018-05-10T13:05:37.000Z</time>
      </trkpt>
      <trkpt lat="46.39718" lon="6.01622">
        <ele>1289</ele>
        <time>2018-05-10T13:05:56.000Z</time>
      </trkpt>
      <trkpt lat="46.39709" lon="6.01612">
        <ele>1289</ele>
        <time>2018-05-10T13:06:05.000Z</time>
      </trkpt>
      <trkpt lat="46.39701" lon="6.01609">
        <ele>1289</ele>
        <time>2018-05-10T13:06:13.000Z</time>
      </trkpt>
      <trkpt lat="46.39692" lon="6.01612">
        <ele>1290</ele>
        <time>2018-05-10T13:06:18.000Z</time>
      </trkpt>
      <trkpt lat="46.39681" lon="6.01615">
        <ele>1291.1999511719</ele>
        <time>2018-05-10T13:06:26.000Z</time>
      </trkpt>
      <trkpt lat="46.39676" lon="6.01605">
        <ele>1290.8000488281</ele>
        <time>2018-05-10T13:06:32.000Z</time>
      </trkpt>
      <trkpt lat="46.39678" lon="6.01595">
        <ele>1289.5999755859</ele>
        <time>2018-05-10T13:06:35.000Z</time>
      </trkpt>
      <trkpt lat="46.39669" lon="6.01583">
        <ele>1289.4000244141</ele>
        <time>2018-05-10T13:06:43.000Z</time>
      </trkpt>
      <trkpt lat="46.39665" lon="6.01572">
        <ele>1289</ele>
        <time>2018-05-10T13:06:48.000Z</time>
      </trkpt>
      <trkpt lat="46.39663" lon="6.01566">
        <ele>1289</ele>
        <time>2018-05-10T13:06:51.000Z</time>
      </trkpt>
      <trkpt lat="46.39662" lon="6.0156">
        <ele>1288.8000488281</ele>
        <time>2018-05-10T13:06:55.000Z</time>
      </trkpt>
      <trkpt lat="46.3966" lon="6.01554">
        <ele>1288.5999755859</ele>
        <time>2018-05-10T13:06:58.000Z</time>
      </trkpt>
      <trkpt lat="46.39651" lon="6.0155">
        <ele>1288.5999755859</ele>
        <time>2018-05-10T13:07:03.000Z</time>
      </trkpt>
      <trkpt lat="46.39644" lon="6.01543">
        <ele>1288.1999511719</ele>
        <time>2018-05-10T13:07:09.000Z</time>
      </trkpt>
      <trkpt lat="46.39637" lon="6.01532">
        <ele>1287.5999755859</ele>
        <time>2018-05-10T13:07:17.000Z</time>
      </trkpt>
      <trkpt lat="46.39634" lon="6.01525">
        <ele>1287.4000244141</ele>
        <time>2018-05-10T13:07:21.000Z</time>
      </trkpt>
      <trkpt lat="46.39629" lon="6.01518">
        <ele>1287</ele>
        <time>2018-05-10T13:07:27.000Z</time>
      </trkpt>
      <trkpt lat="46.39626" lon="6.01509">
        <ele>1286.5999755859</ele>
        <time>2018-05-10T13:07:32.000Z</time>
      </trkpt>
      <trkpt lat="46.39626" lon="6.01506">
        <ele>1286.4000244141</ele>
        <time>2018-05-10T13:07:36.000Z</time>
      </trkpt>
      <trkpt lat="46.39622" lon="6.01501">
        <ele>1286.1999511719</ele>
        <time>2018-05-10T13:07:43.000Z</time>
      </trkpt>
      <trkpt lat="46.39619" lon="6.015">
        <ele>1286.1999511719</ele>
        <time>2018-05-10T13:07:45.000Z</time>
      </trkpt>
      <trkpt lat="46.3961" lon="6.01494">
        <ele>1286</ele>
        <time>2018-05-10T13:07:51.000Z</time>
      </trkpt>
      <trkpt lat="46.39599" lon="6.01487">
        <ele>1285.5999755859</ele>
        <time>2018-05-10T13:07:59.000Z</time>
      </trkpt>
      <trkpt lat="46.39599" lon="6.01483">
        <ele>1285.4000244141</ele>
        <time>2018-05-10T13:08:05.000Z</time>
      </trkpt>
      <trkpt lat="46.39599" lon="6.01482">
        <ele>1285.4000244141</ele>
        <time>2018-05-10T13:08:06.000Z</time>
      </trkpt>
      <trkpt lat="46.39594" lon="6.0147">
        <ele>1284.5999755859</ele>
        <time>2018-05-10T13:08:14.000Z</time>
      </trkpt>
      <trkpt lat="46.39589" lon="6.01466">
        <ele>1284.4000244141</ele>
        <time>2018-05-10T13:08:18.000Z</time>
      </trkpt>
      <trkpt lat="46.39584" lon="6.01459">
        <ele>1284</ele>
        <time>2018-05-10T13:08:22.000Z</time>
      </trkpt>
      <trkpt lat="46.39577" lon="6.01444">
        <ele>1283</ele>
        <time>2018-05-10T13:08:30.000Z</time>
      </trkpt>
      <trkpt lat="46.39573" lon="6.01432">
        <ele>1282.4000244141</ele>
        <time>2018-05-10T13:08:37.000Z</time>
      </trkpt>
      <trkpt lat="46.39571" lon="6.01415">
        <ele>1281.4000244141</ele>
        <time>2018-05-10T13:08:45.000Z</time>
      </trkpt>
      <trkpt lat="46.39568" lon="6.01402">
        <ele>1280.5999755859</ele>
        <time>2018-05-10T13:08:52.000Z</time>
      </trkpt>
      <trkpt lat="46.39567" lon="6.01394">
        <ele>1280.1999511719</ele>
        <time>2018-05-10T13:08:58.000Z</time>
      </trkpt>
      <trkpt lat="46.39563" lon="6.0138">
        <ele>1279.4000244141</ele>
        <time>2018-05-10T13:09:06.000Z</time>
      </trkpt>
      <trkpt lat="46.39558" lon="6.01367">
        <ele>1278.8000488281</ele>
        <time>2018-05-10T13:09:13.000Z</time>
      </trkpt>
      <trkpt lat="46.39557" lon="6.01364">
        <ele>1278.5999755859</ele>
        <time>2018-05-10T13:09:15.000Z</time>
      </trkpt>
      <trkpt lat="46.39557" lon="6.01358">
        <ele>1278.4000244141</ele>
        <time>2018-05-10T13:09:18.000Z</time>
      </trkpt>
      <trkpt lat="46.39554" lon="6.01352">
        <ele>1278</ele>
        <time>2018-05-10T13:09:22.000Z</time>
      </trkpt>
      <trkpt lat="46.39546" lon="6.01338">
        <ele>1277.1999511719</ele>
        <time>2018-05-10T13:09:32.000Z</time>
      </trkpt>
      <trkpt lat="46.39541" lon="6.01333">
        <ele>1276.8000488281</ele>
        <time>2018-05-10T13:09:38.000Z</time>
      </trkpt>
      <trkpt lat="46.39531" lon="6.01322">
        <ele>1275.8000488281</ele>
        <time>2018-05-10T13:09:48.000Z</time>
      </trkpt>
      <trkpt lat="46.39526" lon="6.01317">
        <ele>1275.4000244141</ele>
        <time>2018-05-10T13:09:53.000Z</time>
      </trkpt>
      <trkpt lat="46.39513" lon="6.01306">
        <ele>1274.1999511719</ele>
        <time>2018-05-10T13:10:04.000Z</time>
      </trkpt>
      <trkpt lat="46.39509" lon="6.01295">
        <ele>1273</ele>
        <time>2018-05-10T13:10:11.000Z</time>
      </trkpt>
      <trkpt lat="46.39508" lon="6.01291">
        <ele>1272.5999755859</ele>
        <time>2018-05-10T13:10:16.000Z</time>
      </trkpt>
      <trkpt lat="46.39505" lon="6.01286">
        <ele>1272</ele>
        <time>2018-05-10T13:10:20.000Z</time>
      </trkpt>
      <trkpt lat="46.39499" lon="6.01276">
        <ele>1270.5999755859</ele>
        <time>2018-05-10T13:10:27.000Z</time>
      </trkpt>
      <trkpt lat="46.39493" lon="6.01268">
        <ele>1269.8000488281</ele>
        <time>2018-05-10T13:10:34.000Z</time>
      </trkpt>
      <trkpt lat="46.39493" lon="6.01268">
        <ele>1269.5999755859</ele>
        <time>2018-05-10T13:10:35.000Z</time>
      </trkpt>
      <trkpt lat="46.3949" lon="6.01264">
        <ele>1269</ele>
        <time>2018-05-10T13:10:52.000Z</time>
      </trkpt>
      <trkpt lat="46.39486" lon="6.01258">
        <ele>1268.4000244141</ele>
        <time>2018-05-10T13:10:58.000Z</time>
      </trkpt>
      <trkpt lat="46.39485" lon="6.01247">
        <ele>1267.1999511719</ele>
        <time>2018-05-10T13:11:06.000Z</time>
      </trkpt>
      <trkpt lat="46.39484" lon="6.01243">
        <ele>1266.8000488281</ele>
        <time>2018-05-10T13:11:09.000Z</time>
      </trkpt>
      <trkpt lat="46.39481" lon="6.01231">
        <ele>1265.5999755859</ele>
        <time>2018-05-10T13:11:17.000Z</time>
      </trkpt>
      <trkpt lat="46.3948" lon="6.0122">
        <ele>1264.8000488281</ele>
        <time>2018-05-10T13:11:24.000Z</time>
      </trkpt>
      <trkpt lat="46.39479" lon="6.01206">
        <ele>1264.1999511719</ele>
        <time>2018-05-10T13:11:32.000Z</time>
      </trkpt>
      <trkpt lat="46.39478" lon="6.01193">
        <ele>1263.5999755859</ele>
        <time>2018-05-10T13:11:40.000Z</time>
      </trkpt>
      <trkpt lat="46.39479" lon="6.01186">
        <ele>1263</ele>
        <time>2018-05-10T13:11:45.000Z</time>
      </trkpt>
      <trkpt lat="46.39479" lon="6.01182">
        <ele>1262.8000488281</ele>
        <time>2018-05-10T13:11:51.000Z</time>
      </trkpt>
      <trkpt lat="46.39479" lon="6.01182">
        <ele>1262.8000488281</ele>
        <time>2018-05-10T13:11:52.000Z</time>
      </trkpt>
      <trkpt lat="46.39481" lon="6.01173">
        <ele>1262</ele>
        <time>2018-05-10T13:12:30.000Z</time>
      </trkpt>
      <trkpt lat="46.39485" lon="6.01151">
        <ele>1260.8000488281</ele>
        <time>2018-05-10T13:12:37.000Z</time>
      </trkpt>
      <trkpt lat="46.39492" lon="6.01126">
        <ele>1259.4000244141</ele>
        <time>2018-05-10T13:12:42.000Z</time>
      </trkpt>
      <trkpt lat="46.39494" lon="6.01117">
        <ele>1259.1999511719</ele>
        <time>2018-05-10T13:12:46.000Z</time>
      </trkpt>
      <trkpt lat="46.39497" lon="6.01103">
        <ele>1258.8000488281</ele>
        <time>2018-05-10T13:12:54.000Z</time>
      </trkpt>
      <trkpt lat="46.39497" lon="6.01099">
        <ele>1258.8000488281</ele>
        <time>2018-05-10T13:12:57.000Z</time>
      </trkpt>
      <trkpt lat="46.39498" lon="6.01097">
        <ele>1258.8000488281</ele>
        <time>2018-05-10T13:13:00.000Z</time>
      </trkpt>
      <trkpt lat="46.39497" lon="6.01093">
        <ele>1258.5999755859</ele>
        <time>2018-05-10T13:13:10.000Z</time>
      </trkpt>
      <trkpt lat="46.39496" lon="6.01091">
        <ele>1258.5999755859</ele>
        <time>2018-05-10T13:13:14.000Z</time>
      </trkpt>
      <trkpt lat="46.39495" lon="6.01079">
        <ele>1258.4000244141</ele>
        <time>2018-05-10T13:13:20.000Z</time>
      </trkpt>
      <trkpt lat="46.39493" lon="6.0107">
        <ele>1258.1999511719</ele>
        <time>2018-05-10T13:13:25.000Z</time>
      </trkpt>
      <trkpt lat="46.39492" lon="6.01063">
        <ele>1258.4000244141</ele>
        <time>2018-05-10T13:13:31.000Z</time>
      </trkpt>
      <trkpt lat="46.39492" lon="6.01061">
        <ele>1258.4000244141</ele>
        <time>2018-05-10T13:13:43.000Z</time>
      </trkpt>
      <trkpt lat="46.39488" lon="6.0105">
        <ele>1258</ele>
        <time>2018-05-10T13:13:49.000Z</time>
      </trkpt>
      <trkpt lat="46.39486" lon="6.01046">
        <ele>1258</ele>
        <time>2018-05-10T13:13:51.000Z</time>
      </trkpt>
      <trkpt lat="46.3948" lon="6.01038">
        <ele>1257.5999755859</ele>
        <time>2018-05-10T13:13:56.000Z</time>
      </trkpt>
      <trkpt lat="46.39471" lon="6.01025">
        <ele>1257.4000244141</ele>
        <time>2018-05-10T13:14:04.000Z</time>
      </trkpt>
      <trkpt lat="46.39463" lon="6.01014">
        <ele>1257.4000244141</ele>
        <time>2018-05-10T13:14:11.000Z</time>
      </trkpt>
      <trkpt lat="46.39456" lon="6.00999">
        <ele>1257.1999511719</ele>
        <time>2018-05-10T13:14:18.000Z</time>
      </trkpt>
      <trkpt lat="46.39448" lon="6.00984">
        <ele>1257</ele>
        <time>2018-05-10T13:14:23.000Z</time>
      </trkpt>
      <trkpt lat="46.39441" lon="6.00972">
        <ele>1256.8000488281</ele>
        <time>2018-05-10T13:14:27.000Z</time>
      </trkpt>
      <trkpt lat="46.39431" lon="6.00961">
        <ele>1256.5999755859</ele>
        <time>2018-05-10T13:14:31.000Z</time>
      </trkpt>
      <trkpt lat="46.39428" lon="6.00956">
        <ele>1256.4000244141</ele>
        <time>2018-05-10T13:14:33.000Z</time>
      </trkpt>
      <trkpt lat="46.39425" lon="6.00949">
        <ele>1256</ele>
        <time>2018-05-10T13:14:38.000Z</time>
      </trkpt>
      <trkpt lat="46.39425" lon="6.00948">
        <ele>1256</ele>
        <time>2018-05-10T13:14:41.000Z</time>
      </trkpt>
      <trkpt lat="46.3942" lon="6.00942">
        <ele>1255.8000488281</ele>
        <time>2018-05-10T13:14:46.000Z</time>
      </trkpt>
      <trkpt lat="46.39415" lon="6.00934">
        <ele>1255.5999755859</ele>
        <time>2018-05-10T13:14:51.000Z</time>
      </trkpt>
      <trkpt lat="46.39408" lon="6.00922">
        <ele>1255.1999511719</ele>
        <time>2018-05-10T13:14:59.000Z</time>
      </trkpt>
      <trkpt lat="46.39403" lon="6.00912">
        <ele>1254.8000488281</ele>
        <time>2018-05-10T13:15:07.000Z</time>
      </trkpt>
      <trkpt lat="46.39396" lon="6.009">
        <ele>1254.1999511719</ele>
        <time>2018-05-10T13:15:15.000Z</time>
      </trkpt>
      <trkpt lat="46.39391" lon="6.00888">
        <ele>1253.8000488281</ele>
        <time>2018-05-10T13:15:23.000Z</time>
      </trkpt>
      <trkpt lat="46.39391" lon="6.00888">
        <ele>1253.8000488281</ele>
        <time>2018-05-10T13:15:24.000Z</time>
      </trkpt>
      <trkpt lat="46.39389" lon="6.00881">
        <ele>1254</ele>
        <time>2018-05-10T13:15:28.000Z</time>
      </trkpt>
      <trkpt lat="46.39385" lon="6.00872">
        <ele>1254</ele>
        <time>2018-05-10T13:15:33.000Z</time>
      </trkpt>
      <trkpt lat="46.39378" lon="6.00859">
        <ele>1254.1999511719</ele>
        <time>2018-05-10T13:15:41.000Z</time>
      </trkpt>
      <trkpt lat="46.39372" lon="6.00847">
        <ele>1254.4000244141</ele>
        <time>2018-05-10T13:15:49.000Z</time>
      </trkpt>
      <trkpt lat="46.39368" lon="6.00836">
        <ele>1254.5999755859</ele>
        <time>2018-05-10T13:15:56.000Z</time>
      </trkpt>
      <trkpt lat="46.39363" lon="6.00823">
        <ele>1254.8000488281</ele>
        <time>2018-05-10T13:16:04.000Z</time>
      </trkpt>
      <trkpt lat="46.39356" lon="6.0081">
        <ele>1255</ele>
        <time>2018-05-10T13:16:12.000Z</time>
      </trkpt>
      <trkpt lat="46.39355" lon="6.00807">
        <ele>1255</ele>
        <time>2018-05-10T13:16:14.000Z</time>
      </trkpt>
      <trkpt lat="46.39349" lon="6.00797">
        <ele>1255.4000244141</ele>
        <time>2018-05-10T13:16:21.000Z</time>
      </trkpt>
      <trkpt lat="46.39338" lon="6.00788">
        <ele>1255.4000244141</ele>
        <time>2018-05-10T13:16:30.000Z</time>
      </trkpt>
      <trkpt lat="46.39327" lon="6.00777">
        <ele>1255.4000244141</ele>
        <time>2018-05-10T13:16:40.000Z</time>
      </trkpt>
      <trkpt lat="46.39319" lon="6.00765">
        <ele>1255.8000488281</ele>
        <time>2018-05-10T13:16:49.000Z</time>
      </trkpt>
      <trkpt lat="46.39316" lon="6.00761">
        <ele>1255.8000488281</ele>
        <time>2018-05-10T13:16:52.000Z</time>
      </trkpt>
      <trkpt lat="46.39315" lon="6.00759">
        <ele>1256</ele>
        <time>2018-05-10T13:16:56.000Z</time>
      </trkpt>
      <trkpt lat="46.39315" lon="6.00758">
        <ele>1256</ele>
        <time>2018-05-10T13:17:05.000Z</time>
      </trkpt>
      <trkpt lat="46.39311" lon="6.00746">
        <ele>1256.8000488281</ele>
        <time>2018-05-10T13:17:30.000Z</time>
      </trkpt>
      <trkpt lat="46.39299" lon="6.00724">
        <ele>1258.4000244141</ele>
        <time>2018-05-10T13:17:42.000Z</time>
      </trkpt>
      <trkpt lat="46.3929" lon="6.00712">
        <ele>1259.4000244141</ele>
        <time>2018-05-10T13:17:50.000Z</time>
      </trkpt>
      <trkpt lat="46.39279" lon="6.00705">
        <ele>1260</ele>
        <time>2018-05-10T13:17:58.000Z</time>
      </trkpt>
      <trkpt lat="46.39268" lon="6.00702">
        <ele>1260.5999755859</ele>
        <time>2018-05-10T13:18:05.000Z</time>
      </trkpt>
      <trkpt lat="46.39256" lon="6.007">
        <ele>1261</ele>
        <time>2018-05-10T13:18:13.000Z</time>
      </trkpt>
      <trkpt lat="46.39247" lon="6.00701">
        <ele>1261</ele>
        <time>2018-05-10T13:18:20.000Z</time>
      </trkpt>
      <trkpt lat="46.39236" lon="6.00702">
        <ele>1261.1999511719</ele>
        <time>2018-05-10T13:18:29.000Z</time>
      </trkpt>
      <trkpt lat="46.39225" lon="6.00705">
        <ele>1261.1999511719</ele>
        <time>2018-05-10T13:18:37.000Z</time>
      </trkpt>
      <trkpt lat="46.39217" lon="6.00707">
        <ele>1260.8000488281</ele>
        <time>2018-05-10T13:18:44.000Z</time>
      </trkpt>
      <trkpt lat="46.39216" lon="6.00708">
        <ele>1260.8000488281</ele>
        <time>2018-05-10T13:18:48.000Z</time>
      </trkpt>
      <trkpt lat="46.39214" lon="6.00709">
        <ele>1260.8000488281</ele>
        <time>2018-05-10T13:18:51.000Z</time>
      </trkpt>
      <trkpt lat="46.39208" lon="6.00712">
        <ele>1260.5999755859</ele>
        <time>2018-05-10T13:18:55.000Z</time>
      </trkpt>
      <trkpt lat="46.39194" lon="6.00716">
        <ele>1260.4000244141</ele>
        <time>2018-05-10T13:19:06.000Z</time>
      </trkpt>
      <trkpt lat="46.39184" lon="6.00718">
        <ele>1260.4000244141</ele>
        <time>2018-05-10T13:19:14.000Z</time>
      </trkpt>
      <trkpt lat="46.39173" lon="6.00718">
        <ele>1260.4000244141</ele>
        <time>2018-05-10T13:19:22.000Z</time>
      </trkpt>
      <trkpt lat="46.39161" lon="6.00716">
        <ele>1260.4000244141</ele>
        <time>2018-05-10T13:19:31.000Z</time>
      </trkpt>
      <trkpt lat="46.39154" lon="6.00716">
        <ele>1260.4000244141</ele>
        <time>2018-05-10T13:19:38.000Z</time>
      </trkpt>
      <trkpt lat="46.39154" lon="6.00715">
        <ele>1260.4000244141</ele>
        <time>2018-05-10T13:19:39.000Z</time>
      </trkpt>
      <trkpt lat="46.39155" lon="6.00717">
        <ele>1260.4000244141</ele>
        <time>2018-05-10T13:21:13.000Z</time>
      </trkpt>
      <trkpt lat="46.39153" lon="6.00716">
        <ele>1260.4000244141</ele>
        <time>2018-05-10T13:22:26.000Z</time>
      </trkpt>
      <trkpt lat="46.39145" lon="6.0072">
        <ele>1260.5999755859</ele>
        <time>2018-05-10T13:22:33.000Z</time>
      </trkpt>
      <trkpt lat="46.39135" lon="6.00723">
        <ele>1261</ele>
        <time>2018-05-10T13:22:40.000Z</time>
      </trkpt>
      <trkpt lat="46.39126" lon="6.00727">
        <ele>1261.5999755859</ele>
        <time>2018-05-10T13:22:47.000Z</time>
      </trkpt>
      <trkpt lat="46.39112" lon="6.00734">
        <ele>1262.4000244141</ele>
        <time>2018-05-10T13:22:57.000Z</time>
      </trkpt>
      <trkpt lat="46.391" lon="6.00736">
        <ele>1263.1999511719</ele>
        <time>2018-05-10T13:23:05.000Z</time>
      </trkpt>
      <trkpt lat="46.39091" lon="6.00732">
        <ele>1264</ele>
        <time>2018-05-10T13:23:12.000Z</time>
      </trkpt>
      <trkpt lat="46.39086" lon="6.00725">
        <ele>1264.5999755859</ele>
        <time>2018-05-10T13:23:17.000Z</time>
      </trkpt>
      <trkpt lat="46.39083" lon="6.00714">
        <ele>1265.5999755859</ele>
        <time>2018-05-10T13:23:23.000Z</time>
      </trkpt>
      <trkpt lat="46.3908" lon="6.00695">
        <ele>1267.4000244141</ele>
        <time>2018-05-10T13:23:33.000Z</time>
      </trkpt>
      <trkpt lat="46.39076" lon="6.00683">
        <ele>1268.8000488281</ele>
        <time>2018-05-10T13:23:40.000Z</time>
      </trkpt>
      <trkpt lat="46.39078" lon="6.00678">
        <ele>1269</ele>
        <time>2018-05-10T13:23:46.000Z</time>
      </trkpt>
      <trkpt lat="46.39077" lon="6.00679">
        <ele>1269</ele>
        <time>2018-05-10T13:23:50.000Z</time>
      </trkpt>
      <trkpt lat="46.39075" lon="6.00679">
        <ele>1269.1999511719</ele>
        <time>2018-05-10T13:24:18.000Z</time>
      </trkpt>
      <trkpt lat="46.39073" lon="6.00678">
        <ele>1269.4000244141</ele>
        <time>2018-05-10T13:24:23.000Z</time>
      </trkpt>
      <trkpt lat="46.39072" lon="6.00677">
        <ele>1269.5999755859</ele>
        <time>2018-05-10T13:24:38.000Z</time>
      </trkpt>
      <trkpt lat="46.39072" lon="6.00677">
        <ele>1269.5999755859</ele>
        <time>2018-05-10T13:24:39.000Z</time>
      </trkpt>
      <trkpt lat="46.39074" lon="6.00679">
        <ele>1269.1999511719</ele>
        <time>2018-05-10T13:25:21.000Z</time>
      </trkpt>
      <trkpt lat="46.39071" lon="6.00667">
        <ele>1270.4000244141</ele>
        <time>2018-05-10T13:25:32.000Z</time>
      </trkpt>
      <trkpt lat="46.3907" lon="6.00665">
        <ele>1270.8000488281</ele>
        <time>2018-05-10T13:25:33.000Z</time>
      </trkpt>
      <trkpt lat="46.39063" lon="6.00654">
        <ele>1272</ele>
        <time>2018-05-10T13:25:40.000Z</time>
      </trkpt>
      <trkpt lat="46.39054" lon="6.00641">
        <ele>1272.4000244141</ele>
        <time>2018-05-10T13:25:49.000Z</time>
      </trkpt>
      <trkpt lat="46.39048" lon="6.00633">
        <ele>1272.5999755859</ele>
        <time>2018-05-10T13:25:56.000Z</time>
      </trkpt>
      <trkpt lat="46.39046" lon="6.0063">
        <ele>1272.5999755859</ele>
        <time>2018-05-10T13:26:02.000Z</time>
      </trkpt>
      <trkpt lat="46.39044" lon="6.0063">
        <ele>1272.5999755859</ele>
        <time>2018-05-10T13:26:11.000Z</time>
      </trkpt>
      <trkpt lat="46.39043" lon="6.0063">
        <ele>1272.4000244141</ele>
        <time>2018-05-10T13:26:14.000Z</time>
      </trkpt>
      <trkpt lat="46.39042" lon="6.00631">
        <ele>1272.4000244141</ele>
        <time>2018-05-10T13:26:17.000Z</time>
      </trkpt>
      <trkpt lat="46.39036" lon="6.00649">
        <ele>1271</ele>
        <time>2018-05-10T13:26:33.000Z</time>
      </trkpt>
      <trkpt lat="46.39032" lon="6.00644">
        <ele>1271.1999511719</ele>
        <time>2018-05-10T13:26:39.000Z</time>
      </trkpt>
      <trkpt lat="46.39031" lon="6.00644">
        <ele>1271.1999511719</ele>
        <time>2018-05-10T13:26:42.000Z</time>
      </trkpt>
      <trkpt lat="46.39031" lon="6.00645">
        <ele>1271</ele>
        <time>2018-05-10T13:26:45.000Z</time>
      </trkpt>
      <trkpt lat="46.3903" lon="6.0065">
        <ele>1270.5999755859</ele>
        <time>2018-05-10T13:26:48.000Z</time>
      </trkpt>
      <trkpt lat="46.39028" lon="6.00654">
        <ele>1270.1999511719</ele>
        <time>2018-05-10T13:26:53.000Z</time>
      </trkpt>
      <trkpt lat="46.39027" lon="6.00653">
        <ele>1270.1999511719</ele>
        <time>2018-05-10T13:26:56.000Z</time>
      </trkpt>
      <trkpt lat="46.39027" lon="6.00653">
        <ele>1270.1999511719</ele>
        <time>2018-05-10T13:26:57.000Z</time>
      </trkpt>
      <trkpt lat="46.39025" lon="6.00668">
        <ele>1268.8000488281</ele>
        <time>2018-05-10T13:27:38.000Z</time>
      </trkpt>
      <trkpt lat="46.39022" lon="6.00676">
        <ele>1268.1999511719</ele>
        <time>2018-05-10T13:27:43.000Z</time>
      </trkpt>
      <trkpt lat="46.39017" lon="6.00678">
        <ele>1267.8000488281</ele>
        <time>2018-05-10T13:27:48.000Z</time>
      </trkpt>
      <trkpt lat="46.39016" lon="6.00678">
        <ele>1267.8000488281</ele>
        <time>2018-05-10T13:27:51.000Z</time>
      </trkpt>
      <trkpt lat="46.39011" lon="6.0068">
        <ele>1267.8000488281</ele>
        <time>2018-05-10T13:27:56.000Z</time>
      </trkpt>
      <trkpt lat="46.39007" lon="6.00681">
        <ele>1268</ele>
        <time>2018-05-10T13:28:02.000Z</time>
      </trkpt>
      <trkpt lat="46.39" lon="6.00684">
        <ele>1268</ele>
        <time>2018-05-10T13:28:09.000Z</time>
      </trkpt>
      <trkpt lat="46.38991" lon="6.00685">
        <ele>1268.1999511719</ele>
        <time>2018-05-10T13:28:17.000Z</time>
      </trkpt>
      <trkpt lat="46.38984" lon="6.00682">
        <ele>1268.4000244141</ele>
        <time>2018-05-10T13:28:22.000Z</time>
      </trkpt>
      <trkpt lat="46.38981" lon="6.0068">
        <ele>1268.5999755859</ele>
        <time>2018-05-10T13:28:26.000Z</time>
      </trkpt>
      <trkpt lat="46.38979" lon="6.00678">
        <ele>1268.8000488281</ele>
        <time>2018-05-10T13:28:31.000Z</time>
      </trkpt>
      <trkpt lat="46.38977" lon="6.00677">
        <ele>1268.8000488281</ele>
        <time>2018-05-10T13:28:34.000Z</time>
      </trkpt>
      <trkpt lat="46.38966" lon="6.00671">
        <ele>1269.8000488281</ele>
        <time>2018-05-10T13:28:43.000Z</time>
      </trkpt>
      <trkpt lat="46.38956" lon="6.00669">
        <ele>1270.5999755859</ele>
        <time>2018-05-10T13:28:53.000Z</time>
      </trkpt>
      <trkpt lat="46.38951" lon="6.0067">
        <ele>1270.8000488281</ele>
        <time>2018-05-10T13:29:00.000Z</time>
      </trkpt>
      <trkpt lat="46.38945" lon="6.0067">
        <ele>1271.1999511719</ele>
        <time>2018-05-10T13:29:06.000Z</time>
      </trkpt>
      <trkpt lat="46.38939" lon="6.00671">
        <ele>1271.5999755859</ele>
        <time>2018-05-10T13:29:11.000Z</time>
      </trkpt>
      <trkpt lat="46.38935" lon="6.00669">
        <ele>1272</ele>
        <time>2018-05-10T13:29:15.000Z</time>
      </trkpt>
      <trkpt lat="46.38926" lon="6.00665">
        <ele>1272.8000488281</ele>
        <time>2018-05-10T13:29:23.000Z</time>
      </trkpt>
      <trkpt lat="46.38921" lon="6.00662">
        <ele>1273.1999511719</ele>
        <time>2018-05-10T13:29:28.000Z</time>
      </trkpt>
      <trkpt lat="46.38911" lon="6.00658">
        <ele>1274</ele>
        <time>2018-05-10T13:29:36.000Z</time>
      </trkpt>
      <trkpt lat="46.3891" lon="6.00658">
        <ele>1274.1999511719</ele>
        <time>2018-05-10T13:29:40.000Z</time>
      </trkpt>
      <trkpt lat="46.38909" lon="6.00656">
        <ele>1274.1999511719</ele>
        <time>2018-05-10T13:29:56.000Z</time>
      </trkpt>
      <trkpt lat="46.38902" lon="6.00651">
        <ele>1275</ele>
        <time>2018-05-10T13:30:03.000Z</time>
      </trkpt>
      <trkpt lat="46.3889" lon="6.00642">
        <ele>1275.4000244141</ele>
        <time>2018-05-10T13:30:11.000Z</time>
      </trkpt>
      <trkpt lat="46.3888" lon="6.0063">
        <ele>1275.1999511719</ele>
        <time>2018-05-10T13:30:19.000Z</time>
      </trkpt>
      <trkpt lat="46.38873" lon="6.00618">
        <ele>1275</ele>
        <time>2018-05-10T13:30:26.000Z</time>
      </trkpt>
      <trkpt lat="46.38867" lon="6.00609">
        <ele>1275</ele>
        <time>2018-05-10T13:30:32.000Z</time>
      </trkpt>
      <trkpt lat="46.38861" lon="6.00604">
        <ele>1275</ele>
        <time>2018-05-10T13:30:38.000Z</time>
      </trkpt>
      <trkpt lat="46.38857" lon="6.006">
        <ele>1275</ele>
        <time>2018-05-10T13:30:42.000Z</time>
      </trkpt>
      <trkpt lat="46.38851" lon="6.00595">
        <ele>1275</ele>
        <time>2018-05-10T13:30:51.000Z</time>
      </trkpt>
      <trkpt lat="46.38851" lon="6.00595">
        <ele>1275</ele>
        <time>2018-05-10T13:30:52.000Z</time>
      </trkpt>
      <trkpt lat="46.38847" lon="6.00593">
        <ele>1275</ele>
        <time>2018-05-10T13:31:00.000Z</time>
      </trkpt>
      <trkpt lat="46.38836" lon="6.00584">
        <ele>1275.1999511719</ele>
        <time>2018-05-10T13:31:09.000Z</time>
      </trkpt>
      <trkpt lat="46.38826" lon="6.00583">
        <ele>1275.4000244141</ele>
        <time>2018-05-10T13:31:16.000Z</time>
      </trkpt>
      <trkpt lat="46.3882" lon="6.00581">
        <ele>1275.5999755859</ele>
        <time>2018-05-10T13:31:20.000Z</time>
      </trkpt>
      <trkpt lat="46.38813" lon="6.0058">
        <ele>1275.5999755859</ele>
        <time>2018-05-10T13:31:25.000Z</time>
      </trkpt>
      <trkpt lat="46.38805" lon="6.00579">
        <ele>1275.1999511719</ele>
        <time>2018-05-10T13:31:31.000Z</time>
      </trkpt>
      <trkpt lat="46.38795" lon="6.00576">
        <ele>1274.5999755859</ele>
        <time>2018-05-10T13:31:40.000Z</time>
      </trkpt>
      <trkpt lat="46.38787" lon="6.00576">
        <ele>1274.1999511719</ele>
        <time>2018-05-10T13:31:47.000Z</time>
      </trkpt>
      <trkpt lat="46.38786" lon="6.00575">
        <ele>1274.1999511719</ele>
        <time>2018-05-10T13:31:49.000Z</time>
      </trkpt>
      <trkpt lat="46.38785" lon="6.00576">
        <ele>1274.1999511719</ele>
        <time>2018-05-10T13:31:53.000Z</time>
      </trkpt>
      <trkpt lat="46.38779" lon="6.0058">
        <ele>1274</ele>
        <time>2018-05-10T13:32:00.000Z</time>
      </trkpt>
      <trkpt lat="46.38777" lon="6.00579">
        <ele>1273.8000488281</ele>
        <time>2018-05-10T13:32:05.000Z</time>
      </trkpt>
      <trkpt lat="46.38775" lon="6.00578">
        <ele>1273.8000488281</ele>
        <time>2018-05-10T13:32:14.000Z</time>
      </trkpt>
      <trkpt lat="46.38773" lon="6.0058">
        <ele>1273.8000488281</ele>
        <time>2018-05-10T13:32:17.000Z</time>
      </trkpt>
      <trkpt lat="46.38764" lon="6.00579">
        <ele>1273.1999511719</ele>
        <time>2018-05-10T13:32:25.000Z</time>
      </trkpt>
      <trkpt lat="46.38758" lon="6.00571">
        <ele>1272.8000488281</ele>
        <time>2018-05-10T13:32:33.000Z</time>
      </trkpt>
      <trkpt lat="46.38752" lon="6.00566">
        <ele>1272.1999511719</ele>
        <time>2018-05-10T13:32:39.000Z</time>
      </trkpt>
      <trkpt lat="46.38751" lon="6.00565">
        <ele>1272.1999511719</ele>
        <time>2018-05-10T13:32:40.000Z</time>
      </trkpt>
      <trkpt lat="46.38744" lon="6.00558">
        <ele>1271.5999755859</ele>
        <time>2018-05-10T13:32:47.000Z</time>
      </trkpt>
      <trkpt lat="46.38743" lon="6.00557">
        <ele>1271.5999755859</ele>
        <time>2018-05-10T13:32:48.000Z</time>
      </trkpt>
      <trkpt lat="46.38741" lon="6.00553">
        <ele>1271.5999755859</ele>
        <time>2018-05-10T13:32:54.000Z</time>
      </trkpt>
      <trkpt lat="46.3874" lon="6.00551">
        <ele>1271.5999755859</ele>
        <time>2018-05-10T13:33:11.000Z</time>
      </trkpt>
      <trkpt lat="46.38731" lon="6.00541">
        <ele>1271.4000244141</ele>
        <time>2018-05-10T13:33:19.000Z</time>
      </trkpt>
      <trkpt lat="46.38721" lon="6.00533">
        <ele>1270.5999755859</ele>
        <time>2018-05-10T13:33:27.000Z</time>
      </trkpt>
      <trkpt lat="46.38717" lon="6.00528">
        <ele>1270.1999511719</ele>
        <time>2018-05-10T13:33:33.000Z</time>
      </trkpt>
      <trkpt lat="46.38707" lon="6.00522">
        <ele>1269.1999511719</ele>
        <time>2018-05-10T13:33:40.000Z</time>
      </trkpt>
      <trkpt lat="46.38698" lon="6.00512">
        <ele>1268.4000244141</ele>
        <time>2018-05-10T13:33:48.000Z</time>
      </trkpt>
      <trkpt lat="46.38689" lon="6.005">
        <ele>1267.8000488281</ele>
        <time>2018-05-10T13:33:57.000Z</time>
      </trkpt>
      <trkpt lat="46.38682" lon="6.0049">
        <ele>1267.1999511719</ele>
        <time>2018-05-10T13:34:04.000Z</time>
      </trkpt>
      <trkpt lat="46.38673" lon="6.00478">
        <ele>1266.5999755859</ele>
        <time>2018-05-10T13:34:13.000Z</time>
      </trkpt>
      <trkpt lat="46.38667" lon="6.00467">
        <ele>1266.4000244141</ele>
        <time>2018-05-10T13:34:21.000Z</time>
      </trkpt>
      <trkpt lat="46.38666" lon="6.00466">
        <ele>1266.4000244141</ele>
        <time>2018-05-10T13:34:24.000Z</time>
      </trkpt>
      <trkpt lat="46.38662" lon="6.00457">
        <ele>1266.5999755859</ele>
        <time>2018-05-10T13:34:35.000Z</time>
      </trkpt>
      <trkpt lat="46.3866" lon="6.00451">
        <ele>1266.5999755859</ele>
        <time>2018-05-10T13:34:41.000Z</time>
      </trkpt>
      <trkpt lat="46.38659" lon="6.00449">
        <ele>1266.8000488281</ele>
        <time>2018-05-10T13:34:47.000Z</time>
      </trkpt>
      <trkpt lat="46.38655" lon="6.00432">
        <ele>1267.4000244141</ele>
        <time>2018-05-10T13:34:56.000Z</time>
      </trkpt>
      <trkpt lat="46.38652" lon="6.0042">
        <ele>1267.8000488281</ele>
        <time>2018-05-10T13:35:04.000Z</time>
      </trkpt>
      <trkpt lat="46.38647" lon="6.00408">
        <ele>1268</ele>
        <time>2018-05-10T13:35:12.000Z</time>
      </trkpt>
      <trkpt lat="46.38644" lon="6.00403">
        <ele>1268.1999511719</ele>
        <time>2018-05-10T13:35:15.000Z</time>
      </trkpt>
      <trkpt lat="46.38644" lon="6.00403">
        <ele>1268.1999511719</ele>
        <time>2018-05-10T13:35:15.000Z</time>
      </trkpt>
      <trkpt lat="46.38639" lon="6.00397">
        <ele>1268.4000244141</ele>
        <time>2018-05-10T13:35:20.000Z</time>
      </trkpt>
      <trkpt lat="46.38629" lon="6.00387">
        <ele>1268.8000488281</ele>
        <time>2018-05-10T13:35:30.000Z</time>
      </trkpt>
      <trkpt lat="46.38625" lon="6.00384">
        <ele>1268.8000488281</ele>
        <time>2018-05-10T13:35:34.000Z</time>
      </trkpt>
      <trkpt lat="46.38618" lon="6.0038">
        <ele>1268.8000488281</ele>
        <time>2018-05-10T13:35:41.000Z</time>
      </trkpt>
      <trkpt lat="46.3861" lon="6.00371">
        <ele>1269</ele>
        <time>2018-05-10T13:35:51.000Z</time>
      </trkpt>
      <trkpt lat="46.38608" lon="6.00366">
        <ele>1269.1999511719</ele>
        <time>2018-05-10T13:35:58.000Z</time>
      </trkpt>
      <trkpt lat="46.38605" lon="6.00363">
        <ele>1269.4000244141</ele>
        <time>2018-05-10T13:36:02.000Z</time>
      </trkpt>
      <trkpt lat="46.38597" lon="6.00358">
        <ele>1269.4000244141</ele>
        <time>2018-05-10T13:36:08.000Z</time>
      </trkpt>
      <trkpt lat="46.38585" lon="6.00352">
        <ele>1269.4000244141</ele>
        <time>2018-05-10T13:36:18.000Z</time>
      </trkpt>
      <trkpt lat="46.38576" lon="6.00344">
        <ele>1269.5999755859</ele>
        <time>2018-05-10T13:36:26.000Z</time>
      </trkpt>
      <trkpt lat="46.38572" lon="6.00335">
        <ele>1269.8000488281</ele>
        <time>2018-05-10T13:36:33.000Z</time>
      </trkpt>
      <trkpt lat="46.38565" lon="6.0032">
        <ele>1270.4000244141</ele>
        <time>2018-05-10T13:36:43.000Z</time>
      </trkpt>
      <trkpt lat="46.38557" lon="6.00305">
        <ele>1271.1999511719</ele>
        <time>2018-05-10T13:36:53.000Z</time>
      </trkpt>
      <trkpt lat="46.38553" lon="6.00291">
        <ele>1271.5999755859</ele>
        <time>2018-05-10T13:37:01.000Z</time>
      </trkpt>
      <trkpt lat="46.38552" lon="6.00288">
        <ele>1271.8000488281</ele>
        <time>2018-05-10T13:37:05.000Z</time>
      </trkpt>
      <trkpt lat="46.3855" lon="6.00287">
        <ele>1271.8000488281</ele>
        <time>2018-05-10T13:37:10.000Z</time>
      </trkpt>
      <trkpt lat="46.38543" lon="6.0028">
        <ele>1272</ele>
        <time>2018-05-10T13:37:19.000Z</time>
      </trkpt>
      <trkpt lat="46.38536" lon="6.00273">
        <ele>1272.1999511719</ele>
        <time>2018-05-10T13:37:25.000Z</time>
      </trkpt>
      <trkpt lat="46.38529" lon="6.0026">
        <ele>1272.8000488281</ele>
        <time>2018-05-10T13:37:33.000Z</time>
      </trkpt>
      <trkpt lat="46.38525" lon="6.00246">
        <ele>1273.1999511719</ele>
        <time>2018-05-10T13:37:41.000Z</time>
      </trkpt>
      <trkpt lat="46.38519" lon="6.00232">
        <ele>1273.8000488281</ele>
        <time>2018-05-10T13:37:49.000Z</time>
      </trkpt>
      <trkpt lat="46.38516" lon="6.00215">
        <ele>1274.1999511719</ele>
        <time>2018-05-10T13:37:58.000Z</time>
      </trkpt>
      <trkpt lat="46.38514" lon="6.00208">
        <ele>1274.1999511719</ele>
        <time>2018-05-10T13:38:03.000Z</time>
      </trkpt>
      <trkpt lat="46.38509" lon="6.00186">
        <ele>1274.4000244141</ele>
        <time>2018-05-10T13:38:14.000Z</time>
      </trkpt>
      <trkpt lat="46.38505" lon="6.0017">
        <ele>1274.5999755859</ele>
        <time>2018-05-10T13:38:23.000Z</time>
      </trkpt>
      <trkpt lat="46.38498" lon="6.00147">
        <ele>1274.8000488281</ele>
        <time>2018-05-10T13:38:36.000Z</time>
      </trkpt>
      <trkpt lat="46.38496" lon="6.00142">
        <ele>1274.8000488281</ele>
        <time>2018-05-10T13:38:41.000Z</time>
      </trkpt>
      <trkpt lat="46.38489" lon="6.00126">
        <ele>1274.5999755859</ele>
        <time>2018-05-10T13:38:51.000Z</time>
      </trkpt>
      <trkpt lat="46.38481" lon="6.00114">
        <ele>1274.4000244141</ele>
        <time>2018-05-10T13:39:00.000Z</time>
      </trkpt>
      <trkpt lat="46.3848" lon="6.00113">
        <ele>1274.4000244141</ele>
        <time>2018-05-10T13:39:04.000Z</time>
      </trkpt>
      <trkpt lat="46.38479" lon="6.00111">
        <ele>1274.4000244141</ele>
        <time>2018-05-10T13:39:12.000Z</time>
      </trkpt>
      <trkpt lat="46.38478" lon="6.0011">
        <ele>1274.1999511719</ele>
        <time>2018-05-10T13:39:16.000Z</time>
      </trkpt>
      <trkpt lat="46.38477" lon="6.00108">
        <ele>1274.1999511719</ele>
        <time>2018-05-10T13:39:19.000Z</time>
      </trkpt>
      <trkpt lat="46.38474" lon="6.00104">
        <ele>1274.1999511719</ele>
        <time>2018-05-10T13:39:24.000Z</time>
      </trkpt>
      <trkpt lat="46.38473" lon="6.00104">
        <ele>1274.1999511719</ele>
        <time>2018-05-10T13:39:40.000Z</time>
      </trkpt>
      <trkpt lat="46.38471" lon="6.00102">
        <ele>1274.1999511719</ele>
        <time>2018-05-10T13:39:46.000Z</time>
      </trkpt>
      <trkpt lat="46.3847" lon="6.00101">
        <ele>1274.1999511719</ele>
        <time>2018-05-10T13:39:50.000Z</time>
      </trkpt>
      <trkpt lat="46.38469" lon="6.00099">
        <ele>1274.1999511719</ele>
        <time>2018-05-10T13:39:52.000Z</time>
      </trkpt>
      <trkpt lat="46.3846" lon="6.00094">
        <ele>1274.1999511719</ele>
        <time>2018-05-10T13:40:01.000Z</time>
      </trkpt>
      <trkpt lat="46.3845" lon="6.00091">
        <ele>1274.1999511719</ele>
        <time>2018-05-10T13:40:09.000Z</time>
      </trkpt>
      <trkpt lat="46.38437" lon="6.00088">
        <ele>1274.1999511719</ele>
        <time>2018-05-10T13:40:20.000Z</time>
      </trkpt>
      <trkpt lat="46.38429" lon="6.00085">
        <ele>1274.1999511719</ele>
        <time>2018-05-10T13:40:27.000Z</time>
      </trkpt>
      <trkpt lat="46.38417" lon="6.00082">
        <ele>1274.4000244141</ele>
        <time>2018-05-10T13:40:36.000Z</time>
      </trkpt>
      <trkpt lat="46.38408" lon="6.00079">
        <ele>1274.5999755859</ele>
        <time>2018-05-10T13:40:43.000Z</time>
      </trkpt>
      <trkpt lat="46.38402" lon="6.00075">
        <ele>1274.5999755859</ele>
        <time>2018-05-10T13:40:49.000Z</time>
      </trkpt>
      <trkpt lat="46.38393" lon="6.00072">
        <ele>1274.5999755859</ele>
        <time>2018-05-10T13:40:57.000Z</time>
      </trkpt>
      <trkpt lat="46.38384" lon="6.00073">
        <ele>1274.8000488281</ele>
        <time>2018-05-10T13:41:04.000Z</time>
      </trkpt>
      <trkpt lat="46.38372" lon="6.00071">
        <ele>1274.5999755859</ele>
        <time>2018-05-10T13:41:13.000Z</time>
      </trkpt>
      <trkpt lat="46.38363" lon="6.00071">
        <ele>1274.5999755859</ele>
        <time>2018-05-10T13:41:21.000Z</time>
      </trkpt>
      <trkpt lat="46.38355" lon="6.00072">
        <ele>1274.5999755859</ele>
        <time>2018-05-10T13:41:29.000Z</time>
      </trkpt>
      <trkpt lat="46.3835" lon="6.00069">
        <ele>1274.5999755859</ele>
        <time>2018-05-10T13:41:35.000Z</time>
      </trkpt>
      <trkpt lat="46.38341" lon="6.00064">
        <ele>1274.1999511719</ele>
        <time>2018-05-10T13:41:43.000Z</time>
      </trkpt>
      <trkpt lat="46.38332" lon="6.00061">
        <ele>1274.1999511719</ele>
        <time>2018-05-10T13:41:50.000Z</time>
      </trkpt>
      <trkpt lat="46.38327" lon="6.00059">
        <ele>1274</ele>
        <time>2018-05-10T13:41:55.000Z</time>
      </trkpt>
      <trkpt lat="46.38316" lon="6.00053">
        <ele>1274.1999511719</ele>
        <time>2018-05-10T13:42:04.000Z</time>
      </trkpt>
      <trkpt lat="46.38308" lon="6.00051">
        <ele>1274</ele>
        <time>2018-05-10T13:42:11.000Z</time>
      </trkpt>
      <trkpt lat="46.38306" lon="6.0005">
        <ele>1274</ele>
        <time>2018-05-10T13:42:13.000Z</time>
      </trkpt>
      <trkpt lat="46.38303" lon="6.0005">
        <ele>1274</ele>
        <time>2018-05-10T13:42:16.000Z</time>
      </trkpt>
      <trkpt lat="46.38298" lon="6.00046">
        <ele>1274.1999511719</ele>
        <time>2018-05-10T13:42:21.000Z</time>
      </trkpt>
      <trkpt lat="46.38287" lon="6.00034">
        <ele>1274</ele>
        <time>2018-05-10T13:42:32.000Z</time>
      </trkpt>
      <trkpt lat="46.38273" lon="6.00022">
        <ele>1274.1999511719</ele>
        <time>2018-05-10T13:42:45.000Z</time>
      </trkpt>
      <trkpt lat="46.38267" lon="6.00018">
        <ele>1274.1999511719</ele>
        <time>2018-05-10T13:42:52.000Z</time>
      </trkpt>
      <trkpt lat="46.38267" lon="6.00018">
        <ele>1274.1999511719</ele>
        <time>2018-05-10T13:42:54.000Z</time>
      </trkpt>
      <trkpt lat="46.38262" lon="6.00014">
        <ele>1274.1999511719</ele>
        <time>2018-05-10T13:43:05.000Z</time>
      </trkpt>
      <trkpt lat="46.38262" lon="6.00014">
        <ele>1274.1999511719</ele>
        <time>2018-05-10T13:43:08.000Z</time>
      </trkpt>
      <trkpt lat="46.38263" lon="6.00017">
        <ele>1274.1999511719</ele>
        <time>2018-05-10T13:43:16.000Z</time>
      </trkpt>
      <trkpt lat="46.3826" lon="6.00018">
        <ele>1274.4000244141</ele>
        <time>2018-05-10T13:43:46.000Z</time>
      </trkpt>
      <trkpt lat="46.38265" lon="6.0002">
        <ele>1274.1999511719</ele>
        <time>2018-05-10T13:43:55.000Z</time>
      </trkpt>
      <trkpt lat="46.38264" lon="6.0002">
        <ele>1274.4000244141</ele>
        <time>2018-05-10T13:43:57.000Z</time>
      </trkpt>
      <trkpt lat="46.38257" lon="6.0002">
        <ele>1274.4000244141</ele>
        <time>2018-05-10T13:44:03.000Z</time>
      </trkpt>
      <trkpt lat="46.38256" lon="6.0002">
        <ele>1274.4000244141</ele>
        <time>2018-05-10T13:44:04.000Z</time>
      </trkpt>
      <trkpt lat="46.38244" lon="6.00018">
        <ele>1274.8000488281</ele>
        <time>2018-05-10T13:44:13.000Z</time>
      </trkpt>
      <trkpt lat="46.3823" lon="6.00017">
        <ele>1275</ele>
        <time>2018-05-10T13:44:22.000Z</time>
      </trkpt>
      <trkpt lat="46.38217" lon="6.00016">
        <ele>1275</ele>
        <time>2018-05-10T13:44:30.000Z</time>
      </trkpt>
      <trkpt lat="46.38207" lon="6.00005">
        <ele>1274.8000488281</ele>
        <time>2018-05-10T13:44:38.000Z</time>
      </trkpt>
      <trkpt lat="46.382" lon="5.99998">
        <ele>1274.5999755859</ele>
        <time>2018-05-10T13:44:44.000Z</time>
      </trkpt>
      <trkpt lat="46.38194" lon="5.99987">
        <ele>1274.1999511719</ele>
        <time>2018-05-10T13:44:52.000Z</time>
      </trkpt>
      <trkpt lat="46.38186" lon="5.99979">
        <ele>1274.1999511719</ele>
        <time>2018-05-10T13:45:00.000Z</time>
      </trkpt>
      <trkpt lat="46.38178" lon="5.99976">
        <ele>1274</ele>
        <time>2018-05-10T13:45:06.000Z</time>
      </trkpt>
      <trkpt lat="46.38165" lon="5.9997">
        <ele>1273.8000488281</ele>
        <time>2018-05-10T13:45:16.000Z</time>
      </trkpt>
      <trkpt lat="46.38157" lon="5.99964">
        <ele>1273.8000488281</ele>
        <time>2018-05-10T13:45:23.000Z</time>
      </trkpt>
      <trkpt lat="46.38145" lon="5.9996">
        <ele>1273.4000244141</ele>
        <time>2018-05-10T13:45:31.000Z</time>
      </trkpt>
      <trkpt lat="46.38131" lon="5.99949">
        <ele>1272</ele>
        <time>2018-05-10T13:45:42.000Z</time>
      </trkpt>
      <trkpt lat="46.38121" lon="5.99946">
        <ele>1271</ele>
        <time>2018-05-10T13:45:49.000Z</time>
      </trkpt>
      <trkpt lat="46.38114" lon="5.99942">
        <ele>1270.4000244141</ele>
        <time>2018-05-10T13:45:56.000Z</time>
      </trkpt>
      <trkpt lat="46.38108" lon="5.99937">
        <ele>1270</ele>
        <time>2018-05-10T13:46:02.000Z</time>
      </trkpt>
      <trkpt lat="46.38095" lon="5.9993">
        <ele>1269</ele>
        <time>2018-05-10T13:46:12.000Z</time>
      </trkpt>
      <trkpt lat="46.38086" lon="5.99924">
        <ele>1268.4000244141</ele>
        <time>2018-05-10T13:46:20.000Z</time>
      </trkpt>
      <trkpt lat="46.38077" lon="5.99915">
        <ele>1267.5999755859</ele>
        <time>2018-05-10T13:46:29.000Z</time>
      </trkpt>
      <trkpt lat="46.38067" lon="5.99907">
        <ele>1266.5999755859</ele>
        <time>2018-05-10T13:46:38.000Z</time>
      </trkpt>
      <trkpt lat="46.38057" lon="5.99898">
        <ele>1266.8000488281</ele>
        <time>2018-05-10T13:46:47.000Z</time>
      </trkpt>
      <trkpt lat="46.38044" lon="5.9989">
        <ele>1267.5999755859</ele>
        <time>2018-05-10T13:46:58.000Z</time>
      </trkpt>
      <trkpt lat="46.38034" lon="5.99885">
        <ele>1268.1999511719</ele>
        <time>2018-05-10T13:47:06.000Z</time>
      </trkpt>
      <trkpt lat="46.38024" lon="5.99881">
        <ele>1268.8000488281</ele>
        <time>2018-05-10T13:47:14.000Z</time>
      </trkpt>
      <trkpt lat="46.38021" lon="5.99879">
        <ele>1269</ele>
        <time>2018-05-10T13:47:18.000Z</time>
      </trkpt>
      <trkpt lat="46.38017" lon="5.99877">
        <ele>1269.1999511719</ele>
        <time>2018-05-10T13:47:23.000Z</time>
      </trkpt>
      <trkpt lat="46.38012" lon="5.99873">
        <ele>1269.4000244141</ele>
        <time>2018-05-10T13:47:27.000Z</time>
      </trkpt>
      <trkpt lat="46.38007" lon="5.9987">
        <ele>1269.4000244141</ele>
        <time>2018-05-10T13:47:31.000Z</time>
      </trkpt>
      <trkpt lat="46.38001" lon="5.99865">
        <ele>1269.5999755859</ele>
        <time>2018-05-10T13:47:39.000Z</time>
      </trkpt>
      <trkpt lat="46.37998" lon="5.99863">
        <ele>1269.5999755859</ele>
        <time>2018-05-10T13:47:47.000Z</time>
      </trkpt>
      <trkpt lat="46.37993" lon="5.99856">
        <ele>1269.4000244141</ele>
        <time>2018-05-10T13:47:56.000Z</time>
      </trkpt>
      <trkpt lat="46.37988" lon="5.9985">
        <ele>1269</ele>
        <time>2018-05-10T13:48:01.000Z</time>
      </trkpt>
      <trkpt lat="46.37984" lon="5.99838">
        <ele>1268</ele>
        <time>2018-05-10T13:48:08.000Z</time>
      </trkpt>
      <trkpt lat="46.37979" lon="5.99829">
        <ele>1267.1999511719</ele>
        <time>2018-05-10T13:48:14.000Z</time>
      </trkpt>
      <trkpt lat="46.37968" lon="5.99824">
        <ele>1267.5999755859</ele>
        <time>2018-05-10T13:48:21.000Z</time>
      </trkpt>
      <trkpt lat="46.37968" lon="5.99824">
        <ele>1267.5999755859</ele>
        <time>2018-05-10T13:48:23.000Z</time>
      </trkpt>
      <trkpt lat="46.37969" lon="5.99826">
        <ele>1267.8000488281</ele>
        <time>2018-05-10T13:48:29.000Z</time>
      </trkpt>
      <trkpt lat="46.37965" lon="5.99822">
        <ele>1267.5999755859</ele>
        <time>2018-05-10T13:48:34.000Z</time>
      </trkpt>
      <trkpt lat="46.37959" lon="5.99818">
        <ele>1267.5999755859</ele>
        <time>2018-05-10T13:48:40.000Z</time>
      </trkpt>
      <trkpt lat="46.3795" lon="5.99815">
        <ele>1268</ele>
        <time>2018-05-10T13:48:48.000Z</time>
      </trkpt>
      <trkpt lat="46.37945" lon="5.99815">
        <ele>1268.4000244141</ele>
        <time>2018-05-10T13:48:52.000Z</time>
      </trkpt>
      <trkpt lat="46.37939" lon="5.99812">
        <ele>1268.5999755859</ele>
        <time>2018-05-10T13:48:58.000Z</time>
      </trkpt>
      <trkpt lat="46.37933" lon="5.99806">
        <ele>1268.4000244141</ele>
        <time>2018-05-10T13:49:06.000Z</time>
      </trkpt>
      <trkpt lat="46.37926" lon="5.998">
        <ele>1268.1999511719</ele>
        <time>2018-05-10T13:49:12.000Z</time>
      </trkpt>
      <trkpt lat="46.37922" lon="5.99794">
        <ele>1267.8000488281</ele>
        <time>2018-05-10T13:49:17.000Z</time>
      </trkpt>
      <trkpt lat="46.37922" lon="5.99794">
        <ele>1267.8000488281</ele>
        <time>2018-05-10T13:49:17.000Z</time>
      </trkpt>
      <trkpt lat="46.37919" lon="5.99793">
        <ele>1268</ele>
        <time>2018-05-10T13:49:19.000Z</time>
      </trkpt>
      <trkpt lat="46.3791" lon="5.99785">
        <ele>1267.8000488281</ele>
        <time>2018-05-10T13:49:25.000Z</time>
      </trkpt>
      <trkpt lat="46.37899" lon="5.9978">
        <ele>1268.1999511719</ele>
        <time>2018-05-10T13:49:33.000Z</time>
      </trkpt>
      <trkpt lat="46.37892" lon="5.99774">
        <ele>1267</ele>
        <time>2018-05-10T13:49:39.000Z</time>
      </trkpt>
      <trkpt lat="46.37886" lon="5.99768">
        <ele>1265.5999755859</ele>
        <time>2018-05-10T13:49:48.000Z</time>
      </trkpt>
      <trkpt lat="46.37883" lon="5.99767">
        <ele>1265.4000244141</ele>
        <time>2018-05-10T13:49:51.000Z</time>
      </trkpt>
      <trkpt lat="46.37877" lon="5.99767">
        <ele>1264.8000488281</ele>
        <time>2018-05-10T13:49:56.000Z</time>
      </trkpt>
      <trkpt lat="46.37876" lon="5.99766">
        <ele>1264.5999755859</ele>
        <time>2018-05-10T13:50:01.000Z</time>
      </trkpt>
      <trkpt lat="46.37875" lon="5.99765">
        <ele>1264.4000244141</ele>
        <time>2018-05-10T13:50:05.000Z</time>
      </trkpt>
      <trkpt lat="46.37873" lon="5.99762">
        <ele>1263.8000488281</ele>
        <time>2018-05-10T13:50:08.000Z</time>
      </trkpt>
      <trkpt lat="46.37869" lon="5.99753">
        <ele>1262.1999511719</ele>
        <time>2018-05-10T13:50:14.000Z</time>
      </trkpt>
      <trkpt lat="46.37866" lon="5.99749">
        <ele>1261.4000244141</ele>
        <time>2018-05-10T13:50:19.000Z</time>
      </trkpt>
      <trkpt lat="46.37864" lon="5.99751">
        <ele>1261.5999755859</ele>
        <time>2018-05-10T13:50:27.000Z</time>
      </trkpt>
      <trkpt lat="46.37865" lon="5.99752">
        <ele>1261.8000488281</ele>
        <time>2018-05-10T13:50:31.000Z</time>
      </trkpt>
      <trkpt lat="46.37864" lon="5.99757">
        <ele>1262.1999511719</ele>
        <time>2018-05-10T13:50:42.000Z</time>
      </trkpt>
      <trkpt lat="46.37853" lon="5.99746">
        <ele>1260</ele>
        <time>2018-05-10T13:50:49.000Z</time>
      </trkpt>
      <trkpt lat="46.37844" lon="5.99737">
        <ele>1258</ele>
        <time>2018-05-10T13:50:58.000Z</time>
      </trkpt>
      <trkpt lat="46.37842" lon="5.99736">
        <ele>1257.8000488281</ele>
        <time>2018-05-10T13:50:59.000Z</time>
      </trkpt>
      <trkpt lat="46.37838" lon="5.99731">
        <ele>1256.5999755859</ele>
        <time>2018-05-10T13:51:06.000Z</time>
      </trkpt>
      <trkpt lat="46.37835" lon="5.99722">
        <ele>1255.4000244141</ele>
        <time>2018-05-10T13:51:12.000Z</time>
      </trkpt>
      <trkpt lat="46.37831" lon="5.9972">
        <ele>1255</ele>
        <time>2018-05-10T13:51:19.000Z</time>
      </trkpt>
      <trkpt lat="46.37828" lon="5.99719">
        <ele>1254.5999755859</ele>
        <time>2018-05-10T13:51:21.000Z</time>
      </trkpt>
      <trkpt lat="46.37821" lon="5.99714">
        <ele>1253.8000488281</ele>
        <time>2018-05-10T13:51:29.000Z</time>
      </trkpt>
      <trkpt lat="46.37813" lon="5.99709">
        <ele>1252.8000488281</ele>
        <time>2018-05-10T13:51:36.000Z</time>
      </trkpt>
      <trkpt lat="46.37803" lon="5.99708">
        <ele>1252.4000244141</ele>
        <time>2018-05-10T13:51:44.000Z</time>
      </trkpt>
      <trkpt lat="46.37799" lon="5.99709">
        <ele>1252.4000244141</ele>
        <time>2018-05-10T13:51:47.000Z</time>
      </trkpt>
      <trkpt lat="46.37783" lon="5.99711">
        <ele>1253.5999755859</ele>
        <time>2018-05-10T13:51:56.000Z</time>
      </trkpt>
      <trkpt lat="46.37775" lon="5.99709">
        <ele>1253.8000488281</ele>
        <time>2018-05-10T13:52:02.000Z</time>
      </trkpt>
      <trkpt lat="46.37771" lon="5.99703">
        <ele>1252.8000488281</ele>
        <time>2018-05-10T13:52:09.000Z</time>
      </trkpt>
      <trkpt lat="46.37767" lon="5.99692">
        <ele>1251.4000244141</ele>
        <time>2018-05-10T13:52:15.000Z</time>
      </trkpt>
      <trkpt lat="46.37763" lon="5.99686">
        <ele>1250.5999755859</ele>
        <time>2018-05-10T13:52:19.000Z</time>
      </trkpt>
      <trkpt lat="46.37758" lon="5.99677">
        <ele>1249.4000244141</ele>
        <time>2018-05-10T13:52:26.000Z</time>
      </trkpt>
      <trkpt lat="46.37755" lon="5.99667">
        <ele>1248</ele>
        <time>2018-05-10T13:52:32.000Z</time>
      </trkpt>
      <trkpt lat="46.37749" lon="5.99653">
        <ele>1246.4000244141</ele>
        <time>2018-05-10T13:52:41.000Z</time>
      </trkpt>
      <trkpt lat="46.37743" lon="5.99639">
        <ele>1245</ele>
        <time>2018-05-10T13:52:51.000Z</time>
      </trkpt>
      <trkpt lat="46.37742" lon="5.99636">
        <ele>1244.5999755859</ele>
        <time>2018-05-10T13:52:57.000Z</time>
      </trkpt>
      <trkpt lat="46.37732" lon="5.99628">
        <ele>1243</ele>
        <time>2018-05-10T13:53:15.000Z</time>
      </trkpt>
      <trkpt lat="46.37722" lon="5.99621">
        <ele>1242</ele>
        <time>2018-05-10T13:53:26.000Z</time>
      </trkpt>
      <trkpt lat="46.37719" lon="5.99616">
        <ele>1241.4000244141</ele>
        <time>2018-05-10T13:53:32.000Z</time>
      </trkpt>
      <trkpt lat="46.37712" lon="5.99608">
        <ele>1240.4000244141</ele>
        <time>2018-05-10T13:53:41.000Z</time>
      </trkpt>
      <trkpt lat="46.37705" lon="5.99602">
        <ele>1239.8000488281</ele>
        <time>2018-05-10T13:53:49.000Z</time>
      </trkpt>
      <trkpt lat="46.37697" lon="5.99599">
        <ele>1239.5999755859</ele>
        <time>2018-05-10T13:53:58.000Z</time>
      </trkpt>
      <trkpt lat="46.37697" lon="5.99599">
        <ele>1239.5999755859</ele>
        <time>2018-05-10T13:54:00.000Z</time>
      </trkpt>
      <trkpt lat="46.37695" lon="5.99602">
        <ele>1240</ele>
        <time>2018-05-10T13:54:11.000Z</time>
      </trkpt>
      <trkpt lat="46.37693" lon="5.99602">
        <ele>1240.1999511719</ele>
        <time>2018-05-10T13:54:19.000Z</time>
      </trkpt>
      <trkpt lat="46.37687" lon="5.99601">
        <ele>1240.4000244141</ele>
        <time>2018-05-10T13:54:25.000Z</time>
      </trkpt>
      <trkpt lat="46.37678" lon="5.99604">
        <ele>1241.5999755859</ele>
        <time>2018-05-10T13:54:32.000Z</time>
      </trkpt>
      <trkpt lat="46.37672" lon="5.99602">
        <ele>1241.8000488281</ele>
        <time>2018-05-10T13:54:38.000Z</time>
      </trkpt>
      <trkpt lat="46.37663" lon="5.99602">
        <ele>1242.4000244141</ele>
        <time>2018-05-10T13:54:47.000Z</time>
      </trkpt>
      <trkpt lat="46.37661" lon="5.99602">
        <ele>1242.4000244141</ele>
        <time>2018-05-10T13:54:48.000Z</time>
      </trkpt>
      <trkpt lat="46.3766" lon="5.99601">
        <ele>1242.1999511719</ele>
        <time>2018-05-10T13:54:55.000Z</time>
      </trkpt>
      <trkpt lat="46.3766" lon="5.996">
        <ele>1242.1999511719</ele>
        <time>2018-05-10T13:54:57.000Z</time>
      </trkpt>
      <trkpt lat="46.37659" lon="5.99587">
        <ele>1239.5999755859</ele>
        <time>2018-05-10T13:55:53.000Z</time>
      </trkpt>
      <trkpt lat="46.37659" lon="5.99583">
        <ele>1238.8000488281</ele>
        <time>2018-05-10T13:55:55.000Z</time>
      </trkpt>
      <trkpt lat="46.3766" lon="5.99562">
        <ele>1235.1999511719</ele>
        <time>2018-05-10T13:56:05.000Z</time>
      </trkpt>
      <trkpt lat="46.37663" lon="5.99544">
        <ele>1234</ele>
        <time>2018-05-10T13:56:15.000Z</time>
      </trkpt>
      <trkpt lat="46.37665" lon="5.99535">
        <ele>1233.5999755859</ele>
        <time>2018-05-10T13:56:21.000Z</time>
      </trkpt>
      <trkpt lat="46.37665" lon="5.99534">
        <ele>1233.5999755859</ele>
        <time>2018-05-10T13:56:23.000Z</time>
      </trkpt>
      <trkpt lat="46.37665" lon="5.99527">
        <ele>1233.1999511719</ele>
        <time>2018-05-10T13:56:28.000Z</time>
      </trkpt>
      <trkpt lat="46.37666" lon="5.99514">
        <ele>1232.8000488281</ele>
        <time>2018-05-10T13:56:36.000Z</time>
      </trkpt>
      <trkpt lat="46.37666" lon="5.99499">
        <ele>1232.1999511719</ele>
        <time>2018-05-10T13:56:44.000Z</time>
      </trkpt>
      <trkpt lat="46.37666" lon="5.99497">
        <ele>1232.1999511719</ele>
        <time>2018-05-10T13:56:46.000Z</time>
      </trkpt>
      <trkpt lat="46.37667" lon="5.9949">
        <ele>1231.8000488281</ele>
        <time>2018-05-10T13:56:51.000Z</time>
      </trkpt>
      <trkpt lat="46.37668" lon="5.99485">
        <ele>1231.5999755859</ele>
        <time>2018-05-10T13:56:54.000Z</time>
      </trkpt>
      <trkpt lat="46.37673" lon="5.99467">
        <ele>1230.8000488281</ele>
        <time>2018-05-10T13:57:05.000Z</time>
      </trkpt>
      <trkpt lat="46.37677" lon="5.99456">
        <ele>1230.5999755859</ele>
        <time>2018-05-10T13:57:13.000Z</time>
      </trkpt>
      <trkpt lat="46.37677" lon="5.99455">
        <ele>1230.5999755859</ele>
        <time>2018-05-10T13:57:16.000Z</time>
      </trkpt>
      <trkpt lat="46.37678" lon="5.99453">
        <ele>1230.5999755859</ele>
        <time>2018-05-10T13:57:20.000Z</time>
      </trkpt>
      <trkpt lat="46.37685" lon="5.99439">
        <ele>1230.1999511719</ele>
        <time>2018-05-10T13:57:28.000Z</time>
      </trkpt>
      <trkpt lat="46.37692" lon="5.99423">
        <ele>1230</ele>
        <time>2018-05-10T13:57:37.000Z</time>
      </trkpt>
      <trkpt lat="46.37697" lon="5.99414">
        <ele>1230</ele>
        <time>2018-05-10T13:57:45.000Z</time>
      </trkpt>
      <trkpt lat="46.37701" lon="5.99403">
        <ele>1230</ele>
        <time>2018-05-10T13:57:52.000Z</time>
      </trkpt>
      <trkpt lat="46.37708" lon="5.9939">
        <ele>1229.8000488281</ele>
        <time>2018-05-10T13:58:01.000Z</time>
      </trkpt>
      <trkpt lat="46.37716" lon="5.99375">
        <ele>1230</ele>
        <time>2018-05-10T13:58:11.000Z</time>
      </trkpt>
      <trkpt lat="46.37723" lon="5.99363">
        <ele>1230</ele>
        <time>2018-05-10T13:58:19.000Z</time>
      </trkpt>
      <trkpt lat="46.37734" lon="5.99353">
        <ele>1230.1999511719</ele>
        <time>2018-05-10T13:58:29.000Z</time>
      </trkpt>
      <trkpt lat="46.37736" lon="5.99351">
        <ele>1230.5999755859</ele>
        <time>2018-05-10T13:58:33.000Z</time>
      </trkpt>
      <trkpt lat="46.37749" lon="5.99335">
        <ele>1232.5999755859</ele>
        <time>2018-05-10T13:58:45.000Z</time>
      </trkpt>
      <trkpt lat="46.37759" lon="5.9933">
        <ele>1233.4000244141</ele>
        <time>2018-05-10T13:58:53.000Z</time>
      </trkpt>
      <trkpt lat="46.3777" lon="5.99326">
        <ele>1233.5999755859</ele>
        <time>2018-05-10T13:59:01.000Z</time>
      </trkpt>
      <trkpt lat="46.37781" lon="5.99321">
        <ele>1234</ele>
        <time>2018-05-10T13:59:10.000Z</time>
      </trkpt>
      <trkpt lat="46.37789" lon="5.99319">
        <ele>1234.1999511719</ele>
        <time>2018-05-10T13:59:16.000Z</time>
      </trkpt>
      <trkpt lat="46.37799" lon="5.99314">
        <ele>1234.5999755859</ele>
        <time>2018-05-10T13:59:25.000Z</time>
      </trkpt>
      <trkpt lat="46.37806" lon="5.99306">
        <ele>1234.8000488281</ele>
        <time>2018-05-10T13:59:33.000Z</time>
      </trkpt>
      <trkpt lat="46.37815" lon="5.99294">
        <ele>1235.5999755859</ele>
        <time>2018-05-10T13:59:43.000Z</time>
      </trkpt>
      <trkpt lat="46.37821" lon="5.99281">
        <ele>1236.1999511719</ele>
        <time>2018-05-10T13:59:51.000Z</time>
      </trkpt>
      <trkpt lat="46.37829" lon="5.99266">
        <ele>1236.8000488281</ele>
        <time>2018-05-10T14:00:00.000Z</time>
      </trkpt>
      <trkpt lat="46.37832" lon="5.99256">
        <ele>1237.1999511719</ele>
        <time>2018-05-10T14:00:06.000Z</time>
      </trkpt>
      <trkpt lat="46.37833" lon="5.99255">
        <ele>1237.4000244141</ele>
        <time>2018-05-10T14:00:09.000Z</time>
      </trkpt>
      <trkpt lat="46.37834" lon="5.99253">
        <ele>1237.4000244141</ele>
        <time>2018-05-10T14:00:12.000Z</time>
      </trkpt>
      <trkpt lat="46.37839" lon="5.9924">
        <ele>1237.4000244141</ele>
        <time>2018-05-10T14:00:19.000Z</time>
      </trkpt>
      <trkpt lat="46.37843" lon="5.9923">
        <ele>1236.8000488281</ele>
        <time>2018-05-10T14:00:27.000Z</time>
      </trkpt>
      <trkpt lat="46.37843" lon="5.9923">
        <ele>1236.8000488281</ele>
        <time>2018-05-10T14:00:28.000Z</time>
      </trkpt>
      <trkpt lat="46.37846" lon="5.99224">
        <ele>1236.4000244141</ele>
        <time>2018-05-10T14:00:33.000Z</time>
      </trkpt>
      <trkpt lat="46.37853" lon="5.99207">
        <ele>1236</ele>
        <time>2018-05-10T14:00:43.000Z</time>
      </trkpt>
      <trkpt lat="46.3786" lon="5.99192">
        <ele>1235.5999755859</ele>
        <time>2018-05-10T14:00:53.000Z</time>
      </trkpt>
      <trkpt lat="46.3787" lon="5.99175">
        <ele>1236</ele>
        <time>2018-05-10T14:01:05.000Z</time>
      </trkpt>
      <trkpt lat="46.37878" lon="5.99161">
        <ele>1236.5999755859</ele>
        <time>2018-05-10T14:01:15.000Z</time>
      </trkpt>
      <trkpt lat="46.37884" lon="5.99152">
        <ele>1236.8000488281</ele>
        <time>2018-05-10T14:01:22.000Z</time>
      </trkpt>
      <trkpt lat="46.37894" lon="5.99141">
        <ele>1237.1999511719</ele>
        <time>2018-05-10T14:01:32.000Z</time>
      </trkpt>
      <trkpt lat="46.37904" lon="5.99133">
        <ele>1238</ele>
        <time>2018-05-10T14:01:41.000Z</time>
      </trkpt>
      <trkpt lat="46.37913" lon="5.99123">
        <ele>1239.4000244141</ele>
        <time>2018-05-10T14:01:51.000Z</time>
      </trkpt>
      <trkpt lat="46.37916" lon="5.99123">
        <ele>1239.5999755859</ele>
        <time>2018-05-10T14:01:54.000Z</time>
      </trkpt>
      <trkpt lat="46.37919" lon="5.99117">
        <ele>1240.4000244141</ele>
        <time>2018-05-10T14:01:59.000Z</time>
      </trkpt>
      <trkpt lat="46.37925" lon="5.99099">
        <ele>1242</ele>
        <time>2018-05-10T14:02:10.000Z</time>
      </trkpt>
      <trkpt lat="46.37931" lon="5.99085">
        <ele>1243.1999511719</ele>
        <time>2018-05-10T14:02:19.000Z</time>
      </trkpt>
      <trkpt lat="46.37936" lon="5.9907">
        <ele>1244</ele>
        <time>2018-05-10T14:02:29.000Z</time>
      </trkpt>
      <trkpt lat="46.37937" lon="5.99053">
        <ele>1244.8000488281</ele>
        <time>2018-05-10T14:02:39.000Z</time>
      </trkpt>
      <trkpt lat="46.37934" lon="5.99039">
        <ele>1245.5999755859</ele>
        <time>2018-05-10T14:02:48.000Z</time>
      </trkpt>
      <trkpt lat="46.37926" lon="5.99025">
        <ele>1246.4000244141</ele>
        <time>2018-05-10T14:02:59.000Z</time>
      </trkpt>
      <trkpt lat="46.37923" lon="5.9902">
        <ele>1246.5999755859</ele>
        <time>2018-05-10T14:03:03.000Z</time>
      </trkpt>
      <trkpt lat="46.37922" lon="5.99018">
        <ele>1246.8000488281</ele>
        <time>2018-05-10T14:03:07.000Z</time>
      </trkpt>
      <trkpt lat="46.37919" lon="5.99007">
        <ele>1247.4000244141</ele>
        <time>2018-05-10T14:03:37.000Z</time>
      </trkpt>
      <trkpt lat="46.37913" lon="5.98987">
        <ele>1248.5999755859</ele>
        <time>2018-05-10T14:03:47.000Z</time>
      </trkpt>
      <trkpt lat="46.37908" lon="5.98967">
        <ele>1249</ele>
        <time>2018-05-10T14:03:57.000Z</time>
      </trkpt>
      <trkpt lat="46.37906" lon="5.98959">
        <ele>1248.8000488281</ele>
        <time>2018-05-10T14:04:01.000Z</time>
      </trkpt>
      <trkpt lat="46.37903" lon="5.98951">
        <ele>1248.8000488281</ele>
        <time>2018-05-10T14:04:05.000Z</time>
      </trkpt>
      <trkpt lat="46.37897" lon="5.98934">
        <ele>1248.4000244141</ele>
        <time>2018-05-10T14:04:14.000Z</time>
      </trkpt>
      <trkpt lat="46.37897" lon="5.98921">
        <ele>1248.4000244141</ele>
        <time>2018-05-10T14:04:20.000Z</time>
      </trkpt>
      <trkpt lat="46.379" lon="5.98907">
        <ele>1248.1999511719</ele>
        <time>2018-05-10T14:04:28.000Z</time>
      </trkpt>
      <trkpt lat="46.37902" lon="5.98894">
        <ele>1248</ele>
        <time>2018-05-10T14:04:35.000Z</time>
      </trkpt>
      <trkpt lat="46.37907" lon="5.98879">
        <ele>1247</ele>
        <time>2018-05-10T14:04:44.000Z</time>
      </trkpt>
      <trkpt lat="46.37913" lon="5.98863">
        <ele>1245.8000488281</ele>
        <time>2018-05-10T14:04:54.000Z</time>
      </trkpt>
      <trkpt lat="46.37918" lon="5.9885">
        <ele>1244.8000488281</ele>
        <time>2018-05-10T14:05:02.000Z</time>
      </trkpt>
      <trkpt lat="46.37923" lon="5.98834">
        <ele>1243.5999755859</ele>
        <time>2018-05-10T14:05:11.000Z</time>
      </trkpt>
      <trkpt lat="46.37927" lon="5.98816">
        <ele>1243</ele>
        <time>2018-05-10T14:05:21.000Z</time>
      </trkpt>
      <trkpt lat="46.37927" lon="5.9881">
        <ele>1242.8000488281</ele>
        <time>2018-05-10T14:05:24.000Z</time>
      </trkpt>
      <trkpt lat="46.37926" lon="5.98807">
        <ele>1242.5999755859</ele>
        <time>2018-05-10T14:05:29.000Z</time>
      </trkpt>
      <trkpt lat="46.37925" lon="5.98803">
        <ele>1242.4000244141</ele>
        <time>2018-05-10T14:06:17.000Z</time>
      </trkpt>
      <trkpt lat="46.37917" lon="5.98795">
        <ele>1241.5999755859</ele>
        <time>2018-05-10T14:06:24.000Z</time>
      </trkpt>
      <trkpt lat="46.37911" lon="5.98791">
        <ele>1241</ele>
        <time>2018-05-10T14:06:32.000Z</time>
      </trkpt>
      <trkpt lat="46.37905" lon="5.98787">
        <ele>1240.4000244141</ele>
        <time>2018-05-10T14:06:38.000Z</time>
      </trkpt>
      <trkpt lat="46.37898" lon="5.98787">
        <ele>1240</ele>
        <time>2018-05-10T14:06:45.000Z</time>
      </trkpt>
      <trkpt lat="46.37895" lon="5.98785">
        <ele>1239.8000488281</ele>
        <time>2018-05-10T14:06:49.000Z</time>
      </trkpt>
      <trkpt lat="46.37895" lon="5.98785">
        <ele>1239.8000488281</ele>
        <time>2018-05-10T14:06:52.000Z</time>
      </trkpt>
      <trkpt lat="46.37893" lon="5.98786">
        <ele>1239.8000488281</ele>
        <time>2018-05-10T14:06:55.000Z</time>
      </trkpt>
      <trkpt lat="46.37894" lon="5.98788">
        <ele>1240</ele>
        <time>2018-05-10T14:07:18.000Z</time>
      </trkpt>
      <trkpt lat="46.37894" lon="5.98789">
        <ele>1240</ele>
        <time>2018-05-10T14:07:25.000Z</time>
      </trkpt>
      <trkpt lat="46.37884" lon="5.98793">
        <ele>1239.8000488281</ele>
        <time>2018-05-10T14:08:21.000Z</time>
      </trkpt>
      <trkpt lat="46.37874" lon="5.98794">
        <ele>1240</ele>
        <time>2018-05-10T14:08:27.000Z</time>
      </trkpt>
      <trkpt lat="46.37866" lon="5.9879">
        <ele>1239.5999755859</ele>
        <time>2018-05-10T14:08:33.000Z</time>
      </trkpt>
      <trkpt lat="46.37853" lon="5.98783">
        <ele>1239</ele>
        <time>2018-05-10T14:08:41.000Z</time>
      </trkpt>
      <trkpt lat="46.37842" lon="5.98771">
        <ele>1238.1999511719</ele>
        <time>2018-05-10T14:08:49.000Z</time>
      </trkpt>
      <trkpt lat="46.37831" lon="5.98762">
        <ele>1237.4000244141</ele>
        <time>2018-05-10T14:08:57.000Z</time>
      </trkpt>
      <trkpt lat="46.3782" lon="5.98758">
        <ele>1237.1999511719</ele>
        <time>2018-05-10T14:09:05.000Z</time>
      </trkpt>
      <trkpt lat="46.37813" lon="5.98755">
        <ele>1236.5999755859</ele>
        <time>2018-05-10T14:09:12.000Z</time>
      </trkpt>
      <trkpt lat="46.37804" lon="5.98749">
        <ele>1234.5999755859</ele>
        <time>2018-05-10T14:09:19.000Z</time>
      </trkpt>
      <trkpt lat="46.37796" lon="5.98743">
        <ele>1232.5999755859</ele>
        <time>2018-05-10T14:09:26.000Z</time>
      </trkpt>
    </trkseg>
  </trk>
</gpx>